<?xml version="1.0" encoding="UTF-8" standalone="no" ?>
<gpx xmlns="http://www.topografix.com/GPX/1/1" xmlns:xsi="http://www.w3.org/2001/XMLSchema-instance" xsi:schemaLocation="http://www.topografix.com/GPX/1/1 http://www.topografix.com/GPX/1/1/gpx.xsd" version="1.1" creator="VisuGPX - https://www.visugpx.com">
  <metadata>
    <name>Sortie gravel le matin</name>
  </metadata>
  <trk>
    <name><![CDATA[Sortie gravel le matin_1]]></name>
    <trkseg>
      <trkpt lat="43.58697" lon="1.32241">
        <ele>193</ele>
        <time>2023-04-19T04:49:44Z</time>
      </trkpt>
      <trkpt lat="43.58697" lon="1.32241">
        <ele>185.4</ele>
        <time>2023-04-19T04:49:51Z</time>
      </trkpt>
      <trkpt lat="43.58697" lon="1.32241">
        <ele>185.4</ele>
        <time>2023-04-19T04:49:52Z</time>
      </trkpt>
      <trkpt lat="43.58679" lon="1.32239">
        <ele>185.8</ele>
        <time>2023-04-19T04:50:52Z</time>
      </trkpt>
      <trkpt lat="43.58679" lon="1.32247">
        <ele>185.8</ele>
        <time>2023-04-19T04:50:54Z</time>
      </trkpt>
      <trkpt lat="43.58679" lon="1.32274">
        <ele>185.6</ele>
        <time>2023-04-19T04:50:59Z</time>
      </trkpt>
      <trkpt lat="43.5868" lon="1.32283">
        <ele>185.6</ele>
        <time>2023-04-19T04:51:01Z</time>
      </trkpt>
      <trkpt lat="43.58683" lon="1.32284">
        <ele>185.4</ele>
        <time>2023-04-19T04:51:02Z</time>
      </trkpt>
      <trkpt lat="43.58694" lon="1.32276">
        <ele>185.6</ele>
        <time>2023-04-19T04:51:06Z</time>
      </trkpt>
      <trkpt lat="43.58712" lon="1.32258">
        <ele>186</ele>
        <time>2023-04-19T04:51:12Z</time>
      </trkpt>
      <trkpt lat="43.58722" lon="1.32247">
        <ele>186.4</ele>
        <time>2023-04-19T04:51:15Z</time>
      </trkpt>
      <trkpt lat="43.58736" lon="1.32232">
        <ele>187.2</ele>
        <time>2023-04-19T04:51:19Z</time>
      </trkpt>
      <trkpt lat="43.58743" lon="1.32225">
        <ele>187.4</ele>
        <time>2023-04-19T04:51:21Z</time>
      </trkpt>
      <trkpt lat="43.58773" lon="1.32196">
        <ele>188.2</ele>
        <time>2023-04-19T04:51:29Z</time>
      </trkpt>
      <trkpt lat="43.58799" lon="1.32169">
        <ele>188.2</ele>
        <time>2023-04-19T04:51:36Z</time>
      </trkpt>
      <trkpt lat="43.58806" lon="1.32163">
        <ele>188.2</ele>
        <time>2023-04-19T04:51:38Z</time>
      </trkpt>
      <trkpt lat="43.58809" lon="1.32157">
        <ele>188.4</ele>
        <time>2023-04-19T04:51:40Z</time>
      </trkpt>
      <trkpt lat="43.5881" lon="1.32154">
        <ele>188.4</ele>
        <time>2023-04-19T04:51:41Z</time>
      </trkpt>
      <trkpt lat="43.58812" lon="1.32143">
        <ele>188.6</ele>
        <time>2023-04-19T04:51:44Z</time>
      </trkpt>
      <trkpt lat="43.58814" lon="1.32138">
        <ele>188.6</ele>
        <time>2023-04-19T04:51:45Z</time>
      </trkpt>
      <trkpt lat="43.58816" lon="1.32128">
        <ele>188.6</ele>
        <time>2023-04-19T04:51:47Z</time>
      </trkpt>
      <trkpt lat="43.58822" lon="1.32118">
        <ele>188.6</ele>
        <time>2023-04-19T04:51:49Z</time>
      </trkpt>
      <trkpt lat="43.58847" lon="1.32094">
        <ele>188.4</ele>
        <time>2023-04-19T04:51:55Z</time>
      </trkpt>
      <trkpt lat="43.58887" lon="1.32056">
        <ele>188.8</ele>
        <time>2023-04-19T04:52:04Z</time>
      </trkpt>
      <trkpt lat="43.58926" lon="1.32018">
        <ele>189</ele>
        <time>2023-04-19T04:52:13Z</time>
      </trkpt>
      <trkpt lat="43.58934" lon="1.32012">
        <ele>189</ele>
        <time>2023-04-19T04:52:15Z</time>
      </trkpt>
      <trkpt lat="43.58938" lon="1.32011">
        <ele>189</ele>
        <time>2023-04-19T04:52:16Z</time>
      </trkpt>
      <trkpt lat="43.58942" lon="1.32012">
        <ele>189</ele>
        <time>2023-04-19T04:52:17Z</time>
      </trkpt>
      <trkpt lat="43.58951" lon="1.32009">
        <ele>189.2</ele>
        <time>2023-04-19T04:52:19Z</time>
      </trkpt>
      <trkpt lat="43.58956" lon="1.32005">
        <ele>189.2</ele>
        <time>2023-04-19T04:52:20Z</time>
      </trkpt>
      <trkpt lat="43.58976" lon="1.31993">
        <ele>189</ele>
        <time>2023-04-19T04:52:24Z</time>
      </trkpt>
      <trkpt lat="43.58985" lon="1.31985">
        <ele>188.8</ele>
        <time>2023-04-19T04:52:26Z</time>
      </trkpt>
      <trkpt lat="43.59018" lon="1.31953">
        <ele>188.8</ele>
        <time>2023-04-19T04:52:34Z</time>
      </trkpt>
      <trkpt lat="43.59032" lon="1.31938">
        <ele>189</ele>
        <time>2023-04-19T04:52:37Z</time>
      </trkpt>
      <trkpt lat="43.59043" lon="1.31919">
        <ele>189</ele>
        <time>2023-04-19T04:52:40Z</time>
      </trkpt>
      <trkpt lat="43.59051" lon="1.31907">
        <ele>189</ele>
        <time>2023-04-19T04:52:42Z</time>
      </trkpt>
      <trkpt lat="43.59061" lon="1.31899">
        <ele>189.2</ele>
        <time>2023-04-19T04:52:44Z</time>
      </trkpt>
      <trkpt lat="43.59066" lon="1.31895">
        <ele>189.2</ele>
        <time>2023-04-19T04:52:45Z</time>
      </trkpt>
      <trkpt lat="43.59075" lon="1.31884">
        <ele>189.4</ele>
        <time>2023-04-19T04:52:47Z</time>
      </trkpt>
      <trkpt lat="43.59079" lon="1.31878">
        <ele>189.4</ele>
        <time>2023-04-19T04:52:48Z</time>
      </trkpt>
      <trkpt lat="43.59083" lon="1.31872">
        <ele>189.4</ele>
        <time>2023-04-19T04:52:49Z</time>
      </trkpt>
      <trkpt lat="43.59103" lon="1.3185">
        <ele>189.4</ele>
        <time>2023-04-19T04:52:53Z</time>
      </trkpt>
      <trkpt lat="43.5915" lon="1.31806">
        <ele>189</ele>
        <time>2023-04-19T04:53:03Z</time>
      </trkpt>
      <trkpt lat="43.59158" lon="1.318">
        <ele>188.8</ele>
        <time>2023-04-19T04:53:06Z</time>
      </trkpt>
      <trkpt lat="43.59162" lon="1.31798">
        <ele>188.8</ele>
        <time>2023-04-19T04:53:07Z</time>
      </trkpt>
      <trkpt lat="43.59166" lon="1.31796">
        <ele>188.8</ele>
        <time>2023-04-19T04:53:08Z</time>
      </trkpt>
      <trkpt lat="43.5919" lon="1.31784">
        <ele>188.8</ele>
        <time>2023-04-19T04:53:13Z</time>
      </trkpt>
      <trkpt lat="43.59225" lon="1.31769">
        <ele>188.4</ele>
        <time>2023-04-19T04:53:20Z</time>
      </trkpt>
      <trkpt lat="43.59239" lon="1.31761">
        <ele>188.4</ele>
        <time>2023-04-19T04:53:23Z</time>
      </trkpt>
      <trkpt lat="43.59248" lon="1.31761">
        <ele>188.4</ele>
        <time>2023-04-19T04:53:25Z</time>
      </trkpt>
      <trkpt lat="43.59268" lon="1.31768">
        <ele>188.4</ele>
        <time>2023-04-19T04:53:29Z</time>
      </trkpt>
      <trkpt lat="43.59285" lon="1.31771">
        <ele>188.4</ele>
        <time>2023-04-19T04:53:32Z</time>
      </trkpt>
      <trkpt lat="43.5929" lon="1.31773">
        <ele>188.4</ele>
        <time>2023-04-19T04:53:33Z</time>
      </trkpt>
      <trkpt lat="43.59303" lon="1.31779">
        <ele>188.4</ele>
        <time>2023-04-19T04:53:36Z</time>
      </trkpt>
      <trkpt lat="43.59315" lon="1.31785">
        <ele>188.4</ele>
        <time>2023-04-19T04:53:38Z</time>
      </trkpt>
      <trkpt lat="43.59328" lon="1.31787">
        <ele>188.4</ele>
        <time>2023-04-19T04:53:40Z</time>
      </trkpt>
      <trkpt lat="43.59341" lon="1.31783">
        <ele>188.4</ele>
        <time>2023-04-19T04:53:43Z</time>
      </trkpt>
      <trkpt lat="43.59343" lon="1.3178">
        <ele>188.4</ele>
        <time>2023-04-19T04:53:44Z</time>
      </trkpt>
      <trkpt lat="43.59349" lon="1.31772">
        <ele>188.4</ele>
        <time>2023-04-19T04:53:46Z</time>
      </trkpt>
      <trkpt lat="43.59356" lon="1.31766">
        <ele>188.4</ele>
        <time>2023-04-19T04:53:48Z</time>
      </trkpt>
      <trkpt lat="43.59366" lon="1.3176">
        <ele>188.4</ele>
        <time>2023-04-19T04:53:50Z</time>
      </trkpt>
      <trkpt lat="43.5938" lon="1.3175">
        <ele>188.4</ele>
        <time>2023-04-19T04:53:53Z</time>
      </trkpt>
      <trkpt lat="43.5939" lon="1.31742">
        <ele>188.4</ele>
        <time>2023-04-19T04:53:55Z</time>
      </trkpt>
      <trkpt lat="43.59401" lon="1.31738">
        <ele>188.6</ele>
        <time>2023-04-19T04:53:57Z</time>
      </trkpt>
      <trkpt lat="43.59407" lon="1.31737">
        <ele>188.6</ele>
        <time>2023-04-19T04:53:58Z</time>
      </trkpt>
      <trkpt lat="43.59419" lon="1.31737">
        <ele>188.6</ele>
        <time>2023-04-19T04:54:00Z</time>
      </trkpt>
      <trkpt lat="43.59425" lon="1.31735">
        <ele>188.6</ele>
        <time>2023-04-19T04:54:01Z</time>
      </trkpt>
      <trkpt lat="43.59429" lon="1.31733">
        <ele>188.6</ele>
        <time>2023-04-19T04:54:02Z</time>
      </trkpt>
      <trkpt lat="43.59434" lon="1.31732">
        <ele>188.6</ele>
        <time>2023-04-19T04:54:03Z</time>
      </trkpt>
      <trkpt lat="43.59444" lon="1.31732">
        <ele>188.6</ele>
        <time>2023-04-19T04:54:05Z</time>
      </trkpt>
      <trkpt lat="43.59486" lon="1.31735">
        <ele>188.2</ele>
        <time>2023-04-19T04:54:13Z</time>
      </trkpt>
      <trkpt lat="43.59493" lon="1.31741">
        <ele>188.2</ele>
        <time>2023-04-19T04:54:15Z</time>
      </trkpt>
      <trkpt lat="43.59494" lon="1.31747">
        <ele>188.2</ele>
        <time>2023-04-19T04:54:16Z</time>
      </trkpt>
      <trkpt lat="43.59494" lon="1.31754">
        <ele>188.2</ele>
        <time>2023-04-19T04:54:17Z</time>
      </trkpt>
      <trkpt lat="43.59493" lon="1.31783">
        <ele>188.4</ele>
        <time>2023-04-19T04:54:21Z</time>
      </trkpt>
      <trkpt lat="43.59492" lon="1.31837">
        <ele>188.6</ele>
        <time>2023-04-19T04:54:28Z</time>
      </trkpt>
      <trkpt lat="43.59491" lon="1.31888">
        <ele>188.6</ele>
        <time>2023-04-19T04:54:35Z</time>
      </trkpt>
      <trkpt lat="43.59497" lon="1.31917">
        <ele>188.6</ele>
        <time>2023-04-19T04:54:39Z</time>
      </trkpt>
      <trkpt lat="43.59515" lon="1.31955">
        <ele>189</ele>
        <time>2023-04-19T04:54:45Z</time>
      </trkpt>
      <trkpt lat="43.59521" lon="1.31967">
        <ele>189</ele>
        <time>2023-04-19T04:54:47Z</time>
      </trkpt>
      <trkpt lat="43.59529" lon="1.31976">
        <ele>188.8</ele>
        <time>2023-04-19T04:54:49Z</time>
      </trkpt>
      <trkpt lat="43.59557" lon="1.31994">
        <ele>188</ele>
        <time>2023-04-19T04:54:55Z</time>
      </trkpt>
      <trkpt lat="43.59562" lon="1.31995">
        <ele>187.8</ele>
        <time>2023-04-19T04:54:56Z</time>
      </trkpt>
      <trkpt lat="43.59568" lon="1.31994">
        <ele>187.8</ele>
        <time>2023-04-19T04:54:57Z</time>
      </trkpt>
      <trkpt lat="43.59578" lon="1.31993">
        <ele>187.4</ele>
        <time>2023-04-19T04:54:59Z</time>
      </trkpt>
      <trkpt lat="43.59582" lon="1.31995">
        <ele>187.4</ele>
        <time>2023-04-19T04:55:00Z</time>
      </trkpt>
      <trkpt lat="43.59586" lon="1.31999">
        <ele>187.4</ele>
        <time>2023-04-19T04:55:01Z</time>
      </trkpt>
      <trkpt lat="43.59591" lon="1.32011">
        <ele>187.4</ele>
        <time>2023-04-19T04:55:03Z</time>
      </trkpt>
      <trkpt lat="43.59594" lon="1.32019">
        <ele>187.4</ele>
        <time>2023-04-19T04:55:04Z</time>
      </trkpt>
      <trkpt lat="43.59601" lon="1.32028">
        <ele>187.4</ele>
        <time>2023-04-19T04:55:06Z</time>
      </trkpt>
      <trkpt lat="43.59616" lon="1.32039">
        <ele>187.4</ele>
        <time>2023-04-19T04:55:09Z</time>
      </trkpt>
      <trkpt lat="43.59636" lon="1.32054">
        <ele>187.4</ele>
        <time>2023-04-19T04:55:13Z</time>
      </trkpt>
      <trkpt lat="43.59685" lon="1.3209">
        <ele>187.4</ele>
        <time>2023-04-19T04:55:22Z</time>
      </trkpt>
      <trkpt lat="43.59696" lon="1.32098">
        <ele>187.4</ele>
        <time>2023-04-19T04:55:24Z</time>
      </trkpt>
      <trkpt lat="43.59746" lon="1.32135">
        <ele>187.4</ele>
        <time>2023-04-19T04:55:33Z</time>
      </trkpt>
      <trkpt lat="43.59752" lon="1.3214">
        <ele>187.4</ele>
        <time>2023-04-19T04:55:34Z</time>
      </trkpt>
      <trkpt lat="43.59762" lon="1.32147">
        <ele>187.2</ele>
        <time>2023-04-19T04:55:36Z</time>
      </trkpt>
      <trkpt lat="43.59772" lon="1.32151">
        <ele>187.2</ele>
        <time>2023-04-19T04:55:38Z</time>
      </trkpt>
      <trkpt lat="43.59784" lon="1.3215">
        <ele>187.2</ele>
        <time>2023-04-19T04:55:41Z</time>
      </trkpt>
      <trkpt lat="43.59789" lon="1.32155">
        <ele>187.2</ele>
        <time>2023-04-19T04:55:43Z</time>
      </trkpt>
      <trkpt lat="43.5979" lon="1.32158">
        <ele>187.2</ele>
        <time>2023-04-19T04:55:44Z</time>
      </trkpt>
      <trkpt lat="43.59792" lon="1.32164">
        <ele>187.2</ele>
        <time>2023-04-19T04:55:45Z</time>
      </trkpt>
      <trkpt lat="43.59797" lon="1.32173">
        <ele>187</ele>
        <time>2023-04-19T04:55:47Z</time>
      </trkpt>
      <trkpt lat="43.59802" lon="1.32177">
        <ele>187</ele>
        <time>2023-04-19T04:55:48Z</time>
      </trkpt>
      <trkpt lat="43.59816" lon="1.3219">
        <ele>187.2</ele>
        <time>2023-04-19T04:55:51Z</time>
      </trkpt>
      <trkpt lat="43.59828" lon="1.32205">
        <ele>187.2</ele>
        <time>2023-04-19T04:55:54Z</time>
      </trkpt>
      <trkpt lat="43.5984" lon="1.32213">
        <ele>187.2</ele>
        <time>2023-04-19T04:55:56Z</time>
      </trkpt>
      <trkpt lat="43.59851" lon="1.32217">
        <ele>187</ele>
        <time>2023-04-19T04:55:58Z</time>
      </trkpt>
      <trkpt lat="43.59893" lon="1.32223">
        <ele>186.8</ele>
        <time>2023-04-19T04:56:05Z</time>
      </trkpt>
      <trkpt lat="43.599" lon="1.32224">
        <ele>186.8</ele>
        <time>2023-04-19T04:56:06Z</time>
      </trkpt>
      <trkpt lat="43.59906" lon="1.32225">
        <ele>186.8</ele>
        <time>2023-04-19T04:56:07Z</time>
      </trkpt>
      <trkpt lat="43.5996" lon="1.32232">
        <ele>187</ele>
        <time>2023-04-19T04:56:16Z</time>
      </trkpt>
      <trkpt lat="43.59977" lon="1.32244">
        <ele>187.2</ele>
        <time>2023-04-19T04:56:19Z</time>
      </trkpt>
      <trkpt lat="43.59981" lon="1.32248">
        <ele>187.2</ele>
        <time>2023-04-19T04:56:20Z</time>
      </trkpt>
      <trkpt lat="43.59995" lon="1.32266">
        <ele>187.2</ele>
        <time>2023-04-19T04:56:23Z</time>
      </trkpt>
      <trkpt lat="43.60002" lon="1.32273">
        <ele>187.2</ele>
        <time>2023-04-19T04:56:25Z</time>
      </trkpt>
      <trkpt lat="43.60006" lon="1.32276">
        <ele>187.2</ele>
        <time>2023-04-19T04:56:26Z</time>
      </trkpt>
      <trkpt lat="43.60017" lon="1.32276">
        <ele>187.2</ele>
        <time>2023-04-19T04:56:28Z</time>
      </trkpt>
      <trkpt lat="43.60041" lon="1.32269">
        <ele>187.2</ele>
        <time>2023-04-19T04:56:33Z</time>
      </trkpt>
      <trkpt lat="43.60046" lon="1.32266">
        <ele>187.2</ele>
        <time>2023-04-19T04:56:34Z</time>
      </trkpt>
      <trkpt lat="43.60049" lon="1.32265">
        <ele>187.2</ele>
        <time>2023-04-19T04:56:35Z</time>
      </trkpt>
      <trkpt lat="43.60054" lon="1.32269">
        <ele>187</ele>
        <time>2023-04-19T04:56:37Z</time>
      </trkpt>
      <trkpt lat="43.60054" lon="1.32292">
        <ele>187</ele>
        <time>2023-04-19T04:56:41Z</time>
      </trkpt>
      <trkpt lat="43.60054" lon="1.32299">
        <ele>187</ele>
        <time>2023-04-19T04:56:42Z</time>
      </trkpt>
      <trkpt lat="43.60056" lon="1.32321">
        <ele>187</ele>
        <time>2023-04-19T04:56:45Z</time>
      </trkpt>
      <trkpt lat="43.60059" lon="1.32333">
        <ele>186.8</ele>
        <time>2023-04-19T04:56:47Z</time>
      </trkpt>
      <trkpt lat="43.60065" lon="1.32345">
        <ele>187</ele>
        <time>2023-04-19T04:56:49Z</time>
      </trkpt>
      <trkpt lat="43.60077" lon="1.32359">
        <ele>187</ele>
        <time>2023-04-19T04:56:52Z</time>
      </trkpt>
      <trkpt lat="43.60108" lon="1.32397">
        <ele>187</ele>
        <time>2023-04-19T04:56:59Z</time>
      </trkpt>
      <trkpt lat="43.60117" lon="1.32408">
        <ele>186.8</ele>
        <time>2023-04-19T04:57:01Z</time>
      </trkpt>
      <trkpt lat="43.60133" lon="1.32427">
        <ele>186.2</ele>
        <time>2023-04-19T04:57:05Z</time>
      </trkpt>
      <trkpt lat="43.60155" lon="1.32453">
        <ele>185.8</ele>
        <time>2023-04-19T04:57:10Z</time>
      </trkpt>
      <trkpt lat="43.60178" lon="1.32479">
        <ele>185.6</ele>
        <time>2023-04-19T04:57:15Z</time>
      </trkpt>
      <trkpt lat="43.60219" lon="1.32526">
        <ele>185.4</ele>
        <time>2023-04-19T04:57:24Z</time>
      </trkpt>
      <trkpt lat="43.6026" lon="1.32575">
        <ele>185.8</ele>
        <time>2023-04-19T04:57:33Z</time>
      </trkpt>
      <trkpt lat="43.60265" lon="1.32581">
        <ele>185.8</ele>
        <time>2023-04-19T04:57:34Z</time>
      </trkpt>
      <trkpt lat="43.60297" lon="1.32617">
        <ele>186</ele>
        <time>2023-04-19T04:57:41Z</time>
      </trkpt>
      <trkpt lat="43.6031" lon="1.32623">
        <ele>186</ele>
        <time>2023-04-19T04:57:43Z</time>
      </trkpt>
      <trkpt lat="43.60327" lon="1.3262">
        <ele>186</ele>
        <time>2023-04-19T04:57:46Z</time>
      </trkpt>
      <trkpt lat="43.6034" lon="1.32617">
        <ele>186</ele>
        <time>2023-04-19T04:57:48Z</time>
      </trkpt>
      <trkpt lat="43.60362" lon="1.32611">
        <ele>186</ele>
        <time>2023-04-19T04:57:52Z</time>
      </trkpt>
      <trkpt lat="43.6037" lon="1.32599">
        <ele>186</ele>
        <time>2023-04-19T04:57:54Z</time>
      </trkpt>
      <trkpt lat="43.60395" lon="1.32549">
        <ele>186.2</ele>
        <time>2023-04-19T04:58:01Z</time>
      </trkpt>
      <trkpt lat="43.60426" lon="1.32483">
        <ele>185.8</ele>
        <time>2023-04-19T04:58:10Z</time>
      </trkpt>
      <trkpt lat="43.60437" lon="1.32462">
        <ele>185.8</ele>
        <time>2023-04-19T04:58:13Z</time>
      </trkpt>
      <trkpt lat="43.60458" lon="1.32421">
        <ele>185.8</ele>
        <time>2023-04-19T04:58:19Z</time>
      </trkpt>
      <trkpt lat="43.6047" lon="1.324">
        <ele>185.8</ele>
        <time>2023-04-19T04:58:22Z</time>
      </trkpt>
      <trkpt lat="43.6048" lon="1.32389">
        <ele>185.8</ele>
        <time>2023-04-19T04:58:24Z</time>
      </trkpt>
      <trkpt lat="43.60486" lon="1.32385">
        <ele>185.6</ele>
        <time>2023-04-19T04:58:25Z</time>
      </trkpt>
      <trkpt lat="43.60491" lon="1.32382">
        <ele>185.6</ele>
        <time>2023-04-19T04:58:26Z</time>
      </trkpt>
      <trkpt lat="43.60501" lon="1.32379">
        <ele>185.6</ele>
        <time>2023-04-19T04:58:28Z</time>
      </trkpt>
      <trkpt lat="43.60505" lon="1.32379">
        <ele>185.6</ele>
        <time>2023-04-19T04:58:29Z</time>
      </trkpt>
      <trkpt lat="43.6051" lon="1.3238">
        <ele>185.6</ele>
        <time>2023-04-19T04:58:30Z</time>
      </trkpt>
      <trkpt lat="43.60519" lon="1.32385">
        <ele>185.6</ele>
        <time>2023-04-19T04:58:32Z</time>
      </trkpt>
      <trkpt lat="43.60533" lon="1.32392">
        <ele>185.6</ele>
        <time>2023-04-19T04:58:35Z</time>
      </trkpt>
      <trkpt lat="43.60543" lon="1.32391">
        <ele>185.6</ele>
        <time>2023-04-19T04:58:37Z</time>
      </trkpt>
      <trkpt lat="43.60554" lon="1.32377">
        <ele>185.8</ele>
        <time>2023-04-19T04:58:40Z</time>
      </trkpt>
      <trkpt lat="43.60566" lon="1.3237">
        <ele>185.8</ele>
        <time>2023-04-19T04:58:42Z</time>
      </trkpt>
      <trkpt lat="43.60572" lon="1.32368">
        <ele>185.6</ele>
        <time>2023-04-19T04:58:43Z</time>
      </trkpt>
      <trkpt lat="43.6059" lon="1.32368">
        <ele>185.6</ele>
        <time>2023-04-19T04:58:46Z</time>
      </trkpt>
      <trkpt lat="43.60595" lon="1.3237">
        <ele>185.6</ele>
        <time>2023-04-19T04:58:47Z</time>
      </trkpt>
      <trkpt lat="43.60601" lon="1.32375">
        <ele>185.6</ele>
        <time>2023-04-19T04:58:48Z</time>
      </trkpt>
      <trkpt lat="43.60615" lon="1.3239">
        <ele>185.4</ele>
        <time>2023-04-19T04:58:51Z</time>
      </trkpt>
      <trkpt lat="43.60656" lon="1.32433">
        <ele>185.2</ele>
        <time>2023-04-19T04:58:59Z</time>
      </trkpt>
      <trkpt lat="43.60661" lon="1.32435">
        <ele>185</ele>
        <time>2023-04-19T04:59:00Z</time>
      </trkpt>
      <trkpt lat="43.60667" lon="1.32436">
        <ele>185</ele>
        <time>2023-04-19T04:59:01Z</time>
      </trkpt>
      <trkpt lat="43.60681" lon="1.32435">
        <ele>185</ele>
        <time>2023-04-19T04:59:03Z</time>
      </trkpt>
      <trkpt lat="43.6069" lon="1.32432">
        <ele>185</ele>
        <time>2023-04-19T04:59:05Z</time>
      </trkpt>
      <trkpt lat="43.60706" lon="1.32424">
        <ele>184.8</ele>
        <time>2023-04-19T04:59:08Z</time>
      </trkpt>
      <trkpt lat="43.6073" lon="1.32409">
        <ele>185</ele>
        <time>2023-04-19T04:59:13Z</time>
      </trkpt>
      <trkpt lat="43.60738" lon="1.32398">
        <ele>185</ele>
        <time>2023-04-19T04:59:15Z</time>
      </trkpt>
      <trkpt lat="43.60744" lon="1.32391">
        <ele>185</ele>
        <time>2023-04-19T04:59:16Z</time>
      </trkpt>
      <trkpt lat="43.6075" lon="1.32377">
        <ele>185</ele>
        <time>2023-04-19T04:59:18Z</time>
      </trkpt>
      <trkpt lat="43.60759" lon="1.32363">
        <ele>185</ele>
        <time>2023-04-19T04:59:20Z</time>
      </trkpt>
      <trkpt lat="43.60763" lon="1.32359">
        <ele>185</ele>
        <time>2023-04-19T04:59:21Z</time>
      </trkpt>
      <trkpt lat="43.60778" lon="1.32342">
        <ele>185</ele>
        <time>2023-04-19T04:59:25Z</time>
      </trkpt>
      <trkpt lat="43.60782" lon="1.32343">
        <ele>185</ele>
        <time>2023-04-19T04:59:26Z</time>
      </trkpt>
      <trkpt lat="43.60804" lon="1.32347">
        <ele>185</ele>
        <time>2023-04-19T04:59:31Z</time>
      </trkpt>
      <trkpt lat="43.60809" lon="1.32347">
        <ele>185</ele>
        <time>2023-04-19T04:59:32Z</time>
      </trkpt>
      <trkpt lat="43.6083" lon="1.32341">
        <ele>185</ele>
        <time>2023-04-19T04:59:36Z</time>
      </trkpt>
      <trkpt lat="43.60839" lon="1.32337">
        <ele>185</ele>
        <time>2023-04-19T04:59:38Z</time>
      </trkpt>
      <trkpt lat="43.60858" lon="1.32324">
        <ele>185.2</ele>
        <time>2023-04-19T04:59:42Z</time>
      </trkpt>
      <trkpt lat="43.60869" lon="1.32318">
        <ele>185.6</ele>
        <time>2023-04-19T04:59:44Z</time>
      </trkpt>
      <trkpt lat="43.6088" lon="1.32318">
        <ele>185.6</ele>
        <time>2023-04-19T04:59:46Z</time>
      </trkpt>
      <trkpt lat="43.60891" lon="1.32319">
        <ele>185.6</ele>
        <time>2023-04-19T04:59:48Z</time>
      </trkpt>
      <trkpt lat="43.60903" lon="1.32316">
        <ele>185.6</ele>
        <time>2023-04-19T04:59:50Z</time>
      </trkpt>
      <trkpt lat="43.60926" lon="1.32305">
        <ele>185.8</ele>
        <time>2023-04-19T04:59:54Z</time>
      </trkpt>
      <trkpt lat="43.60936" lon="1.323">
        <ele>187</ele>
        <time>2023-04-19T04:59:59Z</time>
      </trkpt>
      <trkpt lat="43.60939" lon="1.32298">
        <ele>187.2</ele>
        <time>2023-04-19T05:00:00Z</time>
      </trkpt>
      <trkpt lat="43.60943" lon="1.32305">
        <ele>188.2</ele>
        <time>2023-04-19T05:00:02Z</time>
      </trkpt>
      <trkpt lat="43.60943" lon="1.32305">
        <ele>188.8</ele>
        <time>2023-04-19T05:00:03Z</time>
      </trkpt>
      <trkpt lat="43.60945" lon="1.32323">
        <ele>189.6</ele>
        <time>2023-04-19T05:00:07Z</time>
      </trkpt>
      <trkpt lat="43.60945" lon="1.32323">
        <ele>189.8</ele>
        <time>2023-04-19T05:00:08Z</time>
      </trkpt>
      <trkpt lat="43.60938" lon="1.32327">
        <ele>189.8</ele>
        <time>2023-04-19T05:00:09Z</time>
      </trkpt>
      <trkpt lat="43.60932" lon="1.3233">
        <ele>189.8</ele>
        <time>2023-04-19T05:00:11Z</time>
      </trkpt>
      <trkpt lat="43.60904" lon="1.32343">
        <ele>189.8</ele>
        <time>2023-04-19T05:00:14Z</time>
      </trkpt>
      <trkpt lat="43.60877" lon="1.32359">
        <ele>188.2</ele>
        <time>2023-04-19T05:00:18Z</time>
      </trkpt>
      <trkpt lat="43.60874" lon="1.32364">
        <ele>187.4</ele>
        <time>2023-04-19T05:00:19Z</time>
      </trkpt>
      <trkpt lat="43.60873" lon="1.32372">
        <ele>187</ele>
        <time>2023-04-19T05:00:20Z</time>
      </trkpt>
      <trkpt lat="43.60873" lon="1.32372">
        <ele>186.2</ele>
        <time>2023-04-19T05:00:21Z</time>
      </trkpt>
      <trkpt lat="43.60874" lon="1.32379">
        <ele>186</ele>
        <time>2023-04-19T05:00:22Z</time>
      </trkpt>
      <trkpt lat="43.60877" lon="1.32395">
        <ele>185.8</ele>
        <time>2023-04-19T05:00:23Z</time>
      </trkpt>
      <trkpt lat="43.60879" lon="1.32403">
        <ele>185.4</ele>
        <time>2023-04-19T05:00:25Z</time>
      </trkpt>
      <trkpt lat="43.60885" lon="1.32423">
        <ele>185</ele>
        <time>2023-04-19T05:00:27Z</time>
      </trkpt>
      <trkpt lat="43.6089" lon="1.32434">
        <ele>184.6</ele>
        <time>2023-04-19T05:00:30Z</time>
      </trkpt>
      <trkpt lat="43.60893" lon="1.32457">
        <ele>184.6</ele>
        <time>2023-04-19T05:00:32Z</time>
      </trkpt>
      <trkpt lat="43.60896" lon="1.32464">
        <ele>184.6</ele>
        <time>2023-04-19T05:00:33Z</time>
      </trkpt>
      <trkpt lat="43.60899" lon="1.32469">
        <ele>184.6</ele>
        <time>2023-04-19T05:00:34Z</time>
      </trkpt>
      <trkpt lat="43.60907" lon="1.32481">
        <ele>184.6</ele>
        <time>2023-04-19T05:00:36Z</time>
      </trkpt>
      <trkpt lat="43.60912" lon="1.32486">
        <ele>184.6</ele>
        <time>2023-04-19T05:00:38Z</time>
      </trkpt>
      <trkpt lat="43.6092" lon="1.32497">
        <ele>184.6</ele>
        <time>2023-04-19T05:00:39Z</time>
      </trkpt>
      <trkpt lat="43.60921" lon="1.32502">
        <ele>184.6</ele>
        <time>2023-04-19T05:00:40Z</time>
      </trkpt>
      <trkpt lat="43.6092" lon="1.32508">
        <ele>184.6</ele>
        <time>2023-04-19T05:00:42Z</time>
      </trkpt>
      <trkpt lat="43.60916" lon="1.32521">
        <ele>184.4</ele>
        <time>2023-04-19T05:00:44Z</time>
      </trkpt>
      <trkpt lat="43.60914" lon="1.32532">
        <ele>184.4</ele>
        <time>2023-04-19T05:00:45Z</time>
      </trkpt>
      <trkpt lat="43.60916" lon="1.32539">
        <ele>184.4</ele>
        <time>2023-04-19T05:00:46Z</time>
      </trkpt>
      <trkpt lat="43.60924" lon="1.3255">
        <ele>184.2</ele>
        <time>2023-04-19T05:00:48Z</time>
      </trkpt>
      <trkpt lat="43.60929" lon="1.32554">
        <ele>184.2</ele>
        <time>2023-04-19T05:00:50Z</time>
      </trkpt>
      <trkpt lat="43.60937" lon="1.3256">
        <ele>184.2</ele>
        <time>2023-04-19T05:00:51Z</time>
      </trkpt>
      <trkpt lat="43.60944" lon="1.32563">
        <ele>184.2</ele>
        <time>2023-04-19T05:00:53Z</time>
      </trkpt>
      <trkpt lat="43.60947" lon="1.32566">
        <ele>184</ele>
        <time>2023-04-19T05:00:55Z</time>
      </trkpt>
      <trkpt lat="43.60947" lon="1.32568">
        <ele>184</ele>
        <time>2023-04-19T05:00:56Z</time>
      </trkpt>
      <trkpt lat="43.60948" lon="1.32573">
        <ele>184</ele>
        <time>2023-04-19T05:00:58Z</time>
      </trkpt>
      <trkpt lat="43.60945" lon="1.32579">
        <ele>184</ele>
        <time>2023-04-19T05:01:00Z</time>
      </trkpt>
      <trkpt lat="43.60937" lon="1.32593">
        <ele>183.8</ele>
        <time>2023-04-19T05:01:05Z</time>
      </trkpt>
      <trkpt lat="43.60931" lon="1.32604">
        <ele>183.8</ele>
        <time>2023-04-19T05:01:06Z</time>
      </trkpt>
      <trkpt lat="43.60923" lon="1.32617">
        <ele>183.8</ele>
        <time>2023-04-19T05:01:10Z</time>
      </trkpt>
      <trkpt lat="43.60916" lon="1.32627">
        <ele>184</ele>
        <time>2023-04-19T05:01:12Z</time>
      </trkpt>
      <trkpt lat="43.60904" lon="1.32633">
        <ele>184</ele>
        <time>2023-04-19T05:01:14Z</time>
      </trkpt>
      <trkpt lat="43.60885" lon="1.32646">
        <ele>184.2</ele>
        <time>2023-04-19T05:01:19Z</time>
      </trkpt>
      <trkpt lat="43.60875" lon="1.32657">
        <ele>184.2</ele>
        <time>2023-04-19T05:01:20Z</time>
      </trkpt>
      <trkpt lat="43.60869" lon="1.32668">
        <ele>184.4</ele>
        <time>2023-04-19T05:01:23Z</time>
      </trkpt>
      <trkpt lat="43.60862" lon="1.32691">
        <ele>184.4</ele>
        <time>2023-04-19T05:01:25Z</time>
      </trkpt>
      <trkpt lat="43.60862" lon="1.32698">
        <ele>184.4</ele>
        <time>2023-04-19T05:01:26Z</time>
      </trkpt>
      <trkpt lat="43.60864" lon="1.32713">
        <ele>184.4</ele>
        <time>2023-04-19T05:01:28Z</time>
      </trkpt>
      <trkpt lat="43.60866" lon="1.3272">
        <ele>184.4</ele>
        <time>2023-04-19T05:01:30Z</time>
      </trkpt>
      <trkpt lat="43.6087" lon="1.32728">
        <ele>184.6</ele>
        <time>2023-04-19T05:01:31Z</time>
      </trkpt>
      <trkpt lat="43.60883" lon="1.32743">
        <ele>184.6</ele>
        <time>2023-04-19T05:01:33Z</time>
      </trkpt>
      <trkpt lat="43.60902" lon="1.32748">
        <ele>184.6</ele>
        <time>2023-04-19T05:01:36Z</time>
      </trkpt>
      <trkpt lat="43.60908" lon="1.32748">
        <ele>184.6</ele>
        <time>2023-04-19T05:01:37Z</time>
      </trkpt>
      <trkpt lat="43.60925" lon="1.32749">
        <ele>184.4</ele>
        <time>2023-04-19T05:01:40Z</time>
      </trkpt>
      <trkpt lat="43.60937" lon="1.32756">
        <ele>184.4</ele>
        <time>2023-04-19T05:01:42Z</time>
      </trkpt>
      <trkpt lat="43.60972" lon="1.32799">
        <ele>184.2</ele>
        <time>2023-04-19T05:01:51Z</time>
      </trkpt>
      <trkpt lat="43.61013" lon="1.3285">
        <ele>184.6</ele>
        <time>2023-04-19T05:02:00Z</time>
      </trkpt>
      <trkpt lat="43.61022" lon="1.3286">
        <ele>184.6</ele>
        <time>2023-04-19T05:02:01Z</time>
      </trkpt>
      <trkpt lat="43.61059" lon="1.32907">
        <ele>184.8</ele>
        <time>2023-04-19T05:02:09Z</time>
      </trkpt>
      <trkpt lat="43.61067" lon="1.3292">
        <ele>184.8</ele>
        <time>2023-04-19T05:02:11Z</time>
      </trkpt>
      <trkpt lat="43.61073" lon="1.32934">
        <ele>184.6</ele>
        <time>2023-04-19T05:02:13Z</time>
      </trkpt>
      <trkpt lat="43.61082" lon="1.32945">
        <ele>184.8</ele>
        <time>2023-04-19T05:02:15Z</time>
      </trkpt>
      <trkpt lat="43.61093" lon="1.32953">
        <ele>184.8</ele>
        <time>2023-04-19T05:02:17Z</time>
      </trkpt>
      <trkpt lat="43.61098" lon="1.32957">
        <ele>184.8</ele>
        <time>2023-04-19T05:02:18Z</time>
      </trkpt>
      <trkpt lat="43.6112" lon="1.32982">
        <ele>184.6</ele>
        <time>2023-04-19T05:02:22Z</time>
      </trkpt>
      <trkpt lat="43.61154" lon="1.33022">
        <ele>183.4</ele>
        <time>2023-04-19T05:02:29Z</time>
      </trkpt>
      <trkpt lat="43.61172" lon="1.33045">
        <ele>182.6</ele>
        <time>2023-04-19T05:02:33Z</time>
      </trkpt>
      <trkpt lat="43.61182" lon="1.33058">
        <ele>182.4</ele>
        <time>2023-04-19T05:02:35Z</time>
      </trkpt>
      <trkpt lat="43.61206" lon="1.3308">
        <ele>182.4</ele>
        <time>2023-04-19T05:02:40Z</time>
      </trkpt>
      <trkpt lat="43.61236" lon="1.331">
        <ele>182.8</ele>
        <time>2023-04-19T05:02:46Z</time>
      </trkpt>
      <trkpt lat="43.61246" lon="1.33107">
        <ele>183</ele>
        <time>2023-04-19T05:02:48Z</time>
      </trkpt>
      <trkpt lat="43.61249" lon="1.33111">
        <ele>183.2</ele>
        <time>2023-04-19T05:02:50Z</time>
      </trkpt>
      <trkpt lat="43.61256" lon="1.33125">
        <ele>183.4</ele>
        <time>2023-04-19T05:02:51Z</time>
      </trkpt>
      <trkpt lat="43.61258" lon="1.33131">
        <ele>183.4</ele>
        <time>2023-04-19T05:02:52Z</time>
      </trkpt>
      <trkpt lat="43.6126" lon="1.33138">
        <ele>183.4</ele>
        <time>2023-04-19T05:02:53Z</time>
      </trkpt>
      <trkpt lat="43.61268" lon="1.3317">
        <ele>183.6</ele>
        <time>2023-04-19T05:02:57Z</time>
      </trkpt>
      <trkpt lat="43.61275" lon="1.33181">
        <ele>183.6</ele>
        <time>2023-04-19T05:02:59Z</time>
      </trkpt>
      <trkpt lat="43.61286" lon="1.3319">
        <ele>183.6</ele>
        <time>2023-04-19T05:03:01Z</time>
      </trkpt>
      <trkpt lat="43.61291" lon="1.33192">
        <ele>183.6</ele>
        <time>2023-04-19T05:03:02Z</time>
      </trkpt>
      <trkpt lat="43.61296" lon="1.33192">
        <ele>183.6</ele>
        <time>2023-04-19T05:03:03Z</time>
      </trkpt>
      <trkpt lat="43.61308" lon="1.33188">
        <ele>183.6</ele>
        <time>2023-04-19T05:03:05Z</time>
      </trkpt>
      <trkpt lat="43.61319" lon="1.33178">
        <ele>183.4</ele>
        <time>2023-04-19T05:03:07Z</time>
      </trkpt>
      <trkpt lat="43.61327" lon="1.33165">
        <ele>183.4</ele>
        <time>2023-04-19T05:03:09Z</time>
      </trkpt>
      <trkpt lat="43.61335" lon="1.33153">
        <ele>183.4</ele>
        <time>2023-04-19T05:03:11Z</time>
      </trkpt>
      <trkpt lat="43.61347" lon="1.33143">
        <ele>183.4</ele>
        <time>2023-04-19T05:03:13Z</time>
      </trkpt>
      <trkpt lat="43.61364" lon="1.33141">
        <ele>183.4</ele>
        <time>2023-04-19T05:03:16Z</time>
      </trkpt>
      <trkpt lat="43.6137" lon="1.33142">
        <ele>183.4</ele>
        <time>2023-04-19T05:03:17Z</time>
      </trkpt>
      <trkpt lat="43.61417" lon="1.33156">
        <ele>183.2</ele>
        <time>2023-04-19T05:03:25Z</time>
      </trkpt>
      <trkpt lat="43.61468" lon="1.33189">
        <ele>183.4</ele>
        <time>2023-04-19T05:03:34Z</time>
      </trkpt>
      <trkpt lat="43.61473" lon="1.33191">
        <ele>183.6</ele>
        <time>2023-04-19T05:03:35Z</time>
      </trkpt>
      <trkpt lat="43.61525" lon="1.33227">
        <ele>183.8</ele>
        <time>2023-04-19T05:03:44Z</time>
      </trkpt>
      <trkpt lat="43.61525" lon="1.33227">
        <ele>183.8</ele>
        <time>2023-04-19T05:03:45Z</time>
      </trkpt>
      <trkpt lat="43.61572" lon="1.33253">
        <ele>183.6</ele>
        <time>2023-04-19T05:03:52Z</time>
      </trkpt>
      <trkpt lat="43.61577" lon="1.33257">
        <ele>183.4</ele>
        <time>2023-04-19T05:03:54Z</time>
      </trkpt>
      <trkpt lat="43.61591" lon="1.33274">
        <ele>183.4</ele>
        <time>2023-04-19T05:03:56Z</time>
      </trkpt>
      <trkpt lat="43.61596" lon="1.3328">
        <ele>183.4</ele>
        <time>2023-04-19T05:03:57Z</time>
      </trkpt>
      <trkpt lat="43.61605" lon="1.33287">
        <ele>183.2</ele>
        <time>2023-04-19T05:03:59Z</time>
      </trkpt>
      <trkpt lat="43.61611" lon="1.3329">
        <ele>183.2</ele>
        <time>2023-04-19T05:04:00Z</time>
      </trkpt>
      <trkpt lat="43.61618" lon="1.33293">
        <ele>183.2</ele>
        <time>2023-04-19T05:04:01Z</time>
      </trkpt>
      <trkpt lat="43.61642" lon="1.33298">
        <ele>183</ele>
        <time>2023-04-19T05:04:05Z</time>
      </trkpt>
      <trkpt lat="43.6165" lon="1.33305">
        <ele>183</ele>
        <time>2023-04-19T05:04:07Z</time>
      </trkpt>
      <trkpt lat="43.61654" lon="1.3331">
        <ele>183</ele>
        <time>2023-04-19T05:04:08Z</time>
      </trkpt>
      <trkpt lat="43.61658" lon="1.33314">
        <ele>183</ele>
        <time>2023-04-19T05:04:09Z</time>
      </trkpt>
      <trkpt lat="43.6167" lon="1.33315">
        <ele>183</ele>
        <time>2023-04-19T05:04:11Z</time>
      </trkpt>
      <trkpt lat="43.6168" lon="1.33315">
        <ele>183</ele>
        <time>2023-04-19T05:04:13Z</time>
      </trkpt>
      <trkpt lat="43.61691" lon="1.33319">
        <ele>183</ele>
        <time>2023-04-19T05:04:15Z</time>
      </trkpt>
      <trkpt lat="43.6173" lon="1.33341">
        <ele>183</ele>
        <time>2023-04-19T05:04:22Z</time>
      </trkpt>
      <trkpt lat="43.6178" lon="1.33368">
        <ele>183</ele>
        <time>2023-04-19T05:04:31Z</time>
      </trkpt>
      <trkpt lat="43.61792" lon="1.33375">
        <ele>183</ele>
        <time>2023-04-19T05:04:33Z</time>
      </trkpt>
      <trkpt lat="43.61818" lon="1.33389">
        <ele>183</ele>
        <time>2023-04-19T05:04:38Z</time>
      </trkpt>
      <trkpt lat="43.61828" lon="1.33398">
        <ele>183</ele>
        <time>2023-04-19T05:04:40Z</time>
      </trkpt>
      <trkpt lat="43.61834" lon="1.33409">
        <ele>183</ele>
        <time>2023-04-19T05:04:42Z</time>
      </trkpt>
      <trkpt lat="43.6184" lon="1.33423">
        <ele>182.8</ele>
        <time>2023-04-19T05:04:44Z</time>
      </trkpt>
      <trkpt lat="43.61845" lon="1.33436">
        <ele>182.8</ele>
        <time>2023-04-19T05:04:46Z</time>
      </trkpt>
      <trkpt lat="43.61862" lon="1.33464">
        <ele>182.4</ele>
        <time>2023-04-19T05:04:50Z</time>
      </trkpt>
      <trkpt lat="43.61897" lon="1.33522">
        <ele>181.8</ele>
        <time>2023-04-19T05:04:59Z</time>
      </trkpt>
      <trkpt lat="43.61902" lon="1.33528">
        <ele>181.8</ele>
        <time>2023-04-19T05:05:00Z</time>
      </trkpt>
      <trkpt lat="43.61915" lon="1.33541">
        <ele>181.6</ele>
        <time>2023-04-19T05:05:03Z</time>
      </trkpt>
      <trkpt lat="43.61918" lon="1.33545">
        <ele>181.6</ele>
        <time>2023-04-19T05:05:04Z</time>
      </trkpt>
      <trkpt lat="43.6192" lon="1.33551">
        <ele>181.4</ele>
        <time>2023-04-19T05:05:05Z</time>
      </trkpt>
      <trkpt lat="43.6192" lon="1.33557">
        <ele>181.6</ele>
        <time>2023-04-19T05:05:06Z</time>
      </trkpt>
      <trkpt lat="43.61919" lon="1.33562">
        <ele>181.4</ele>
        <time>2023-04-19T05:05:07Z</time>
      </trkpt>
      <trkpt lat="43.61925" lon="1.33581">
        <ele>181.2</ele>
        <time>2023-04-19T05:05:10Z</time>
      </trkpt>
      <trkpt lat="43.61932" lon="1.33589">
        <ele>181.2</ele>
        <time>2023-04-19T05:05:12Z</time>
      </trkpt>
      <trkpt lat="43.61947" lon="1.33601">
        <ele>181.2</ele>
        <time>2023-04-19T05:05:15Z</time>
      </trkpt>
      <trkpt lat="43.61951" lon="1.33606">
        <ele>181.2</ele>
        <time>2023-04-19T05:05:16Z</time>
      </trkpt>
      <trkpt lat="43.61966" lon="1.33629">
        <ele>181</ele>
        <time>2023-04-19T05:05:20Z</time>
      </trkpt>
      <trkpt lat="43.61973" lon="1.33645">
        <ele>181</ele>
        <time>2023-04-19T05:05:23Z</time>
      </trkpt>
      <trkpt lat="43.61975" lon="1.33652">
        <ele>181</ele>
        <time>2023-04-19T05:05:25Z</time>
      </trkpt>
      <trkpt lat="43.61973" lon="1.33665">
        <ele>180.8</ele>
        <time>2023-04-19T05:05:26Z</time>
      </trkpt>
      <trkpt lat="43.61974" lon="1.33684">
        <ele>180.6</ele>
        <time>2023-04-19T05:05:29Z</time>
      </trkpt>
      <trkpt lat="43.61971" lon="1.33691">
        <ele>180.6</ele>
        <time>2023-04-19T05:05:30Z</time>
      </trkpt>
      <trkpt lat="43.61967" lon="1.33696">
        <ele>180.6</ele>
        <time>2023-04-19T05:05:31Z</time>
      </trkpt>
      <trkpt lat="43.61963" lon="1.33699">
        <ele>180.4</ele>
        <time>2023-04-19T05:05:33Z</time>
      </trkpt>
      <trkpt lat="43.61948" lon="1.33711">
        <ele>180.4</ele>
        <time>2023-04-19T05:05:35Z</time>
      </trkpt>
      <trkpt lat="43.61939" lon="1.33725">
        <ele>180.6</ele>
        <time>2023-04-19T05:05:37Z</time>
      </trkpt>
      <trkpt lat="43.61918" lon="1.33777">
        <ele>180.4</ele>
        <time>2023-04-19T05:05:44Z</time>
      </trkpt>
      <trkpt lat="43.61915" lon="1.33784">
        <ele>180.4</ele>
        <time>2023-04-19T05:05:45Z</time>
      </trkpt>
      <trkpt lat="43.61895" lon="1.33816">
        <ele>180.2</ele>
        <time>2023-04-19T05:05:50Z</time>
      </trkpt>
      <trkpt lat="43.6186" lon="1.33865">
        <ele>180</ele>
        <time>2023-04-19T05:05:58Z</time>
      </trkpt>
      <trkpt lat="43.61854" lon="1.33878">
        <ele>180</ele>
        <time>2023-04-19T05:06:00Z</time>
      </trkpt>
      <trkpt lat="43.61847" lon="1.33901">
        <ele>179.6</ele>
        <time>2023-04-19T05:06:03Z</time>
      </trkpt>
      <trkpt lat="43.61845" lon="1.33916">
        <ele>179.6</ele>
        <time>2023-04-19T05:06:05Z</time>
      </trkpt>
      <trkpt lat="43.61839" lon="1.33928">
        <ele>179.2</ele>
        <time>2023-04-19T05:06:07Z</time>
      </trkpt>
      <trkpt lat="43.61828" lon="1.33932">
        <ele>178.8</ele>
        <time>2023-04-19T05:06:09Z</time>
      </trkpt>
      <trkpt lat="43.61818" lon="1.33938">
        <ele>178.2</ele>
        <time>2023-04-19T05:06:11Z</time>
      </trkpt>
      <trkpt lat="43.61806" lon="1.33956">
        <ele>177.6</ele>
        <time>2023-04-19T05:06:14Z</time>
      </trkpt>
      <trkpt lat="43.618" lon="1.33963">
        <ele>177.4</ele>
        <time>2023-04-19T05:06:15Z</time>
      </trkpt>
      <trkpt lat="43.61781" lon="1.33983">
        <ele>177</ele>
        <time>2023-04-19T05:06:18Z</time>
      </trkpt>
      <trkpt lat="43.61769" lon="1.3399">
        <ele>176.4</ele>
        <time>2023-04-19T05:06:20Z</time>
      </trkpt>
      <trkpt lat="43.61764" lon="1.33992">
        <ele>175.6</ele>
        <time>2023-04-19T05:06:21Z</time>
      </trkpt>
      <trkpt lat="43.6176" lon="1.33996">
        <ele>175.2</ele>
        <time>2023-04-19T05:06:22Z</time>
      </trkpt>
      <trkpt lat="43.61761" lon="1.34002">
        <ele>174.2</ele>
        <time>2023-04-19T05:06:23Z</time>
      </trkpt>
      <trkpt lat="43.61765" lon="1.34016">
        <ele>172.6</ele>
        <time>2023-04-19T05:06:25Z</time>
      </trkpt>
      <trkpt lat="43.6177" lon="1.34032">
        <ele>171</ele>
        <time>2023-04-19T05:06:27Z</time>
      </trkpt>
      <trkpt lat="43.61776" lon="1.34051">
        <ele>170</ele>
        <time>2023-04-19T05:06:29Z</time>
      </trkpt>
      <trkpt lat="43.61784" lon="1.34083">
        <ele>168.4</ele>
        <time>2023-04-19T05:06:32Z</time>
      </trkpt>
      <trkpt lat="43.61794" lon="1.34118">
        <ele>167.2</ele>
        <time>2023-04-19T05:06:35Z</time>
      </trkpt>
      <trkpt lat="43.61801" lon="1.34141">
        <ele>166.2</ele>
        <time>2023-04-19T05:06:37Z</time>
      </trkpt>
      <trkpt lat="43.61809" lon="1.34161">
        <ele>165.2</ele>
        <time>2023-04-19T05:06:39Z</time>
      </trkpt>
      <trkpt lat="43.61815" lon="1.34169">
        <ele>164.8</ele>
        <time>2023-04-19T05:06:40Z</time>
      </trkpt>
      <trkpt lat="43.61827" lon="1.34184">
        <ele>163.8</ele>
        <time>2023-04-19T05:06:42Z</time>
      </trkpt>
      <trkpt lat="43.61832" lon="1.34192">
        <ele>163.4</ele>
        <time>2023-04-19T05:06:43Z</time>
      </trkpt>
      <trkpt lat="43.61843" lon="1.34207">
        <ele>162.8</ele>
        <time>2023-04-19T05:06:45Z</time>
      </trkpt>
      <trkpt lat="43.61855" lon="1.34221">
        <ele>162.4</ele>
        <time>2023-04-19T05:06:47Z</time>
      </trkpt>
      <trkpt lat="43.61891" lon="1.34262">
        <ele>161.4</ele>
        <time>2023-04-19T05:06:53Z</time>
      </trkpt>
      <trkpt lat="43.61897" lon="1.3427">
        <ele>161.2</ele>
        <time>2023-04-19T05:06:54Z</time>
      </trkpt>
      <trkpt lat="43.61925" lon="1.34302">
        <ele>160.6</ele>
        <time>2023-04-19T05:06:59Z</time>
      </trkpt>
      <trkpt lat="43.61955" lon="1.34332">
        <ele>160</ele>
        <time>2023-04-19T05:07:04Z</time>
      </trkpt>
      <trkpt lat="43.61967" lon="1.34343">
        <ele>159.8</ele>
        <time>2023-04-19T05:07:06Z</time>
      </trkpt>
      <trkpt lat="43.61973" lon="1.34348">
        <ele>159.6</ele>
        <time>2023-04-19T05:07:07Z</time>
      </trkpt>
      <trkpt lat="43.61993" lon="1.34371">
        <ele>159.2</ele>
        <time>2023-04-19T05:07:11Z</time>
      </trkpt>
      <trkpt lat="43.62003" lon="1.34383">
        <ele>159</ele>
        <time>2023-04-19T05:07:13Z</time>
      </trkpt>
      <trkpt lat="43.62013" lon="1.34395">
        <ele>158.8</ele>
        <time>2023-04-19T05:07:15Z</time>
      </trkpt>
      <trkpt lat="43.62029" lon="1.3442">
        <ele>158.4</ele>
        <time>2023-04-19T05:07:19Z</time>
      </trkpt>
      <trkpt lat="43.62032" lon="1.34435">
        <ele>158.4</ele>
        <time>2023-04-19T05:07:21Z</time>
      </trkpt>
      <trkpt lat="43.62031" lon="1.34443">
        <ele>158.2</ele>
        <time>2023-04-19T05:07:22Z</time>
      </trkpt>
      <trkpt lat="43.6203" lon="1.34448">
        <ele>158.2</ele>
        <time>2023-04-19T05:07:23Z</time>
      </trkpt>
      <trkpt lat="43.62028" lon="1.34452">
        <ele>158</ele>
        <time>2023-04-19T05:07:24Z</time>
      </trkpt>
      <trkpt lat="43.62026" lon="1.34456">
        <ele>158</ele>
        <time>2023-04-19T05:07:25Z</time>
      </trkpt>
      <trkpt lat="43.62026" lon="1.3446">
        <ele>157.8</ele>
        <time>2023-04-19T05:07:26Z</time>
      </trkpt>
      <trkpt lat="43.62027" lon="1.34464">
        <ele>157.6</ele>
        <time>2023-04-19T05:07:27Z</time>
      </trkpt>
      <trkpt lat="43.62037" lon="1.34462">
        <ele>157.4</ele>
        <time>2023-04-19T05:07:30Z</time>
      </trkpt>
      <trkpt lat="43.62041" lon="1.3446">
        <ele>157.4</ele>
        <time>2023-04-19T05:07:31Z</time>
      </trkpt>
      <trkpt lat="43.62055" lon="1.34458">
        <ele>157</ele>
        <time>2023-04-19T05:07:34Z</time>
      </trkpt>
      <trkpt lat="43.62065" lon="1.34458">
        <ele>157</ele>
        <time>2023-04-19T05:07:36Z</time>
      </trkpt>
      <trkpt lat="43.6207" lon="1.3446">
        <ele>157</ele>
        <time>2023-04-19T05:07:37Z</time>
      </trkpt>
      <trkpt lat="43.62079" lon="1.34465">
        <ele>157</ele>
        <time>2023-04-19T05:07:39Z</time>
      </trkpt>
      <trkpt lat="43.62102" lon="1.3449">
        <ele>156.8</ele>
        <time>2023-04-19T05:07:44Z</time>
      </trkpt>
      <trkpt lat="43.62136" lon="1.34525">
        <ele>156.8</ele>
        <time>2023-04-19T05:07:51Z</time>
      </trkpt>
      <trkpt lat="43.62167" lon="1.34552">
        <ele>156.8</ele>
        <time>2023-04-19T05:07:57Z</time>
      </trkpt>
      <trkpt lat="43.62194" lon="1.34574">
        <ele>156.2</ele>
        <time>2023-04-19T05:08:03Z</time>
      </trkpt>
      <trkpt lat="43.62238" lon="1.34606">
        <ele>156.2</ele>
        <time>2023-04-19T05:08:11Z</time>
      </trkpt>
      <trkpt lat="43.62288" lon="1.34633">
        <ele>156</ele>
        <time>2023-04-19T05:08:19Z</time>
      </trkpt>
      <trkpt lat="43.623" lon="1.34639">
        <ele>155.8</ele>
        <time>2023-04-19T05:08:21Z</time>
      </trkpt>
      <trkpt lat="43.62342" lon="1.34658">
        <ele>155.4</ele>
        <time>2023-04-19T05:08:28Z</time>
      </trkpt>
      <trkpt lat="43.6237" lon="1.34672">
        <ele>155.2</ele>
        <time>2023-04-19T05:08:33Z</time>
      </trkpt>
      <trkpt lat="43.62375" lon="1.34677">
        <ele>155.2</ele>
        <time>2023-04-19T05:08:34Z</time>
      </trkpt>
      <trkpt lat="43.62379" lon="1.34683">
        <ele>155.2</ele>
        <time>2023-04-19T05:08:35Z</time>
      </trkpt>
      <trkpt lat="43.62391" lon="1.34695">
        <ele>155.2</ele>
        <time>2023-04-19T05:08:38Z</time>
      </trkpt>
      <trkpt lat="43.62401" lon="1.34693">
        <ele>155.2</ele>
        <time>2023-04-19T05:08:40Z</time>
      </trkpt>
      <trkpt lat="43.62406" lon="1.3469">
        <ele>155.2</ele>
        <time>2023-04-19T05:08:41Z</time>
      </trkpt>
      <trkpt lat="43.62417" lon="1.34686">
        <ele>155.2</ele>
        <time>2023-04-19T05:08:43Z</time>
      </trkpt>
      <trkpt lat="43.62429" lon="1.34684">
        <ele>155.2</ele>
        <time>2023-04-19T05:08:45Z</time>
      </trkpt>
      <trkpt lat="43.62434" lon="1.34684">
        <ele>155.2</ele>
        <time>2023-04-19T05:08:46Z</time>
      </trkpt>
      <trkpt lat="43.62454" lon="1.34685">
        <ele>155</ele>
        <time>2023-04-19T05:08:51Z</time>
      </trkpt>
      <trkpt lat="43.62463" lon="1.34684">
        <ele>155</ele>
        <time>2023-04-19T05:08:56Z</time>
      </trkpt>
      <trkpt lat="43.62475" lon="1.34685">
        <ele>155.2</ele>
        <time>2023-04-19T05:09:03Z</time>
      </trkpt>
      <trkpt lat="43.62488" lon="1.34687">
        <ele>154.8</ele>
        <time>2023-04-19T05:09:09Z</time>
      </trkpt>
      <trkpt lat="43.62495" lon="1.34692">
        <ele>154.8</ele>
        <time>2023-04-19T05:09:11Z</time>
      </trkpt>
      <trkpt lat="43.62497" lon="1.34695">
        <ele>154.8</ele>
        <time>2023-04-19T05:09:12Z</time>
      </trkpt>
      <trkpt lat="43.62499" lon="1.34699">
        <ele>154.8</ele>
        <time>2023-04-19T05:09:13Z</time>
      </trkpt>
      <trkpt lat="43.62501" lon="1.34704">
        <ele>154.8</ele>
        <time>2023-04-19T05:09:14Z</time>
      </trkpt>
      <trkpt lat="43.62507" lon="1.34723">
        <ele>154.8</ele>
        <time>2023-04-19T05:09:18Z</time>
      </trkpt>
      <trkpt lat="43.6251" lon="1.34741">
        <ele>154.6</ele>
        <time>2023-04-19T05:09:23Z</time>
      </trkpt>
      <trkpt lat="43.6251" lon="1.34742">
        <ele>154.6</ele>
        <time>2023-04-19T05:09:24Z</time>
      </trkpt>
      <trkpt lat="43.6251" lon="1.34748">
        <ele>154</ele>
        <time>2023-04-19T05:09:51Z</time>
      </trkpt>
      <trkpt lat="43.62509" lon="1.34761">
        <ele>154</ele>
        <time>2023-04-19T05:09:54Z</time>
      </trkpt>
      <trkpt lat="43.62501" lon="1.3477">
        <ele>154</ele>
        <time>2023-04-19T05:09:57Z</time>
      </trkpt>
      <trkpt lat="43.62484" lon="1.34774">
        <ele>154</ele>
        <time>2023-04-19T05:10:01Z</time>
      </trkpt>
      <trkpt lat="43.62449" lon="1.34776">
        <ele>154</ele>
        <time>2023-04-19T05:10:08Z</time>
      </trkpt>
      <trkpt lat="43.62424" lon="1.34771">
        <ele>154.4</ele>
        <time>2023-04-19T05:10:12Z</time>
      </trkpt>
      <trkpt lat="43.62406" lon="1.34773">
        <ele>154.6</ele>
        <time>2023-04-19T05:10:15Z</time>
      </trkpt>
      <trkpt lat="43.62354" lon="1.3478">
        <ele>155.2</ele>
        <time>2023-04-19T05:10:24Z</time>
      </trkpt>
      <trkpt lat="43.62347" lon="1.34783">
        <ele>155.4</ele>
        <time>2023-04-19T05:10:25Z</time>
      </trkpt>
      <trkpt lat="43.62332" lon="1.34792">
        <ele>155.2</ele>
        <time>2023-04-19T05:10:28Z</time>
      </trkpt>
      <trkpt lat="43.62295" lon="1.34829">
        <ele>155.4</ele>
        <time>2023-04-19T05:10:35Z</time>
      </trkpt>
      <trkpt lat="43.62262" lon="1.34865">
        <ele>155</ele>
        <time>2023-04-19T05:10:42Z</time>
      </trkpt>
      <trkpt lat="43.6226" lon="1.3487">
        <ele>154.8</ele>
        <time>2023-04-19T05:10:43Z</time>
      </trkpt>
      <trkpt lat="43.62259" lon="1.34883">
        <ele>154.2</ele>
        <time>2023-04-19T05:10:46Z</time>
      </trkpt>
      <trkpt lat="43.62259" lon="1.34908">
        <ele>153.6</ele>
        <time>2023-04-19T05:10:51Z</time>
      </trkpt>
      <trkpt lat="43.6226" lon="1.34913">
        <ele>153.6</ele>
        <time>2023-04-19T05:10:52Z</time>
      </trkpt>
      <trkpt lat="43.6226" lon="1.34924">
        <ele>153.4</ele>
        <time>2023-04-19T05:10:54Z</time>
      </trkpt>
      <trkpt lat="43.6226" lon="1.34943">
        <ele>153</ele>
        <time>2023-04-19T05:10:57Z</time>
      </trkpt>
      <trkpt lat="43.62262" lon="1.34993">
        <ele>152.8</ele>
        <time>2023-04-19T05:11:04Z</time>
      </trkpt>
      <trkpt lat="43.62265" lon="1.35048">
        <ele>152.8</ele>
        <time>2023-04-19T05:11:12Z</time>
      </trkpt>
      <trkpt lat="43.62267" lon="1.35109">
        <ele>153.2</ele>
        <time>2023-04-19T05:11:21Z</time>
      </trkpt>
      <trkpt lat="43.62269" lon="1.35151">
        <ele>153.2</ele>
        <time>2023-04-19T05:11:28Z</time>
      </trkpt>
      <trkpt lat="43.62271" lon="1.35153">
        <ele>153.2</ele>
        <time>2023-04-19T05:11:29Z</time>
      </trkpt>
      <trkpt lat="43.62273" lon="1.35152">
        <ele>153.2</ele>
        <time>2023-04-19T05:11:31Z</time>
      </trkpt>
      <trkpt lat="43.62273" lon="1.35152">
        <ele>153.2</ele>
        <time>2023-04-19T05:11:32Z</time>
      </trkpt>
      <trkpt lat="43.62273" lon="1.35152">
        <ele>152.8</ele>
        <time>2023-04-19T05:12:22Z</time>
      </trkpt>
      <trkpt lat="43.62273" lon="1.35152">
        <ele>152.8</ele>
        <time>2023-04-19T05:12:23Z</time>
      </trkpt>
      <trkpt lat="43.62273" lon="1.35152">
        <ele>176.2</ele>
        <time>2023-04-19T15:06:09Z</time>
      </trkpt>
      <trkpt lat="43.62277" lon="1.35185">
        <ele>177.6</ele>
        <time>2023-04-19T15:06:19Z</time>
      </trkpt>
      <trkpt lat="43.62276" lon="1.35197">
        <ele>177.8</ele>
        <time>2023-04-19T15:06:20Z</time>
      </trkpt>
      <trkpt lat="43.62274" lon="1.352">
        <ele>177.8</ele>
        <time>2023-04-19T15:06:21Z</time>
      </trkpt>
      <trkpt lat="43.62262" lon="1.3521">
        <ele>177.8</ele>
        <time>2023-04-19T15:06:23Z</time>
      </trkpt>
      <trkpt lat="43.62259" lon="1.35211">
        <ele>177.8</ele>
        <time>2023-04-19T15:06:24Z</time>
      </trkpt>
      <trkpt lat="43.62254" lon="1.35211">
        <ele>177.8</ele>
        <time>2023-04-19T15:06:25Z</time>
      </trkpt>
      <trkpt lat="43.62244" lon="1.35208">
        <ele>178</ele>
        <time>2023-04-19T15:06:27Z</time>
      </trkpt>
      <trkpt lat="43.6224" lon="1.35204">
        <ele>178</ele>
        <time>2023-04-19T15:06:28Z</time>
      </trkpt>
      <trkpt lat="43.62221" lon="1.35187">
        <ele>178</ele>
        <time>2023-04-19T15:06:32Z</time>
      </trkpt>
      <trkpt lat="43.62216" lon="1.35185">
        <ele>178</ele>
        <time>2023-04-19T15:06:33Z</time>
      </trkpt>
      <trkpt lat="43.62211" lon="1.35184">
        <ele>178</ele>
        <time>2023-04-19T15:06:34Z</time>
      </trkpt>
      <trkpt lat="43.62193" lon="1.35187">
        <ele>178.4</ele>
        <time>2023-04-19T15:06:37Z</time>
      </trkpt>
      <trkpt lat="43.62182" lon="1.35192">
        <ele>178.8</ele>
        <time>2023-04-19T15:06:39Z</time>
      </trkpt>
      <trkpt lat="43.62171" lon="1.35198">
        <ele>179.2</ele>
        <time>2023-04-19T15:06:41Z</time>
      </trkpt>
      <trkpt lat="43.62165" lon="1.35199">
        <ele>179.2</ele>
        <time>2023-04-19T15:06:42Z</time>
      </trkpt>
      <trkpt lat="43.62161" lon="1.35196">
        <ele>179.4</ele>
        <time>2023-04-19T15:06:43Z</time>
      </trkpt>
      <trkpt lat="43.62157" lon="1.35191">
        <ele>179.6</ele>
        <time>2023-04-19T15:06:44Z</time>
      </trkpt>
      <trkpt lat="43.62154" lon="1.35183">
        <ele>179.6</ele>
        <time>2023-04-19T15:06:45Z</time>
      </trkpt>
      <trkpt lat="43.62152" lon="1.35176">
        <ele>179.8</ele>
        <time>2023-04-19T15:06:46Z</time>
      </trkpt>
      <trkpt lat="43.62141" lon="1.35145">
        <ele>180</ele>
        <time>2023-04-19T15:06:50Z</time>
      </trkpt>
      <trkpt lat="43.6213" lon="1.35104">
        <ele>180</ele>
        <time>2023-04-19T15:06:55Z</time>
      </trkpt>
      <trkpt lat="43.62126" lon="1.35096">
        <ele>180</ele>
        <time>2023-04-19T15:06:56Z</time>
      </trkpt>
      <trkpt lat="43.62122" lon="1.3509">
        <ele>180</ele>
        <time>2023-04-19T15:06:58Z</time>
      </trkpt>
      <trkpt lat="43.62116" lon="1.35086">
        <ele>180.2</ele>
        <time>2023-04-19T15:06:59Z</time>
      </trkpt>
      <trkpt lat="43.6211" lon="1.35086">
        <ele>180.2</ele>
        <time>2023-04-19T15:07:00Z</time>
      </trkpt>
      <trkpt lat="43.62097" lon="1.35087">
        <ele>180.4</ele>
        <time>2023-04-19T15:07:02Z</time>
      </trkpt>
      <trkpt lat="43.6209" lon="1.35086">
        <ele>180.4</ele>
        <time>2023-04-19T15:07:03Z</time>
      </trkpt>
      <trkpt lat="43.62083" lon="1.35084">
        <ele>180.4</ele>
        <time>2023-04-19T15:07:04Z</time>
      </trkpt>
      <trkpt lat="43.62059" lon="1.35071">
        <ele>180.6</ele>
        <time>2023-04-19T15:07:08Z</time>
      </trkpt>
      <trkpt lat="43.62041" lon="1.35061">
        <ele>180.8</ele>
        <time>2023-04-19T15:07:11Z</time>
      </trkpt>
      <trkpt lat="43.62029" lon="1.35061">
        <ele>180.8</ele>
        <time>2023-04-19T15:07:13Z</time>
      </trkpt>
      <trkpt lat="43.62021" lon="1.35063">
        <ele>180.8</ele>
        <time>2023-04-19T15:07:14Z</time>
      </trkpt>
      <trkpt lat="43.61998" lon="1.35071">
        <ele>180.8</ele>
        <time>2023-04-19T15:07:18Z</time>
      </trkpt>
      <trkpt lat="43.61991" lon="1.35072">
        <ele>180.8</ele>
        <time>2023-04-19T15:07:19Z</time>
      </trkpt>
      <trkpt lat="43.61962" lon="1.35068">
        <ele>180.8</ele>
        <time>2023-04-19T15:07:24Z</time>
      </trkpt>
      <trkpt lat="43.61933" lon="1.3505">
        <ele>180.8</ele>
        <time>2023-04-19T15:07:29Z</time>
      </trkpt>
      <trkpt lat="43.61882" lon="1.35027">
        <ele>181.2</ele>
        <time>2023-04-19T15:07:37Z</time>
      </trkpt>
      <trkpt lat="43.61867" lon="1.35023">
        <ele>181.2</ele>
        <time>2023-04-19T15:07:39Z</time>
      </trkpt>
      <trkpt lat="43.61841" lon="1.35016">
        <ele>181.2</ele>
        <time>2023-04-19T15:07:43Z</time>
      </trkpt>
      <trkpt lat="43.61801" lon="1.35003">
        <ele>181.2</ele>
        <time>2023-04-19T15:07:49Z</time>
      </trkpt>
      <trkpt lat="43.61787" lon="1.35006">
        <ele>181.2</ele>
        <time>2023-04-19T15:07:51Z</time>
      </trkpt>
      <trkpt lat="43.61779" lon="1.35019">
        <ele>181.2</ele>
        <time>2023-04-19T15:07:53Z</time>
      </trkpt>
      <trkpt lat="43.61776" lon="1.35028">
        <ele>181.2</ele>
        <time>2023-04-19T15:07:54Z</time>
      </trkpt>
      <trkpt lat="43.61774" lon="1.35039">
        <ele>181.2</ele>
        <time>2023-04-19T15:07:55Z</time>
      </trkpt>
      <trkpt lat="43.61768" lon="1.35076">
        <ele>181.4</ele>
        <time>2023-04-19T15:07:59Z</time>
      </trkpt>
      <trkpt lat="43.61757" lon="1.35143">
        <ele>181.4</ele>
        <time>2023-04-19T15:08:06Z</time>
      </trkpt>
      <trkpt lat="43.61753" lon="1.35151">
        <ele>181.4</ele>
        <time>2023-04-19T15:08:07Z</time>
      </trkpt>
      <trkpt lat="43.61749" lon="1.35157">
        <ele>181.4</ele>
        <time>2023-04-19T15:08:08Z</time>
      </trkpt>
      <trkpt lat="43.61737" lon="1.35168">
        <ele>181.4</ele>
        <time>2023-04-19T15:08:10Z</time>
      </trkpt>
      <trkpt lat="43.61722" lon="1.35171">
        <ele>181.4</ele>
        <time>2023-04-19T15:08:12Z</time>
      </trkpt>
      <trkpt lat="43.61715" lon="1.35171">
        <ele>181.4</ele>
        <time>2023-04-19T15:08:13Z</time>
      </trkpt>
      <trkpt lat="43.61679" lon="1.35169">
        <ele>181</ele>
        <time>2023-04-19T15:08:18Z</time>
      </trkpt>
      <trkpt lat="43.61673" lon="1.35174">
        <ele>181</ele>
        <time>2023-04-19T15:08:19Z</time>
      </trkpt>
      <trkpt lat="43.61668" lon="1.3518">
        <ele>181</ele>
        <time>2023-04-19T15:08:20Z</time>
      </trkpt>
      <trkpt lat="43.61663" lon="1.35197">
        <ele>181</ele>
        <time>2023-04-19T15:08:22Z</time>
      </trkpt>
      <trkpt lat="43.61658" lon="1.35247">
        <ele>181</ele>
        <time>2023-04-19T15:08:27Z</time>
      </trkpt>
      <trkpt lat="43.61657" lon="1.35258">
        <ele>181.2</ele>
        <time>2023-04-19T15:08:28Z</time>
      </trkpt>
      <trkpt lat="43.61651" lon="1.35326">
        <ele>181.2</ele>
        <time>2023-04-19T15:08:35Z</time>
      </trkpt>
      <trkpt lat="43.61649" lon="1.35335">
        <ele>181.2</ele>
        <time>2023-04-19T15:08:36Z</time>
      </trkpt>
      <trkpt lat="43.61638" lon="1.35348">
        <ele>181.4</ele>
        <time>2023-04-19T15:08:38Z</time>
      </trkpt>
      <trkpt lat="43.61633" lon="1.35355">
        <ele>181.4</ele>
        <time>2023-04-19T15:08:39Z</time>
      </trkpt>
      <trkpt lat="43.6163" lon="1.35372">
        <ele>181.4</ele>
        <time>2023-04-19T15:08:41Z</time>
      </trkpt>
      <trkpt lat="43.61628" lon="1.3539">
        <ele>181.6</ele>
        <time>2023-04-19T15:08:43Z</time>
      </trkpt>
      <trkpt lat="43.61625" lon="1.35407">
        <ele>181.6</ele>
        <time>2023-04-19T15:08:45Z</time>
      </trkpt>
      <trkpt lat="43.61601" lon="1.3548">
        <ele>181.2</ele>
        <time>2023-04-19T15:08:54Z</time>
      </trkpt>
      <trkpt lat="43.61593" lon="1.35504">
        <ele>181</ele>
        <time>2023-04-19T15:08:57Z</time>
      </trkpt>
      <trkpt lat="43.61584" lon="1.35545">
        <ele>181</ele>
        <time>2023-04-19T15:09:02Z</time>
      </trkpt>
      <trkpt lat="43.61567" lon="1.35595">
        <ele>181</ele>
        <time>2023-04-19T15:09:08Z</time>
      </trkpt>
      <trkpt lat="43.61543" lon="1.35638">
        <ele>180.8</ele>
        <time>2023-04-19T15:09:15Z</time>
      </trkpt>
      <trkpt lat="43.61508" lon="1.35679">
        <ele>180.4</ele>
        <time>2023-04-19T15:09:21Z</time>
      </trkpt>
      <trkpt lat="43.61498" lon="1.35688">
        <ele>180.4</ele>
        <time>2023-04-19T15:09:23Z</time>
      </trkpt>
      <trkpt lat="43.61487" lon="1.35691">
        <ele>180.4</ele>
        <time>2023-04-19T15:09:25Z</time>
      </trkpt>
      <trkpt lat="43.61474" lon="1.3569">
        <ele>180.6</ele>
        <time>2023-04-19T15:09:27Z</time>
      </trkpt>
      <trkpt lat="43.61469" lon="1.35694">
        <ele>180.6</ele>
        <time>2023-04-19T15:09:28Z</time>
      </trkpt>
      <trkpt lat="43.61464" lon="1.357">
        <ele>180.8</ele>
        <time>2023-04-19T15:09:29Z</time>
      </trkpt>
      <trkpt lat="43.61459" lon="1.35716">
        <ele>181</ele>
        <time>2023-04-19T15:09:31Z</time>
      </trkpt>
      <trkpt lat="43.61451" lon="1.35729">
        <ele>181</ele>
        <time>2023-04-19T15:09:33Z</time>
      </trkpt>
      <trkpt lat="43.61444" lon="1.35734">
        <ele>181</ele>
        <time>2023-04-19T15:09:34Z</time>
      </trkpt>
      <trkpt lat="43.61433" lon="1.35738">
        <ele>181.2</ele>
        <time>2023-04-19T15:09:36Z</time>
      </trkpt>
      <trkpt lat="43.6142" lon="1.35737">
        <ele>181.2</ele>
        <time>2023-04-19T15:09:38Z</time>
      </trkpt>
      <trkpt lat="43.61388" lon="1.35732">
        <ele>181</ele>
        <time>2023-04-19T15:09:43Z</time>
      </trkpt>
      <trkpt lat="43.61383" lon="1.35726">
        <ele>181</ele>
        <time>2023-04-19T15:09:44Z</time>
      </trkpt>
      <trkpt lat="43.61376" lon="1.35711">
        <ele>181</ele>
        <time>2023-04-19T15:09:46Z</time>
      </trkpt>
      <trkpt lat="43.61372" lon="1.35695">
        <ele>181</ele>
        <time>2023-04-19T15:09:48Z</time>
      </trkpt>
      <trkpt lat="43.61367" lon="1.35669">
        <ele>181</ele>
        <time>2023-04-19T15:09:53Z</time>
      </trkpt>
      <trkpt lat="43.61365" lon="1.35661">
        <ele>181</ele>
        <time>2023-04-19T15:09:55Z</time>
      </trkpt>
      <trkpt lat="43.61365" lon="1.35661">
        <ele>181</ele>
        <time>2023-04-19T15:09:56Z</time>
      </trkpt>
      <trkpt lat="43.61365" lon="1.35658">
        <ele>181</ele>
        <time>2023-04-19T15:10:00Z</time>
      </trkpt>
      <trkpt lat="43.61365" lon="1.35657">
        <ele>181</ele>
        <time>2023-04-19T15:10:01Z</time>
      </trkpt>
      <trkpt lat="43.61364" lon="1.35655">
        <ele>180.2</ele>
        <time>2023-04-19T15:12:21Z</time>
      </trkpt>
      <trkpt lat="43.61362" lon="1.35648">
        <ele>180.2</ele>
        <time>2023-04-19T15:12:23Z</time>
      </trkpt>
      <trkpt lat="43.61361" lon="1.35639">
        <ele>180</ele>
        <time>2023-04-19T15:12:25Z</time>
      </trkpt>
      <trkpt lat="43.61357" lon="1.35628">
        <ele>180</ele>
        <time>2023-04-19T15:12:27Z</time>
      </trkpt>
      <trkpt lat="43.61354" lon="1.35624">
        <ele>180</ele>
        <time>2023-04-19T15:12:28Z</time>
      </trkpt>
      <trkpt lat="43.61351" lon="1.3562">
        <ele>180</ele>
        <time>2023-04-19T15:12:29Z</time>
      </trkpt>
      <trkpt lat="43.61341" lon="1.35614">
        <ele>180</ele>
        <time>2023-04-19T15:12:31Z</time>
      </trkpt>
      <trkpt lat="43.61335" lon="1.35613">
        <ele>180</ele>
        <time>2023-04-19T15:12:32Z</time>
      </trkpt>
      <trkpt lat="43.61299" lon="1.35612">
        <ele>180</ele>
        <time>2023-04-19T15:12:38Z</time>
      </trkpt>
      <trkpt lat="43.61263" lon="1.35621">
        <ele>180</ele>
        <time>2023-04-19T15:12:44Z</time>
      </trkpt>
      <trkpt lat="43.61222" lon="1.35619">
        <ele>180.4</ele>
        <time>2023-04-19T15:12:50Z</time>
      </trkpt>
      <trkpt lat="43.61166" lon="1.35616">
        <ele>180.4</ele>
        <time>2023-04-19T15:12:58Z</time>
      </trkpt>
      <trkpt lat="43.61142" lon="1.35614">
        <ele>180.4</ele>
        <time>2023-04-19T15:13:01Z</time>
      </trkpt>
      <trkpt lat="43.61083" lon="1.3561">
        <ele>180.2</ele>
        <time>2023-04-19T15:13:09Z</time>
      </trkpt>
      <trkpt lat="43.61067" lon="1.35609">
        <ele>180.2</ele>
        <time>2023-04-19T15:13:11Z</time>
      </trkpt>
      <trkpt lat="43.6101" lon="1.35604">
        <ele>180.2</ele>
        <time>2023-04-19T15:13:19Z</time>
      </trkpt>
      <trkpt lat="43.61003" lon="1.35605">
        <ele>180.2</ele>
        <time>2023-04-19T15:13:20Z</time>
      </trkpt>
      <trkpt lat="43.60991" lon="1.35614">
        <ele>180.2</ele>
        <time>2023-04-19T15:13:22Z</time>
      </trkpt>
      <trkpt lat="43.60987" lon="1.35621">
        <ele>180.2</ele>
        <time>2023-04-19T15:13:23Z</time>
      </trkpt>
      <trkpt lat="43.60984" lon="1.3563">
        <ele>180.2</ele>
        <time>2023-04-19T15:13:25Z</time>
      </trkpt>
      <trkpt lat="43.60983" lon="1.35647">
        <ele>180.4</ele>
        <time>2023-04-19T15:13:26Z</time>
      </trkpt>
      <trkpt lat="43.60981" lon="1.35714">
        <ele>180.8</ele>
        <time>2023-04-19T15:13:34Z</time>
      </trkpt>
      <trkpt lat="43.60978" lon="1.35802">
        <ele>181</ele>
        <time>2023-04-19T15:13:42Z</time>
      </trkpt>
      <trkpt lat="43.60978" lon="1.35812">
        <ele>181</ele>
        <time>2023-04-19T15:13:44Z</time>
      </trkpt>
      <trkpt lat="43.60975" lon="1.35891">
        <ele>181.2</ele>
        <time>2023-04-19T15:13:52Z</time>
      </trkpt>
      <trkpt lat="43.60974" lon="1.3593">
        <ele>181.2</ele>
        <time>2023-04-19T15:13:56Z</time>
      </trkpt>
      <trkpt lat="43.60971" lon="1.36015">
        <ele>181</ele>
        <time>2023-04-19T15:14:04Z</time>
      </trkpt>
      <trkpt lat="43.60969" lon="1.36033">
        <ele>181</ele>
        <time>2023-04-19T15:14:07Z</time>
      </trkpt>
      <trkpt lat="43.60967" lon="1.36097">
        <ele>181</ele>
        <time>2023-04-19T15:14:14Z</time>
      </trkpt>
      <trkpt lat="43.60978" lon="1.36116">
        <ele>181</ele>
        <time>2023-04-19T15:14:16Z</time>
      </trkpt>
      <trkpt lat="43.60985" lon="1.36117">
        <ele>181</ele>
        <time>2023-04-19T15:14:18Z</time>
      </trkpt>
      <trkpt lat="43.60997" lon="1.36114">
        <ele>181</ele>
        <time>2023-04-19T15:14:19Z</time>
      </trkpt>
      <trkpt lat="43.61002" lon="1.36109">
        <ele>181</ele>
        <time>2023-04-19T15:14:20Z</time>
      </trkpt>
      <trkpt lat="43.61008" lon="1.36104">
        <ele>181</ele>
        <time>2023-04-19T15:14:22Z</time>
      </trkpt>
      <trkpt lat="43.61014" lon="1.36102">
        <ele>180.8</ele>
        <time>2023-04-19T15:14:23Z</time>
      </trkpt>
      <trkpt lat="43.6107" lon="1.36105">
        <ele>180.8</ele>
        <time>2023-04-19T15:14:32Z</time>
      </trkpt>
      <trkpt lat="43.61115" lon="1.36108">
        <ele>181</ele>
        <time>2023-04-19T15:14:39Z</time>
      </trkpt>
      <trkpt lat="43.61159" lon="1.36111">
        <ele>181</ele>
        <time>2023-04-19T15:14:45Z</time>
      </trkpt>
      <trkpt lat="43.61159" lon="1.36111">
        <ele>181</ele>
        <time>2023-04-19T15:14:46Z</time>
      </trkpt>
      <trkpt lat="43.61165" lon="1.36122">
        <ele>181</ele>
        <time>2023-04-19T15:14:47Z</time>
      </trkpt>
      <trkpt lat="43.61165" lon="1.36122">
        <ele>181</ele>
        <time>2023-04-19T15:14:48Z</time>
      </trkpt>
      <trkpt lat="43.61169" lon="1.36137">
        <ele>181</ele>
        <time>2023-04-19T15:14:50Z</time>
      </trkpt>
      <trkpt lat="43.61168" lon="1.36163">
        <ele>181</ele>
        <time>2023-04-19T15:14:52Z</time>
      </trkpt>
      <trkpt lat="43.61168" lon="1.36163">
        <ele>180.8</ele>
        <time>2023-04-19T15:14:53Z</time>
      </trkpt>
      <trkpt lat="43.61167" lon="1.3621">
        <ele>180.6</ele>
        <time>2023-04-19T15:14:58Z</time>
      </trkpt>
      <trkpt lat="43.61164" lon="1.36291">
        <ele>180.2</ele>
        <time>2023-04-19T15:15:05Z</time>
      </trkpt>
      <trkpt lat="43.61162" lon="1.36367">
        <ele>179.8</ele>
        <time>2023-04-19T15:15:13Z</time>
      </trkpt>
      <trkpt lat="43.61161" lon="1.36403">
        <ele>179.8</ele>
        <time>2023-04-19T15:15:17Z</time>
      </trkpt>
      <trkpt lat="43.6116" lon="1.36479">
        <ele>180.2</ele>
        <time>2023-04-19T15:15:25Z</time>
      </trkpt>
      <trkpt lat="43.61159" lon="1.3652">
        <ele>180.4</ele>
        <time>2023-04-19T15:15:29Z</time>
      </trkpt>
      <trkpt lat="43.61155" lon="1.36545">
        <ele>180.4</ele>
        <time>2023-04-19T15:15:32Z</time>
      </trkpt>
      <trkpt lat="43.61149" lon="1.3656">
        <ele>180.4</ele>
        <time>2023-04-19T15:15:34Z</time>
      </trkpt>
      <trkpt lat="43.61145" lon="1.36585">
        <ele>180.2</ele>
        <time>2023-04-19T15:15:37Z</time>
      </trkpt>
      <trkpt lat="43.61149" lon="1.36603">
        <ele>180.2</ele>
        <time>2023-04-19T15:15:39Z</time>
      </trkpt>
      <trkpt lat="43.61149" lon="1.36614">
        <ele>180.2</ele>
        <time>2023-04-19T15:15:40Z</time>
      </trkpt>
      <trkpt lat="43.61146" lon="1.36662">
        <ele>180.2</ele>
        <time>2023-04-19T15:15:45Z</time>
      </trkpt>
      <trkpt lat="43.61145" lon="1.36711">
        <ele>180.2</ele>
        <time>2023-04-19T15:15:50Z</time>
      </trkpt>
      <trkpt lat="43.61141" lon="1.3679">
        <ele>180</ele>
        <time>2023-04-19T15:15:58Z</time>
      </trkpt>
      <trkpt lat="43.6114" lon="1.36809">
        <ele>180</ele>
        <time>2023-04-19T15:16:00Z</time>
      </trkpt>
      <trkpt lat="43.61136" lon="1.36849">
        <ele>179.8</ele>
        <time>2023-04-19T15:16:05Z</time>
      </trkpt>
      <trkpt lat="43.61131" lon="1.36859">
        <ele>179.6</ele>
        <time>2023-04-19T15:16:07Z</time>
      </trkpt>
      <trkpt lat="43.61129" lon="1.3687">
        <ele>179.6</ele>
        <time>2023-04-19T15:16:09Z</time>
      </trkpt>
      <trkpt lat="43.61128" lon="1.36911">
        <ele>179.2</ele>
        <time>2023-04-19T15:16:14Z</time>
      </trkpt>
      <trkpt lat="43.61126" lon="1.36964">
        <ele>179.6</ele>
        <time>2023-04-19T15:16:21Z</time>
      </trkpt>
      <trkpt lat="43.61126" lon="1.3698">
        <ele>179.6</ele>
        <time>2023-04-19T15:16:25Z</time>
      </trkpt>
      <trkpt lat="43.61126" lon="1.36983">
        <ele>179.6</ele>
        <time>2023-04-19T15:16:38Z</time>
      </trkpt>
      <trkpt lat="43.61126" lon="1.3699">
        <ele>179.6</ele>
        <time>2023-04-19T15:16:40Z</time>
      </trkpt>
      <trkpt lat="43.61126" lon="1.37021">
        <ele>179.4</ele>
        <time>2023-04-19T15:16:46Z</time>
      </trkpt>
      <trkpt lat="43.61126" lon="1.37025">
        <ele>179.4</ele>
        <time>2023-04-19T15:16:47Z</time>
      </trkpt>
      <trkpt lat="43.61126" lon="1.37031">
        <ele>179.4</ele>
        <time>2023-04-19T15:16:49Z</time>
      </trkpt>
      <trkpt lat="43.61125" lon="1.37035">
        <ele>179.4</ele>
        <time>2023-04-19T15:16:50Z</time>
      </trkpt>
      <trkpt lat="43.6112" lon="1.37044">
        <ele>179.2</ele>
        <time>2023-04-19T15:16:52Z</time>
      </trkpt>
      <trkpt lat="43.61118" lon="1.3705">
        <ele>179.2</ele>
        <time>2023-04-19T15:16:53Z</time>
      </trkpt>
      <trkpt lat="43.61118" lon="1.37057">
        <ele>179.2</ele>
        <time>2023-04-19T15:16:54Z</time>
      </trkpt>
      <trkpt lat="43.61122" lon="1.37072">
        <ele>179</ele>
        <time>2023-04-19T15:16:56Z</time>
      </trkpt>
      <trkpt lat="43.61124" lon="1.37078">
        <ele>179</ele>
        <time>2023-04-19T15:16:57Z</time>
      </trkpt>
      <trkpt lat="43.61127" lon="1.37098">
        <ele>179</ele>
        <time>2023-04-19T15:16:59Z</time>
      </trkpt>
      <trkpt lat="43.61126" lon="1.37107">
        <ele>178.8</ele>
        <time>2023-04-19T15:17:00Z</time>
      </trkpt>
      <trkpt lat="43.61123" lon="1.37163">
        <ele>178.6</ele>
        <time>2023-04-19T15:17:06Z</time>
      </trkpt>
      <trkpt lat="43.61121" lon="1.37235">
        <ele>179</ele>
        <time>2023-04-19T15:17:14Z</time>
      </trkpt>
      <trkpt lat="43.61123" lon="1.37242">
        <ele>179</ele>
        <time>2023-04-19T15:17:15Z</time>
      </trkpt>
      <trkpt lat="43.61126" lon="1.37248">
        <ele>179</ele>
        <time>2023-04-19T15:17:16Z</time>
      </trkpt>
      <trkpt lat="43.61127" lon="1.37263">
        <ele>179.2</ele>
        <time>2023-04-19T15:17:18Z</time>
      </trkpt>
      <trkpt lat="43.6112" lon="1.37323">
        <ele>179.2</ele>
        <time>2023-04-19T15:17:25Z</time>
      </trkpt>
      <trkpt lat="43.61111" lon="1.37378">
        <ele>179</ele>
        <time>2023-04-19T15:17:31Z</time>
      </trkpt>
      <trkpt lat="43.61092" lon="1.37448">
        <ele>178.6</ele>
        <time>2023-04-19T15:17:39Z</time>
      </trkpt>
      <trkpt lat="43.61082" lon="1.37466">
        <ele>178.4</ele>
        <time>2023-04-19T15:17:42Z</time>
      </trkpt>
      <trkpt lat="43.61078" lon="1.37481">
        <ele>178.4</ele>
        <time>2023-04-19T15:17:44Z</time>
      </trkpt>
      <trkpt lat="43.61073" lon="1.37512">
        <ele>178.4</ele>
        <time>2023-04-19T15:17:48Z</time>
      </trkpt>
      <trkpt lat="43.61075" lon="1.3753">
        <ele>178.4</ele>
        <time>2023-04-19T15:17:50Z</time>
      </trkpt>
      <trkpt lat="43.61086" lon="1.37563">
        <ele>178.6</ele>
        <time>2023-04-19T15:17:54Z</time>
      </trkpt>
      <trkpt lat="43.61088" lon="1.3757">
        <ele>178.6</ele>
        <time>2023-04-19T15:17:55Z</time>
      </trkpt>
      <trkpt lat="43.61087" lon="1.37578">
        <ele>179</ele>
        <time>2023-04-19T15:17:56Z</time>
      </trkpt>
      <trkpt lat="43.61084" lon="1.37584">
        <ele>179</ele>
        <time>2023-04-19T15:17:57Z</time>
      </trkpt>
      <trkpt lat="43.6108" lon="1.37588">
        <ele>179</ele>
        <time>2023-04-19T15:17:58Z</time>
      </trkpt>
      <trkpt lat="43.61065" lon="1.37601">
        <ele>179</ele>
        <time>2023-04-19T15:18:01Z</time>
      </trkpt>
      <trkpt lat="43.61038" lon="1.37628">
        <ele>179</ele>
        <time>2023-04-19T15:18:06Z</time>
      </trkpt>
      <trkpt lat="43.61031" lon="1.37643">
        <ele>179</ele>
        <time>2023-04-19T15:18:08Z</time>
      </trkpt>
      <trkpt lat="43.61025" lon="1.37659">
        <ele>179</ele>
        <time>2023-04-19T15:18:10Z</time>
      </trkpt>
      <trkpt lat="43.61022" lon="1.37667">
        <ele>179</ele>
        <time>2023-04-19T15:18:11Z</time>
      </trkpt>
      <trkpt lat="43.60999" lon="1.37735">
        <ele>178.6</ele>
        <time>2023-04-19T15:18:19Z</time>
      </trkpt>
      <trkpt lat="43.60989" lon="1.37764">
        <ele>178.4</ele>
        <time>2023-04-19T15:18:22Z</time>
      </trkpt>
      <trkpt lat="43.60983" lon="1.37784">
        <ele>178.2</ele>
        <time>2023-04-19T15:18:24Z</time>
      </trkpt>
      <trkpt lat="43.60977" lon="1.37803">
        <ele>177.6</ele>
        <time>2023-04-19T15:18:26Z</time>
      </trkpt>
      <trkpt lat="43.60974" lon="1.37812">
        <ele>177.4</ele>
        <time>2023-04-19T15:18:27Z</time>
      </trkpt>
      <trkpt lat="43.60972" lon="1.3782">
        <ele>177</ele>
        <time>2023-04-19T15:18:28Z</time>
      </trkpt>
      <trkpt lat="43.60956" lon="1.37864">
        <ele>176.4</ele>
        <time>2023-04-19T15:18:33Z</time>
      </trkpt>
      <trkpt lat="43.60943" lon="1.37911">
        <ele>175.8</ele>
        <time>2023-04-19T15:18:38Z</time>
      </trkpt>
      <trkpt lat="43.6094" lon="1.37921">
        <ele>175.6</ele>
        <time>2023-04-19T15:18:39Z</time>
      </trkpt>
      <trkpt lat="43.60929" lon="1.37962">
        <ele>174.8</ele>
        <time>2023-04-19T15:18:43Z</time>
      </trkpt>
      <trkpt lat="43.60926" lon="1.37971">
        <ele>174.8</ele>
        <time>2023-04-19T15:18:44Z</time>
      </trkpt>
      <trkpt lat="43.60918" lon="1.37994">
        <ele>173.6</ele>
        <time>2023-04-19T15:18:48Z</time>
      </trkpt>
      <trkpt lat="43.60916" lon="1.37999">
        <ele>173.4</ele>
        <time>2023-04-19T15:18:50Z</time>
      </trkpt>
      <trkpt lat="43.60914" lon="1.38001">
        <ele>173.2</ele>
        <time>2023-04-19T15:18:51Z</time>
      </trkpt>
      <trkpt lat="43.60913" lon="1.38002">
        <ele>173.2</ele>
        <time>2023-04-19T15:18:52Z</time>
      </trkpt>
      <trkpt lat="43.60913" lon="1.38002">
        <ele>173</ele>
        <time>2023-04-19T15:18:53Z</time>
      </trkpt>
      <trkpt lat="43.60908" lon="1.38005">
        <ele>172.2</ele>
        <time>2023-04-19T15:19:05Z</time>
      </trkpt>
      <trkpt lat="43.60905" lon="1.38007">
        <ele>172</ele>
        <time>2023-04-19T15:19:07Z</time>
      </trkpt>
      <trkpt lat="43.609" lon="1.38014">
        <ele>172</ele>
        <time>2023-04-19T15:19:09Z</time>
      </trkpt>
      <trkpt lat="43.60899" lon="1.3802">
        <ele>172</ele>
        <time>2023-04-19T15:19:10Z</time>
      </trkpt>
      <trkpt lat="43.609" lon="1.38027">
        <ele>172</ele>
        <time>2023-04-19T15:19:11Z</time>
      </trkpt>
      <trkpt lat="43.60901" lon="1.38043">
        <ele>172</ele>
        <time>2023-04-19T15:19:13Z</time>
      </trkpt>
      <trkpt lat="43.609" lon="1.3806">
        <ele>171.4</ele>
        <time>2023-04-19T15:19:16Z</time>
      </trkpt>
      <trkpt lat="43.60898" lon="1.38064">
        <ele>171.2</ele>
        <time>2023-04-19T15:19:17Z</time>
      </trkpt>
      <trkpt lat="43.60897" lon="1.38069">
        <ele>171.2</ele>
        <time>2023-04-19T15:19:18Z</time>
      </trkpt>
      <trkpt lat="43.60892" lon="1.38086">
        <ele>170.8</ele>
        <time>2023-04-19T15:19:21Z</time>
      </trkpt>
      <trkpt lat="43.60884" lon="1.38103">
        <ele>170.2</ele>
        <time>2023-04-19T15:19:25Z</time>
      </trkpt>
      <trkpt lat="43.60882" lon="1.38108">
        <ele>169.8</ele>
        <time>2023-04-19T15:19:27Z</time>
      </trkpt>
      <trkpt lat="43.60872" lon="1.38124">
        <ele>169.6</ele>
        <time>2023-04-19T15:19:30Z</time>
      </trkpt>
      <trkpt lat="43.60869" lon="1.38131">
        <ele>169.4</ele>
        <time>2023-04-19T15:19:31Z</time>
      </trkpt>
      <trkpt lat="43.60862" lon="1.38147">
        <ele>169.2</ele>
        <time>2023-04-19T15:19:33Z</time>
      </trkpt>
      <trkpt lat="43.60845" lon="1.38182">
        <ele>168.8</ele>
        <time>2023-04-19T15:19:37Z</time>
      </trkpt>
      <trkpt lat="43.6084" lon="1.38191">
        <ele>168.8</ele>
        <time>2023-04-19T15:19:38Z</time>
      </trkpt>
      <trkpt lat="43.60836" lon="1.38202">
        <ele>168.4</ele>
        <time>2023-04-19T15:19:39Z</time>
      </trkpt>
      <trkpt lat="43.6083" lon="1.38224">
        <ele>168.2</ele>
        <time>2023-04-19T15:19:41Z</time>
      </trkpt>
      <trkpt lat="43.60828" lon="1.38236">
        <ele>168</ele>
        <time>2023-04-19T15:19:42Z</time>
      </trkpt>
      <trkpt lat="43.60824" lon="1.38255">
        <ele>167.8</ele>
        <time>2023-04-19T15:19:44Z</time>
      </trkpt>
      <trkpt lat="43.60823" lon="1.38264">
        <ele>167.6</ele>
        <time>2023-04-19T15:19:46Z</time>
      </trkpt>
      <trkpt lat="43.60823" lon="1.38267">
        <ele>167</ele>
        <time>2023-04-19T15:19:48Z</time>
      </trkpt>
      <trkpt lat="43.60823" lon="1.38273">
        <ele>166.6</ele>
        <time>2023-04-19T15:19:50Z</time>
      </trkpt>
      <trkpt lat="43.60822" lon="1.38281">
        <ele>166.4</ele>
        <time>2023-04-19T15:19:52Z</time>
      </trkpt>
      <trkpt lat="43.60822" lon="1.38287">
        <ele>166.2</ele>
        <time>2023-04-19T15:19:53Z</time>
      </trkpt>
      <trkpt lat="43.60822" lon="1.38293">
        <ele>166.2</ele>
        <time>2023-04-19T15:19:54Z</time>
      </trkpt>
      <trkpt lat="43.60825" lon="1.38324">
        <ele>166</ele>
        <time>2023-04-19T15:19:58Z</time>
      </trkpt>
      <trkpt lat="43.60826" lon="1.38332">
        <ele>165.8</ele>
        <time>2023-04-19T15:19:59Z</time>
      </trkpt>
      <trkpt lat="43.60831" lon="1.38367">
        <ele>165.6</ele>
        <time>2023-04-19T15:20:03Z</time>
      </trkpt>
      <trkpt lat="43.60834" lon="1.38384">
        <ele>165.6</ele>
        <time>2023-04-19T15:20:05Z</time>
      </trkpt>
      <trkpt lat="43.60843" lon="1.38442">
        <ele>166.2</ele>
        <time>2023-04-19T15:20:12Z</time>
      </trkpt>
      <trkpt lat="43.60847" lon="1.38466">
        <ele>166.8</ele>
        <time>2023-04-19T15:20:15Z</time>
      </trkpt>
      <trkpt lat="43.60852" lon="1.38496">
        <ele>168</ele>
        <time>2023-04-19T15:20:19Z</time>
      </trkpt>
      <trkpt lat="43.60858" lon="1.38532">
        <ele>169</ele>
        <time>2023-04-19T15:20:24Z</time>
      </trkpt>
      <trkpt lat="43.60857" lon="1.38536">
        <ele>169.2</ele>
        <time>2023-04-19T15:20:25Z</time>
      </trkpt>
      <trkpt lat="43.60853" lon="1.38541">
        <ele>169.6</ele>
        <time>2023-04-19T15:20:27Z</time>
      </trkpt>
      <trkpt lat="43.60849" lon="1.38542">
        <ele>169.6</ele>
        <time>2023-04-19T15:20:28Z</time>
      </trkpt>
      <trkpt lat="43.60843" lon="1.38543">
        <ele>169.6</ele>
        <time>2023-04-19T15:20:29Z</time>
      </trkpt>
      <trkpt lat="43.60837" lon="1.38543">
        <ele>169.6</ele>
        <time>2023-04-19T15:20:30Z</time>
      </trkpt>
      <trkpt lat="43.6083" lon="1.38545">
        <ele>169.6</ele>
        <time>2023-04-19T15:20:31Z</time>
      </trkpt>
      <trkpt lat="43.60821" lon="1.38552">
        <ele>168.8</ele>
        <time>2023-04-19T15:20:33Z</time>
      </trkpt>
      <trkpt lat="43.6081" lon="1.38565">
        <ele>168</ele>
        <time>2023-04-19T15:20:36Z</time>
      </trkpt>
      <trkpt lat="43.60804" lon="1.38573">
        <ele>168</ele>
        <time>2023-04-19T15:20:38Z</time>
      </trkpt>
      <trkpt lat="43.60796" lon="1.38584">
        <ele>169.2</ele>
        <time>2023-04-19T15:20:42Z</time>
      </trkpt>
      <trkpt lat="43.60791" lon="1.3859">
        <ele>170.6</ele>
        <time>2023-04-19T15:20:44Z</time>
      </trkpt>
      <trkpt lat="43.60788" lon="1.38596">
        <ele>171.8</ele>
        <time>2023-04-19T15:20:46Z</time>
      </trkpt>
      <trkpt lat="43.60785" lon="1.38598">
        <ele>172.4</ele>
        <time>2023-04-19T15:20:47Z</time>
      </trkpt>
      <trkpt lat="43.60784" lon="1.38601">
        <ele>173</ele>
        <time>2023-04-19T15:20:48Z</time>
      </trkpt>
      <trkpt lat="43.60781" lon="1.3861">
        <ele>174.2</ele>
        <time>2023-04-19T15:20:51Z</time>
      </trkpt>
      <trkpt lat="43.60777" lon="1.38615">
        <ele>175</ele>
        <time>2023-04-19T15:20:53Z</time>
      </trkpt>
      <trkpt lat="43.60774" lon="1.38615">
        <ele>175.2</ele>
        <time>2023-04-19T15:20:54Z</time>
      </trkpt>
      <trkpt lat="43.60771" lon="1.38613">
        <ele>175.8</ele>
        <time>2023-04-19T15:20:55Z</time>
      </trkpt>
      <trkpt lat="43.60754" lon="1.38608">
        <ele>176.4</ele>
        <time>2023-04-19T15:20:59Z</time>
      </trkpt>
      <trkpt lat="43.6075" lon="1.38606">
        <ele>176.8</ele>
        <time>2023-04-19T15:21:00Z</time>
      </trkpt>
      <trkpt lat="43.60746" lon="1.38605">
        <ele>177</ele>
        <time>2023-04-19T15:21:01Z</time>
      </trkpt>
      <trkpt lat="43.60723" lon="1.38605">
        <ele>177.4</ele>
        <time>2023-04-19T15:21:06Z</time>
      </trkpt>
      <trkpt lat="43.60709" lon="1.38609">
        <ele>177.6</ele>
        <time>2023-04-19T15:21:09Z</time>
      </trkpt>
      <trkpt lat="43.60699" lon="1.3861">
        <ele>177.6</ele>
        <time>2023-04-19T15:21:11Z</time>
      </trkpt>
      <trkpt lat="43.60689" lon="1.3861">
        <ele>177.8</ele>
        <time>2023-04-19T15:21:13Z</time>
      </trkpt>
      <trkpt lat="43.60654" lon="1.38602">
        <ele>178.4</ele>
        <time>2023-04-19T15:21:20Z</time>
      </trkpt>
      <trkpt lat="43.60645" lon="1.38597">
        <ele>178.4</ele>
        <time>2023-04-19T15:21:22Z</time>
      </trkpt>
      <trkpt lat="43.60637" lon="1.38587">
        <ele>178.6</ele>
        <time>2023-04-19T15:21:24Z</time>
      </trkpt>
      <trkpt lat="43.60632" lon="1.38574">
        <ele>179</ele>
        <time>2023-04-19T15:21:26Z</time>
      </trkpt>
      <trkpt lat="43.60626" lon="1.38557">
        <ele>179</ele>
        <time>2023-04-19T15:21:29Z</time>
      </trkpt>
      <trkpt lat="43.60623" lon="1.38546">
        <ele>179</ele>
        <time>2023-04-19T15:21:31Z</time>
      </trkpt>
      <trkpt lat="43.60621" lon="1.38536">
        <ele>178.8</ele>
        <time>2023-04-19T15:21:33Z</time>
      </trkpt>
      <trkpt lat="43.60618" lon="1.38522">
        <ele>178.6</ele>
        <time>2023-04-19T15:21:37Z</time>
      </trkpt>
      <trkpt lat="43.60618" lon="1.38519">
        <ele>178.6</ele>
        <time>2023-04-19T15:21:38Z</time>
      </trkpt>
      <trkpt lat="43.60618" lon="1.38515">
        <ele>178.6</ele>
        <time>2023-04-19T15:21:39Z</time>
      </trkpt>
      <trkpt lat="43.60621" lon="1.38503">
        <ele>178.2</ele>
        <time>2023-04-19T15:21:41Z</time>
      </trkpt>
      <trkpt lat="43.60623" lon="1.38493">
        <ele>178</ele>
        <time>2023-04-19T15:21:42Z</time>
      </trkpt>
      <trkpt lat="43.60627" lon="1.38458">
        <ele>176.8</ele>
        <time>2023-04-19T15:21:45Z</time>
      </trkpt>
      <trkpt lat="43.6063" lon="1.38438">
        <ele>175.6</ele>
        <time>2023-04-19T15:21:47Z</time>
      </trkpt>
      <trkpt lat="43.60632" lon="1.38428">
        <ele>175</ele>
        <time>2023-04-19T15:21:48Z</time>
      </trkpt>
      <trkpt lat="43.60635" lon="1.38416">
        <ele>174.6</ele>
        <time>2023-04-19T15:21:49Z</time>
      </trkpt>
      <trkpt lat="43.6064" lon="1.38392">
        <ele>173.6</ele>
        <time>2023-04-19T15:21:51Z</time>
      </trkpt>
      <trkpt lat="43.60648" lon="1.38368">
        <ele>172</ele>
        <time>2023-04-19T15:21:53Z</time>
      </trkpt>
      <trkpt lat="43.60652" lon="1.38356">
        <ele>171.8</ele>
        <time>2023-04-19T15:21:54Z</time>
      </trkpt>
      <trkpt lat="43.6066" lon="1.38332">
        <ele>170.8</ele>
        <time>2023-04-19T15:21:56Z</time>
      </trkpt>
      <trkpt lat="43.60666" lon="1.38311">
        <ele>169.8</ele>
        <time>2023-04-19T15:21:58Z</time>
      </trkpt>
      <trkpt lat="43.6067" lon="1.38304">
        <ele>169.4</ele>
        <time>2023-04-19T15:21:59Z</time>
      </trkpt>
      <trkpt lat="43.60684" lon="1.38285">
        <ele>168.4</ele>
        <time>2023-04-19T15:22:02Z</time>
      </trkpt>
      <trkpt lat="43.60694" lon="1.3826">
        <ele>166.8</ele>
        <time>2023-04-19T15:22:05Z</time>
      </trkpt>
      <trkpt lat="43.60697" lon="1.38252">
        <ele>166.6</ele>
        <time>2023-04-19T15:22:06Z</time>
      </trkpt>
      <trkpt lat="43.60702" lon="1.38246">
        <ele>166.4</ele>
        <time>2023-04-19T15:22:07Z</time>
      </trkpt>
      <trkpt lat="43.60706" lon="1.38239">
        <ele>166.2</ele>
        <time>2023-04-19T15:22:08Z</time>
      </trkpt>
      <trkpt lat="43.60715" lon="1.38226">
        <ele>165.6</ele>
        <time>2023-04-19T15:22:10Z</time>
      </trkpt>
      <trkpt lat="43.60717" lon="1.38222">
        <ele>165.6</ele>
        <time>2023-04-19T15:22:11Z</time>
      </trkpt>
      <trkpt lat="43.60722" lon="1.38215">
        <ele>165.6</ele>
        <time>2023-04-19T15:22:13Z</time>
      </trkpt>
      <trkpt lat="43.60728" lon="1.38204">
        <ele>165.6</ele>
        <time>2023-04-19T15:22:15Z</time>
      </trkpt>
      <trkpt lat="43.60734" lon="1.38191">
        <ele>165.6</ele>
        <time>2023-04-19T15:22:17Z</time>
      </trkpt>
      <trkpt lat="43.60741" lon="1.3818">
        <ele>165.6</ele>
        <time>2023-04-19T15:22:19Z</time>
      </trkpt>
      <trkpt lat="43.60754" lon="1.38164">
        <ele>165.6</ele>
        <time>2023-04-19T15:22:22Z</time>
      </trkpt>
      <trkpt lat="43.60763" lon="1.38153">
        <ele>165.6</ele>
        <time>2023-04-19T15:22:24Z</time>
      </trkpt>
      <trkpt lat="43.60766" lon="1.38146">
        <ele>165.6</ele>
        <time>2023-04-19T15:22:25Z</time>
      </trkpt>
      <trkpt lat="43.60771" lon="1.38133">
        <ele>165.6</ele>
        <time>2023-04-19T15:22:27Z</time>
      </trkpt>
      <trkpt lat="43.60774" lon="1.38118">
        <ele>165.4</ele>
        <time>2023-04-19T15:22:29Z</time>
      </trkpt>
      <trkpt lat="43.6079" lon="1.3806">
        <ele>165.6</ele>
        <time>2023-04-19T15:22:36Z</time>
      </trkpt>
      <trkpt lat="43.60792" lon="1.38052">
        <ele>165.6</ele>
        <time>2023-04-19T15:22:37Z</time>
      </trkpt>
      <trkpt lat="43.6079" lon="1.38038">
        <ele>165.8</ele>
        <time>2023-04-19T15:22:39Z</time>
      </trkpt>
      <trkpt lat="43.60778" lon="1.38023">
        <ele>166</ele>
        <time>2023-04-19T15:22:42Z</time>
      </trkpt>
      <trkpt lat="43.60773" lon="1.38019">
        <ele>166</ele>
        <time>2023-04-19T15:22:43Z</time>
      </trkpt>
      <trkpt lat="43.60748" lon="1.3801">
        <ele>166</ele>
        <time>2023-04-19T15:22:47Z</time>
      </trkpt>
      <trkpt lat="43.60735" lon="1.38011">
        <ele>165.8</ele>
        <time>2023-04-19T15:22:49Z</time>
      </trkpt>
      <trkpt lat="43.60728" lon="1.38013">
        <ele>165.8</ele>
        <time>2023-04-19T15:22:50Z</time>
      </trkpt>
      <trkpt lat="43.60711" lon="1.38015">
        <ele>165.8</ele>
        <time>2023-04-19T15:22:53Z</time>
      </trkpt>
      <trkpt lat="43.60706" lon="1.38015">
        <ele>165.8</ele>
        <time>2023-04-19T15:22:54Z</time>
      </trkpt>
      <trkpt lat="43.60698" lon="1.38014">
        <ele>165.8</ele>
        <time>2023-04-19T15:22:56Z</time>
      </trkpt>
      <trkpt lat="43.60683" lon="1.38008">
        <ele>165.8</ele>
        <time>2023-04-19T15:22:59Z</time>
      </trkpt>
      <trkpt lat="43.60673" lon="1.38012">
        <ele>165.8</ele>
        <time>2023-04-19T15:23:01Z</time>
      </trkpt>
      <trkpt lat="43.60668" lon="1.38017">
        <ele>165.8</ele>
        <time>2023-04-19T15:23:02Z</time>
      </trkpt>
      <trkpt lat="43.60653" lon="1.38031">
        <ele>165.8</ele>
        <time>2023-04-19T15:23:05Z</time>
      </trkpt>
      <trkpt lat="43.6065" lon="1.38034">
        <ele>165.8</ele>
        <time>2023-04-19T15:23:06Z</time>
      </trkpt>
      <trkpt lat="43.60648" lon="1.38036">
        <ele>166</ele>
        <time>2023-04-19T15:23:07Z</time>
      </trkpt>
      <trkpt lat="43.60639" lon="1.38037">
        <ele>166.4</ele>
        <time>2023-04-19T15:23:09Z</time>
      </trkpt>
      <trkpt lat="43.60634" lon="1.38038">
        <ele>167</ele>
        <time>2023-04-19T15:23:10Z</time>
      </trkpt>
      <trkpt lat="43.60629" lon="1.38039">
        <ele>167.2</ele>
        <time>2023-04-19T15:23:11Z</time>
      </trkpt>
      <trkpt lat="43.60616" lon="1.3804">
        <ele>167.8</ele>
        <time>2023-04-19T15:23:14Z</time>
      </trkpt>
      <trkpt lat="43.60608" lon="1.38041">
        <ele>168</ele>
        <time>2023-04-19T15:23:16Z</time>
      </trkpt>
      <trkpt lat="43.60592" lon="1.38041">
        <ele>168.4</ele>
        <time>2023-04-19T15:23:19Z</time>
      </trkpt>
      <trkpt lat="43.60574" lon="1.38041">
        <ele>168.6</ele>
        <time>2023-04-19T15:23:22Z</time>
      </trkpt>
      <trkpt lat="43.60565" lon="1.38038">
        <ele>169</ele>
        <time>2023-04-19T15:23:24Z</time>
      </trkpt>
      <trkpt lat="43.60561" lon="1.38037">
        <ele>169</ele>
        <time>2023-04-19T15:23:25Z</time>
      </trkpt>
      <trkpt lat="43.60544" lon="1.3803">
        <ele>169</ele>
        <time>2023-04-19T15:23:29Z</time>
      </trkpt>
      <trkpt lat="43.60541" lon="1.38026">
        <ele>169</ele>
        <time>2023-04-19T15:23:30Z</time>
      </trkpt>
      <trkpt lat="43.60539" lon="1.38021">
        <ele>169</ele>
        <time>2023-04-19T15:23:31Z</time>
      </trkpt>
      <trkpt lat="43.60526" lon="1.38004">
        <ele>168.6</ele>
        <time>2023-04-19T15:23:34Z</time>
      </trkpt>
      <trkpt lat="43.60506" lon="1.37981">
        <ele>167.8</ele>
        <time>2023-04-19T15:23:38Z</time>
      </trkpt>
      <trkpt lat="43.60499" lon="1.37977">
        <ele>167.6</ele>
        <time>2023-04-19T15:23:39Z</time>
      </trkpt>
      <trkpt lat="43.60491" lon="1.37975">
        <ele>167.6</ele>
        <time>2023-04-19T15:23:40Z</time>
      </trkpt>
      <trkpt lat="43.60477" lon="1.37971">
        <ele>167.4</ele>
        <time>2023-04-19T15:23:42Z</time>
      </trkpt>
      <trkpt lat="43.6047" lon="1.37969">
        <ele>167.2</ele>
        <time>2023-04-19T15:23:43Z</time>
      </trkpt>
      <trkpt lat="43.60464" lon="1.37969">
        <ele>167.2</ele>
        <time>2023-04-19T15:23:44Z</time>
      </trkpt>
      <trkpt lat="43.60452" lon="1.37967">
        <ele>167.6</ele>
        <time>2023-04-19T15:23:46Z</time>
      </trkpt>
      <trkpt lat="43.60448" lon="1.37965">
        <ele>167.6</ele>
        <time>2023-04-19T15:23:47Z</time>
      </trkpt>
      <trkpt lat="43.60443" lon="1.37962">
        <ele>167.8</ele>
        <time>2023-04-19T15:23:48Z</time>
      </trkpt>
      <trkpt lat="43.60434" lon="1.37954">
        <ele>167.8</ele>
        <time>2023-04-19T15:23:50Z</time>
      </trkpt>
      <trkpt lat="43.60396" lon="1.3793">
        <ele>168.6</ele>
        <time>2023-04-19T15:23:57Z</time>
      </trkpt>
      <trkpt lat="43.60386" lon="1.37921">
        <ele>168.8</ele>
        <time>2023-04-19T15:23:59Z</time>
      </trkpt>
      <trkpt lat="43.60382" lon="1.37917">
        <ele>168.8</ele>
        <time>2023-04-19T15:24:00Z</time>
      </trkpt>
      <trkpt lat="43.60373" lon="1.37903">
        <ele>168.8</ele>
        <time>2023-04-19T15:24:03Z</time>
      </trkpt>
      <trkpt lat="43.60371" lon="1.37895">
        <ele>168.6</ele>
        <time>2023-04-19T15:24:05Z</time>
      </trkpt>
      <trkpt lat="43.60366" lon="1.37884">
        <ele>168.6</ele>
        <time>2023-04-19T15:24:07Z</time>
      </trkpt>
      <trkpt lat="43.60357" lon="1.37873">
        <ele>168.2</ele>
        <time>2023-04-19T15:24:09Z</time>
      </trkpt>
      <trkpt lat="43.60347" lon="1.37868">
        <ele>167.8</ele>
        <time>2023-04-19T15:24:11Z</time>
      </trkpt>
      <trkpt lat="43.60342" lon="1.37866">
        <ele>167.8</ele>
        <time>2023-04-19T15:24:12Z</time>
      </trkpt>
      <trkpt lat="43.6033" lon="1.37864">
        <ele>167.6</ele>
        <time>2023-04-19T15:24:14Z</time>
      </trkpt>
      <trkpt lat="43.60318" lon="1.37866">
        <ele>167.6</ele>
        <time>2023-04-19T15:24:16Z</time>
      </trkpt>
      <trkpt lat="43.60306" lon="1.3787">
        <ele>167.6</ele>
        <time>2023-04-19T15:24:18Z</time>
      </trkpt>
      <trkpt lat="43.60274" lon="1.3787">
        <ele>168.6</ele>
        <time>2023-04-19T15:24:23Z</time>
      </trkpt>
      <trkpt lat="43.60248" lon="1.37871">
        <ele>169.2</ele>
        <time>2023-04-19T15:24:27Z</time>
      </trkpt>
      <trkpt lat="43.60235" lon="1.3787">
        <ele>169.2</ele>
        <time>2023-04-19T15:24:29Z</time>
      </trkpt>
      <trkpt lat="43.60222" lon="1.37868">
        <ele>170</ele>
        <time>2023-04-19T15:24:31Z</time>
      </trkpt>
      <trkpt lat="43.60212" lon="1.37863">
        <ele>170.2</ele>
        <time>2023-04-19T15:24:33Z</time>
      </trkpt>
      <trkpt lat="43.60203" lon="1.37853">
        <ele>170.4</ele>
        <time>2023-04-19T15:24:35Z</time>
      </trkpt>
      <trkpt lat="43.60195" lon="1.37841">
        <ele>170.6</ele>
        <time>2023-04-19T15:24:37Z</time>
      </trkpt>
      <trkpt lat="43.60191" lon="1.37829">
        <ele>170.4</ele>
        <time>2023-04-19T15:24:40Z</time>
      </trkpt>
      <trkpt lat="43.60188" lon="1.37817">
        <ele>170.6</ele>
        <time>2023-04-19T15:24:45Z</time>
      </trkpt>
      <trkpt lat="43.60185" lon="1.37796">
        <ele>170.4</ele>
        <time>2023-04-19T15:24:50Z</time>
      </trkpt>
      <trkpt lat="43.60185" lon="1.37789">
        <ele>170.4</ele>
        <time>2023-04-19T15:24:52Z</time>
      </trkpt>
      <trkpt lat="43.60185" lon="1.37787">
        <ele>170.6</ele>
        <time>2023-04-19T15:24:53Z</time>
      </trkpt>
      <trkpt lat="43.60184" lon="1.37784">
        <ele>170.6</ele>
        <time>2023-04-19T15:24:54Z</time>
      </trkpt>
      <trkpt lat="43.60183" lon="1.37771">
        <ele>170.6</ele>
        <time>2023-04-19T15:24:57Z</time>
      </trkpt>
      <trkpt lat="43.60183" lon="1.37766">
        <ele>170.6</ele>
        <time>2023-04-19T15:24:58Z</time>
      </trkpt>
      <trkpt lat="43.60179" lon="1.37737">
        <ele>170.4</ele>
        <time>2023-04-19T15:25:02Z</time>
      </trkpt>
      <trkpt lat="43.60178" lon="1.37719">
        <ele>170.2</ele>
        <time>2023-04-19T15:25:04Z</time>
      </trkpt>
      <trkpt lat="43.60176" lon="1.377">
        <ele>170.2</ele>
        <time>2023-04-19T15:25:06Z</time>
      </trkpt>
      <trkpt lat="43.60172" lon="1.37665">
        <ele>169.8</ele>
        <time>2023-04-19T15:25:10Z</time>
      </trkpt>
      <trkpt lat="43.60169" lon="1.37659">
        <ele>169.8</ele>
        <time>2023-04-19T15:25:11Z</time>
      </trkpt>
      <trkpt lat="43.60164" lon="1.37656">
        <ele>169.8</ele>
        <time>2023-04-19T15:25:12Z</time>
      </trkpt>
      <trkpt lat="43.60155" lon="1.37649">
        <ele>169.8</ele>
        <time>2023-04-19T15:25:14Z</time>
      </trkpt>
      <trkpt lat="43.60125" lon="1.37625">
        <ele>170</ele>
        <time>2023-04-19T15:25:20Z</time>
      </trkpt>
      <trkpt lat="43.6012" lon="1.37623">
        <ele>170</ele>
        <time>2023-04-19T15:25:21Z</time>
      </trkpt>
      <trkpt lat="43.60114" lon="1.37623">
        <ele>170</ele>
        <time>2023-04-19T15:25:22Z</time>
      </trkpt>
      <trkpt lat="43.6011" lon="1.37631">
        <ele>170</ele>
        <time>2023-04-19T15:25:24Z</time>
      </trkpt>
      <trkpt lat="43.60099" lon="1.37672">
        <ele>170.6</ele>
        <time>2023-04-19T15:25:30Z</time>
      </trkpt>
      <trkpt lat="43.60092" lon="1.37692">
        <ele>170.8</ele>
        <time>2023-04-19T15:25:33Z</time>
      </trkpt>
      <trkpt lat="43.60089" lon="1.37696">
        <ele>170.8</ele>
        <time>2023-04-19T15:25:34Z</time>
      </trkpt>
      <trkpt lat="43.60085" lon="1.37698">
        <ele>170.8</ele>
        <time>2023-04-19T15:25:35Z</time>
      </trkpt>
      <trkpt lat="43.60073" lon="1.377">
        <ele>170.6</ele>
        <time>2023-04-19T15:25:37Z</time>
      </trkpt>
      <trkpt lat="43.60067" lon="1.37702">
        <ele>170.6</ele>
        <time>2023-04-19T15:25:38Z</time>
      </trkpt>
      <trkpt lat="43.60054" lon="1.37709">
        <ele>170</ele>
        <time>2023-04-19T15:25:40Z</time>
      </trkpt>
      <trkpt lat="43.60023" lon="1.37735">
        <ele>169.8</ele>
        <time>2023-04-19T15:25:45Z</time>
      </trkpt>
      <trkpt lat="43.59999" lon="1.37757">
        <ele>170</ele>
        <time>2023-04-19T15:25:50Z</time>
      </trkpt>
      <trkpt lat="43.5998" lon="1.3777">
        <ele>170.6</ele>
        <time>2023-04-19T15:25:54Z</time>
      </trkpt>
      <trkpt lat="43.59968" lon="1.37774">
        <ele>171</ele>
        <time>2023-04-19T15:25:56Z</time>
      </trkpt>
      <trkpt lat="43.59961" lon="1.37776">
        <ele>171.2</ele>
        <time>2023-04-19T15:25:57Z</time>
      </trkpt>
      <trkpt lat="43.59952" lon="1.3778">
        <ele>171.6</ele>
        <time>2023-04-19T15:25:59Z</time>
      </trkpt>
      <trkpt lat="43.59941" lon="1.37782">
        <ele>172</ele>
        <time>2023-04-19T15:26:01Z</time>
      </trkpt>
      <trkpt lat="43.5993" lon="1.37779">
        <ele>172</ele>
        <time>2023-04-19T15:26:03Z</time>
      </trkpt>
      <trkpt lat="43.59913" lon="1.37772">
        <ele>172.2</ele>
        <time>2023-04-19T15:26:06Z</time>
      </trkpt>
      <trkpt lat="43.59897" lon="1.37763">
        <ele>172.2</ele>
        <time>2023-04-19T15:26:09Z</time>
      </trkpt>
      <trkpt lat="43.59891" lon="1.3776">
        <ele>172.2</ele>
        <time>2023-04-19T15:26:10Z</time>
      </trkpt>
      <trkpt lat="43.5988" lon="1.37754">
        <ele>172.2</ele>
        <time>2023-04-19T15:26:13Z</time>
      </trkpt>
      <trkpt lat="43.59881" lon="1.3775">
        <ele>172.2</ele>
        <time>2023-04-19T15:26:14Z</time>
      </trkpt>
      <trkpt lat="43.59884" lon="1.37729">
        <ele>172</ele>
        <time>2023-04-19T15:26:17Z</time>
      </trkpt>
      <trkpt lat="43.59885" lon="1.37722">
        <ele>171.8</ele>
        <time>2023-04-19T15:26:18Z</time>
      </trkpt>
      <trkpt lat="43.59891" lon="1.3771">
        <ele>171.6</ele>
        <time>2023-04-19T15:26:20Z</time>
      </trkpt>
      <trkpt lat="43.59892" lon="1.37696">
        <ele>170.6</ele>
        <time>2023-04-19T15:26:22Z</time>
      </trkpt>
      <trkpt lat="43.5989" lon="1.37677">
        <ele>170.2</ele>
        <time>2023-04-19T15:26:24Z</time>
      </trkpt>
      <trkpt lat="43.59888" lon="1.37657">
        <ele>170</ele>
        <time>2023-04-19T15:26:26Z</time>
      </trkpt>
      <trkpt lat="43.59885" lon="1.3765">
        <ele>170</ele>
        <time>2023-04-19T15:26:27Z</time>
      </trkpt>
      <trkpt lat="43.59883" lon="1.37643">
        <ele>169.8</ele>
        <time>2023-04-19T15:26:28Z</time>
      </trkpt>
      <trkpt lat="43.5988" lon="1.3763">
        <ele>169.6</ele>
        <time>2023-04-19T15:26:31Z</time>
      </trkpt>
      <trkpt lat="43.59876" lon="1.37623">
        <ele>169.6</ele>
        <time>2023-04-19T15:26:33Z</time>
      </trkpt>
      <trkpt lat="43.59872" lon="1.3762">
        <ele>169.6</ele>
        <time>2023-04-19T15:26:34Z</time>
      </trkpt>
      <trkpt lat="43.59868" lon="1.37618">
        <ele>169.6</ele>
        <time>2023-04-19T15:26:35Z</time>
      </trkpt>
      <trkpt lat="43.59864" lon="1.37615">
        <ele>169.6</ele>
        <time>2023-04-19T15:26:36Z</time>
      </trkpt>
      <trkpt lat="43.59858" lon="1.37608">
        <ele>169.6</ele>
        <time>2023-04-19T15:26:38Z</time>
      </trkpt>
      <trkpt lat="43.59847" lon="1.37596">
        <ele>169.8</ele>
        <time>2023-04-19T15:26:41Z</time>
      </trkpt>
      <trkpt lat="43.59842" lon="1.37594">
        <ele>169.8</ele>
        <time>2023-04-19T15:26:42Z</time>
      </trkpt>
      <trkpt lat="43.5983" lon="1.37591">
        <ele>169.8</ele>
        <time>2023-04-19T15:26:44Z</time>
      </trkpt>
      <trkpt lat="43.59824" lon="1.37589">
        <ele>170</ele>
        <time>2023-04-19T15:26:45Z</time>
      </trkpt>
      <trkpt lat="43.59811" lon="1.37588">
        <ele>170</ele>
        <time>2023-04-19T15:26:47Z</time>
      </trkpt>
      <trkpt lat="43.59799" lon="1.37592">
        <ele>170</ele>
        <time>2023-04-19T15:26:49Z</time>
      </trkpt>
      <trkpt lat="43.59793" lon="1.37595">
        <ele>170</ele>
        <time>2023-04-19T15:26:50Z</time>
      </trkpt>
      <trkpt lat="43.59783" lon="1.37602">
        <ele>170.2</ele>
        <time>2023-04-19T15:26:52Z</time>
      </trkpt>
      <trkpt lat="43.59778" lon="1.37607">
        <ele>170.2</ele>
        <time>2023-04-19T15:26:53Z</time>
      </trkpt>
      <trkpt lat="43.59774" lon="1.37613">
        <ele>170.2</ele>
        <time>2023-04-19T15:26:54Z</time>
      </trkpt>
      <trkpt lat="43.59766" lon="1.37627">
        <ele>170.4</ele>
        <time>2023-04-19T15:26:56Z</time>
      </trkpt>
      <trkpt lat="43.59762" lon="1.37633">
        <ele>170.4</ele>
        <time>2023-04-19T15:26:57Z</time>
      </trkpt>
      <trkpt lat="43.59748" lon="1.37655">
        <ele>170.6</ele>
        <time>2023-04-19T15:27:02Z</time>
      </trkpt>
      <trkpt lat="43.59743" lon="1.37661">
        <ele>171</ele>
        <time>2023-04-19T15:27:05Z</time>
      </trkpt>
      <trkpt lat="43.59738" lon="1.37665">
        <ele>171.6</ele>
        <time>2023-04-19T15:27:07Z</time>
      </trkpt>
      <trkpt lat="43.59733" lon="1.3767">
        <ele>172</ele>
        <time>2023-04-19T15:27:09Z</time>
      </trkpt>
      <trkpt lat="43.59731" lon="1.37671">
        <ele>172.4</ele>
        <time>2023-04-19T15:27:10Z</time>
      </trkpt>
      <trkpt lat="43.5973" lon="1.37671">
        <ele>172.6</ele>
        <time>2023-04-19T15:27:34Z</time>
      </trkpt>
      <trkpt lat="43.5973" lon="1.37671">
        <ele>171</ele>
        <time>2023-04-19T15:27:40Z</time>
      </trkpt>
      <trkpt lat="43.59725" lon="1.37672">
        <ele>170.4</ele>
        <time>2023-04-19T15:27:44Z</time>
      </trkpt>
      <trkpt lat="43.59723" lon="1.37672">
        <ele>170</ele>
        <time>2023-04-19T15:27:47Z</time>
      </trkpt>
      <trkpt lat="43.59721" lon="1.37672">
        <ele>169.8</ele>
        <time>2023-04-19T15:27:50Z</time>
      </trkpt>
      <trkpt lat="43.59705" lon="1.37664">
        <ele>169.8</ele>
        <time>2023-04-19T15:27:53Z</time>
      </trkpt>
      <trkpt lat="43.59697" lon="1.37655">
        <ele>169.8</ele>
        <time>2023-04-19T15:27:55Z</time>
      </trkpt>
      <trkpt lat="43.59681" lon="1.37639">
        <ele>169.8</ele>
        <time>2023-04-19T15:27:58Z</time>
      </trkpt>
      <trkpt lat="43.59668" lon="1.37627">
        <ele>170</ele>
        <time>2023-04-19T15:28:00Z</time>
      </trkpt>
      <trkpt lat="43.59644" lon="1.37596">
        <ele>170.6</ele>
        <time>2023-04-19T15:28:05Z</time>
      </trkpt>
      <trkpt lat="43.59636" lon="1.37588">
        <ele>170.6</ele>
        <time>2023-04-19T15:28:07Z</time>
      </trkpt>
      <trkpt lat="43.59626" lon="1.3758">
        <ele>171</ele>
        <time>2023-04-19T15:28:09Z</time>
      </trkpt>
      <trkpt lat="43.59619" lon="1.37574">
        <ele>171.4</ele>
        <time>2023-04-19T15:28:11Z</time>
      </trkpt>
      <trkpt lat="43.59615" lon="1.37566">
        <ele>171.6</ele>
        <time>2023-04-19T15:28:13Z</time>
      </trkpt>
      <trkpt lat="43.59605" lon="1.37554">
        <ele>172</ele>
        <time>2023-04-19T15:28:16Z</time>
      </trkpt>
      <trkpt lat="43.59602" lon="1.37541">
        <ele>172.2</ele>
        <time>2023-04-19T15:28:18Z</time>
      </trkpt>
      <trkpt lat="43.59606" lon="1.37507">
        <ele>172.8</ele>
        <time>2023-04-19T15:28:22Z</time>
      </trkpt>
      <trkpt lat="43.59611" lon="1.37484">
        <ele>172.8</ele>
        <time>2023-04-19T15:28:25Z</time>
      </trkpt>
      <trkpt lat="43.59613" lon="1.37481">
        <ele>172.6</ele>
        <time>2023-04-19T15:28:26Z</time>
      </trkpt>
      <trkpt lat="43.59615" lon="1.37477">
        <ele>172.2</ele>
        <time>2023-04-19T15:28:27Z</time>
      </trkpt>
      <trkpt lat="43.5962" lon="1.37465">
        <ele>171.8</ele>
        <time>2023-04-19T15:28:29Z</time>
      </trkpt>
      <trkpt lat="43.59624" lon="1.37458">
        <ele>171.8</ele>
        <time>2023-04-19T15:28:30Z</time>
      </trkpt>
      <trkpt lat="43.59638" lon="1.37418">
        <ele>171</ele>
        <time>2023-04-19T15:28:35Z</time>
      </trkpt>
      <trkpt lat="43.59644" lon="1.37405">
        <ele>170.8</ele>
        <time>2023-04-19T15:28:37Z</time>
      </trkpt>
      <trkpt lat="43.59645" lon="1.37399">
        <ele>170.8</ele>
        <time>2023-04-19T15:28:38Z</time>
      </trkpt>
      <trkpt lat="43.59645" lon="1.37384">
        <ele>170.8</ele>
        <time>2023-04-19T15:28:40Z</time>
      </trkpt>
      <trkpt lat="43.59641" lon="1.37361">
        <ele>171.2</ele>
        <time>2023-04-19T15:28:43Z</time>
      </trkpt>
      <trkpt lat="43.59637" lon="1.37353">
        <ele>171.2</ele>
        <time>2023-04-19T15:28:44Z</time>
      </trkpt>
      <trkpt lat="43.59633" lon="1.37346">
        <ele>171.2</ele>
        <time>2023-04-19T15:28:45Z</time>
      </trkpt>
      <trkpt lat="43.59622" lon="1.37324">
        <ele>171.2</ele>
        <time>2023-04-19T15:28:48Z</time>
      </trkpt>
      <trkpt lat="43.59619" lon="1.37314">
        <ele>171.2</ele>
        <time>2023-04-19T15:28:49Z</time>
      </trkpt>
      <trkpt lat="43.59613" lon="1.37294">
        <ele>171.4</ele>
        <time>2023-04-19T15:28:52Z</time>
      </trkpt>
      <trkpt lat="43.59602" lon="1.37276">
        <ele>171.4</ele>
        <time>2023-04-19T15:28:54Z</time>
      </trkpt>
      <trkpt lat="43.59594" lon="1.37262">
        <ele>171.6</ele>
        <time>2023-04-19T15:28:56Z</time>
      </trkpt>
      <trkpt lat="43.59585" lon="1.37243">
        <ele>171.8</ele>
        <time>2023-04-19T15:28:59Z</time>
      </trkpt>
      <trkpt lat="43.59582" lon="1.37232">
        <ele>172</ele>
        <time>2023-04-19T15:29:01Z</time>
      </trkpt>
      <trkpt lat="43.5958" lon="1.3722">
        <ele>172</ele>
        <time>2023-04-19T15:29:03Z</time>
      </trkpt>
      <trkpt lat="43.59576" lon="1.37206">
        <ele>172</ele>
        <time>2023-04-19T15:29:05Z</time>
      </trkpt>
      <trkpt lat="43.59574" lon="1.372">
        <ele>172</ele>
        <time>2023-04-19T15:29:06Z</time>
      </trkpt>
      <trkpt lat="43.59572" lon="1.37192">
        <ele>172</ele>
        <time>2023-04-19T15:29:07Z</time>
      </trkpt>
      <trkpt lat="43.59567" lon="1.37171">
        <ele>172</ele>
        <time>2023-04-19T15:29:10Z</time>
      </trkpt>
      <trkpt lat="43.59564" lon="1.37133">
        <ele>172.2</ele>
        <time>2023-04-19T15:29:15Z</time>
      </trkpt>
      <trkpt lat="43.59566" lon="1.37119">
        <ele>172.4</ele>
        <time>2023-04-19T15:29:17Z</time>
      </trkpt>
      <trkpt lat="43.59568" lon="1.37101">
        <ele>172.4</ele>
        <time>2023-04-19T15:29:19Z</time>
      </trkpt>
      <trkpt lat="43.59572" lon="1.37093">
        <ele>172.2</ele>
        <time>2023-04-19T15:29:20Z</time>
      </trkpt>
      <trkpt lat="43.5958" lon="1.3707">
        <ele>172.2</ele>
        <time>2023-04-19T15:29:23Z</time>
      </trkpt>
      <trkpt lat="43.59595" lon="1.37035">
        <ele>172</ele>
        <time>2023-04-19T15:29:27Z</time>
      </trkpt>
      <trkpt lat="43.59594" lon="1.37012">
        <ele>171.8</ele>
        <time>2023-04-19T15:29:29Z</time>
      </trkpt>
      <trkpt lat="43.59593" lon="1.37005">
        <ele>171.8</ele>
        <time>2023-04-19T15:29:30Z</time>
      </trkpt>
      <trkpt lat="43.5959" lon="1.36997">
        <ele>171.8</ele>
        <time>2023-04-19T15:29:31Z</time>
      </trkpt>
      <trkpt lat="43.59581" lon="1.36983">
        <ele>171.6</ele>
        <time>2023-04-19T15:29:33Z</time>
      </trkpt>
      <trkpt lat="43.59575" lon="1.36976">
        <ele>171.6</ele>
        <time>2023-04-19T15:29:34Z</time>
      </trkpt>
      <trkpt lat="43.59545" lon="1.36945">
        <ele>171.8</ele>
        <time>2023-04-19T15:29:39Z</time>
      </trkpt>
      <trkpt lat="43.59524" lon="1.36924">
        <ele>172</ele>
        <time>2023-04-19T15:29:43Z</time>
      </trkpt>
      <trkpt lat="43.59519" lon="1.3692">
        <ele>172</ele>
        <time>2023-04-19T15:29:44Z</time>
      </trkpt>
      <trkpt lat="43.59487" lon="1.36896">
        <ele>172</ele>
        <time>2023-04-19T15:29:50Z</time>
      </trkpt>
      <trkpt lat="43.59482" lon="1.36891">
        <ele>172</ele>
        <time>2023-04-19T15:29:51Z</time>
      </trkpt>
      <trkpt lat="43.59472" lon="1.36879">
        <ele>172</ele>
        <time>2023-04-19T15:29:53Z</time>
      </trkpt>
      <trkpt lat="43.5946" lon="1.36861">
        <ele>172.2</ele>
        <time>2023-04-19T15:29:56Z</time>
      </trkpt>
      <trkpt lat="43.59442" lon="1.36836">
        <ele>172.2</ele>
        <time>2023-04-19T15:30:00Z</time>
      </trkpt>
      <trkpt lat="43.59439" lon="1.36831">
        <ele>172.2</ele>
        <time>2023-04-19T15:30:01Z</time>
      </trkpt>
      <trkpt lat="43.59436" lon="1.36824">
        <ele>172.2</ele>
        <time>2023-04-19T15:30:02Z</time>
      </trkpt>
      <trkpt lat="43.5943" lon="1.36807">
        <ele>172.2</ele>
        <time>2023-04-19T15:30:05Z</time>
      </trkpt>
      <trkpt lat="43.5942" lon="1.36774">
        <ele>172</ele>
        <time>2023-04-19T15:30:09Z</time>
      </trkpt>
      <trkpt lat="43.59415" lon="1.3676">
        <ele>172</ele>
        <time>2023-04-19T15:30:11Z</time>
      </trkpt>
      <trkpt lat="43.59411" lon="1.36741">
        <ele>171.8</ele>
        <time>2023-04-19T15:30:13Z</time>
      </trkpt>
      <trkpt lat="43.59408" lon="1.36732">
        <ele>171.8</ele>
        <time>2023-04-19T15:30:14Z</time>
      </trkpt>
      <trkpt lat="43.59405" lon="1.36724">
        <ele>171.6</ele>
        <time>2023-04-19T15:30:15Z</time>
      </trkpt>
      <trkpt lat="43.59396" lon="1.36712">
        <ele>171.8</ele>
        <time>2023-04-19T15:30:17Z</time>
      </trkpt>
      <trkpt lat="43.5938" lon="1.36695">
        <ele>171.8</ele>
        <time>2023-04-19T15:30:20Z</time>
      </trkpt>
      <trkpt lat="43.59369" lon="1.36688">
        <ele>172</ele>
        <time>2023-04-19T15:30:22Z</time>
      </trkpt>
      <trkpt lat="43.59348" lon="1.36682">
        <ele>172.4</ele>
        <time>2023-04-19T15:30:26Z</time>
      </trkpt>
      <trkpt lat="43.59318" lon="1.36676">
        <ele>172.6</ele>
        <time>2023-04-19T15:30:31Z</time>
      </trkpt>
      <trkpt lat="43.59312" lon="1.36674">
        <ele>172.6</ele>
        <time>2023-04-19T15:30:32Z</time>
      </trkpt>
      <trkpt lat="43.59287" lon="1.3667">
        <ele>172.6</ele>
        <time>2023-04-19T15:30:36Z</time>
      </trkpt>
      <trkpt lat="43.59274" lon="1.36669">
        <ele>172.6</ele>
        <time>2023-04-19T15:30:38Z</time>
      </trkpt>
      <trkpt lat="43.59268" lon="1.36668">
        <ele>172.6</ele>
        <time>2023-04-19T15:30:39Z</time>
      </trkpt>
      <trkpt lat="43.59245" lon="1.36661">
        <ele>172.4</ele>
        <time>2023-04-19T15:30:43Z</time>
      </trkpt>
      <trkpt lat="43.59221" lon="1.36644">
        <ele>172.4</ele>
        <time>2023-04-19T15:30:47Z</time>
      </trkpt>
      <trkpt lat="43.59202" lon="1.36634">
        <ele>172.4</ele>
        <time>2023-04-19T15:30:50Z</time>
      </trkpt>
      <trkpt lat="43.5919" lon="1.36634">
        <ele>172.6</ele>
        <time>2023-04-19T15:30:52Z</time>
      </trkpt>
      <trkpt lat="43.59157" lon="1.36638">
        <ele>172.8</ele>
        <time>2023-04-19T15:30:57Z</time>
      </trkpt>
      <trkpt lat="43.59145" lon="1.36644">
        <ele>172.8</ele>
        <time>2023-04-19T15:30:59Z</time>
      </trkpt>
      <trkpt lat="43.59139" lon="1.36648">
        <ele>172.8</ele>
        <time>2023-04-19T15:31:00Z</time>
      </trkpt>
      <trkpt lat="43.59135" lon="1.36653">
        <ele>172.8</ele>
        <time>2023-04-19T15:31:01Z</time>
      </trkpt>
      <trkpt lat="43.59124" lon="1.36664">
        <ele>172.8</ele>
        <time>2023-04-19T15:31:04Z</time>
      </trkpt>
      <trkpt lat="43.59117" lon="1.36667">
        <ele>172.8</ele>
        <time>2023-04-19T15:31:05Z</time>
      </trkpt>
      <trkpt lat="43.59104" lon="1.36671">
        <ele>173</ele>
        <time>2023-04-19T15:31:07Z</time>
      </trkpt>
      <trkpt lat="43.59092" lon="1.36673">
        <ele>173.2</ele>
        <time>2023-04-19T15:31:09Z</time>
      </trkpt>
      <trkpt lat="43.59079" lon="1.36678">
        <ele>173.4</ele>
        <time>2023-04-19T15:31:11Z</time>
      </trkpt>
      <trkpt lat="43.59066" lon="1.36682">
        <ele>173.4</ele>
        <time>2023-04-19T15:31:13Z</time>
      </trkpt>
      <trkpt lat="43.59054" lon="1.36688">
        <ele>173.2</ele>
        <time>2023-04-19T15:31:15Z</time>
      </trkpt>
      <trkpt lat="43.59044" lon="1.36696">
        <ele>173.6</ele>
        <time>2023-04-19T15:31:17Z</time>
      </trkpt>
      <trkpt lat="43.59041" lon="1.36699">
        <ele>173.6</ele>
        <time>2023-04-19T15:31:18Z</time>
      </trkpt>
      <trkpt lat="43.59032" lon="1.36713">
        <ele>173.8</ele>
        <time>2023-04-19T15:31:22Z</time>
      </trkpt>
      <trkpt lat="43.5903" lon="1.36717">
        <ele>174</ele>
        <time>2023-04-19T15:31:23Z</time>
      </trkpt>
      <trkpt lat="43.59024" lon="1.36724">
        <ele>175.4</ele>
        <time>2023-04-19T15:31:26Z</time>
      </trkpt>
      <trkpt lat="43.59022" lon="1.36725">
        <ele>175.6</ele>
        <time>2023-04-19T15:31:27Z</time>
      </trkpt>
      <trkpt lat="43.59022" lon="1.36726">
        <ele>175.8</ele>
        <time>2023-04-19T15:31:28Z</time>
      </trkpt>
      <trkpt lat="43.59019" lon="1.36726">
        <ele>176.6</ele>
        <time>2023-04-19T15:31:46Z</time>
      </trkpt>
      <trkpt lat="43.59014" lon="1.36724">
        <ele>176.6</ele>
        <time>2023-04-19T15:31:48Z</time>
      </trkpt>
      <trkpt lat="43.59002" lon="1.3671">
        <ele>176.6</ele>
        <time>2023-04-19T15:31:52Z</time>
      </trkpt>
      <trkpt lat="43.58993" lon="1.36708">
        <ele>176.4</ele>
        <time>2023-04-19T15:31:54Z</time>
      </trkpt>
      <trkpt lat="43.58982" lon="1.36707">
        <ele>176</ele>
        <time>2023-04-19T15:31:56Z</time>
      </trkpt>
      <trkpt lat="43.58977" lon="1.36705">
        <ele>176</ele>
        <time>2023-04-19T15:31:57Z</time>
      </trkpt>
      <trkpt lat="43.58964" lon="1.367">
        <ele>175.2</ele>
        <time>2023-04-19T15:31:59Z</time>
      </trkpt>
      <trkpt lat="43.58957" lon="1.36696">
        <ele>175</ele>
        <time>2023-04-19T15:32:00Z</time>
      </trkpt>
      <trkpt lat="43.58945" lon="1.36689">
        <ele>174</ele>
        <time>2023-04-19T15:32:02Z</time>
      </trkpt>
      <trkpt lat="43.58926" lon="1.36678">
        <ele>173.4</ele>
        <time>2023-04-19T15:32:05Z</time>
      </trkpt>
      <trkpt lat="43.58917" lon="1.3667">
        <ele>173.2</ele>
        <time>2023-04-19T15:32:07Z</time>
      </trkpt>
      <trkpt lat="43.58906" lon="1.36657">
        <ele>173</ele>
        <time>2023-04-19T15:32:09Z</time>
      </trkpt>
      <trkpt lat="43.58898" lon="1.36648">
        <ele>173</ele>
        <time>2023-04-19T15:32:11Z</time>
      </trkpt>
      <trkpt lat="43.58892" lon="1.36638">
        <ele>173</ele>
        <time>2023-04-19T15:32:13Z</time>
      </trkpt>
      <trkpt lat="43.58886" lon="1.36625">
        <ele>172.8</ele>
        <time>2023-04-19T15:32:15Z</time>
      </trkpt>
      <trkpt lat="43.5888" lon="1.36612">
        <ele>172.8</ele>
        <time>2023-04-19T15:32:17Z</time>
      </trkpt>
      <trkpt lat="43.58877" lon="1.36604">
        <ele>172.8</ele>
        <time>2023-04-19T15:32:18Z</time>
      </trkpt>
      <trkpt lat="43.58869" lon="1.3659">
        <ele>172.8</ele>
        <time>2023-04-19T15:32:20Z</time>
      </trkpt>
      <trkpt lat="43.58864" lon="1.36576">
        <ele>173</ele>
        <time>2023-04-19T15:32:22Z</time>
      </trkpt>
      <trkpt lat="43.58853" lon="1.36535">
        <ele>173.2</ele>
        <time>2023-04-19T15:32:26Z</time>
      </trkpt>
      <trkpt lat="43.58852" lon="1.36526">
        <ele>173.2</ele>
        <time>2023-04-19T15:32:27Z</time>
      </trkpt>
      <trkpt lat="43.58848" lon="1.36508">
        <ele>173.4</ele>
        <time>2023-04-19T15:32:29Z</time>
      </trkpt>
      <trkpt lat="43.58842" lon="1.36502">
        <ele>173.4</ele>
        <time>2023-04-19T15:32:30Z</time>
      </trkpt>
      <trkpt lat="43.58823" lon="1.36469">
        <ele>174.2</ele>
        <time>2023-04-19T15:32:35Z</time>
      </trkpt>
      <trkpt lat="43.58816" lon="1.36459">
        <ele>174.6</ele>
        <time>2023-04-19T15:32:37Z</time>
      </trkpt>
      <trkpt lat="43.58813" lon="1.36452">
        <ele>174.8</ele>
        <time>2023-04-19T15:32:38Z</time>
      </trkpt>
      <trkpt lat="43.58807" lon="1.36438">
        <ele>174.8</ele>
        <time>2023-04-19T15:32:40Z</time>
      </trkpt>
      <trkpt lat="43.58802" lon="1.3643">
        <ele>174.8</ele>
        <time>2023-04-19T15:32:41Z</time>
      </trkpt>
      <trkpt lat="43.58798" lon="1.36425">
        <ele>174.8</ele>
        <time>2023-04-19T15:32:42Z</time>
      </trkpt>
      <trkpt lat="43.58777" lon="1.36404">
        <ele>175</ele>
        <time>2023-04-19T15:32:46Z</time>
      </trkpt>
      <trkpt lat="43.58744" lon="1.36369">
        <ele>175</ele>
        <time>2023-04-19T15:32:53Z</time>
      </trkpt>
      <trkpt lat="43.58713" lon="1.36334">
        <ele>175.2</ele>
        <time>2023-04-19T15:32:59Z</time>
      </trkpt>
      <trkpt lat="43.58708" lon="1.3633">
        <ele>175.2</ele>
        <time>2023-04-19T15:33:00Z</time>
      </trkpt>
      <trkpt lat="43.58694" lon="1.36317">
        <ele>175.2</ele>
        <time>2023-04-19T15:33:03Z</time>
      </trkpt>
      <trkpt lat="43.5868" lon="1.36297">
        <ele>175.2</ele>
        <time>2023-04-19T15:33:06Z</time>
      </trkpt>
      <trkpt lat="43.58662" lon="1.36273">
        <ele>175.2</ele>
        <time>2023-04-19T15:33:10Z</time>
      </trkpt>
      <trkpt lat="43.58648" lon="1.36259">
        <ele>175.2</ele>
        <time>2023-04-19T15:33:13Z</time>
      </trkpt>
      <trkpt lat="43.58637" lon="1.36248">
        <ele>175</ele>
        <time>2023-04-19T15:33:15Z</time>
      </trkpt>
      <trkpt lat="43.58627" lon="1.36242">
        <ele>175</ele>
        <time>2023-04-19T15:33:17Z</time>
      </trkpt>
      <trkpt lat="43.58608" lon="1.36246">
        <ele>175.2</ele>
        <time>2023-04-19T15:33:20Z</time>
      </trkpt>
      <trkpt lat="43.58567" lon="1.36267">
        <ele>175.6</ele>
        <time>2023-04-19T15:33:28Z</time>
      </trkpt>
      <trkpt lat="43.58541" lon="1.36279">
        <ele>176.2</ele>
        <time>2023-04-19T15:33:33Z</time>
      </trkpt>
      <trkpt lat="43.58532" lon="1.36284">
        <ele>176.8</ele>
        <time>2023-04-19T15:33:35Z</time>
      </trkpt>
      <trkpt lat="43.58525" lon="1.36287">
        <ele>177</ele>
        <time>2023-04-19T15:33:37Z</time>
      </trkpt>
      <trkpt lat="43.58522" lon="1.36286">
        <ele>177</ele>
        <time>2023-04-19T15:33:38Z</time>
      </trkpt>
      <trkpt lat="43.58521" lon="1.36282">
        <ele>177.4</ele>
        <time>2023-04-19T15:33:40Z</time>
      </trkpt>
      <trkpt lat="43.58522" lon="1.3628">
        <ele>177.6</ele>
        <time>2023-04-19T15:33:41Z</time>
      </trkpt>
      <trkpt lat="43.58529" lon="1.36276">
        <ele>177.8</ele>
        <time>2023-04-19T15:33:44Z</time>
      </trkpt>
      <trkpt lat="43.58534" lon="1.36271">
        <ele>178</ele>
        <time>2023-04-19T15:33:46Z</time>
      </trkpt>
      <trkpt lat="43.58552" lon="1.36262">
        <ele>178.2</ele>
        <time>2023-04-19T15:33:50Z</time>
      </trkpt>
      <trkpt lat="43.58563" lon="1.36256">
        <ele>178.4</ele>
        <time>2023-04-19T15:33:52Z</time>
      </trkpt>
      <trkpt lat="43.58603" lon="1.36235">
        <ele>178.8</ele>
        <time>2023-04-19T15:34:00Z</time>
      </trkpt>
      <trkpt lat="43.5864" lon="1.36218">
        <ele>178.6</ele>
        <time>2023-04-19T15:34:06Z</time>
      </trkpt>
      <trkpt lat="43.58663" lon="1.36206">
        <ele>178.6</ele>
        <time>2023-04-19T15:34:10Z</time>
      </trkpt>
      <trkpt lat="43.58675" lon="1.36201">
        <ele>178.6</ele>
        <time>2023-04-19T15:34:12Z</time>
      </trkpt>
      <trkpt lat="43.58727" lon="1.36178">
        <ele>178.2</ele>
        <time>2023-04-19T15:34:20Z</time>
      </trkpt>
      <trkpt lat="43.58771" lon="1.36161">
        <ele>177.8</ele>
        <time>2023-04-19T15:34:28Z</time>
      </trkpt>
      <trkpt lat="43.58775" lon="1.36162">
        <ele>177.8</ele>
        <time>2023-04-19T15:34:29Z</time>
      </trkpt>
      <trkpt lat="43.58776" lon="1.36163">
        <ele>177.6</ele>
        <time>2023-04-19T15:34:30Z</time>
      </trkpt>
      <trkpt lat="43.58769" lon="1.36167">
        <ele>177.6</ele>
        <time>2023-04-19T15:34:33Z</time>
      </trkpt>
      <trkpt lat="43.58763" lon="1.36169">
        <ele>177.6</ele>
        <time>2023-04-19T15:34:34Z</time>
      </trkpt>
      <trkpt lat="43.58753" lon="1.36174">
        <ele>177.4</ele>
        <time>2023-04-19T15:34:36Z</time>
      </trkpt>
      <trkpt lat="43.58747" lon="1.36177">
        <ele>177.4</ele>
        <time>2023-04-19T15:34:37Z</time>
      </trkpt>
      <trkpt lat="43.58714" lon="1.36195">
        <ele>176.8</ele>
        <time>2023-04-19T15:34:43Z</time>
      </trkpt>
      <trkpt lat="43.5869" lon="1.3621">
        <ele>176.4</ele>
        <time>2023-04-19T15:34:47Z</time>
      </trkpt>
      <trkpt lat="43.58683" lon="1.36212">
        <ele>176.4</ele>
        <time>2023-04-19T15:34:48Z</time>
      </trkpt>
      <trkpt lat="43.58677" lon="1.36213">
        <ele>176.2</ele>
        <time>2023-04-19T15:34:49Z</time>
      </trkpt>
      <trkpt lat="43.58671" lon="1.36212">
        <ele>176.2</ele>
        <time>2023-04-19T15:34:50Z</time>
      </trkpt>
      <trkpt lat="43.5866" lon="1.36206">
        <ele>176</ele>
        <time>2023-04-19T15:34:52Z</time>
      </trkpt>
      <trkpt lat="43.58649" lon="1.36197">
        <ele>175.8</ele>
        <time>2023-04-19T15:34:54Z</time>
      </trkpt>
      <trkpt lat="43.58639" lon="1.36187">
        <ele>175.6</ele>
        <time>2023-04-19T15:34:56Z</time>
      </trkpt>
      <trkpt lat="43.58634" lon="1.36183">
        <ele>175.2</ele>
        <time>2023-04-19T15:34:57Z</time>
      </trkpt>
      <trkpt lat="43.58621" lon="1.36166">
        <ele>175.2</ele>
        <time>2023-04-19T15:35:00Z</time>
      </trkpt>
      <trkpt lat="43.58616" lon="1.36159">
        <ele>175.2</ele>
        <time>2023-04-19T15:35:01Z</time>
      </trkpt>
      <trkpt lat="43.58599" lon="1.36137">
        <ele>175.6</ele>
        <time>2023-04-19T15:35:05Z</time>
      </trkpt>
      <trkpt lat="43.58589" lon="1.36128">
        <ele>176</ele>
        <time>2023-04-19T15:35:07Z</time>
      </trkpt>
      <trkpt lat="43.58564" lon="1.36107">
        <ele>176.6</ele>
        <time>2023-04-19T15:35:12Z</time>
      </trkpt>
      <trkpt lat="43.58553" lon="1.36097">
        <ele>176.8</ele>
        <time>2023-04-19T15:35:14Z</time>
      </trkpt>
      <trkpt lat="43.58533" lon="1.36076">
        <ele>177.2</ele>
        <time>2023-04-19T15:35:18Z</time>
      </trkpt>
      <trkpt lat="43.58527" lon="1.36071">
        <ele>177.2</ele>
        <time>2023-04-19T15:35:19Z</time>
      </trkpt>
      <trkpt lat="43.58511" lon="1.36058">
        <ele>177.6</ele>
        <time>2023-04-19T15:35:22Z</time>
      </trkpt>
      <trkpt lat="43.58502" lon="1.36045">
        <ele>177.6</ele>
        <time>2023-04-19T15:35:24Z</time>
      </trkpt>
      <trkpt lat="43.58475" lon="1.35998">
        <ele>177.6</ele>
        <time>2023-04-19T15:35:31Z</time>
      </trkpt>
      <trkpt lat="43.58473" lon="1.35992">
        <ele>177.6</ele>
        <time>2023-04-19T15:35:32Z</time>
      </trkpt>
      <trkpt lat="43.58467" lon="1.35982">
        <ele>177.4</ele>
        <time>2023-04-19T15:35:34Z</time>
      </trkpt>
      <trkpt lat="43.58463" lon="1.35978">
        <ele>177.4</ele>
        <time>2023-04-19T15:35:35Z</time>
      </trkpt>
      <trkpt lat="43.5845" lon="1.35962">
        <ele>176.6</ele>
        <time>2023-04-19T15:35:38Z</time>
      </trkpt>
      <trkpt lat="43.58446" lon="1.35955">
        <ele>176.4</ele>
        <time>2023-04-19T15:35:39Z</time>
      </trkpt>
      <trkpt lat="43.58443" lon="1.35949">
        <ele>176.4</ele>
        <time>2023-04-19T15:35:40Z</time>
      </trkpt>
      <trkpt lat="43.58436" lon="1.35939">
        <ele>176.2</ele>
        <time>2023-04-19T15:35:42Z</time>
      </trkpt>
      <trkpt lat="43.58433" lon="1.35934">
        <ele>176.2</ele>
        <time>2023-04-19T15:35:43Z</time>
      </trkpt>
      <trkpt lat="43.58431" lon="1.35929">
        <ele>176.2</ele>
        <time>2023-04-19T15:35:44Z</time>
      </trkpt>
      <trkpt lat="43.58426" lon="1.35918">
        <ele>176.2</ele>
        <time>2023-04-19T15:35:46Z</time>
      </trkpt>
      <trkpt lat="43.58424" lon="1.35911">
        <ele>176.2</ele>
        <time>2023-04-19T15:35:47Z</time>
      </trkpt>
      <trkpt lat="43.58415" lon="1.35883">
        <ele>176.6</ele>
        <time>2023-04-19T15:35:51Z</time>
      </trkpt>
      <trkpt lat="43.58409" lon="1.35868">
        <ele>176.8</ele>
        <time>2023-04-19T15:35:53Z</time>
      </trkpt>
      <trkpt lat="43.58398" lon="1.35844">
        <ele>176.8</ele>
        <time>2023-04-19T15:35:56Z</time>
      </trkpt>
      <trkpt lat="43.58389" lon="1.35833">
        <ele>176.8</ele>
        <time>2023-04-19T15:35:58Z</time>
      </trkpt>
      <trkpt lat="43.58376" lon="1.35829">
        <ele>176.8</ele>
        <time>2023-04-19T15:36:00Z</time>
      </trkpt>
      <trkpt lat="43.58369" lon="1.35828">
        <ele>177</ele>
        <time>2023-04-19T15:36:01Z</time>
      </trkpt>
      <trkpt lat="43.58363" lon="1.35824">
        <ele>176.8</ele>
        <time>2023-04-19T15:36:02Z</time>
      </trkpt>
      <trkpt lat="43.58354" lon="1.35811">
        <ele>176.6</ele>
        <time>2023-04-19T15:36:04Z</time>
      </trkpt>
      <trkpt lat="43.58345" lon="1.35776">
        <ele>176.4</ele>
        <time>2023-04-19T15:36:08Z</time>
      </trkpt>
      <trkpt lat="43.58344" lon="1.35766">
        <ele>176.4</ele>
        <time>2023-04-19T15:36:09Z</time>
      </trkpt>
      <trkpt lat="43.58344" lon="1.35756">
        <ele>176.4</ele>
        <time>2023-04-19T15:36:10Z</time>
      </trkpt>
      <trkpt lat="43.58348" lon="1.35739">
        <ele>176.4</ele>
        <time>2023-04-19T15:36:12Z</time>
      </trkpt>
      <trkpt lat="43.58349" lon="1.35731">
        <ele>176.4</ele>
        <time>2023-04-19T15:36:13Z</time>
      </trkpt>
      <trkpt lat="43.58356" lon="1.35707">
        <ele>176.8</ele>
        <time>2023-04-19T15:36:16Z</time>
      </trkpt>
      <trkpt lat="43.58359" lon="1.35701">
        <ele>176.8</ele>
        <time>2023-04-19T15:36:17Z</time>
      </trkpt>
      <trkpt lat="43.58364" lon="1.35697">
        <ele>176.6</ele>
        <time>2023-04-19T15:36:18Z</time>
      </trkpt>
      <trkpt lat="43.58376" lon="1.35688">
        <ele>176.6</ele>
        <time>2023-04-19T15:36:20Z</time>
      </trkpt>
      <trkpt lat="43.58382" lon="1.35683">
        <ele>176.6</ele>
        <time>2023-04-19T15:36:21Z</time>
      </trkpt>
      <trkpt lat="43.58398" lon="1.35667">
        <ele>176.4</ele>
        <time>2023-04-19T15:36:24Z</time>
      </trkpt>
      <trkpt lat="43.58406" lon="1.35658">
        <ele>176.4</ele>
        <time>2023-04-19T15:36:26Z</time>
      </trkpt>
      <trkpt lat="43.58419" lon="1.35636">
        <ele>176.6</ele>
        <time>2023-04-19T15:36:30Z</time>
      </trkpt>
      <trkpt lat="43.58425" lon="1.35624">
        <ele>176.8</ele>
        <time>2023-04-19T15:36:32Z</time>
      </trkpt>
      <trkpt lat="43.58428" lon="1.3561">
        <ele>176.8</ele>
        <time>2023-04-19T15:36:34Z</time>
      </trkpt>
      <trkpt lat="43.58429" lon="1.35605">
        <ele>177</ele>
        <time>2023-04-19T15:36:35Z</time>
      </trkpt>
      <trkpt lat="43.58433" lon="1.35595">
        <ele>177.2</ele>
        <time>2023-04-19T15:36:37Z</time>
      </trkpt>
      <trkpt lat="43.58436" lon="1.3559">
        <ele>177.4</ele>
        <time>2023-04-19T15:36:38Z</time>
      </trkpt>
      <trkpt lat="43.5844" lon="1.35584">
        <ele>177.6</ele>
        <time>2023-04-19T15:36:39Z</time>
      </trkpt>
      <trkpt lat="43.58442" lon="1.35578">
        <ele>177.8</ele>
        <time>2023-04-19T15:36:40Z</time>
      </trkpt>
      <trkpt lat="43.58445" lon="1.35571">
        <ele>177.8</ele>
        <time>2023-04-19T15:36:41Z</time>
      </trkpt>
      <trkpt lat="43.58448" lon="1.35563">
        <ele>178</ele>
        <time>2023-04-19T15:36:42Z</time>
      </trkpt>
      <trkpt lat="43.58457" lon="1.35534">
        <ele>178.4</ele>
        <time>2023-04-19T15:36:46Z</time>
      </trkpt>
      <trkpt lat="43.58459" lon="1.35526">
        <ele>178.4</ele>
        <time>2023-04-19T15:36:47Z</time>
      </trkpt>
      <trkpt lat="43.58467" lon="1.35469">
        <ele>178.8</ele>
        <time>2023-04-19T15:36:54Z</time>
      </trkpt>
      <trkpt lat="43.58468" lon="1.35459">
        <ele>179</ele>
        <time>2023-04-19T15:36:55Z</time>
      </trkpt>
      <trkpt lat="43.58464" lon="1.35416">
        <ele>179</ele>
        <time>2023-04-19T15:37:00Z</time>
      </trkpt>
      <trkpt lat="43.58462" lon="1.354">
        <ele>179</ele>
        <time>2023-04-19T15:37:02Z</time>
      </trkpt>
      <trkpt lat="43.5846" lon="1.35378">
        <ele>179</ele>
        <time>2023-04-19T15:37:05Z</time>
      </trkpt>
      <trkpt lat="43.58453" lon="1.35371">
        <ele>179.2</ele>
        <time>2023-04-19T15:37:07Z</time>
      </trkpt>
      <trkpt lat="43.58427" lon="1.35356">
        <ele>179.2</ele>
        <time>2023-04-19T15:37:13Z</time>
      </trkpt>
      <trkpt lat="43.58417" lon="1.3535">
        <ele>179.2</ele>
        <time>2023-04-19T15:37:15Z</time>
      </trkpt>
      <trkpt lat="43.58406" lon="1.35339">
        <ele>179.2</ele>
        <time>2023-04-19T15:37:17Z</time>
      </trkpt>
      <trkpt lat="43.58402" lon="1.35331">
        <ele>179.4</ele>
        <time>2023-04-19T15:37:18Z</time>
      </trkpt>
      <trkpt lat="43.58401" lon="1.35322">
        <ele>179.2</ele>
        <time>2023-04-19T15:37:19Z</time>
      </trkpt>
      <trkpt lat="43.584" lon="1.35302">
        <ele>179.2</ele>
        <time>2023-04-19T15:37:21Z</time>
      </trkpt>
      <trkpt lat="43.58399" lon="1.35292">
        <ele>179</ele>
        <time>2023-04-19T15:37:22Z</time>
      </trkpt>
      <trkpt lat="43.58397" lon="1.35275">
        <ele>178.2</ele>
        <time>2023-04-19T15:37:24Z</time>
      </trkpt>
      <trkpt lat="43.58395" lon="1.35265">
        <ele>178.2</ele>
        <time>2023-04-19T15:37:25Z</time>
      </trkpt>
      <trkpt lat="43.58388" lon="1.35219">
        <ele>177.8</ele>
        <time>2023-04-19T15:37:30Z</time>
      </trkpt>
      <trkpt lat="43.58386" lon="1.35209">
        <ele>177.6</ele>
        <time>2023-04-19T15:37:31Z</time>
      </trkpt>
      <trkpt lat="43.5838" lon="1.35191">
        <ele>177.6</ele>
        <time>2023-04-19T15:37:33Z</time>
      </trkpt>
      <trkpt lat="43.58372" lon="1.35178">
        <ele>177.4</ele>
        <time>2023-04-19T15:37:35Z</time>
      </trkpt>
      <trkpt lat="43.58354" lon="1.35153">
        <ele>177.6</ele>
        <time>2023-04-19T15:37:39Z</time>
      </trkpt>
      <trkpt lat="43.58347" lon="1.35138">
        <ele>177.6</ele>
        <time>2023-04-19T15:37:41Z</time>
      </trkpt>
      <trkpt lat="43.58331" lon="1.35105">
        <ele>177.8</ele>
        <time>2023-04-19T15:37:46Z</time>
      </trkpt>
      <trkpt lat="43.58329" lon="1.35101">
        <ele>177.8</ele>
        <time>2023-04-19T15:37:47Z</time>
      </trkpt>
      <trkpt lat="43.58323" lon="1.35092">
        <ele>178</ele>
        <time>2023-04-19T15:37:49Z</time>
      </trkpt>
      <trkpt lat="43.58313" lon="1.35087">
        <ele>178.2</ele>
        <time>2023-04-19T15:37:51Z</time>
      </trkpt>
      <trkpt lat="43.58307" lon="1.35086">
        <ele>178.2</ele>
        <time>2023-04-19T15:37:52Z</time>
      </trkpt>
      <trkpt lat="43.58288" lon="1.35087">
        <ele>178.2</ele>
        <time>2023-04-19T15:37:55Z</time>
      </trkpt>
      <trkpt lat="43.58275" lon="1.35089">
        <ele>178.2</ele>
        <time>2023-04-19T15:37:57Z</time>
      </trkpt>
      <trkpt lat="43.58251" lon="1.35091">
        <ele>178.2</ele>
        <time>2023-04-19T15:38:01Z</time>
      </trkpt>
      <trkpt lat="43.58235" lon="1.35096">
        <ele>178.2</ele>
        <time>2023-04-19T15:38:04Z</time>
      </trkpt>
      <trkpt lat="43.58228" lon="1.35097">
        <ele>178.4</ele>
        <time>2023-04-19T15:38:06Z</time>
      </trkpt>
      <trkpt lat="43.58226" lon="1.35096">
        <ele>178.6</ele>
        <time>2023-04-19T15:38:07Z</time>
      </trkpt>
      <trkpt lat="43.58225" lon="1.35093">
        <ele>178.8</ele>
        <time>2023-04-19T15:38:08Z</time>
      </trkpt>
      <trkpt lat="43.58222" lon="1.35085">
        <ele>178.8</ele>
        <time>2023-04-19T15:38:10Z</time>
      </trkpt>
      <trkpt lat="43.58217" lon="1.35077">
        <ele>179</ele>
        <time>2023-04-19T15:38:12Z</time>
      </trkpt>
      <trkpt lat="43.58209" lon="1.35071">
        <ele>179</ele>
        <time>2023-04-19T15:38:14Z</time>
      </trkpt>
      <trkpt lat="43.58197" lon="1.35059">
        <ele>178.8</ele>
        <time>2023-04-19T15:38:17Z</time>
      </trkpt>
      <trkpt lat="43.58185" lon="1.35038">
        <ele>178.6</ele>
        <time>2023-04-19T15:38:21Z</time>
      </trkpt>
      <trkpt lat="43.5818" lon="1.35028">
        <ele>178.6</ele>
        <time>2023-04-19T15:38:23Z</time>
      </trkpt>
      <trkpt lat="43.5817" lon="1.35025">
        <ele>178.6</ele>
        <time>2023-04-19T15:38:25Z</time>
      </trkpt>
      <trkpt lat="43.58165" lon="1.35027">
        <ele>178.6</ele>
        <time>2023-04-19T15:38:26Z</time>
      </trkpt>
      <trkpt lat="43.58143" lon="1.35034">
        <ele>178.8</ele>
        <time>2023-04-19T15:38:30Z</time>
      </trkpt>
      <trkpt lat="43.58133" lon="1.3503">
        <ele>178.8</ele>
        <time>2023-04-19T15:38:32Z</time>
      </trkpt>
      <trkpt lat="43.58128" lon="1.35026">
        <ele>178.8</ele>
        <time>2023-04-19T15:38:33Z</time>
      </trkpt>
      <trkpt lat="43.58117" lon="1.35018">
        <ele>178.8</ele>
        <time>2023-04-19T15:38:35Z</time>
      </trkpt>
      <trkpt lat="43.58099" lon="1.35012">
        <ele>178.8</ele>
        <time>2023-04-19T15:38:38Z</time>
      </trkpt>
      <trkpt lat="43.58048" lon="1.34997">
        <ele>179</ele>
        <time>2023-04-19T15:38:46Z</time>
      </trkpt>
      <trkpt lat="43.58015" lon="1.34975">
        <ele>179.4</ele>
        <time>2023-04-19T15:38:52Z</time>
      </trkpt>
      <trkpt lat="43.57996" lon="1.34952">
        <ele>179.6</ele>
        <time>2023-04-19T15:38:56Z</time>
      </trkpt>
      <trkpt lat="43.57992" lon="1.34945">
        <ele>179.6</ele>
        <time>2023-04-19T15:38:57Z</time>
      </trkpt>
      <trkpt lat="43.57987" lon="1.3494">
        <ele>179.8</ele>
        <time>2023-04-19T15:38:58Z</time>
      </trkpt>
      <trkpt lat="43.57966" lon="1.3492">
        <ele>180</ele>
        <time>2023-04-19T15:39:02Z</time>
      </trkpt>
      <trkpt lat="43.57925" lon="1.34889">
        <ele>179.8</ele>
        <time>2023-04-19T15:39:09Z</time>
      </trkpt>
      <trkpt lat="43.57884" lon="1.34845">
        <ele>179.8</ele>
        <time>2023-04-19T15:39:16Z</time>
      </trkpt>
      <trkpt lat="43.57878" lon="1.3484">
        <ele>179.8</ele>
        <time>2023-04-19T15:39:17Z</time>
      </trkpt>
      <trkpt lat="43.5786" lon="1.34826">
        <ele>179.8</ele>
        <time>2023-04-19T15:39:20Z</time>
      </trkpt>
      <trkpt lat="43.57855" lon="1.3482">
        <ele>179.8</ele>
        <time>2023-04-19T15:39:21Z</time>
      </trkpt>
      <trkpt lat="43.57851" lon="1.34813">
        <ele>179.8</ele>
        <time>2023-04-19T15:39:22Z</time>
      </trkpt>
      <trkpt lat="43.57845" lon="1.34799">
        <ele>179.8</ele>
        <time>2023-04-19T15:39:24Z</time>
      </trkpt>
      <trkpt lat="43.57841" lon="1.34792">
        <ele>179.8</ele>
        <time>2023-04-19T15:39:25Z</time>
      </trkpt>
      <trkpt lat="43.57819" lon="1.34746">
        <ele>180.2</ele>
        <time>2023-04-19T15:39:31Z</time>
      </trkpt>
      <trkpt lat="43.57799" lon="1.347">
        <ele>180.4</ele>
        <time>2023-04-19T15:39:37Z</time>
      </trkpt>
      <trkpt lat="43.57794" lon="1.34684">
        <ele>180.4</ele>
        <time>2023-04-19T15:39:39Z</time>
      </trkpt>
      <trkpt lat="43.57787" lon="1.34648">
        <ele>180.2</ele>
        <time>2023-04-19T15:39:43Z</time>
      </trkpt>
      <trkpt lat="43.57779" lon="1.34588">
        <ele>180.2</ele>
        <time>2023-04-19T15:39:50Z</time>
      </trkpt>
      <trkpt lat="43.57779" lon="1.3458">
        <ele>180.2</ele>
        <time>2023-04-19T15:39:51Z</time>
      </trkpt>
      <trkpt lat="43.57781" lon="1.34565">
        <ele>180.2</ele>
        <time>2023-04-19T15:39:53Z</time>
      </trkpt>
      <trkpt lat="43.57782" lon="1.34557">
        <ele>180.2</ele>
        <time>2023-04-19T15:39:54Z</time>
      </trkpt>
      <trkpt lat="43.57788" lon="1.3452">
        <ele>179.8</ele>
        <time>2023-04-19T15:39:58Z</time>
      </trkpt>
      <trkpt lat="43.57797" lon="1.34475">
        <ele>179</ele>
        <time>2023-04-19T15:40:03Z</time>
      </trkpt>
      <trkpt lat="43.57799" lon="1.34468">
        <ele>179</ele>
        <time>2023-04-19T15:40:04Z</time>
      </trkpt>
      <trkpt lat="43.57811" lon="1.34416">
        <ele>179</ele>
        <time>2023-04-19T15:40:10Z</time>
      </trkpt>
      <trkpt lat="43.57813" lon="1.344">
        <ele>179.2</ele>
        <time>2023-04-19T15:40:12Z</time>
      </trkpt>
      <trkpt lat="43.57811" lon="1.34385">
        <ele>179.4</ele>
        <time>2023-04-19T15:40:14Z</time>
      </trkpt>
      <trkpt lat="43.57807" lon="1.34371">
        <ele>179.8</ele>
        <time>2023-04-19T15:40:16Z</time>
      </trkpt>
      <trkpt lat="43.57797" lon="1.34363">
        <ele>180</ele>
        <time>2023-04-19T15:40:18Z</time>
      </trkpt>
      <trkpt lat="43.57792" lon="1.34361">
        <ele>180</ele>
        <time>2023-04-19T15:40:19Z</time>
      </trkpt>
      <trkpt lat="43.57776" lon="1.34357">
        <ele>180.4</ele>
        <time>2023-04-19T15:40:22Z</time>
      </trkpt>
      <trkpt lat="43.57771" lon="1.34357">
        <ele>180.6</ele>
        <time>2023-04-19T15:40:23Z</time>
      </trkpt>
      <trkpt lat="43.57766" lon="1.34358">
        <ele>180.8</ele>
        <time>2023-04-19T15:40:24Z</time>
      </trkpt>
      <trkpt lat="43.5776" lon="1.3436">
        <ele>180.8</ele>
        <time>2023-04-19T15:40:25Z</time>
      </trkpt>
      <trkpt lat="43.57747" lon="1.34364">
        <ele>181.2</ele>
        <time>2023-04-19T15:40:28Z</time>
      </trkpt>
      <trkpt lat="43.57743" lon="1.3436">
        <ele>181.2</ele>
        <time>2023-04-19T15:40:30Z</time>
      </trkpt>
      <trkpt lat="43.57748" lon="1.34356">
        <ele>181.4</ele>
        <time>2023-04-19T15:40:33Z</time>
      </trkpt>
      <trkpt lat="43.57754" lon="1.34354">
        <ele>181.4</ele>
        <time>2023-04-19T15:40:35Z</time>
      </trkpt>
      <trkpt lat="43.5776" lon="1.34351">
        <ele>181.4</ele>
        <time>2023-04-19T15:40:37Z</time>
      </trkpt>
      <trkpt lat="43.57763" lon="1.34349">
        <ele>181.4</ele>
        <time>2023-04-19T15:40:38Z</time>
      </trkpt>
      <trkpt lat="43.57778" lon="1.34336">
        <ele>181.6</ele>
        <time>2023-04-19T15:40:43Z</time>
      </trkpt>
      <trkpt lat="43.57782" lon="1.34327">
        <ele>181.8</ele>
        <time>2023-04-19T15:40:45Z</time>
      </trkpt>
      <trkpt lat="43.57788" lon="1.34318">
        <ele>182.2</ele>
        <time>2023-04-19T15:40:47Z</time>
      </trkpt>
      <trkpt lat="43.57792" lon="1.34307">
        <ele>182.4</ele>
        <time>2023-04-19T15:40:50Z</time>
      </trkpt>
      <trkpt lat="43.5779" lon="1.34304">
        <ele>182.4</ele>
        <time>2023-04-19T15:40:51Z</time>
      </trkpt>
      <trkpt lat="43.5777" lon="1.34292">
        <ele>182.6</ele>
        <time>2023-04-19T15:40:56Z</time>
      </trkpt>
      <trkpt lat="43.57761" lon="1.34286">
        <ele>182.6</ele>
        <time>2023-04-19T15:40:58Z</time>
      </trkpt>
      <trkpt lat="43.57751" lon="1.34283">
        <ele>182.2</ele>
        <time>2023-04-19T15:41:00Z</time>
      </trkpt>
      <trkpt lat="43.57746" lon="1.34283">
        <ele>182</ele>
        <time>2023-04-19T15:41:01Z</time>
      </trkpt>
      <trkpt lat="43.57737" lon="1.34281">
        <ele>181.4</ele>
        <time>2023-04-19T15:41:04Z</time>
      </trkpt>
      <trkpt lat="43.57732" lon="1.34277">
        <ele>181.2</ele>
        <time>2023-04-19T15:41:06Z</time>
      </trkpt>
      <trkpt lat="43.57723" lon="1.34274">
        <ele>181.2</ele>
        <time>2023-04-19T15:41:09Z</time>
      </trkpt>
      <trkpt lat="43.57707" lon="1.34269">
        <ele>181.4</ele>
        <time>2023-04-19T15:41:15Z</time>
      </trkpt>
      <trkpt lat="43.57704" lon="1.34267">
        <ele>181.6</ele>
        <time>2023-04-19T15:41:16Z</time>
      </trkpt>
      <trkpt lat="43.57687" lon="1.34257">
        <ele>181.6</ele>
        <time>2023-04-19T15:41:20Z</time>
      </trkpt>
      <trkpt lat="43.57679" lon="1.34248">
        <ele>181.4</ele>
        <time>2023-04-19T15:41:22Z</time>
      </trkpt>
      <trkpt lat="43.57666" lon="1.34233">
        <ele>181.4</ele>
        <time>2023-04-19T15:41:25Z</time>
      </trkpt>
      <trkpt lat="43.57657" lon="1.34222">
        <ele>181.4</ele>
        <time>2023-04-19T15:41:27Z</time>
      </trkpt>
      <trkpt lat="43.57645" lon="1.34203">
        <ele>181.6</ele>
        <time>2023-04-19T15:41:30Z</time>
      </trkpt>
      <trkpt lat="43.57618" lon="1.34166">
        <ele>181.8</ele>
        <time>2023-04-19T15:41:36Z</time>
      </trkpt>
      <trkpt lat="43.57613" lon="1.3415">
        <ele>182</ele>
        <time>2023-04-19T15:41:38Z</time>
      </trkpt>
      <trkpt lat="43.57611" lon="1.34142">
        <ele>182.2</ele>
        <time>2023-04-19T15:41:39Z</time>
      </trkpt>
      <trkpt lat="43.57611" lon="1.34133">
        <ele>182.2</ele>
        <time>2023-04-19T15:41:40Z</time>
      </trkpt>
      <trkpt lat="43.57612" lon="1.34108">
        <ele>182.2</ele>
        <time>2023-04-19T15:41:43Z</time>
      </trkpt>
      <trkpt lat="43.57614" lon="1.34088">
        <ele>182.2</ele>
        <time>2023-04-19T15:41:47Z</time>
      </trkpt>
      <trkpt lat="43.57616" lon="1.34068">
        <ele>182</ele>
        <time>2023-04-19T15:41:52Z</time>
      </trkpt>
      <trkpt lat="43.57617" lon="1.34062">
        <ele>181.8</ele>
        <time>2023-04-19T15:41:53Z</time>
      </trkpt>
      <trkpt lat="43.57622" lon="1.3405">
        <ele>181.8</ele>
        <time>2023-04-19T15:41:55Z</time>
      </trkpt>
      <trkpt lat="43.57628" lon="1.34037">
        <ele>181.8</ele>
        <time>2023-04-19T15:41:57Z</time>
      </trkpt>
      <trkpt lat="43.5763" lon="1.34029">
        <ele>181.8</ele>
        <time>2023-04-19T15:41:58Z</time>
      </trkpt>
      <trkpt lat="43.57629" lon="1.34014">
        <ele>181.8</ele>
        <time>2023-04-19T15:42:00Z</time>
      </trkpt>
      <trkpt lat="43.57621" lon="1.34003">
        <ele>182</ele>
        <time>2023-04-19T15:42:02Z</time>
      </trkpt>
      <trkpt lat="43.576" lon="1.33985">
        <ele>182.2</ele>
        <time>2023-04-19T15:42:06Z</time>
      </trkpt>
      <trkpt lat="43.5759" lon="1.33973">
        <ele>182.2</ele>
        <time>2023-04-19T15:42:08Z</time>
      </trkpt>
      <trkpt lat="43.57583" lon="1.33957">
        <ele>182</ele>
        <time>2023-04-19T15:42:10Z</time>
      </trkpt>
      <trkpt lat="43.57582" lon="1.33948">
        <ele>182</ele>
        <time>2023-04-19T15:42:11Z</time>
      </trkpt>
      <trkpt lat="43.57584" lon="1.33941">
        <ele>182.2</ele>
        <time>2023-04-19T15:42:12Z</time>
      </trkpt>
      <trkpt lat="43.57591" lon="1.3393">
        <ele>182.2</ele>
        <time>2023-04-19T15:42:14Z</time>
      </trkpt>
      <trkpt lat="43.57613" lon="1.33899">
        <ele>182.4</ele>
        <time>2023-04-19T15:42:19Z</time>
      </trkpt>
      <trkpt lat="43.57619" lon="1.3388">
        <ele>182.4</ele>
        <time>2023-04-19T15:42:21Z</time>
      </trkpt>
      <trkpt lat="43.5762" lon="1.33873">
        <ele>182.4</ele>
        <time>2023-04-19T15:42:22Z</time>
      </trkpt>
      <trkpt lat="43.57624" lon="1.33831">
        <ele>182.4</ele>
        <time>2023-04-19T15:42:27Z</time>
      </trkpt>
      <trkpt lat="43.57625" lon="1.33824">
        <ele>182.4</ele>
        <time>2023-04-19T15:42:28Z</time>
      </trkpt>
      <trkpt lat="43.57629" lon="1.338">
        <ele>182.4</ele>
        <time>2023-04-19T15:42:32Z</time>
      </trkpt>
      <trkpt lat="43.57631" lon="1.33762">
        <ele>182</ele>
        <time>2023-04-19T15:42:37Z</time>
      </trkpt>
      <trkpt lat="43.57631" lon="1.33755">
        <ele>182.2</ele>
        <time>2023-04-19T15:42:38Z</time>
      </trkpt>
      <trkpt lat="43.57631" lon="1.3374">
        <ele>182.2</ele>
        <time>2023-04-19T15:42:40Z</time>
      </trkpt>
      <trkpt lat="43.57631" lon="1.33726">
        <ele>182</ele>
        <time>2023-04-19T15:42:42Z</time>
      </trkpt>
      <trkpt lat="43.57631" lon="1.3372">
        <ele>182</ele>
        <time>2023-04-19T15:42:43Z</time>
      </trkpt>
      <trkpt lat="43.5763" lon="1.33694">
        <ele>181.8</ele>
        <time>2023-04-19T15:42:47Z</time>
      </trkpt>
      <trkpt lat="43.57626" lon="1.33632">
        <ele>181.8</ele>
        <time>2023-04-19T15:42:55Z</time>
      </trkpt>
      <trkpt lat="43.5762" lon="1.3358">
        <ele>182</ele>
        <time>2023-04-19T15:43:01Z</time>
      </trkpt>
      <trkpt lat="43.57614" lon="1.33553">
        <ele>182</ele>
        <time>2023-04-19T15:43:04Z</time>
      </trkpt>
      <trkpt lat="43.57607" lon="1.33537">
        <ele>182.2</ele>
        <time>2023-04-19T15:43:06Z</time>
      </trkpt>
      <trkpt lat="43.57579" lon="1.33478">
        <ele>182.2</ele>
        <time>2023-04-19T15:43:13Z</time>
      </trkpt>
      <trkpt lat="43.57554" lon="1.3342">
        <ele>182.2</ele>
        <time>2023-04-19T15:43:20Z</time>
      </trkpt>
      <trkpt lat="43.5752" lon="1.33359">
        <ele>182.2</ele>
        <time>2023-04-19T15:43:28Z</time>
      </trkpt>
      <trkpt lat="43.57516" lon="1.33351">
        <ele>182.2</ele>
        <time>2023-04-19T15:43:29Z</time>
      </trkpt>
      <trkpt lat="43.57511" lon="1.33334">
        <ele>182.2</ele>
        <time>2023-04-19T15:43:31Z</time>
      </trkpt>
      <trkpt lat="43.5751" lon="1.33324">
        <ele>182.2</ele>
        <time>2023-04-19T15:43:32Z</time>
      </trkpt>
      <trkpt lat="43.57494" lon="1.33258">
        <ele>182.4</ele>
        <time>2023-04-19T15:43:39Z</time>
      </trkpt>
      <trkpt lat="43.5747" lon="1.33206">
        <ele>182.6</ele>
        <time>2023-04-19T15:43:45Z</time>
      </trkpt>
      <trkpt lat="43.57446" lon="1.33167">
        <ele>182.8</ele>
        <time>2023-04-19T15:43:50Z</time>
      </trkpt>
      <trkpt lat="43.5744" lon="1.33151">
        <ele>182.8</ele>
        <time>2023-04-19T15:43:52Z</time>
      </trkpt>
      <trkpt lat="43.57438" lon="1.33143">
        <ele>182.8</ele>
        <time>2023-04-19T15:43:53Z</time>
      </trkpt>
      <trkpt lat="43.57436" lon="1.33135">
        <ele>182.8</ele>
        <time>2023-04-19T15:43:54Z</time>
      </trkpt>
      <trkpt lat="43.57422" lon="1.33092">
        <ele>183.8</ele>
        <time>2023-04-19T15:44:00Z</time>
      </trkpt>
      <trkpt lat="43.57419" lon="1.33086">
        <ele>184</ele>
        <time>2023-04-19T15:44:01Z</time>
      </trkpt>
      <trkpt lat="43.57398" lon="1.33047">
        <ele>184.8</ele>
        <time>2023-04-19T15:44:07Z</time>
      </trkpt>
      <trkpt lat="43.57389" lon="1.33038">
        <ele>184.8</ele>
        <time>2023-04-19T15:44:09Z</time>
      </trkpt>
      <trkpt lat="43.57379" lon="1.33031">
        <ele>184.8</ele>
        <time>2023-04-19T15:44:11Z</time>
      </trkpt>
      <trkpt lat="43.57376" lon="1.33027">
        <ele>184.8</ele>
        <time>2023-04-19T15:44:12Z</time>
      </trkpt>
      <trkpt lat="43.5737" lon="1.33018">
        <ele>185</ele>
        <time>2023-04-19T15:44:14Z</time>
      </trkpt>
      <trkpt lat="43.57367" lon="1.33013">
        <ele>184.8</ele>
        <time>2023-04-19T15:44:15Z</time>
      </trkpt>
      <trkpt lat="43.57353" lon="1.32992">
        <ele>183.8</ele>
        <time>2023-04-19T15:44:19Z</time>
      </trkpt>
      <trkpt lat="43.5733" lon="1.32956">
        <ele>183.6</ele>
        <time>2023-04-19T15:44:25Z</time>
      </trkpt>
      <trkpt lat="43.57305" lon="1.32917">
        <ele>184</ele>
        <time>2023-04-19T15:44:31Z</time>
      </trkpt>
      <trkpt lat="43.57265" lon="1.32875">
        <ele>184</ele>
        <time>2023-04-19T15:44:39Z</time>
      </trkpt>
      <trkpt lat="43.57226" lon="1.32843">
        <ele>184</ele>
        <time>2023-04-19T15:44:46Z</time>
      </trkpt>
      <trkpt lat="43.57188" lon="1.32808">
        <ele>184.6</ele>
        <time>2023-04-19T15:44:53Z</time>
      </trkpt>
      <trkpt lat="43.57148" lon="1.32761">
        <ele>184.8</ele>
        <time>2023-04-19T15:45:01Z</time>
      </trkpt>
      <trkpt lat="43.57127" lon="1.32726">
        <ele>184.8</ele>
        <time>2023-04-19T15:45:06Z</time>
      </trkpt>
      <trkpt lat="43.57123" lon="1.32718">
        <ele>184.8</ele>
        <time>2023-04-19T15:45:07Z</time>
      </trkpt>
      <trkpt lat="43.57121" lon="1.3271">
        <ele>184.8</ele>
        <time>2023-04-19T15:45:08Z</time>
      </trkpt>
      <trkpt lat="43.57118" lon="1.32693">
        <ele>184.8</ele>
        <time>2023-04-19T15:45:10Z</time>
      </trkpt>
      <trkpt lat="43.57118" lon="1.32684">
        <ele>184.8</ele>
        <time>2023-04-19T15:45:11Z</time>
      </trkpt>
      <trkpt lat="43.57118" lon="1.32675">
        <ele>185</ele>
        <time>2023-04-19T15:45:12Z</time>
      </trkpt>
      <trkpt lat="43.57123" lon="1.3264">
        <ele>185.2</ele>
        <time>2023-04-19T15:45:16Z</time>
      </trkpt>
      <trkpt lat="43.57133" lon="1.32592">
        <ele>185.2</ele>
        <time>2023-04-19T15:45:22Z</time>
      </trkpt>
      <trkpt lat="43.57145" lon="1.32546">
        <ele>185.2</ele>
        <time>2023-04-19T15:45:28Z</time>
      </trkpt>
      <trkpt lat="43.57151" lon="1.32523">
        <ele>185.4</ele>
        <time>2023-04-19T15:45:31Z</time>
      </trkpt>
      <trkpt lat="43.57164" lon="1.32467">
        <ele>186.2</ele>
        <time>2023-04-19T15:45:38Z</time>
      </trkpt>
      <trkpt lat="43.57166" lon="1.32459">
        <ele>186.4</ele>
        <time>2023-04-19T15:45:39Z</time>
      </trkpt>
      <trkpt lat="43.57179" lon="1.32407">
        <ele>186.4</ele>
        <time>2023-04-19T15:45:45Z</time>
      </trkpt>
      <trkpt lat="43.5718" lon="1.32398">
        <ele>186.4</ele>
        <time>2023-04-19T15:45:46Z</time>
      </trkpt>
      <trkpt lat="43.57181" lon="1.32371">
        <ele>186.2</ele>
        <time>2023-04-19T15:45:49Z</time>
      </trkpt>
      <trkpt lat="43.57179" lon="1.32332">
        <ele>186.2</ele>
        <time>2023-04-19T15:45:53Z</time>
      </trkpt>
      <trkpt lat="43.57177" lon="1.32317">
        <ele>186</ele>
        <time>2023-04-19T15:45:55Z</time>
      </trkpt>
      <trkpt lat="43.57175" lon="1.32303">
        <ele>185.8</ele>
        <time>2023-04-19T15:45:57Z</time>
      </trkpt>
      <trkpt lat="43.57176" lon="1.3229">
        <ele>185.8</ele>
        <time>2023-04-19T15:45:59Z</time>
      </trkpt>
      <trkpt lat="43.57179" lon="1.32246">
        <ele>186</ele>
        <time>2023-04-19T15:46:05Z</time>
      </trkpt>
      <trkpt lat="43.57181" lon="1.32238">
        <ele>186.2</ele>
        <time>2023-04-19T15:46:06Z</time>
      </trkpt>
      <trkpt lat="43.57191" lon="1.322">
        <ele>186.4</ele>
        <time>2023-04-19T15:46:11Z</time>
      </trkpt>
      <trkpt lat="43.57193" lon="1.32193">
        <ele>186.4</ele>
        <time>2023-04-19T15:46:12Z</time>
      </trkpt>
      <trkpt lat="43.57194" lon="1.32184">
        <ele>186.4</ele>
        <time>2023-04-19T15:46:13Z</time>
      </trkpt>
      <trkpt lat="43.57198" lon="1.3215">
        <ele>186.6</ele>
        <time>2023-04-19T15:46:17Z</time>
      </trkpt>
      <trkpt lat="43.572" lon="1.32133">
        <ele>186.6</ele>
        <time>2023-04-19T15:46:19Z</time>
      </trkpt>
      <trkpt lat="43.57197" lon="1.32113">
        <ele>186.6</ele>
        <time>2023-04-19T15:46:21Z</time>
      </trkpt>
      <trkpt lat="43.57184" lon="1.32071">
        <ele>186.6</ele>
        <time>2023-04-19T15:46:26Z</time>
      </trkpt>
      <trkpt lat="43.57176" lon="1.32046">
        <ele>186.4</ele>
        <time>2023-04-19T15:46:29Z</time>
      </trkpt>
      <trkpt lat="43.57172" lon="1.32039">
        <ele>186.4</ele>
        <time>2023-04-19T15:46:30Z</time>
      </trkpt>
      <trkpt lat="43.57162" lon="1.32027">
        <ele>186.2</ele>
        <time>2023-04-19T15:46:32Z</time>
      </trkpt>
      <trkpt lat="43.57154" lon="1.32019">
        <ele>186.2</ele>
        <time>2023-04-19T15:46:34Z</time>
      </trkpt>
      <trkpt lat="43.57145" lon="1.32009">
        <ele>186</ele>
        <time>2023-04-19T15:46:37Z</time>
      </trkpt>
      <trkpt lat="43.57136" lon="1.32003">
        <ele>186</ele>
        <time>2023-04-19T15:46:39Z</time>
      </trkpt>
      <trkpt lat="43.57129" lon="1.31999">
        <ele>186</ele>
        <time>2023-04-19T15:46:40Z</time>
      </trkpt>
      <trkpt lat="43.57111" lon="1.31991">
        <ele>185.8</ele>
        <time>2023-04-19T15:46:43Z</time>
      </trkpt>
      <trkpt lat="43.57084" lon="1.31975">
        <ele>185.6</ele>
        <time>2023-04-19T15:46:47Z</time>
      </trkpt>
      <trkpt lat="43.57039" lon="1.31946">
        <ele>185.4</ele>
        <time>2023-04-19T15:46:54Z</time>
      </trkpt>
      <trkpt lat="43.57" lon="1.31923">
        <ele>185.6</ele>
        <time>2023-04-19T15:47:01Z</time>
      </trkpt>
      <trkpt lat="43.56971" lon="1.31906">
        <ele>185.6</ele>
        <time>2023-04-19T15:47:06Z</time>
      </trkpt>
      <trkpt lat="43.56966" lon="1.31901">
        <ele>185.6</ele>
        <time>2023-04-19T15:47:07Z</time>
      </trkpt>
      <trkpt lat="43.56961" lon="1.31895">
        <ele>185.8</ele>
        <time>2023-04-19T15:47:08Z</time>
      </trkpt>
      <trkpt lat="43.56953" lon="1.31883">
        <ele>185.8</ele>
        <time>2023-04-19T15:47:10Z</time>
      </trkpt>
      <trkpt lat="43.56949" lon="1.31878">
        <ele>185.8</ele>
        <time>2023-04-19T15:47:11Z</time>
      </trkpt>
      <trkpt lat="43.56947" lon="1.31873">
        <ele>185.8</ele>
        <time>2023-04-19T15:47:12Z</time>
      </trkpt>
      <trkpt lat="43.56944" lon="1.3186">
        <ele>185.8</ele>
        <time>2023-04-19T15:47:14Z</time>
      </trkpt>
      <trkpt lat="43.56941" lon="1.31842">
        <ele>185.8</ele>
        <time>2023-04-19T15:47:17Z</time>
      </trkpt>
      <trkpt lat="43.56941" lon="1.31837">
        <ele>185.8</ele>
        <time>2023-04-19T15:47:18Z</time>
      </trkpt>
      <trkpt lat="43.56938" lon="1.31825">
        <ele>185.8</ele>
        <time>2023-04-19T15:47:21Z</time>
      </trkpt>
      <trkpt lat="43.56936" lon="1.31814">
        <ele>185.8</ele>
        <time>2023-04-19T15:47:23Z</time>
      </trkpt>
      <trkpt lat="43.56934" lon="1.31806">
        <ele>185.8</ele>
        <time>2023-04-19T15:47:24Z</time>
      </trkpt>
      <trkpt lat="43.5693" lon="1.31789">
        <ele>185.8</ele>
        <time>2023-04-19T15:47:26Z</time>
      </trkpt>
      <trkpt lat="43.56926" lon="1.31773">
        <ele>185.8</ele>
        <time>2023-04-19T15:47:28Z</time>
      </trkpt>
      <trkpt lat="43.56917" lon="1.31731">
        <ele>185.8</ele>
        <time>2023-04-19T15:47:33Z</time>
      </trkpt>
      <trkpt lat="43.56915" lon="1.31722">
        <ele>185.8</ele>
        <time>2023-04-19T15:47:34Z</time>
      </trkpt>
      <trkpt lat="43.56898" lon="1.31654">
        <ele>185.6</ele>
        <time>2023-04-19T15:47:42Z</time>
      </trkpt>
      <trkpt lat="43.56897" lon="1.31638">
        <ele>185.6</ele>
        <time>2023-04-19T15:47:44Z</time>
      </trkpt>
      <trkpt lat="43.56896" lon="1.31631">
        <ele>185.6</ele>
        <time>2023-04-19T15:47:45Z</time>
      </trkpt>
      <trkpt lat="43.56895" lon="1.31619">
        <ele>185.8</ele>
        <time>2023-04-19T15:47:48Z</time>
      </trkpt>
      <trkpt lat="43.56894" lon="1.31615">
        <ele>185.8</ele>
        <time>2023-04-19T15:47:49Z</time>
      </trkpt>
      <trkpt lat="43.56891" lon="1.31612">
        <ele>185.8</ele>
        <time>2023-04-19T15:47:50Z</time>
      </trkpt>
      <trkpt lat="43.5688" lon="1.31608">
        <ele>186</ele>
        <time>2023-04-19T15:47:52Z</time>
      </trkpt>
      <trkpt lat="43.56868" lon="1.31607">
        <ele>186</ele>
        <time>2023-04-19T15:47:54Z</time>
      </trkpt>
      <trkpt lat="43.56853" lon="1.31602">
        <ele>185.8</ele>
        <time>2023-04-19T15:47:56Z</time>
      </trkpt>
      <trkpt lat="43.56848" lon="1.31598">
        <ele>185.6</ele>
        <time>2023-04-19T15:47:57Z</time>
      </trkpt>
      <trkpt lat="43.56837" lon="1.31589">
        <ele>185.4</ele>
        <time>2023-04-19T15:47:59Z</time>
      </trkpt>
      <trkpt lat="43.56832" lon="1.31585">
        <ele>185.4</ele>
        <time>2023-04-19T15:48:00Z</time>
      </trkpt>
      <trkpt lat="43.56827" lon="1.31578">
        <ele>185.4</ele>
        <time>2023-04-19T15:48:01Z</time>
      </trkpt>
      <trkpt lat="43.56822" lon="1.31566">
        <ele>185.4</ele>
        <time>2023-04-19T15:48:03Z</time>
      </trkpt>
      <trkpt lat="43.56814" lon="1.31552">
        <ele>185.4</ele>
        <time>2023-04-19T15:48:05Z</time>
      </trkpt>
      <trkpt lat="43.56799" lon="1.31522">
        <ele>186</ele>
        <time>2023-04-19T15:48:09Z</time>
      </trkpt>
      <trkpt lat="43.5678" lon="1.31487">
        <ele>186.2</ele>
        <time>2023-04-19T15:48:14Z</time>
      </trkpt>
      <trkpt lat="43.56776" lon="1.3148">
        <ele>186.2</ele>
        <time>2023-04-19T15:48:15Z</time>
      </trkpt>
      <trkpt lat="43.56753" lon="1.31439">
        <ele>186.6</ele>
        <time>2023-04-19T15:48:21Z</time>
      </trkpt>
      <trkpt lat="43.56739" lon="1.31416">
        <ele>186.6</ele>
        <time>2023-04-19T15:48:25Z</time>
      </trkpt>
      <trkpt lat="43.56735" lon="1.31412">
        <ele>186.6</ele>
        <time>2023-04-19T15:48:26Z</time>
      </trkpt>
      <trkpt lat="43.56706" lon="1.31374">
        <ele>186.6</ele>
        <time>2023-04-19T15:48:33Z</time>
      </trkpt>
      <trkpt lat="43.56696" lon="1.31363">
        <ele>186.6</ele>
        <time>2023-04-19T15:48:35Z</time>
      </trkpt>
      <trkpt lat="43.56688" lon="1.3135">
        <ele>186.6</ele>
        <time>2023-04-19T15:48:37Z</time>
      </trkpt>
      <trkpt lat="43.56685" lon="1.31342">
        <ele>186.6</ele>
        <time>2023-04-19T15:48:38Z</time>
      </trkpt>
      <trkpt lat="43.56682" lon="1.31334">
        <ele>186.6</ele>
        <time>2023-04-19T15:48:39Z</time>
      </trkpt>
      <trkpt lat="43.56676" lon="1.31301">
        <ele>186.8</ele>
        <time>2023-04-19T15:48:43Z</time>
      </trkpt>
      <trkpt lat="43.56672" lon="1.31278">
        <ele>186.8</ele>
        <time>2023-04-19T15:48:46Z</time>
      </trkpt>
      <trkpt lat="43.56669" lon="1.31271">
        <ele>187</ele>
        <time>2023-04-19T15:48:47Z</time>
      </trkpt>
      <trkpt lat="43.56666" lon="1.31265">
        <ele>187.2</ele>
        <time>2023-04-19T15:48:48Z</time>
      </trkpt>
      <trkpt lat="43.56658" lon="1.31254">
        <ele>187.4</ele>
        <time>2023-04-19T15:48:50Z</time>
      </trkpt>
      <trkpt lat="43.56654" lon="1.31249">
        <ele>187.4</ele>
        <time>2023-04-19T15:48:51Z</time>
      </trkpt>
      <trkpt lat="43.5664" lon="1.3123">
        <ele>187.4</ele>
        <time>2023-04-19T15:48:54Z</time>
      </trkpt>
      <trkpt lat="43.56635" lon="1.31224">
        <ele>187.4</ele>
        <time>2023-04-19T15:48:55Z</time>
      </trkpt>
      <trkpt lat="43.56609" lon="1.312">
        <ele>187.4</ele>
        <time>2023-04-19T15:49:00Z</time>
      </trkpt>
      <trkpt lat="43.56598" lon="1.31193">
        <ele>187.2</ele>
        <time>2023-04-19T15:49:02Z</time>
      </trkpt>
      <trkpt lat="43.56593" lon="1.31194">
        <ele>187.2</ele>
        <time>2023-04-19T15:49:03Z</time>
      </trkpt>
      <trkpt lat="43.56588" lon="1.31196">
        <ele>187.2</ele>
        <time>2023-04-19T15:49:04Z</time>
      </trkpt>
      <trkpt lat="43.56559" lon="1.31207">
        <ele>187.2</ele>
        <time>2023-04-19T15:49:10Z</time>
      </trkpt>
      <trkpt lat="43.56548" lon="1.31208">
        <ele>187.2</ele>
        <time>2023-04-19T15:49:12Z</time>
      </trkpt>
      <trkpt lat="43.56526" lon="1.31208">
        <ele>187.2</ele>
        <time>2023-04-19T15:49:16Z</time>
      </trkpt>
      <trkpt lat="43.5652" lon="1.31206">
        <ele>187.2</ele>
        <time>2023-04-19T15:49:17Z</time>
      </trkpt>
      <trkpt lat="43.56506" lon="1.31199">
        <ele>187</ele>
        <time>2023-04-19T15:49:19Z</time>
      </trkpt>
      <trkpt lat="43.56501" lon="1.31197">
        <ele>186.8</ele>
        <time>2023-04-19T15:49:20Z</time>
      </trkpt>
      <trkpt lat="43.56491" lon="1.31193">
        <ele>186.8</ele>
        <time>2023-04-19T15:49:22Z</time>
      </trkpt>
      <trkpt lat="43.56486" lon="1.3119">
        <ele>186.6</ele>
        <time>2023-04-19T15:49:23Z</time>
      </trkpt>
      <trkpt lat="43.56481" lon="1.31186">
        <ele>186.6</ele>
        <time>2023-04-19T15:49:24Z</time>
      </trkpt>
      <trkpt lat="43.56474" lon="1.31176">
        <ele>186.6</ele>
        <time>2023-04-19T15:49:26Z</time>
      </trkpt>
      <trkpt lat="43.56472" lon="1.31171">
        <ele>186.6</ele>
        <time>2023-04-19T15:49:27Z</time>
      </trkpt>
      <trkpt lat="43.56466" lon="1.31158">
        <ele>186.8</ele>
        <time>2023-04-19T15:49:29Z</time>
      </trkpt>
      <trkpt lat="43.56459" lon="1.3115">
        <ele>186.8</ele>
        <time>2023-04-19T15:49:31Z</time>
      </trkpt>
      <trkpt lat="43.56451" lon="1.31138">
        <ele>187</ele>
        <time>2023-04-19T15:49:33Z</time>
      </trkpt>
      <trkpt lat="43.56445" lon="1.31123">
        <ele>187.2</ele>
        <time>2023-04-19T15:49:35Z</time>
      </trkpt>
      <trkpt lat="43.56438" lon="1.31104">
        <ele>187.4</ele>
        <time>2023-04-19T15:49:39Z</time>
      </trkpt>
      <trkpt lat="43.56431" lon="1.31104">
        <ele>187.8</ele>
        <time>2023-04-19T15:49:42Z</time>
      </trkpt>
      <trkpt lat="43.56428" lon="1.31107">
        <ele>188.8</ele>
        <time>2023-04-19T15:49:45Z</time>
      </trkpt>
      <trkpt lat="43.56427" lon="1.31109">
        <ele>189</ele>
        <time>2023-04-19T15:49:46Z</time>
      </trkpt>
      <trkpt lat="43.56415" lon="1.31117">
        <ele>189.6</ele>
        <time>2023-04-19T15:49:52Z</time>
      </trkpt>
      <trkpt lat="43.56412" lon="1.31112">
        <ele>189.6</ele>
        <time>2023-04-19T15:49:54Z</time>
      </trkpt>
      <trkpt lat="43.56409" lon="1.31101">
        <ele>189.6</ele>
        <time>2023-04-19T15:49:56Z</time>
      </trkpt>
      <trkpt lat="43.56407" lon="1.31094">
        <ele>189.4</ele>
        <time>2023-04-19T15:49:57Z</time>
      </trkpt>
      <trkpt lat="43.56401" lon="1.31079">
        <ele>189</ele>
        <time>2023-04-19T15:49:59Z</time>
      </trkpt>
      <trkpt lat="43.56398" lon="1.31071">
        <ele>189</ele>
        <time>2023-04-19T15:50:00Z</time>
      </trkpt>
      <trkpt lat="43.56386" lon="1.3104">
        <ele>188.6</ele>
        <time>2023-04-19T15:50:04Z</time>
      </trkpt>
      <trkpt lat="43.56376" lon="1.31013">
        <ele>188.4</ele>
        <time>2023-04-19T15:50:07Z</time>
      </trkpt>
      <trkpt lat="43.56375" lon="1.30995">
        <ele>188.4</ele>
        <time>2023-04-19T15:50:09Z</time>
      </trkpt>
      <trkpt lat="43.56377" lon="1.30977">
        <ele>188.4</ele>
        <time>2023-04-19T15:50:11Z</time>
      </trkpt>
      <trkpt lat="43.56379" lon="1.30968">
        <ele>188.2</ele>
        <time>2023-04-19T15:50:12Z</time>
      </trkpt>
      <trkpt lat="43.5638" lon="1.30959">
        <ele>188.2</ele>
        <time>2023-04-19T15:50:13Z</time>
      </trkpt>
      <trkpt lat="43.5638" lon="1.30941">
        <ele>188.2</ele>
        <time>2023-04-19T15:50:15Z</time>
      </trkpt>
      <trkpt lat="43.5638" lon="1.30923">
        <ele>188</ele>
        <time>2023-04-19T15:50:17Z</time>
      </trkpt>
      <trkpt lat="43.56376" lon="1.30904">
        <ele>187.8</ele>
        <time>2023-04-19T15:50:19Z</time>
      </trkpt>
      <trkpt lat="43.56374" lon="1.3089">
        <ele>187.8</ele>
        <time>2023-04-19T15:50:21Z</time>
      </trkpt>
      <trkpt lat="43.56373" lon="1.30878">
        <ele>187.6</ele>
        <time>2023-04-19T15:50:23Z</time>
      </trkpt>
      <trkpt lat="43.56369" lon="1.30871">
        <ele>187.6</ele>
        <time>2023-04-19T15:50:24Z</time>
      </trkpt>
      <trkpt lat="43.56368" lon="1.30859">
        <ele>187.6</ele>
        <time>2023-04-19T15:50:26Z</time>
      </trkpt>
      <trkpt lat="43.56368" lon="1.3082">
        <ele>187.4</ele>
        <time>2023-04-19T15:50:31Z</time>
      </trkpt>
      <trkpt lat="43.56368" lon="1.30803">
        <ele>187.4</ele>
        <time>2023-04-19T15:50:33Z</time>
      </trkpt>
      <trkpt lat="43.56372" lon="1.30777">
        <ele>187.6</ele>
        <time>2023-04-19T15:50:36Z</time>
      </trkpt>
      <trkpt lat="43.56379" lon="1.3074">
        <ele>188.2</ele>
        <time>2023-04-19T15:50:40Z</time>
      </trkpt>
      <trkpt lat="43.56382" lon="1.30722">
        <ele>188.2</ele>
        <time>2023-04-19T15:50:42Z</time>
      </trkpt>
      <trkpt lat="43.56387" lon="1.30697">
        <ele>188.2</ele>
        <time>2023-04-19T15:50:45Z</time>
      </trkpt>
      <trkpt lat="43.56395" lon="1.30672">
        <ele>188.4</ele>
        <time>2023-04-19T15:50:48Z</time>
      </trkpt>
      <trkpt lat="43.56409" lon="1.30628">
        <ele>188.4</ele>
        <time>2023-04-19T15:50:53Z</time>
      </trkpt>
      <trkpt lat="43.56411" lon="1.30619">
        <ele>188.4</ele>
        <time>2023-04-19T15:50:54Z</time>
      </trkpt>
      <trkpt lat="43.56424" lon="1.30566">
        <ele>188.6</ele>
        <time>2023-04-19T15:51:00Z</time>
      </trkpt>
      <trkpt lat="43.56427" lon="1.30558">
        <ele>188.6</ele>
        <time>2023-04-19T15:51:01Z</time>
      </trkpt>
      <trkpt lat="43.56432" lon="1.3055">
        <ele>188.6</ele>
        <time>2023-04-19T15:51:02Z</time>
      </trkpt>
      <trkpt lat="43.56446" lon="1.30526">
        <ele>188.6</ele>
        <time>2023-04-19T15:51:05Z</time>
      </trkpt>
      <trkpt lat="43.56451" lon="1.3052">
        <ele>188.6</ele>
        <time>2023-04-19T15:51:06Z</time>
      </trkpt>
      <trkpt lat="43.56456" lon="1.30516">
        <ele>188.6</ele>
        <time>2023-04-19T15:51:07Z</time>
      </trkpt>
      <trkpt lat="43.56474" lon="1.30506">
        <ele>188.4</ele>
        <time>2023-04-19T15:51:10Z</time>
      </trkpt>
      <trkpt lat="43.56481" lon="1.30504">
        <ele>188.2</ele>
        <time>2023-04-19T15:51:11Z</time>
      </trkpt>
      <trkpt lat="43.56507" lon="1.30494">
        <ele>187.6</ele>
        <time>2023-04-19T15:51:14Z</time>
      </trkpt>
      <trkpt lat="43.56512" lon="1.3049">
        <ele>187.4</ele>
        <time>2023-04-19T15:51:16Z</time>
      </trkpt>
      <trkpt lat="43.56516" lon="1.30487">
        <ele>187.4</ele>
        <time>2023-04-19T15:51:17Z</time>
      </trkpt>
      <trkpt lat="43.5652" lon="1.30482">
        <ele>187.4</ele>
        <time>2023-04-19T15:51:18Z</time>
      </trkpt>
      <trkpt lat="43.56525" lon="1.30469">
        <ele>187.6</ele>
        <time>2023-04-19T15:51:20Z</time>
      </trkpt>
      <trkpt lat="43.56527" lon="1.30461">
        <ele>187.6</ele>
        <time>2023-04-19T15:51:21Z</time>
      </trkpt>
      <trkpt lat="43.56541" lon="1.30398">
        <ele>188.6</ele>
        <time>2023-04-19T15:51:29Z</time>
      </trkpt>
      <trkpt lat="43.56547" lon="1.3036">
        <ele>188.6</ele>
        <time>2023-04-19T15:51:34Z</time>
      </trkpt>
      <trkpt lat="43.56549" lon="1.30352">
        <ele>188.6</ele>
        <time>2023-04-19T15:51:35Z</time>
      </trkpt>
      <trkpt lat="43.56551" lon="1.30345">
        <ele>188.6</ele>
        <time>2023-04-19T15:51:36Z</time>
      </trkpt>
      <trkpt lat="43.56554" lon="1.30321">
        <ele>188.6</ele>
        <time>2023-04-19T15:51:39Z</time>
      </trkpt>
      <trkpt lat="43.56554" lon="1.30306">
        <ele>188.8</ele>
        <time>2023-04-19T15:51:41Z</time>
      </trkpt>
      <trkpt lat="43.56552" lon="1.30277">
        <ele>189</ele>
        <time>2023-04-19T15:51:45Z</time>
      </trkpt>
      <trkpt lat="43.56553" lon="1.30254">
        <ele>189.2</ele>
        <time>2023-04-19T15:51:48Z</time>
      </trkpt>
      <trkpt lat="43.5655" lon="1.30229">
        <ele>189.2</ele>
        <time>2023-04-19T15:51:51Z</time>
      </trkpt>
      <trkpt lat="43.56548" lon="1.30202">
        <ele>189.2</ele>
        <time>2023-04-19T15:51:54Z</time>
      </trkpt>
      <trkpt lat="43.56547" lon="1.30193">
        <ele>189.2</ele>
        <time>2023-04-19T15:51:55Z</time>
      </trkpt>
      <trkpt lat="43.56545" lon="1.30185">
        <ele>189.4</ele>
        <time>2023-04-19T15:51:56Z</time>
      </trkpt>
      <trkpt lat="43.56542" lon="1.3017">
        <ele>189.4</ele>
        <time>2023-04-19T15:51:58Z</time>
      </trkpt>
      <trkpt lat="43.56538" lon="1.30163">
        <ele>189.4</ele>
        <time>2023-04-19T15:51:59Z</time>
      </trkpt>
      <trkpt lat="43.56533" lon="1.30157">
        <ele>189.6</ele>
        <time>2023-04-19T15:52:00Z</time>
      </trkpt>
      <trkpt lat="43.56528" lon="1.30151">
        <ele>189.8</ele>
        <time>2023-04-19T15:52:01Z</time>
      </trkpt>
      <trkpt lat="43.56523" lon="1.30147">
        <ele>189.8</ele>
        <time>2023-04-19T15:52:02Z</time>
      </trkpt>
      <trkpt lat="43.56518" lon="1.30144">
        <ele>190</ele>
        <time>2023-04-19T15:52:03Z</time>
      </trkpt>
      <trkpt lat="43.56495" lon="1.30134">
        <ele>191</ele>
        <time>2023-04-19T15:52:07Z</time>
      </trkpt>
      <trkpt lat="43.56484" lon="1.30128">
        <ele>191.2</ele>
        <time>2023-04-19T15:52:09Z</time>
      </trkpt>
      <trkpt lat="43.56465" lon="1.30118">
        <ele>191.4</ele>
        <time>2023-04-19T15:52:12Z</time>
      </trkpt>
      <trkpt lat="43.56454" lon="1.30109">
        <ele>191.4</ele>
        <time>2023-04-19T15:52:14Z</time>
      </trkpt>
      <trkpt lat="43.56412" lon="1.30079">
        <ele>190.4</ele>
        <time>2023-04-19T15:52:21Z</time>
      </trkpt>
      <trkpt lat="43.56382" lon="1.30065">
        <ele>189.8</ele>
        <time>2023-04-19T15:52:26Z</time>
      </trkpt>
      <trkpt lat="43.56364" lon="1.30059">
        <ele>189.8</ele>
        <time>2023-04-19T15:52:29Z</time>
      </trkpt>
      <trkpt lat="43.56352" lon="1.30053">
        <ele>189.6</ele>
        <time>2023-04-19T15:52:31Z</time>
      </trkpt>
      <trkpt lat="43.56342" lon="1.30046">
        <ele>189.6</ele>
        <time>2023-04-19T15:52:33Z</time>
      </trkpt>
      <trkpt lat="43.56336" lon="1.30042">
        <ele>189.6</ele>
        <time>2023-04-19T15:52:34Z</time>
      </trkpt>
      <trkpt lat="43.56328" lon="1.30032">
        <ele>189.6</ele>
        <time>2023-04-19T15:52:37Z</time>
      </trkpt>
      <trkpt lat="43.5632" lon="1.30024">
        <ele>189.4</ele>
        <time>2023-04-19T15:52:42Z</time>
      </trkpt>
      <trkpt lat="43.56311" lon="1.30023">
        <ele>189.4</ele>
        <time>2023-04-19T15:52:45Z</time>
      </trkpt>
      <trkpt lat="43.56295" lon="1.30007">
        <ele>189.4</ele>
        <time>2023-04-19T15:52:52Z</time>
      </trkpt>
      <trkpt lat="43.5629" lon="1.3">
        <ele>189.4</ele>
        <time>2023-04-19T15:52:54Z</time>
      </trkpt>
      <trkpt lat="43.56281" lon="1.29988">
        <ele>189.6</ele>
        <time>2023-04-19T15:52:57Z</time>
      </trkpt>
      <trkpt lat="43.56278" lon="1.29982">
        <ele>189.6</ele>
        <time>2023-04-19T15:52:58Z</time>
      </trkpt>
      <trkpt lat="43.56268" lon="1.2997">
        <ele>189.8</ele>
        <time>2023-04-19T15:53:00Z</time>
      </trkpt>
      <trkpt lat="43.56263" lon="1.29963">
        <ele>189.8</ele>
        <time>2023-04-19T15:53:01Z</time>
      </trkpt>
      <trkpt lat="43.5626" lon="1.29956">
        <ele>190</ele>
        <time>2023-04-19T15:53:02Z</time>
      </trkpt>
      <trkpt lat="43.56253" lon="1.29942">
        <ele>190</ele>
        <time>2023-04-19T15:53:04Z</time>
      </trkpt>
      <trkpt lat="43.56227" lon="1.29892">
        <ele>189.8</ele>
        <time>2023-04-19T15:53:11Z</time>
      </trkpt>
      <trkpt lat="43.56208" lon="1.29863">
        <ele>190</ele>
        <time>2023-04-19T15:53:15Z</time>
      </trkpt>
      <trkpt lat="43.56201" lon="1.29851">
        <ele>190</ele>
        <time>2023-04-19T15:53:17Z</time>
      </trkpt>
      <trkpt lat="43.56186" lon="1.29844">
        <ele>190.2</ele>
        <time>2023-04-19T15:53:20Z</time>
      </trkpt>
      <trkpt lat="43.56173" lon="1.29845">
        <ele>190.2</ele>
        <time>2023-04-19T15:53:22Z</time>
      </trkpt>
      <trkpt lat="43.56162" lon="1.29839">
        <ele>190.2</ele>
        <time>2023-04-19T15:53:24Z</time>
      </trkpt>
      <trkpt lat="43.56142" lon="1.29823">
        <ele>190.4</ele>
        <time>2023-04-19T15:53:28Z</time>
      </trkpt>
      <trkpt lat="43.56108" lon="1.29792">
        <ele>189.6</ele>
        <time>2023-04-19T15:53:35Z</time>
      </trkpt>
      <trkpt lat="43.56103" lon="1.29789">
        <ele>189.4</ele>
        <time>2023-04-19T15:53:36Z</time>
      </trkpt>
      <trkpt lat="43.56088" lon="1.29773">
        <ele>189.6</ele>
        <time>2023-04-19T15:53:40Z</time>
      </trkpt>
      <trkpt lat="43.56086" lon="1.2977">
        <ele>189.8</ele>
        <time>2023-04-19T15:53:41Z</time>
      </trkpt>
      <trkpt lat="43.56087" lon="1.29764">
        <ele>190</ele>
        <time>2023-04-19T15:53:43Z</time>
      </trkpt>
      <trkpt lat="43.56089" lon="1.29749">
        <ele>190.4</ele>
        <time>2023-04-19T15:53:48Z</time>
      </trkpt>
      <trkpt lat="43.5609" lon="1.29747">
        <ele>190.6</ele>
        <time>2023-04-19T15:53:50Z</time>
      </trkpt>
      <trkpt lat="43.56088" lon="1.29741">
        <ele>191</ele>
        <time>2023-04-19T15:53:53Z</time>
      </trkpt>
      <trkpt lat="43.56087" lon="1.29731">
        <ele>191</ele>
        <time>2023-04-19T15:53:56Z</time>
      </trkpt>
      <trkpt lat="43.56088" lon="1.29727">
        <ele>191</ele>
        <time>2023-04-19T15:53:57Z</time>
      </trkpt>
      <trkpt lat="43.56096" lon="1.29723">
        <ele>191.2</ele>
        <time>2023-04-19T15:53:59Z</time>
      </trkpt>
      <trkpt lat="43.56103" lon="1.29717">
        <ele>191.2</ele>
        <time>2023-04-19T15:54:01Z</time>
      </trkpt>
      <trkpt lat="43.56106" lon="1.29714">
        <ele>191.4</ele>
        <time>2023-04-19T15:54:02Z</time>
      </trkpt>
      <trkpt lat="43.56123" lon="1.29697">
        <ele>191.8</ele>
        <time>2023-04-19T15:54:07Z</time>
      </trkpt>
      <trkpt lat="43.56126" lon="1.29692">
        <ele>191.8</ele>
        <time>2023-04-19T15:54:08Z</time>
      </trkpt>
      <trkpt lat="43.56128" lon="1.2969">
        <ele>192</ele>
        <time>2023-04-19T15:54:09Z</time>
      </trkpt>
      <trkpt lat="43.5614" lon="1.29677">
        <ele>192.4</ele>
        <time>2023-04-19T15:54:13Z</time>
      </trkpt>
      <trkpt lat="43.56143" lon="1.29674">
        <ele>192.6</ele>
        <time>2023-04-19T15:54:14Z</time>
      </trkpt>
      <trkpt lat="43.56149" lon="1.29672">
        <ele>192.6</ele>
        <time>2023-04-19T15:54:16Z</time>
      </trkpt>
      <trkpt lat="43.56151" lon="1.29671">
        <ele>192.6</ele>
        <time>2023-04-19T15:54:17Z</time>
      </trkpt>
      <trkpt lat="43.56153" lon="1.2967">
        <ele>192.6</ele>
        <time>2023-04-19T15:54:18Z</time>
      </trkpt>
      <trkpt lat="43.56153" lon="1.29667">
        <ele>192.8</ele>
        <time>2023-04-19T15:54:20Z</time>
      </trkpt>
      <trkpt lat="43.56147" lon="1.29661">
        <ele>192.6</ele>
        <time>2023-04-19T15:54:21Z</time>
      </trkpt>
      <trkpt lat="43.56142" lon="1.2965">
        <ele>192.6</ele>
        <time>2023-04-19T15:54:23Z</time>
      </trkpt>
      <trkpt lat="43.56123" lon="1.29615">
        <ele>191.4</ele>
        <time>2023-04-19T15:54:28Z</time>
      </trkpt>
      <trkpt lat="43.56116" lon="1.29601">
        <ele>191</ele>
        <time>2023-04-19T15:54:30Z</time>
      </trkpt>
      <trkpt lat="43.56095" lon="1.29566">
        <ele>190.6</ele>
        <time>2023-04-19T15:54:35Z</time>
      </trkpt>
      <trkpt lat="43.56079" lon="1.2954">
        <ele>190.6</ele>
        <time>2023-04-19T15:54:39Z</time>
      </trkpt>
      <trkpt lat="43.56075" lon="1.29534">
        <ele>190.6</ele>
        <time>2023-04-19T15:54:40Z</time>
      </trkpt>
      <trkpt lat="43.56066" lon="1.29521">
        <ele>190.6</ele>
        <time>2023-04-19T15:54:42Z</time>
      </trkpt>
      <trkpt lat="43.56053" lon="1.29503">
        <ele>190.6</ele>
        <time>2023-04-19T15:54:45Z</time>
      </trkpt>
      <trkpt lat="43.56026" lon="1.29468">
        <ele>190.6</ele>
        <time>2023-04-19T15:54:51Z</time>
      </trkpt>
      <trkpt lat="43.56017" lon="1.29458">
        <ele>190.8</ele>
        <time>2023-04-19T15:54:53Z</time>
      </trkpt>
      <trkpt lat="43.56009" lon="1.29444">
        <ele>190.8</ele>
        <time>2023-04-19T15:54:55Z</time>
      </trkpt>
      <trkpt lat="43.56002" lon="1.29431">
        <ele>190.8</ele>
        <time>2023-04-19T15:54:57Z</time>
      </trkpt>
      <trkpt lat="43.55992" lon="1.29424">
        <ele>190.8</ele>
        <time>2023-04-19T15:54:59Z</time>
      </trkpt>
      <trkpt lat="43.55979" lon="1.29423">
        <ele>190.8</ele>
        <time>2023-04-19T15:55:01Z</time>
      </trkpt>
      <trkpt lat="43.55967" lon="1.29417">
        <ele>190.8</ele>
        <time>2023-04-19T15:55:03Z</time>
      </trkpt>
      <trkpt lat="43.55961" lon="1.29412">
        <ele>190.6</ele>
        <time>2023-04-19T15:55:04Z</time>
      </trkpt>
      <trkpt lat="43.55946" lon="1.294">
        <ele>190.4</ele>
        <time>2023-04-19T15:55:07Z</time>
      </trkpt>
      <trkpt lat="43.5594" lon="1.29397">
        <ele>190.2</ele>
        <time>2023-04-19T15:55:08Z</time>
      </trkpt>
      <trkpt lat="43.55933" lon="1.29395">
        <ele>190.2</ele>
        <time>2023-04-19T15:55:09Z</time>
      </trkpt>
      <trkpt lat="43.55922" lon="1.29396">
        <ele>190.4</ele>
        <time>2023-04-19T15:55:11Z</time>
      </trkpt>
      <trkpt lat="43.559" lon="1.29401">
        <ele>190.6</ele>
        <time>2023-04-19T15:55:15Z</time>
      </trkpt>
      <trkpt lat="43.559" lon="1.29401">
        <ele>190.6</ele>
        <time>2023-04-19T15:55:16Z</time>
      </trkpt>
      <trkpt lat="43.55889" lon="1.29401">
        <ele>190.6</ele>
        <time>2023-04-19T15:55:17Z</time>
      </trkpt>
      <trkpt lat="43.55883" lon="1.29393">
        <ele>190.6</ele>
        <time>2023-04-19T15:55:19Z</time>
      </trkpt>
      <trkpt lat="43.55883" lon="1.29382">
        <ele>190.6</ele>
        <time>2023-04-19T15:55:21Z</time>
      </trkpt>
      <trkpt lat="43.55883" lon="1.29376">
        <ele>190.4</ele>
        <time>2023-04-19T15:55:22Z</time>
      </trkpt>
      <trkpt lat="43.55884" lon="1.29367">
        <ele>190.4</ele>
        <time>2023-04-19T15:55:23Z</time>
      </trkpt>
      <trkpt lat="43.55884" lon="1.29354">
        <ele>190.4</ele>
        <time>2023-04-19T15:55:25Z</time>
      </trkpt>
      <trkpt lat="43.55882" lon="1.29338">
        <ele>190.6</ele>
        <time>2023-04-19T15:55:27Z</time>
      </trkpt>
      <trkpt lat="43.55873" lon="1.29306">
        <ele>190.8</ele>
        <time>2023-04-19T15:55:31Z</time>
      </trkpt>
      <trkpt lat="43.55871" lon="1.29298">
        <ele>190.8</ele>
        <time>2023-04-19T15:55:32Z</time>
      </trkpt>
      <trkpt lat="43.55869" lon="1.29282">
        <ele>191.2</ele>
        <time>2023-04-19T15:55:34Z</time>
      </trkpt>
      <trkpt lat="43.55867" lon="1.29262">
        <ele>191.2</ele>
        <time>2023-04-19T15:55:37Z</time>
      </trkpt>
      <trkpt lat="43.55864" lon="1.29249">
        <ele>191.2</ele>
        <time>2023-04-19T15:55:39Z</time>
      </trkpt>
      <trkpt lat="43.55859" lon="1.29233">
        <ele>191.2</ele>
        <time>2023-04-19T15:55:42Z</time>
      </trkpt>
      <trkpt lat="43.55858" lon="1.29228">
        <ele>191.2</ele>
        <time>2023-04-19T15:55:43Z</time>
      </trkpt>
      <trkpt lat="43.55855" lon="1.29218">
        <ele>191.2</ele>
        <time>2023-04-19T15:55:45Z</time>
      </trkpt>
      <trkpt lat="43.55854" lon="1.29212">
        <ele>191.2</ele>
        <time>2023-04-19T15:55:46Z</time>
      </trkpt>
      <trkpt lat="43.55845" lon="1.29189">
        <ele>191.4</ele>
        <time>2023-04-19T15:55:50Z</time>
      </trkpt>
      <trkpt lat="43.55841" lon="1.29184">
        <ele>191.6</ele>
        <time>2023-04-19T15:55:51Z</time>
      </trkpt>
      <trkpt lat="43.55832" lon="1.29179">
        <ele>191.6</ele>
        <time>2023-04-19T15:55:53Z</time>
      </trkpt>
      <trkpt lat="43.55823" lon="1.29174">
        <ele>191.6</ele>
        <time>2023-04-19T15:55:55Z</time>
      </trkpt>
      <trkpt lat="43.55818" lon="1.29171">
        <ele>191.6</ele>
        <time>2023-04-19T15:55:56Z</time>
      </trkpt>
      <trkpt lat="43.55813" lon="1.29166">
        <ele>191.8</ele>
        <time>2023-04-19T15:55:57Z</time>
      </trkpt>
      <trkpt lat="43.55796" lon="1.29146">
        <ele>191.6</ele>
        <time>2023-04-19T15:56:01Z</time>
      </trkpt>
      <trkpt lat="43.55757" lon="1.29096">
        <ele>191.2</ele>
        <time>2023-04-19T15:56:10Z</time>
      </trkpt>
      <trkpt lat="43.55714" lon="1.29045">
        <ele>191.4</ele>
        <time>2023-04-19T15:56:19Z</time>
      </trkpt>
      <trkpt lat="43.55709" lon="1.29039">
        <ele>191.4</ele>
        <time>2023-04-19T15:56:20Z</time>
      </trkpt>
      <trkpt lat="43.55669" lon="1.28992">
        <ele>191.6</ele>
        <time>2023-04-19T15:56:28Z</time>
      </trkpt>
      <trkpt lat="43.55629" lon="1.28947">
        <ele>191.8</ele>
        <time>2023-04-19T15:56:36Z</time>
      </trkpt>
      <trkpt lat="43.55592" lon="1.28905">
        <ele>192</ele>
        <time>2023-04-19T15:56:43Z</time>
      </trkpt>
      <trkpt lat="43.55571" lon="1.28883">
        <ele>192</ele>
        <time>2023-04-19T15:56:47Z</time>
      </trkpt>
      <trkpt lat="43.55548" lon="1.28865">
        <ele>192</ele>
        <time>2023-04-19T15:56:51Z</time>
      </trkpt>
      <trkpt lat="43.55542" lon="1.28863">
        <ele>192.2</ele>
        <time>2023-04-19T15:56:52Z</time>
      </trkpt>
      <trkpt lat="43.55523" lon="1.28858">
        <ele>192.4</ele>
        <time>2023-04-19T15:56:55Z</time>
      </trkpt>
      <trkpt lat="43.55478" lon="1.28847">
        <ele>193</ele>
        <time>2023-04-19T15:57:02Z</time>
      </trkpt>
      <trkpt lat="43.55471" lon="1.28845">
        <ele>193</ele>
        <time>2023-04-19T15:57:03Z</time>
      </trkpt>
      <trkpt lat="43.55459" lon="1.28837">
        <ele>193</ele>
        <time>2023-04-19T15:57:05Z</time>
      </trkpt>
      <trkpt lat="43.55454" lon="1.28832">
        <ele>193</ele>
        <time>2023-04-19T15:57:06Z</time>
      </trkpt>
      <trkpt lat="43.55411" lon="1.28785">
        <ele>193</ele>
        <time>2023-04-19T15:57:14Z</time>
      </trkpt>
      <trkpt lat="43.55371" lon="1.28733">
        <ele>193.2</ele>
        <time>2023-04-19T15:57:22Z</time>
      </trkpt>
      <trkpt lat="43.55333" lon="1.28673">
        <ele>193.4</ele>
        <time>2023-04-19T15:57:30Z</time>
      </trkpt>
      <trkpt lat="43.55323" lon="1.28658">
        <ele>193.4</ele>
        <time>2023-04-19T15:57:32Z</time>
      </trkpt>
      <trkpt lat="43.55288" lon="1.28619">
        <ele>193.4</ele>
        <time>2023-04-19T15:57:38Z</time>
      </trkpt>
      <trkpt lat="43.55239" lon="1.28578">
        <ele>193.4</ele>
        <time>2023-04-19T15:57:46Z</time>
      </trkpt>
      <trkpt lat="43.55232" lon="1.28573">
        <ele>193.4</ele>
        <time>2023-04-19T15:57:47Z</time>
      </trkpt>
      <trkpt lat="43.55176" lon="1.28537">
        <ele>193.4</ele>
        <time>2023-04-19T15:57:55Z</time>
      </trkpt>
      <trkpt lat="43.55149" lon="1.28518">
        <ele>193.4</ele>
        <time>2023-04-19T15:57:59Z</time>
      </trkpt>
      <trkpt lat="43.55135" lon="1.28508">
        <ele>193.4</ele>
        <time>2023-04-19T15:58:01Z</time>
      </trkpt>
      <trkpt lat="43.55108" lon="1.28489">
        <ele>193.4</ele>
        <time>2023-04-19T15:58:05Z</time>
      </trkpt>
      <trkpt lat="43.55101" lon="1.28486">
        <ele>193.4</ele>
        <time>2023-04-19T15:58:06Z</time>
      </trkpt>
      <trkpt lat="43.55093" lon="1.28484">
        <ele>193.4</ele>
        <time>2023-04-19T15:58:07Z</time>
      </trkpt>
      <trkpt lat="43.5507" lon="1.28481">
        <ele>193.6</ele>
        <time>2023-04-19T15:58:10Z</time>
      </trkpt>
      <trkpt lat="43.55011" lon="1.28472">
        <ele>193.8</ele>
        <time>2023-04-19T15:58:18Z</time>
      </trkpt>
      <trkpt lat="43.55003" lon="1.28471">
        <ele>194</ele>
        <time>2023-04-19T15:58:19Z</time>
      </trkpt>
      <trkpt lat="43.54958" lon="1.28463">
        <ele>194.2</ele>
        <time>2023-04-19T15:58:25Z</time>
      </trkpt>
      <trkpt lat="43.54921" lon="1.28456">
        <ele>194.2</ele>
        <time>2023-04-19T15:58:30Z</time>
      </trkpt>
      <trkpt lat="43.54874" lon="1.28446">
        <ele>194.4</ele>
        <time>2023-04-19T15:58:38Z</time>
      </trkpt>
      <trkpt lat="43.54853" lon="1.28441">
        <ele>194.4</ele>
        <time>2023-04-19T15:58:40Z</time>
      </trkpt>
      <trkpt lat="43.54797" lon="1.28427">
        <ele>194.4</ele>
        <time>2023-04-19T15:58:48Z</time>
      </trkpt>
      <trkpt lat="43.54742" lon="1.28415">
        <ele>194.6</ele>
        <time>2023-04-19T15:58:56Z</time>
      </trkpt>
      <trkpt lat="43.54735" lon="1.28414">
        <ele>194.6</ele>
        <time>2023-04-19T15:58:57Z</time>
      </trkpt>
      <trkpt lat="43.54721" lon="1.28412">
        <ele>194.6</ele>
        <time>2023-04-19T15:58:59Z</time>
      </trkpt>
      <trkpt lat="43.54701" lon="1.28405">
        <ele>194.4</ele>
        <time>2023-04-19T15:59:02Z</time>
      </trkpt>
      <trkpt lat="43.54658" lon="1.2838">
        <ele>194.6</ele>
        <time>2023-04-19T15:59:09Z</time>
      </trkpt>
      <trkpt lat="43.54646" lon="1.2837">
        <ele>194.6</ele>
        <time>2023-04-19T15:59:11Z</time>
      </trkpt>
      <trkpt lat="43.54635" lon="1.28359">
        <ele>194.8</ele>
        <time>2023-04-19T15:59:13Z</time>
      </trkpt>
      <trkpt lat="43.5463" lon="1.28353">
        <ele>194.8</ele>
        <time>2023-04-19T15:59:14Z</time>
      </trkpt>
      <trkpt lat="43.54599" lon="1.283">
        <ele>194.8</ele>
        <time>2023-04-19T15:59:21Z</time>
      </trkpt>
      <trkpt lat="43.54586" lon="1.28277">
        <ele>194.6</ele>
        <time>2023-04-19T15:59:24Z</time>
      </trkpt>
      <trkpt lat="43.54547" lon="1.28216">
        <ele>194.6</ele>
        <time>2023-04-19T15:59:32Z</time>
      </trkpt>
      <trkpt lat="43.54506" lon="1.28159">
        <ele>194.6</ele>
        <time>2023-04-19T15:59:40Z</time>
      </trkpt>
      <trkpt lat="43.54501" lon="1.28152">
        <ele>194.6</ele>
        <time>2023-04-19T15:59:41Z</time>
      </trkpt>
      <trkpt lat="43.54461" lon="1.28093">
        <ele>194.8</ele>
        <time>2023-04-19T15:59:49Z</time>
      </trkpt>
      <trkpt lat="43.54456" lon="1.28086">
        <ele>194.8</ele>
        <time>2023-04-19T15:59:51Z</time>
      </trkpt>
      <trkpt lat="43.54414" lon="1.28014">
        <ele>195.2</ele>
        <time>2023-04-19T15:59:59Z</time>
      </trkpt>
      <trkpt lat="43.5441" lon="1.28005">
        <ele>195.2</ele>
        <time>2023-04-19T16:00:00Z</time>
      </trkpt>
      <trkpt lat="43.5438" lon="1.27946">
        <ele>195.2</ele>
        <time>2023-04-19T16:00:07Z</time>
      </trkpt>
      <trkpt lat="43.54367" lon="1.27921">
        <ele>195.4</ele>
        <time>2023-04-19T16:00:10Z</time>
      </trkpt>
      <trkpt lat="43.54336" lon="1.27854">
        <ele>195.6</ele>
        <time>2023-04-19T16:00:18Z</time>
      </trkpt>
      <trkpt lat="43.54329" lon="1.27836">
        <ele>195.6</ele>
        <time>2023-04-19T16:00:20Z</time>
      </trkpt>
      <trkpt lat="43.54302" lon="1.27768">
        <ele>195.6</ele>
        <time>2023-04-19T16:00:28Z</time>
      </trkpt>
      <trkpt lat="43.543" lon="1.27759">
        <ele>195.8</ele>
        <time>2023-04-19T16:00:29Z</time>
      </trkpt>
      <trkpt lat="43.54287" lon="1.27682">
        <ele>195.8</ele>
        <time>2023-04-19T16:00:37Z</time>
      </trkpt>
      <trkpt lat="43.54286" lon="1.27672">
        <ele>195.8</ele>
        <time>2023-04-19T16:00:38Z</time>
      </trkpt>
      <trkpt lat="43.54272" lon="1.27597">
        <ele>195.6</ele>
        <time>2023-04-19T16:00:46Z</time>
      </trkpt>
      <trkpt lat="43.54267" lon="1.2757">
        <ele>195.8</ele>
        <time>2023-04-19T16:00:49Z</time>
      </trkpt>
      <trkpt lat="43.54261" lon="1.27544">
        <ele>195.8</ele>
        <time>2023-04-19T16:00:52Z</time>
      </trkpt>
      <trkpt lat="43.54262" lon="1.27535">
        <ele>195.8</ele>
        <time>2023-04-19T16:00:53Z</time>
      </trkpt>
      <trkpt lat="43.54265" lon="1.27527">
        <ele>195.8</ele>
        <time>2023-04-19T16:00:54Z</time>
      </trkpt>
      <trkpt lat="43.54273" lon="1.27514">
        <ele>196.2</ele>
        <time>2023-04-19T16:00:56Z</time>
      </trkpt>
      <trkpt lat="43.54309" lon="1.27459">
        <ele>196.4</ele>
        <time>2023-04-19T16:01:04Z</time>
      </trkpt>
      <trkpt lat="43.54313" lon="1.27452">
        <ele>196.4</ele>
        <time>2023-04-19T16:01:05Z</time>
      </trkpt>
      <trkpt lat="43.54323" lon="1.27438">
        <ele>196.4</ele>
        <time>2023-04-19T16:01:07Z</time>
      </trkpt>
      <trkpt lat="43.54352" lon="1.27393">
        <ele>196.8</ele>
        <time>2023-04-19T16:01:13Z</time>
      </trkpt>
      <trkpt lat="43.54386" lon="1.2734">
        <ele>197</ele>
        <time>2023-04-19T16:01:20Z</time>
      </trkpt>
      <trkpt lat="43.54424" lon="1.27279">
        <ele>197</ele>
        <time>2023-04-19T16:01:28Z</time>
      </trkpt>
      <trkpt lat="43.54462" lon="1.27218">
        <ele>197</ele>
        <time>2023-04-19T16:01:36Z</time>
      </trkpt>
      <trkpt lat="43.54476" lon="1.27196">
        <ele>197</ele>
        <time>2023-04-19T16:01:39Z</time>
      </trkpt>
      <trkpt lat="43.54512" lon="1.27134">
        <ele>196.8</ele>
        <time>2023-04-19T16:01:47Z</time>
      </trkpt>
      <trkpt lat="43.54517" lon="1.27126">
        <ele>196.8</ele>
        <time>2023-04-19T16:01:48Z</time>
      </trkpt>
      <trkpt lat="43.5455" lon="1.27062">
        <ele>197</ele>
        <time>2023-04-19T16:01:56Z</time>
      </trkpt>
      <trkpt lat="43.54567" lon="1.27029">
        <ele>197</ele>
        <time>2023-04-19T16:02:00Z</time>
      </trkpt>
      <trkpt lat="43.54575" lon="1.27013">
        <ele>197</ele>
        <time>2023-04-19T16:02:02Z</time>
      </trkpt>
      <trkpt lat="43.54604" lon="1.2696">
        <ele>197.6</ele>
        <time>2023-04-19T16:02:09Z</time>
      </trkpt>
      <trkpt lat="43.54611" lon="1.26947">
        <ele>197.6</ele>
        <time>2023-04-19T16:02:11Z</time>
      </trkpt>
      <trkpt lat="43.54613" lon="1.26932">
        <ele>197.6</ele>
        <time>2023-04-19T16:02:13Z</time>
      </trkpt>
      <trkpt lat="43.54609" lon="1.26921">
        <ele>197.6</ele>
        <time>2023-04-19T16:02:15Z</time>
      </trkpt>
      <trkpt lat="43.54609" lon="1.26917">
        <ele>197.4</ele>
        <time>2023-04-19T16:02:16Z</time>
      </trkpt>
      <trkpt lat="43.5461" lon="1.26916">
        <ele>197.4</ele>
        <time>2023-04-19T16:02:17Z</time>
      </trkpt>
      <trkpt lat="43.54614" lon="1.26914">
        <ele>197.2</ele>
        <time>2023-04-19T16:02:19Z</time>
      </trkpt>
      <trkpt lat="43.54624" lon="1.26913">
        <ele>197.2</ele>
        <time>2023-04-19T16:02:22Z</time>
      </trkpt>
      <trkpt lat="43.54627" lon="1.26913">
        <ele>197.2</ele>
        <time>2023-04-19T16:02:23Z</time>
      </trkpt>
      <trkpt lat="43.5463" lon="1.26913">
        <ele>197.2</ele>
        <time>2023-04-19T16:02:24Z</time>
      </trkpt>
      <trkpt lat="43.54638" lon="1.26911">
        <ele>197.2</ele>
        <time>2023-04-19T16:02:26Z</time>
      </trkpt>
      <trkpt lat="43.54643" lon="1.26906">
        <ele>197.2</ele>
        <time>2023-04-19T16:02:28Z</time>
      </trkpt>
      <trkpt lat="43.54645" lon="1.26901">
        <ele>197.2</ele>
        <time>2023-04-19T16:02:29Z</time>
      </trkpt>
      <trkpt lat="43.54652" lon="1.26886">
        <ele>197.2</ele>
        <time>2023-04-19T16:02:32Z</time>
      </trkpt>
      <trkpt lat="43.5466" lon="1.26869">
        <ele>197.2</ele>
        <time>2023-04-19T16:02:36Z</time>
      </trkpt>
      <trkpt lat="43.54662" lon="1.26864">
        <ele>197.2</ele>
        <time>2023-04-19T16:02:37Z</time>
      </trkpt>
      <trkpt lat="43.54668" lon="1.26853">
        <ele>197.2</ele>
        <time>2023-04-19T16:02:39Z</time>
      </trkpt>
      <trkpt lat="43.54678" lon="1.26833">
        <ele>197.2</ele>
        <time>2023-04-19T16:02:42Z</time>
      </trkpt>
      <trkpt lat="43.54696" lon="1.26795">
        <ele>197.2</ele>
        <time>2023-04-19T16:02:48Z</time>
      </trkpt>
      <trkpt lat="43.54699" lon="1.2679">
        <ele>197.2</ele>
        <time>2023-04-19T16:02:49Z</time>
      </trkpt>
      <trkpt lat="43.54705" lon="1.2678">
        <ele>197.2</ele>
        <time>2023-04-19T16:02:51Z</time>
      </trkpt>
      <trkpt lat="43.54707" lon="1.26773">
        <ele>197.2</ele>
        <time>2023-04-19T16:02:52Z</time>
      </trkpt>
      <trkpt lat="43.54708" lon="1.26768">
        <ele>197.4</ele>
        <time>2023-04-19T16:02:53Z</time>
      </trkpt>
      <trkpt lat="43.54706" lon="1.26755">
        <ele>197.4</ele>
        <time>2023-04-19T16:02:55Z</time>
      </trkpt>
      <trkpt lat="43.54706" lon="1.26747">
        <ele>197.4</ele>
        <time>2023-04-19T16:02:56Z</time>
      </trkpt>
      <trkpt lat="43.547" lon="1.26705">
        <ele>197.4</ele>
        <time>2023-04-19T16:03:01Z</time>
      </trkpt>
      <trkpt lat="43.54691" lon="1.26648">
        <ele>197.4</ele>
        <time>2023-04-19T16:03:08Z</time>
      </trkpt>
      <trkpt lat="43.54681" lon="1.26569">
        <ele>197.4</ele>
        <time>2023-04-19T16:03:17Z</time>
      </trkpt>
      <trkpt lat="43.5468" lon="1.26523">
        <ele>197.4</ele>
        <time>2023-04-19T16:03:22Z</time>
      </trkpt>
      <trkpt lat="43.54681" lon="1.26514">
        <ele>197.4</ele>
        <time>2023-04-19T16:03:23Z</time>
      </trkpt>
      <trkpt lat="43.54682" lon="1.26497">
        <ele>197.4</ele>
        <time>2023-04-19T16:03:25Z</time>
      </trkpt>
      <trkpt lat="43.54681" lon="1.26488">
        <ele>197.4</ele>
        <time>2023-04-19T16:03:26Z</time>
      </trkpt>
      <trkpt lat="43.54677" lon="1.2648">
        <ele>197.4</ele>
        <time>2023-04-19T16:03:27Z</time>
      </trkpt>
      <trkpt lat="43.54667" lon="1.26469">
        <ele>197.4</ele>
        <time>2023-04-19T16:03:29Z</time>
      </trkpt>
      <trkpt lat="43.54639" lon="1.26443">
        <ele>197.4</ele>
        <time>2023-04-19T16:03:34Z</time>
      </trkpt>
      <trkpt lat="43.54621" lon="1.26414">
        <ele>197.4</ele>
        <time>2023-04-19T16:03:38Z</time>
      </trkpt>
      <trkpt lat="43.54616" lon="1.26408">
        <ele>197.6</ele>
        <time>2023-04-19T16:03:39Z</time>
      </trkpt>
      <trkpt lat="43.54591" lon="1.26377">
        <ele>198</ele>
        <time>2023-04-19T16:03:44Z</time>
      </trkpt>
      <trkpt lat="43.54588" lon="1.26369">
        <ele>198</ele>
        <time>2023-04-19T16:03:45Z</time>
      </trkpt>
      <trkpt lat="43.54587" lon="1.26361">
        <ele>198.2</ele>
        <time>2023-04-19T16:03:46Z</time>
      </trkpt>
      <trkpt lat="43.54588" lon="1.26352">
        <ele>198</ele>
        <time>2023-04-19T16:03:47Z</time>
      </trkpt>
      <trkpt lat="43.54596" lon="1.26318">
        <ele>198.2</ele>
        <time>2023-04-19T16:03:51Z</time>
      </trkpt>
      <trkpt lat="43.54597" lon="1.26309">
        <ele>198</ele>
        <time>2023-04-19T16:03:52Z</time>
      </trkpt>
      <trkpt lat="43.54607" lon="1.26255">
        <ele>198</ele>
        <time>2023-04-19T16:03:58Z</time>
      </trkpt>
      <trkpt lat="43.5462" lon="1.26175">
        <ele>198.2</ele>
        <time>2023-04-19T16:04:07Z</time>
      </trkpt>
      <trkpt lat="43.54621" lon="1.26166">
        <ele>198.2</ele>
        <time>2023-04-19T16:04:08Z</time>
      </trkpt>
      <trkpt lat="43.54619" lon="1.26099">
        <ele>197.8</ele>
        <time>2023-04-19T16:04:15Z</time>
      </trkpt>
      <trkpt lat="43.5462" lon="1.2607">
        <ele>197.8</ele>
        <time>2023-04-19T16:04:18Z</time>
      </trkpt>
      <trkpt lat="43.54619" lon="1.26051">
        <ele>197.8</ele>
        <time>2023-04-19T16:04:20Z</time>
      </trkpt>
      <trkpt lat="43.54621" lon="1.25994">
        <ele>197.8</ele>
        <time>2023-04-19T16:04:26Z</time>
      </trkpt>
      <trkpt lat="43.54621" lon="1.25984">
        <ele>197.8</ele>
        <time>2023-04-19T16:04:27Z</time>
      </trkpt>
      <trkpt lat="43.54618" lon="1.25956">
        <ele>198.2</ele>
        <time>2023-04-19T16:04:30Z</time>
      </trkpt>
      <trkpt lat="43.5461" lon="1.25918">
        <ele>198.2</ele>
        <time>2023-04-19T16:04:34Z</time>
      </trkpt>
      <trkpt lat="43.54608" lon="1.25889">
        <ele>198.2</ele>
        <time>2023-04-19T16:04:37Z</time>
      </trkpt>
      <trkpt lat="43.54611" lon="1.25841">
        <ele>198.2</ele>
        <time>2023-04-19T16:04:42Z</time>
      </trkpt>
      <trkpt lat="43.54621" lon="1.25779">
        <ele>198.4</ele>
        <time>2023-04-19T16:04:49Z</time>
      </trkpt>
      <trkpt lat="43.54622" lon="1.25772">
        <ele>198.4</ele>
        <time>2023-04-19T16:04:50Z</time>
      </trkpt>
      <trkpt lat="43.54629" lon="1.25748">
        <ele>198.8</ele>
        <time>2023-04-19T16:04:53Z</time>
      </trkpt>
      <trkpt lat="43.54657" lon="1.25697">
        <ele>198.4</ele>
        <time>2023-04-19T16:05:00Z</time>
      </trkpt>
      <trkpt lat="43.54696" lon="1.25632">
        <ele>198.4</ele>
        <time>2023-04-19T16:05:09Z</time>
      </trkpt>
      <trkpt lat="43.54701" lon="1.25624">
        <ele>198.4</ele>
        <time>2023-04-19T16:05:10Z</time>
      </trkpt>
      <trkpt lat="43.54739" lon="1.25569">
        <ele>198.4</ele>
        <time>2023-04-19T16:05:18Z</time>
      </trkpt>
      <trkpt lat="43.54749" lon="1.25556">
        <ele>198.4</ele>
        <time>2023-04-19T16:05:20Z</time>
      </trkpt>
      <trkpt lat="43.54793" lon="1.25497">
        <ele>198.4</ele>
        <time>2023-04-19T16:05:29Z</time>
      </trkpt>
      <trkpt lat="43.54802" lon="1.25486">
        <ele>198.4</ele>
        <time>2023-04-19T16:05:31Z</time>
      </trkpt>
      <trkpt lat="43.54812" lon="1.25467">
        <ele>198.8</ele>
        <time>2023-04-19T16:05:34Z</time>
      </trkpt>
      <trkpt lat="43.54818" lon="1.25459">
        <ele>198.8</ele>
        <time>2023-04-19T16:05:36Z</time>
      </trkpt>
      <trkpt lat="43.54822" lon="1.25455">
        <ele>199</ele>
        <time>2023-04-19T16:05:38Z</time>
      </trkpt>
      <trkpt lat="43.54823" lon="1.25452">
        <ele>199</ele>
        <time>2023-04-19T16:05:39Z</time>
      </trkpt>
      <trkpt lat="43.54818" lon="1.25434">
        <ele>199.4</ele>
        <time>2023-04-19T16:05:43Z</time>
      </trkpt>
      <trkpt lat="43.54805" lon="1.254">
        <ele>199.6</ele>
        <time>2023-04-19T16:05:49Z</time>
      </trkpt>
      <trkpt lat="43.548" lon="1.25388">
        <ele>199.6</ele>
        <time>2023-04-19T16:05:51Z</time>
      </trkpt>
      <trkpt lat="43.54796" lon="1.25376">
        <ele>199.8</ele>
        <time>2023-04-19T16:05:53Z</time>
      </trkpt>
      <trkpt lat="43.5479" lon="1.25361">
        <ele>200</ele>
        <time>2023-04-19T16:05:55Z</time>
      </trkpt>
      <trkpt lat="43.54783" lon="1.25345">
        <ele>200</ele>
        <time>2023-04-19T16:05:57Z</time>
      </trkpt>
      <trkpt lat="43.54754" lon="1.25278">
        <ele>200.2</ele>
        <time>2023-04-19T16:06:05Z</time>
      </trkpt>
      <trkpt lat="43.54722" lon="1.25209">
        <ele>200.4</ele>
        <time>2023-04-19T16:06:13Z</time>
      </trkpt>
      <trkpt lat="43.54713" lon="1.25192">
        <ele>200.4</ele>
        <time>2023-04-19T16:06:15Z</time>
      </trkpt>
      <trkpt lat="43.54686" lon="1.25125">
        <ele>200.4</ele>
        <time>2023-04-19T16:06:23Z</time>
      </trkpt>
      <trkpt lat="43.54684" lon="1.25115">
        <ele>200.4</ele>
        <time>2023-04-19T16:06:24Z</time>
      </trkpt>
      <trkpt lat="43.54686" lon="1.25088">
        <ele>200.4</ele>
        <time>2023-04-19T16:06:27Z</time>
      </trkpt>
      <trkpt lat="43.54696" lon="1.25081">
        <ele>200.4</ele>
        <time>2023-04-19T16:06:29Z</time>
      </trkpt>
      <trkpt lat="43.54708" lon="1.25088">
        <ele>200.4</ele>
        <time>2023-04-19T16:06:31Z</time>
      </trkpt>
      <trkpt lat="43.54732" lon="1.25105">
        <ele>200.4</ele>
        <time>2023-04-19T16:06:35Z</time>
      </trkpt>
      <trkpt lat="43.54745" lon="1.25106">
        <ele>200.4</ele>
        <time>2023-04-19T16:06:37Z</time>
      </trkpt>
      <trkpt lat="43.54755" lon="1.25097">
        <ele>200.4</ele>
        <time>2023-04-19T16:06:39Z</time>
      </trkpt>
      <trkpt lat="43.54759" lon="1.25091">
        <ele>200.4</ele>
        <time>2023-04-19T16:06:40Z</time>
      </trkpt>
      <trkpt lat="43.54777" lon="1.25057">
        <ele>200.2</ele>
        <time>2023-04-19T16:06:45Z</time>
      </trkpt>
      <trkpt lat="43.54791" lon="1.2503">
        <ele>200.6</ele>
        <time>2023-04-19T16:06:49Z</time>
      </trkpt>
      <trkpt lat="43.5481" lon="1.24995">
        <ele>201</ele>
        <time>2023-04-19T16:06:54Z</time>
      </trkpt>
      <trkpt lat="43.54838" lon="1.24937">
        <ele>201.6</ele>
        <time>2023-04-19T16:07:02Z</time>
      </trkpt>
      <trkpt lat="43.54854" lon="1.24903">
        <ele>202.2</ele>
        <time>2023-04-19T16:07:07Z</time>
      </trkpt>
      <trkpt lat="43.54867" lon="1.24878">
        <ele>202.4</ele>
        <time>2023-04-19T16:07:11Z</time>
      </trkpt>
      <trkpt lat="43.5488" lon="1.24848">
        <ele>203.2</ele>
        <time>2023-04-19T16:07:16Z</time>
      </trkpt>
      <trkpt lat="43.54886" lon="1.24838">
        <ele>203.2</ele>
        <time>2023-04-19T16:07:18Z</time>
      </trkpt>
      <trkpt lat="43.54896" lon="1.24819">
        <ele>204.2</ele>
        <time>2023-04-19T16:07:22Z</time>
      </trkpt>
      <trkpt lat="43.54902" lon="1.2481">
        <ele>204.6</ele>
        <time>2023-04-19T16:07:24Z</time>
      </trkpt>
      <trkpt lat="43.54905" lon="1.24807">
        <ele>204.8</ele>
        <time>2023-04-19T16:07:25Z</time>
      </trkpt>
      <trkpt lat="43.54913" lon="1.24805">
        <ele>205.4</ele>
        <time>2023-04-19T16:07:27Z</time>
      </trkpt>
      <trkpt lat="43.54917" lon="1.24805">
        <ele>205.6</ele>
        <time>2023-04-19T16:07:28Z</time>
      </trkpt>
      <trkpt lat="43.54928" lon="1.24805">
        <ele>206.4</ele>
        <time>2023-04-19T16:07:31Z</time>
      </trkpt>
      <trkpt lat="43.5494" lon="1.24807">
        <ele>207.4</ele>
        <time>2023-04-19T16:07:34Z</time>
      </trkpt>
      <trkpt lat="43.54944" lon="1.24808">
        <ele>207.6</ele>
        <time>2023-04-19T16:07:35Z</time>
      </trkpt>
      <trkpt lat="43.54959" lon="1.2481">
        <ele>208.4</ele>
        <time>2023-04-19T16:07:39Z</time>
      </trkpt>
      <trkpt lat="43.54962" lon="1.2481">
        <ele>208.8</ele>
        <time>2023-04-19T16:07:40Z</time>
      </trkpt>
      <trkpt lat="43.54975" lon="1.24809">
        <ele>209.8</ele>
        <time>2023-04-19T16:07:44Z</time>
      </trkpt>
      <trkpt lat="43.54979" lon="1.24808">
        <ele>210</ele>
        <time>2023-04-19T16:07:45Z</time>
      </trkpt>
      <trkpt lat="43.54995" lon="1.24806">
        <ele>210.6</ele>
        <time>2023-04-19T16:07:49Z</time>
      </trkpt>
      <trkpt lat="43.55006" lon="1.24802">
        <ele>211</ele>
        <time>2023-04-19T16:07:52Z</time>
      </trkpt>
      <trkpt lat="43.55038" lon="1.2479">
        <ele>212.2</ele>
        <time>2023-04-19T16:08:00Z</time>
      </trkpt>
      <trkpt lat="43.5505" lon="1.24784">
        <ele>212.6</ele>
        <time>2023-04-19T16:08:04Z</time>
      </trkpt>
      <trkpt lat="43.55054" lon="1.24779">
        <ele>212.8</ele>
        <time>2023-04-19T16:08:06Z</time>
      </trkpt>
      <trkpt lat="43.55055" lon="1.24776">
        <ele>213.2</ele>
        <time>2023-04-19T16:08:07Z</time>
      </trkpt>
      <trkpt lat="43.55065" lon="1.24759">
        <ele>214</ele>
        <time>2023-04-19T16:08:12Z</time>
      </trkpt>
      <trkpt lat="43.55068" lon="1.24751">
        <ele>214.2</ele>
        <time>2023-04-19T16:08:14Z</time>
      </trkpt>
      <trkpt lat="43.55079" lon="1.24735">
        <ele>215</ele>
        <time>2023-04-19T16:08:18Z</time>
      </trkpt>
      <trkpt lat="43.55084" lon="1.24727">
        <ele>215.4</ele>
        <time>2023-04-19T16:08:20Z</time>
      </trkpt>
      <trkpt lat="43.55094" lon="1.24711">
        <ele>216.4</ele>
        <time>2023-04-19T16:08:24Z</time>
      </trkpt>
      <trkpt lat="43.55103" lon="1.24697">
        <ele>217</ele>
        <time>2023-04-19T16:08:27Z</time>
      </trkpt>
      <trkpt lat="43.5511" lon="1.24684">
        <ele>217.6</ele>
        <time>2023-04-19T16:08:30Z</time>
      </trkpt>
      <trkpt lat="43.55117" lon="1.2467">
        <ele>218</ele>
        <time>2023-04-19T16:08:33Z</time>
      </trkpt>
      <trkpt lat="43.55123" lon="1.24656">
        <ele>218.4</ele>
        <time>2023-04-19T16:08:36Z</time>
      </trkpt>
      <trkpt lat="43.55128" lon="1.24642">
        <ele>218.8</ele>
        <time>2023-04-19T16:08:39Z</time>
      </trkpt>
      <trkpt lat="43.55131" lon="1.24637">
        <ele>219</ele>
        <time>2023-04-19T16:08:40Z</time>
      </trkpt>
      <trkpt lat="43.55133" lon="1.24631">
        <ele>219</ele>
        <time>2023-04-19T16:08:41Z</time>
      </trkpt>
      <trkpt lat="43.55136" lon="1.2462">
        <ele>219.4</ele>
        <time>2023-04-19T16:08:43Z</time>
      </trkpt>
      <trkpt lat="43.55139" lon="1.24614">
        <ele>219.8</ele>
        <time>2023-04-19T16:08:44Z</time>
      </trkpt>
      <trkpt lat="43.55142" lon="1.24597">
        <ele>220.6</ele>
        <time>2023-04-19T16:08:47Z</time>
      </trkpt>
      <trkpt lat="43.55143" lon="1.24592">
        <ele>220.8</ele>
        <time>2023-04-19T16:08:48Z</time>
      </trkpt>
      <trkpt lat="43.55142" lon="1.24556">
        <ele>221.6</ele>
        <time>2023-04-19T16:08:55Z</time>
      </trkpt>
      <trkpt lat="43.55135" lon="1.24537">
        <ele>222.6</ele>
        <time>2023-04-19T16:08:59Z</time>
      </trkpt>
      <trkpt lat="43.55131" lon="1.24528">
        <ele>222.8</ele>
        <time>2023-04-19T16:09:01Z</time>
      </trkpt>
      <trkpt lat="43.55127" lon="1.24517">
        <ele>223</ele>
        <time>2023-04-19T16:09:03Z</time>
      </trkpt>
      <trkpt lat="43.55125" lon="1.24505">
        <ele>223.4</ele>
        <time>2023-04-19T16:09:05Z</time>
      </trkpt>
      <trkpt lat="43.55127" lon="1.24494">
        <ele>223.6</ele>
        <time>2023-04-19T16:09:07Z</time>
      </trkpt>
      <trkpt lat="43.55133" lon="1.24487">
        <ele>223.8</ele>
        <time>2023-04-19T16:09:09Z</time>
      </trkpt>
      <trkpt lat="43.55139" lon="1.24484">
        <ele>224.2</ele>
        <time>2023-04-19T16:09:12Z</time>
      </trkpt>
      <trkpt lat="43.55154" lon="1.24477">
        <ele>224.4</ele>
        <time>2023-04-19T16:09:17Z</time>
      </trkpt>
      <trkpt lat="43.55156" lon="1.24473">
        <ele>224.4</ele>
        <time>2023-04-19T16:09:18Z</time>
      </trkpt>
      <trkpt lat="43.5516" lon="1.24461">
        <ele>224.6</ele>
        <time>2023-04-19T16:09:20Z</time>
      </trkpt>
      <trkpt lat="43.55161" lon="1.24456">
        <ele>224.6</ele>
        <time>2023-04-19T16:09:21Z</time>
      </trkpt>
      <trkpt lat="43.55163" lon="1.24435">
        <ele>224.6</ele>
        <time>2023-04-19T16:09:24Z</time>
      </trkpt>
      <trkpt lat="43.55168" lon="1.24421">
        <ele>224.8</ele>
        <time>2023-04-19T16:09:26Z</time>
      </trkpt>
      <trkpt lat="43.55183" lon="1.24384">
        <ele>225</ele>
        <time>2023-04-19T16:09:31Z</time>
      </trkpt>
      <trkpt lat="43.55197" lon="1.24324">
        <ele>225.2</ele>
        <time>2023-04-19T16:09:38Z</time>
      </trkpt>
      <trkpt lat="43.55216" lon="1.24252">
        <ele>225.6</ele>
        <time>2023-04-19T16:09:46Z</time>
      </trkpt>
      <trkpt lat="43.55236" lon="1.24177">
        <ele>225.2</ele>
        <time>2023-04-19T16:09:54Z</time>
      </trkpt>
      <trkpt lat="43.55244" lon="1.24148">
        <ele>225.2</ele>
        <time>2023-04-19T16:09:57Z</time>
      </trkpt>
      <trkpt lat="43.5526" lon="1.2407">
        <ele>225.4</ele>
        <time>2023-04-19T16:10:05Z</time>
      </trkpt>
      <trkpt lat="43.55261" lon="1.2406">
        <ele>225.4</ele>
        <time>2023-04-19T16:10:06Z</time>
      </trkpt>
      <trkpt lat="43.55268" lon="1.23976">
        <ele>225.6</ele>
        <time>2023-04-19T16:10:14Z</time>
      </trkpt>
      <trkpt lat="43.55269" lon="1.23965">
        <ele>225.6</ele>
        <time>2023-04-19T16:10:15Z</time>
      </trkpt>
      <trkpt lat="43.55275" lon="1.23889">
        <ele>225.4</ele>
        <time>2023-04-19T16:10:22Z</time>
      </trkpt>
      <trkpt lat="43.55277" lon="1.23866">
        <ele>225</ele>
        <time>2023-04-19T16:10:24Z</time>
      </trkpt>
      <trkpt lat="43.55282" lon="1.23806">
        <ele>224</ele>
        <time>2023-04-19T16:10:29Z</time>
      </trkpt>
      <trkpt lat="43.55286" lon="1.2377">
        <ele>223</ele>
        <time>2023-04-19T16:10:32Z</time>
      </trkpt>
      <trkpt lat="43.55287" lon="1.23759">
        <ele>222.4</ele>
        <time>2023-04-19T16:10:33Z</time>
      </trkpt>
      <trkpt lat="43.55292" lon="1.23713">
        <ele>221</ele>
        <time>2023-04-19T16:10:37Z</time>
      </trkpt>
      <trkpt lat="43.55294" lon="1.23681">
        <ele>220.8</ele>
        <time>2023-04-19T16:10:40Z</time>
      </trkpt>
      <trkpt lat="43.55295" lon="1.23622">
        <ele>220.8</ele>
        <time>2023-04-19T16:10:46Z</time>
      </trkpt>
      <trkpt lat="43.55296" lon="1.23606">
        <ele>220.8</ele>
        <time>2023-04-19T16:10:48Z</time>
      </trkpt>
      <trkpt lat="43.55298" lon="1.23602">
        <ele>221</ele>
        <time>2023-04-19T16:10:49Z</time>
      </trkpt>
      <trkpt lat="43.55302" lon="1.23601">
        <ele>221.2</ele>
        <time>2023-04-19T16:10:50Z</time>
      </trkpt>
      <trkpt lat="43.55306" lon="1.23603">
        <ele>221.4</ele>
        <time>2023-04-19T16:10:51Z</time>
      </trkpt>
      <trkpt lat="43.55311" lon="1.23606">
        <ele>221.4</ele>
        <time>2023-04-19T16:10:52Z</time>
      </trkpt>
      <trkpt lat="43.5532" lon="1.23613">
        <ele>222</ele>
        <time>2023-04-19T16:10:54Z</time>
      </trkpt>
      <trkpt lat="43.55323" lon="1.23617">
        <ele>222.2</ele>
        <time>2023-04-19T16:10:55Z</time>
      </trkpt>
      <trkpt lat="43.55331" lon="1.23627">
        <ele>222.4</ele>
        <time>2023-04-19T16:10:57Z</time>
      </trkpt>
      <trkpt lat="43.55344" lon="1.23651">
        <ele>222.8</ele>
        <time>2023-04-19T16:11:01Z</time>
      </trkpt>
      <trkpt lat="43.55353" lon="1.23662">
        <ele>223</ele>
        <time>2023-04-19T16:11:03Z</time>
      </trkpt>
      <trkpt lat="43.55362" lon="1.23673">
        <ele>223</ele>
        <time>2023-04-19T16:11:05Z</time>
      </trkpt>
      <trkpt lat="43.55366" lon="1.23679">
        <ele>223.2</ele>
        <time>2023-04-19T16:11:06Z</time>
      </trkpt>
      <trkpt lat="43.55392" lon="1.23708">
        <ele>223.8</ele>
        <time>2023-04-19T16:11:12Z</time>
      </trkpt>
      <trkpt lat="43.55397" lon="1.23709">
        <ele>224</ele>
        <time>2023-04-19T16:11:13Z</time>
      </trkpt>
      <trkpt lat="43.55402" lon="1.23709">
        <ele>224.2</ele>
        <time>2023-04-19T16:11:14Z</time>
      </trkpt>
      <trkpt lat="43.55411" lon="1.23705">
        <ele>224.4</ele>
        <time>2023-04-19T16:11:16Z</time>
      </trkpt>
      <trkpt lat="43.55416" lon="1.23702">
        <ele>224.4</ele>
        <time>2023-04-19T16:11:17Z</time>
      </trkpt>
      <trkpt lat="43.55424" lon="1.23695">
        <ele>224.6</ele>
        <time>2023-04-19T16:11:19Z</time>
      </trkpt>
      <trkpt lat="43.5543" lon="1.23688">
        <ele>224.6</ele>
        <time>2023-04-19T16:11:21Z</time>
      </trkpt>
      <trkpt lat="43.55433" lon="1.23683">
        <ele>224.6</ele>
        <time>2023-04-19T16:11:22Z</time>
      </trkpt>
      <trkpt lat="43.55451" lon="1.23669">
        <ele>224.8</ele>
        <time>2023-04-19T16:11:26Z</time>
      </trkpt>
      <trkpt lat="43.55469" lon="1.23651">
        <ele>224.8</ele>
        <time>2023-04-19T16:11:30Z</time>
      </trkpt>
      <trkpt lat="43.55471" lon="1.23645">
        <ele>225</ele>
        <time>2023-04-19T16:11:31Z</time>
      </trkpt>
      <trkpt lat="43.55471" lon="1.23639">
        <ele>225</ele>
        <time>2023-04-19T16:11:32Z</time>
      </trkpt>
      <trkpt lat="43.5547" lon="1.23634">
        <ele>225</ele>
        <time>2023-04-19T16:11:33Z</time>
      </trkpt>
      <trkpt lat="43.55467" lon="1.23629">
        <ele>225</ele>
        <time>2023-04-19T16:11:34Z</time>
      </trkpt>
      <trkpt lat="43.55457" lon="1.23604">
        <ele>225</ele>
        <time>2023-04-19T16:11:39Z</time>
      </trkpt>
      <trkpt lat="43.55451" lon="1.23587">
        <ele>225</ele>
        <time>2023-04-19T16:11:44Z</time>
      </trkpt>
      <trkpt lat="43.55449" lon="1.23579">
        <ele>225</ele>
        <time>2023-04-19T16:11:47Z</time>
      </trkpt>
      <trkpt lat="43.55444" lon="1.23568">
        <ele>224.8</ele>
        <time>2023-04-19T16:11:50Z</time>
      </trkpt>
      <trkpt lat="43.55443" lon="1.23558">
        <ele>224.8</ele>
        <time>2023-04-19T16:11:52Z</time>
      </trkpt>
      <trkpt lat="43.55447" lon="1.23548">
        <ele>224.8</ele>
        <time>2023-04-19T16:11:54Z</time>
      </trkpt>
      <trkpt lat="43.55453" lon="1.23538">
        <ele>224.6</ele>
        <time>2023-04-19T16:11:56Z</time>
      </trkpt>
      <trkpt lat="43.55465" lon="1.23521">
        <ele>224.6</ele>
        <time>2023-04-19T16:11:59Z</time>
      </trkpt>
      <trkpt lat="43.55499" lon="1.23478">
        <ele>224.8</ele>
        <time>2023-04-19T16:12:06Z</time>
      </trkpt>
      <trkpt lat="43.55513" lon="1.23462">
        <ele>225</ele>
        <time>2023-04-19T16:12:09Z</time>
      </trkpt>
      <trkpt lat="43.55526" lon="1.23445">
        <ele>225.2</ele>
        <time>2023-04-19T16:12:12Z</time>
      </trkpt>
      <trkpt lat="43.55528" lon="1.23436">
        <ele>225.2</ele>
        <time>2023-04-19T16:12:14Z</time>
      </trkpt>
      <trkpt lat="43.55526" lon="1.23433">
        <ele>225.2</ele>
        <time>2023-04-19T16:12:15Z</time>
      </trkpt>
      <trkpt lat="43.55522" lon="1.23429">
        <ele>225.2</ele>
        <time>2023-04-19T16:12:17Z</time>
      </trkpt>
      <trkpt lat="43.5551" lon="1.23419">
        <ele>225.4</ele>
        <time>2023-04-19T16:12:21Z</time>
      </trkpt>
      <trkpt lat="43.55506" lon="1.23416">
        <ele>225.4</ele>
        <time>2023-04-19T16:12:22Z</time>
      </trkpt>
      <trkpt lat="43.55502" lon="1.23412">
        <ele>225.2</ele>
        <time>2023-04-19T16:12:23Z</time>
      </trkpt>
      <trkpt lat="43.55491" lon="1.23402">
        <ele>225.2</ele>
        <time>2023-04-19T16:12:26Z</time>
      </trkpt>
      <trkpt lat="43.55485" lon="1.23392">
        <ele>225</ele>
        <time>2023-04-19T16:12:28Z</time>
      </trkpt>
      <trkpt lat="43.5548" lon="1.23378">
        <ele>224.8</ele>
        <time>2023-04-19T16:12:30Z</time>
      </trkpt>
      <trkpt lat="43.55473" lon="1.23353">
        <ele>224.8</ele>
        <time>2023-04-19T16:12:33Z</time>
      </trkpt>
      <trkpt lat="43.55467" lon="1.23337">
        <ele>224.6</ele>
        <time>2023-04-19T16:12:35Z</time>
      </trkpt>
      <trkpt lat="43.55475" lon="1.23318">
        <ele>224.6</ele>
        <time>2023-04-19T16:12:38Z</time>
      </trkpt>
      <trkpt lat="43.55483" lon="1.23306">
        <ele>224.4</ele>
        <time>2023-04-19T16:12:40Z</time>
      </trkpt>
      <trkpt lat="43.55494" lon="1.23287">
        <ele>224.2</ele>
        <time>2023-04-19T16:12:43Z</time>
      </trkpt>
      <trkpt lat="43.55505" lon="1.23266">
        <ele>224.4</ele>
        <time>2023-04-19T16:12:46Z</time>
      </trkpt>
      <trkpt lat="43.55512" lon="1.23251">
        <ele>224.4</ele>
        <time>2023-04-19T16:12:48Z</time>
      </trkpt>
      <trkpt lat="43.55515" lon="1.23233">
        <ele>224.2</ele>
        <time>2023-04-19T16:12:50Z</time>
      </trkpt>
      <trkpt lat="43.55519" lon="1.23207">
        <ele>224.4</ele>
        <time>2023-04-19T16:12:53Z</time>
      </trkpt>
      <trkpt lat="43.55522" lon="1.23187">
        <ele>224.4</ele>
        <time>2023-04-19T16:12:55Z</time>
      </trkpt>
      <trkpt lat="43.55528" lon="1.23153">
        <ele>224.2</ele>
        <time>2023-04-19T16:12:59Z</time>
      </trkpt>
      <trkpt lat="43.55534" lon="1.23119">
        <ele>224</ele>
        <time>2023-04-19T16:13:03Z</time>
      </trkpt>
      <trkpt lat="43.55539" lon="1.23111">
        <ele>224</ele>
        <time>2023-04-19T16:13:05Z</time>
      </trkpt>
      <trkpt lat="43.55546" lon="1.23105">
        <ele>224</ele>
        <time>2023-04-19T16:13:08Z</time>
      </trkpt>
      <trkpt lat="43.55551" lon="1.231">
        <ele>224</ele>
        <time>2023-04-19T16:13:10Z</time>
      </trkpt>
      <trkpt lat="43.55561" lon="1.23093">
        <ele>224</ele>
        <time>2023-04-19T16:13:13Z</time>
      </trkpt>
      <trkpt lat="43.55568" lon="1.2308">
        <ele>224.2</ele>
        <time>2023-04-19T16:13:16Z</time>
      </trkpt>
      <trkpt lat="43.55571" lon="1.23075">
        <ele>224</ele>
        <time>2023-04-19T16:13:17Z</time>
      </trkpt>
      <trkpt lat="43.55575" lon="1.23071">
        <ele>224</ele>
        <time>2023-04-19T16:13:18Z</time>
      </trkpt>
      <trkpt lat="43.55582" lon="1.2306">
        <ele>224</ele>
        <time>2023-04-19T16:13:20Z</time>
      </trkpt>
      <trkpt lat="43.55585" lon="1.23054">
        <ele>224</ele>
        <time>2023-04-19T16:13:21Z</time>
      </trkpt>
      <trkpt lat="43.55594" lon="1.23039">
        <ele>224.2</ele>
        <time>2023-04-19T16:13:24Z</time>
      </trkpt>
      <trkpt lat="43.55601" lon="1.2303">
        <ele>224.4</ele>
        <time>2023-04-19T16:13:26Z</time>
      </trkpt>
      <trkpt lat="43.55613" lon="1.23012">
        <ele>224.8</ele>
        <time>2023-04-19T16:13:29Z</time>
      </trkpt>
      <trkpt lat="43.55622" lon="1.23002">
        <ele>225</ele>
        <time>2023-04-19T16:13:31Z</time>
      </trkpt>
      <trkpt lat="43.55632" lon="1.22992">
        <ele>225.2</ele>
        <time>2023-04-19T16:13:33Z</time>
      </trkpt>
      <trkpt lat="43.55642" lon="1.22982">
        <ele>225.4</ele>
        <time>2023-04-19T16:13:35Z</time>
      </trkpt>
      <trkpt lat="43.55644" lon="1.22976">
        <ele>225.4</ele>
        <time>2023-04-19T16:13:36Z</time>
      </trkpt>
      <trkpt lat="43.55649" lon="1.22963">
        <ele>225.4</ele>
        <time>2023-04-19T16:13:38Z</time>
      </trkpt>
      <trkpt lat="43.55653" lon="1.22949">
        <ele>225.4</ele>
        <time>2023-04-19T16:13:40Z</time>
      </trkpt>
      <trkpt lat="43.55657" lon="1.22941">
        <ele>225.4</ele>
        <time>2023-04-19T16:13:41Z</time>
      </trkpt>
      <trkpt lat="43.55659" lon="1.22932">
        <ele>225.4</ele>
        <time>2023-04-19T16:13:42Z</time>
      </trkpt>
      <trkpt lat="43.55664" lon="1.22903">
        <ele>225.2</ele>
        <time>2023-04-19T16:13:45Z</time>
      </trkpt>
      <trkpt lat="43.55663" lon="1.22888">
        <ele>224.6</ele>
        <time>2023-04-19T16:13:47Z</time>
      </trkpt>
      <trkpt lat="43.55667" lon="1.22884">
        <ele>224.6</ele>
        <time>2023-04-19T16:13:48Z</time>
      </trkpt>
      <trkpt lat="43.55671" lon="1.22885">
        <ele>224.2</ele>
        <time>2023-04-19T16:13:49Z</time>
      </trkpt>
      <trkpt lat="43.55685" lon="1.22886">
        <ele>223</ele>
        <time>2023-04-19T16:13:52Z</time>
      </trkpt>
      <trkpt lat="43.55713" lon="1.22891">
        <ele>222.4</ele>
        <time>2023-04-19T16:13:57Z</time>
      </trkpt>
      <trkpt lat="43.55719" lon="1.22891">
        <ele>222.4</ele>
        <time>2023-04-19T16:13:58Z</time>
      </trkpt>
      <trkpt lat="43.55726" lon="1.22883">
        <ele>222.2</ele>
        <time>2023-04-19T16:14:00Z</time>
      </trkpt>
      <trkpt lat="43.55728" lon="1.22878">
        <ele>222</ele>
        <time>2023-04-19T16:14:01Z</time>
      </trkpt>
      <trkpt lat="43.55729" lon="1.22865">
        <ele>221.8</ele>
        <time>2023-04-19T16:14:03Z</time>
      </trkpt>
      <trkpt lat="43.55731" lon="1.22821">
        <ele>222</ele>
        <time>2023-04-19T16:14:10Z</time>
      </trkpt>
      <trkpt lat="43.55732" lon="1.22775">
        <ele>222.6</ele>
        <time>2023-04-19T16:14:17Z</time>
      </trkpt>
      <trkpt lat="43.55732" lon="1.22755">
        <ele>223</ele>
        <time>2023-04-19T16:14:20Z</time>
      </trkpt>
      <trkpt lat="43.55733" lon="1.22742">
        <ele>223.4</ele>
        <time>2023-04-19T16:14:22Z</time>
      </trkpt>
      <trkpt lat="43.55733" lon="1.22728">
        <ele>223.6</ele>
        <time>2023-04-19T16:14:24Z</time>
      </trkpt>
      <trkpt lat="43.55734" lon="1.22708">
        <ele>224.2</ele>
        <time>2023-04-19T16:14:27Z</time>
      </trkpt>
      <trkpt lat="43.55735" lon="1.2268">
        <ele>224.6</ele>
        <time>2023-04-19T16:14:31Z</time>
      </trkpt>
      <trkpt lat="43.55735" lon="1.22673">
        <ele>224.8</ele>
        <time>2023-04-19T16:14:32Z</time>
      </trkpt>
      <trkpt lat="43.55738" lon="1.22663">
        <ele>225</ele>
        <time>2023-04-19T16:14:34Z</time>
      </trkpt>
      <trkpt lat="43.55741" lon="1.2266">
        <ele>225</ele>
        <time>2023-04-19T16:14:35Z</time>
      </trkpt>
      <trkpt lat="43.55746" lon="1.22658">
        <ele>225</ele>
        <time>2023-04-19T16:14:36Z</time>
      </trkpt>
      <trkpt lat="43.55761" lon="1.22658">
        <ele>225</ele>
        <time>2023-04-19T16:14:39Z</time>
      </trkpt>
      <trkpt lat="43.55771" lon="1.22658">
        <ele>224.8</ele>
        <time>2023-04-19T16:14:41Z</time>
      </trkpt>
      <trkpt lat="43.55781" lon="1.22653">
        <ele>224.8</ele>
        <time>2023-04-19T16:14:43Z</time>
      </trkpt>
      <trkpt lat="43.55785" lon="1.2264">
        <ele>224.8</ele>
        <time>2023-04-19T16:14:45Z</time>
      </trkpt>
      <trkpt lat="43.55782" lon="1.22625">
        <ele>224.6</ele>
        <time>2023-04-19T16:14:47Z</time>
      </trkpt>
      <trkpt lat="43.55777" lon="1.22609">
        <ele>224.6</ele>
        <time>2023-04-19T16:14:49Z</time>
      </trkpt>
      <trkpt lat="43.55775" lon="1.22592">
        <ele>224.6</ele>
        <time>2023-04-19T16:14:51Z</time>
      </trkpt>
      <trkpt lat="43.55774" lon="1.22575">
        <ele>224.6</ele>
        <time>2023-04-19T16:14:53Z</time>
      </trkpt>
      <trkpt lat="43.55774" lon="1.22558">
        <ele>224.6</ele>
        <time>2023-04-19T16:14:55Z</time>
      </trkpt>
      <trkpt lat="43.55779" lon="1.22545">
        <ele>224.8</ele>
        <time>2023-04-19T16:14:57Z</time>
      </trkpt>
      <trkpt lat="43.55782" lon="1.22538">
        <ele>225</ele>
        <time>2023-04-19T16:14:58Z</time>
      </trkpt>
      <trkpt lat="43.55786" lon="1.22532">
        <ele>225.2</ele>
        <time>2023-04-19T16:14:59Z</time>
      </trkpt>
      <trkpt lat="43.55793" lon="1.2252">
        <ele>225.6</ele>
        <time>2023-04-19T16:15:01Z</time>
      </trkpt>
      <trkpt lat="43.55815" lon="1.22479">
        <ele>226.2</ele>
        <time>2023-04-19T16:15:07Z</time>
      </trkpt>
      <trkpt lat="43.55831" lon="1.22454">
        <ele>226.4</ele>
        <time>2023-04-19T16:15:11Z</time>
      </trkpt>
      <trkpt lat="43.55855" lon="1.22417">
        <ele>226.8</ele>
        <time>2023-04-19T16:15:17Z</time>
      </trkpt>
      <trkpt lat="43.55857" lon="1.22409">
        <ele>226.8</ele>
        <time>2023-04-19T16:15:18Z</time>
      </trkpt>
      <trkpt lat="43.55856" lon="1.22401">
        <ele>226.8</ele>
        <time>2023-04-19T16:15:19Z</time>
      </trkpt>
      <trkpt lat="43.55851" lon="1.22389">
        <ele>226.8</ele>
        <time>2023-04-19T16:15:21Z</time>
      </trkpt>
      <trkpt lat="43.55822" lon="1.22347">
        <ele>227.2</ele>
        <time>2023-04-19T16:15:28Z</time>
      </trkpt>
      <trkpt lat="43.5581" lon="1.22329">
        <ele>227.4</ele>
        <time>2023-04-19T16:15:31Z</time>
      </trkpt>
      <trkpt lat="43.55786" lon="1.22294">
        <ele>228</ele>
        <time>2023-04-19T16:15:37Z</time>
      </trkpt>
      <trkpt lat="43.55775" lon="1.22276">
        <ele>228.6</ele>
        <time>2023-04-19T16:15:40Z</time>
      </trkpt>
      <trkpt lat="43.55752" lon="1.22239">
        <ele>229.6</ele>
        <time>2023-04-19T16:15:46Z</time>
      </trkpt>
      <trkpt lat="43.55748" lon="1.22233">
        <ele>229.6</ele>
        <time>2023-04-19T16:15:47Z</time>
      </trkpt>
      <trkpt lat="43.55716" lon="1.22185">
        <ele>230.2</ele>
        <time>2023-04-19T16:15:55Z</time>
      </trkpt>
      <trkpt lat="43.55703" lon="1.22166">
        <ele>230.2</ele>
        <time>2023-04-19T16:15:58Z</time>
      </trkpt>
      <trkpt lat="43.55687" lon="1.22141">
        <ele>230.4</ele>
        <time>2023-04-19T16:16:02Z</time>
      </trkpt>
      <trkpt lat="43.55667" lon="1.22109">
        <ele>230.8</ele>
        <time>2023-04-19T16:16:07Z</time>
      </trkpt>
      <trkpt lat="43.55636" lon="1.22068">
        <ele>231</ele>
        <time>2023-04-19T16:16:14Z</time>
      </trkpt>
      <trkpt lat="43.55625" lon="1.2205">
        <ele>231</ele>
        <time>2023-04-19T16:16:18Z</time>
      </trkpt>
      <trkpt lat="43.55628" lon="1.22046">
        <ele>231</ele>
        <time>2023-04-19T16:16:20Z</time>
      </trkpt>
      <trkpt lat="43.55635" lon="1.22044">
        <ele>231</ele>
        <time>2023-04-19T16:16:25Z</time>
      </trkpt>
      <trkpt lat="43.55643" lon="1.22039">
        <ele>230.8</ele>
        <time>2023-04-19T16:16:31Z</time>
      </trkpt>
      <trkpt lat="43.55659" lon="1.22029">
        <ele>230.6</ele>
        <time>2023-04-19T16:16:38Z</time>
      </trkpt>
      <trkpt lat="43.55679" lon="1.22012">
        <ele>230.6</ele>
        <time>2023-04-19T16:16:43Z</time>
      </trkpt>
      <trkpt lat="43.55718" lon="1.21985">
        <ele>230.4</ele>
        <time>2023-04-19T16:16:51Z</time>
      </trkpt>
      <trkpt lat="43.55766" lon="1.2195">
        <ele>230.6</ele>
        <time>2023-04-19T16:17:00Z</time>
      </trkpt>
      <trkpt lat="43.55793" lon="1.21935">
        <ele>230.8</ele>
        <time>2023-04-19T16:17:06Z</time>
      </trkpt>
      <trkpt lat="43.55807" lon="1.2194">
        <ele>231</ele>
        <time>2023-04-19T16:17:12Z</time>
      </trkpt>
      <trkpt lat="43.55812" lon="1.21942">
        <ele>231</ele>
        <time>2023-04-19T16:17:16Z</time>
      </trkpt>
      <trkpt lat="43.55811" lon="1.21941">
        <ele>231</ele>
        <time>2023-04-19T16:17:20Z</time>
      </trkpt>
      <trkpt lat="43.55809" lon="1.21941">
        <ele>231</ele>
        <time>2023-04-19T16:17:21Z</time>
      </trkpt>
      <trkpt lat="43.55799" lon="1.21938">
        <ele>231</ele>
        <time>2023-04-19T16:17:26Z</time>
      </trkpt>
      <trkpt lat="43.55789" lon="1.21937">
        <ele>230.8</ele>
        <time>2023-04-19T16:17:29Z</time>
      </trkpt>
      <trkpt lat="43.55781" lon="1.21941">
        <ele>230.8</ele>
        <time>2023-04-19T16:17:31Z</time>
      </trkpt>
      <trkpt lat="43.55753" lon="1.21962">
        <ele>230.6</ele>
        <time>2023-04-19T16:17:37Z</time>
      </trkpt>
      <trkpt lat="43.55715" lon="1.21989">
        <ele>231</ele>
        <time>2023-04-19T16:17:44Z</time>
      </trkpt>
      <trkpt lat="43.55671" lon="1.22021">
        <ele>231.2</ele>
        <time>2023-04-19T16:17:52Z</time>
      </trkpt>
      <trkpt lat="43.55637" lon="1.22045">
        <ele>231.2</ele>
        <time>2023-04-19T16:17:58Z</time>
      </trkpt>
      <trkpt lat="43.55626" lon="1.2205">
        <ele>231.6</ele>
        <time>2023-04-19T16:18:00Z</time>
      </trkpt>
      <trkpt lat="43.55616" lon="1.22045">
        <ele>231.6</ele>
        <time>2023-04-19T16:18:02Z</time>
      </trkpt>
      <trkpt lat="43.55612" lon="1.2204">
        <ele>231.8</ele>
        <time>2023-04-19T16:18:03Z</time>
      </trkpt>
      <trkpt lat="43.556" lon="1.22023">
        <ele>231.8</ele>
        <time>2023-04-19T16:18:06Z</time>
      </trkpt>
      <trkpt lat="43.55583" lon="1.21999">
        <ele>232</ele>
        <time>2023-04-19T16:18:10Z</time>
      </trkpt>
      <trkpt lat="43.55571" lon="1.21978">
        <ele>232</ele>
        <time>2023-04-19T16:18:14Z</time>
      </trkpt>
      <trkpt lat="43.55572" lon="1.21973">
        <ele>232</ele>
        <time>2023-04-19T16:18:15Z</time>
      </trkpt>
      <trkpt lat="43.55588" lon="1.21945">
        <ele>232</ele>
        <time>2023-04-19T16:18:20Z</time>
      </trkpt>
      <trkpt lat="43.55607" lon="1.21912">
        <ele>231.8</ele>
        <time>2023-04-19T16:18:25Z</time>
      </trkpt>
      <trkpt lat="43.55643" lon="1.21856">
        <ele>231.6</ele>
        <time>2023-04-19T16:18:33Z</time>
      </trkpt>
      <trkpt lat="43.55659" lon="1.21829">
        <ele>231.6</ele>
        <time>2023-04-19T16:18:37Z</time>
      </trkpt>
      <trkpt lat="43.55666" lon="1.21817">
        <ele>231.4</ele>
        <time>2023-04-19T16:18:39Z</time>
      </trkpt>
      <trkpt lat="43.55672" lon="1.21803">
        <ele>231.4</ele>
        <time>2023-04-19T16:18:41Z</time>
      </trkpt>
      <trkpt lat="43.55677" lon="1.21779">
        <ele>231.2</ele>
        <time>2023-04-19T16:18:44Z</time>
      </trkpt>
      <trkpt lat="43.55689" lon="1.21743">
        <ele>231.4</ele>
        <time>2023-04-19T16:18:49Z</time>
      </trkpt>
      <trkpt lat="43.55691" lon="1.21737">
        <ele>231.4</ele>
        <time>2023-04-19T16:18:50Z</time>
      </trkpt>
      <trkpt lat="43.55693" lon="1.2173">
        <ele>231.6</ele>
        <time>2023-04-19T16:18:51Z</time>
      </trkpt>
      <trkpt lat="43.55698" lon="1.21724">
        <ele>231.6</ele>
        <time>2023-04-19T16:18:53Z</time>
      </trkpt>
      <trkpt lat="43.55711" lon="1.21729">
        <ele>231.6</ele>
        <time>2023-04-19T16:18:56Z</time>
      </trkpt>
      <trkpt lat="43.55717" lon="1.21729">
        <ele>231.6</ele>
        <time>2023-04-19T16:18:57Z</time>
      </trkpt>
      <trkpt lat="43.55721" lon="1.21727">
        <ele>231.8</ele>
        <time>2023-04-19T16:18:58Z</time>
      </trkpt>
      <trkpt lat="43.55731" lon="1.21721">
        <ele>231.8</ele>
        <time>2023-04-19T16:19:00Z</time>
      </trkpt>
      <trkpt lat="43.55746" lon="1.21711">
        <ele>231.4</ele>
        <time>2023-04-19T16:19:03Z</time>
      </trkpt>
      <trkpt lat="43.55757" lon="1.21703">
        <ele>231.8</ele>
        <time>2023-04-19T16:19:05Z</time>
      </trkpt>
      <trkpt lat="43.55768" lon="1.21694">
        <ele>231.8</ele>
        <time>2023-04-19T16:19:07Z</time>
      </trkpt>
      <trkpt lat="43.5578" lon="1.21684">
        <ele>231.4</ele>
        <time>2023-04-19T16:19:09Z</time>
      </trkpt>
      <trkpt lat="43.55789" lon="1.21675">
        <ele>231.2</ele>
        <time>2023-04-19T16:19:11Z</time>
      </trkpt>
      <trkpt lat="43.55803" lon="1.21662">
        <ele>231.2</ele>
        <time>2023-04-19T16:19:14Z</time>
      </trkpt>
      <trkpt lat="43.55806" lon="1.21659">
        <ele>231</ele>
        <time>2023-04-19T16:19:15Z</time>
      </trkpt>
      <trkpt lat="43.55809" lon="1.21655">
        <ele>230.4</ele>
        <time>2023-04-19T16:19:16Z</time>
      </trkpt>
      <trkpt lat="43.5581" lon="1.21649">
        <ele>230</ele>
        <time>2023-04-19T16:19:17Z</time>
      </trkpt>
      <trkpt lat="43.55811" lon="1.21642">
        <ele>229.8</ele>
        <time>2023-04-19T16:19:18Z</time>
      </trkpt>
      <trkpt lat="43.55811" lon="1.21635">
        <ele>229.6</ele>
        <time>2023-04-19T16:19:19Z</time>
      </trkpt>
      <trkpt lat="43.55809" lon="1.21628">
        <ele>229.8</ele>
        <time>2023-04-19T16:19:20Z</time>
      </trkpt>
      <trkpt lat="43.55796" lon="1.21607">
        <ele>229.4</ele>
        <time>2023-04-19T16:19:23Z</time>
      </trkpt>
      <trkpt lat="43.55791" lon="1.21602">
        <ele>229.2</ele>
        <time>2023-04-19T16:19:24Z</time>
      </trkpt>
      <trkpt lat="43.55786" lon="1.21598">
        <ele>229</ele>
        <time>2023-04-19T16:19:25Z</time>
      </trkpt>
      <trkpt lat="43.55781" lon="1.21595">
        <ele>228.2</ele>
        <time>2023-04-19T16:19:27Z</time>
      </trkpt>
      <trkpt lat="43.55774" lon="1.21591">
        <ele>227.4</ele>
        <time>2023-04-19T16:19:31Z</time>
      </trkpt>
      <trkpt lat="43.5577" lon="1.21589">
        <ele>227.2</ele>
        <time>2023-04-19T16:19:34Z</time>
      </trkpt>
      <trkpt lat="43.55762" lon="1.21584">
        <ele>227.6</ele>
        <time>2023-04-19T16:19:39Z</time>
      </trkpt>
      <trkpt lat="43.55743" lon="1.21568">
        <ele>227.8</ele>
        <time>2023-04-19T16:19:46Z</time>
      </trkpt>
      <trkpt lat="43.55724" lon="1.21554">
        <ele>227.6</ele>
        <time>2023-04-19T16:19:51Z</time>
      </trkpt>
      <trkpt lat="43.55721" lon="1.21551">
        <ele>227.6</ele>
        <time>2023-04-19T16:19:52Z</time>
      </trkpt>
      <trkpt lat="43.55718" lon="1.21539">
        <ele>227.4</ele>
        <time>2023-04-19T16:19:55Z</time>
      </trkpt>
      <trkpt lat="43.55718" lon="1.21533">
        <ele>227.4</ele>
        <time>2023-04-19T16:19:56Z</time>
      </trkpt>
      <trkpt lat="43.55718" lon="1.21521">
        <ele>227.4</ele>
        <time>2023-04-19T16:19:58Z</time>
      </trkpt>
      <trkpt lat="43.55722" lon="1.21514">
        <ele>227.4</ele>
        <time>2023-04-19T16:19:59Z</time>
      </trkpt>
      <trkpt lat="43.55725" lon="1.21508">
        <ele>227.4</ele>
        <time>2023-04-19T16:20:00Z</time>
      </trkpt>
      <trkpt lat="43.55734" lon="1.21494">
        <ele>227</ele>
        <time>2023-04-19T16:20:02Z</time>
      </trkpt>
      <trkpt lat="43.55752" lon="1.21465">
        <ele>225.8</ele>
        <time>2023-04-19T16:20:05Z</time>
      </trkpt>
      <trkpt lat="43.55758" lon="1.21456">
        <ele>225.6</ele>
        <time>2023-04-19T16:20:06Z</time>
      </trkpt>
      <trkpt lat="43.55769" lon="1.2144">
        <ele>224.8</ele>
        <time>2023-04-19T16:20:08Z</time>
      </trkpt>
      <trkpt lat="43.55779" lon="1.2142">
        <ele>222.8</ele>
        <time>2023-04-19T16:20:10Z</time>
      </trkpt>
      <trkpt lat="43.55782" lon="1.21411">
        <ele>222.4</ele>
        <time>2023-04-19T16:20:11Z</time>
      </trkpt>
      <trkpt lat="43.55782" lon="1.21411">
        <ele>221.6</ele>
        <time>2023-04-19T16:20:12Z</time>
      </trkpt>
      <trkpt lat="43.55787" lon="1.21399">
        <ele>221.2</ele>
        <time>2023-04-19T16:20:13Z</time>
      </trkpt>
      <trkpt lat="43.55791" lon="1.21394">
        <ele>220.8</ele>
        <time>2023-04-19T16:20:14Z</time>
      </trkpt>
      <trkpt lat="43.55799" lon="1.21391">
        <ele>219.8</ele>
        <time>2023-04-19T16:20:16Z</time>
      </trkpt>
      <trkpt lat="43.55807" lon="1.2139">
        <ele>219</ele>
        <time>2023-04-19T16:20:18Z</time>
      </trkpt>
      <trkpt lat="43.55811" lon="1.21391">
        <ele>218.4</ele>
        <time>2023-04-19T16:20:19Z</time>
      </trkpt>
      <trkpt lat="43.55819" lon="1.214">
        <ele>218</ele>
        <time>2023-04-19T16:20:22Z</time>
      </trkpt>
      <trkpt lat="43.55835" lon="1.2143">
        <ele>218</ele>
        <time>2023-04-19T16:20:28Z</time>
      </trkpt>
      <trkpt lat="43.55851" lon="1.21451">
        <ele>217.8</ele>
        <time>2023-04-19T16:20:33Z</time>
      </trkpt>
      <trkpt lat="43.55864" lon="1.21465">
        <ele>218</ele>
        <time>2023-04-19T16:20:37Z</time>
      </trkpt>
      <trkpt lat="43.55868" lon="1.21469">
        <ele>218</ele>
        <time>2023-04-19T16:20:38Z</time>
      </trkpt>
      <trkpt lat="43.55879" lon="1.21482">
        <ele>217.8</ele>
        <time>2023-04-19T16:20:41Z</time>
      </trkpt>
      <trkpt lat="43.55893" lon="1.215">
        <ele>217.8</ele>
        <time>2023-04-19T16:20:45Z</time>
      </trkpt>
      <trkpt lat="43.55928" lon="1.21538">
        <ele>217.8</ele>
        <time>2023-04-19T16:20:53Z</time>
      </trkpt>
      <trkpt lat="43.55928" lon="1.21538">
        <ele>217.8</ele>
        <time>2023-04-19T16:20:54Z</time>
      </trkpt>
      <trkpt lat="43.55967" lon="1.21565">
        <ele>217.6</ele>
        <time>2023-04-19T16:21:01Z</time>
      </trkpt>
      <trkpt lat="43.5598" lon="1.21569">
        <ele>217.4</ele>
        <time>2023-04-19T16:21:05Z</time>
      </trkpt>
      <trkpt lat="43.55983" lon="1.21569">
        <ele>217</ele>
        <time>2023-04-19T16:21:28Z</time>
      </trkpt>
      <trkpt lat="43.55984" lon="1.21568">
        <ele>217</ele>
        <time>2023-04-19T16:21:29Z</time>
      </trkpt>
      <trkpt lat="43.55993" lon="1.21567">
        <ele>217.2</ele>
        <time>2023-04-19T16:21:35Z</time>
      </trkpt>
      <trkpt lat="43.56008" lon="1.21571">
        <ele>217.2</ele>
        <time>2023-04-19T16:21:40Z</time>
      </trkpt>
      <trkpt lat="43.56017" lon="1.2157">
        <ele>217.2</ele>
        <time>2023-04-19T16:21:42Z</time>
      </trkpt>
      <trkpt lat="43.56019" lon="1.21567">
        <ele>217.4</ele>
        <time>2023-04-19T16:21:43Z</time>
      </trkpt>
      <trkpt lat="43.56023" lon="1.21562">
        <ele>217.4</ele>
        <time>2023-04-19T16:21:45Z</time>
      </trkpt>
      <trkpt lat="43.56026" lon="1.2156">
        <ele>217.2</ele>
        <time>2023-04-19T16:21:46Z</time>
      </trkpt>
      <trkpt lat="43.5603" lon="1.2156">
        <ele>217.2</ele>
        <time>2023-04-19T16:21:47Z</time>
      </trkpt>
      <trkpt lat="43.56042" lon="1.21556">
        <ele>217.2</ele>
        <time>2023-04-19T16:21:50Z</time>
      </trkpt>
      <trkpt lat="43.56046" lon="1.21556">
        <ele>217.2</ele>
        <time>2023-04-19T16:21:51Z</time>
      </trkpt>
      <trkpt lat="43.5605" lon="1.21554">
        <ele>217.4</ele>
        <time>2023-04-19T16:21:52Z</time>
      </trkpt>
      <trkpt lat="43.56057" lon="1.21552">
        <ele>217.2</ele>
        <time>2023-04-19T16:21:54Z</time>
      </trkpt>
      <trkpt lat="43.56071" lon="1.21546">
        <ele>217</ele>
        <time>2023-04-19T16:21:57Z</time>
      </trkpt>
      <trkpt lat="43.56094" lon="1.21554">
        <ele>217</ele>
        <time>2023-04-19T16:22:01Z</time>
      </trkpt>
      <trkpt lat="43.561" lon="1.21556">
        <ele>217</ele>
        <time>2023-04-19T16:22:02Z</time>
      </trkpt>
      <trkpt lat="43.56113" lon="1.21563">
        <ele>216.8</ele>
        <time>2023-04-19T16:22:05Z</time>
      </trkpt>
      <trkpt lat="43.56128" lon="1.21567">
        <ele>217</ele>
        <time>2023-04-19T16:22:08Z</time>
      </trkpt>
      <trkpt lat="43.56144" lon="1.21575">
        <ele>217.6</ele>
        <time>2023-04-19T16:22:13Z</time>
      </trkpt>
      <trkpt lat="43.56153" lon="1.21588">
        <ele>218</ele>
        <time>2023-04-19T16:22:16Z</time>
      </trkpt>
      <trkpt lat="43.56156" lon="1.21596">
        <ele>218.2</ele>
        <time>2023-04-19T16:22:18Z</time>
      </trkpt>
      <trkpt lat="43.56156" lon="1.21596">
        <ele>218.4</ele>
        <time>2023-04-19T16:22:19Z</time>
      </trkpt>
      <trkpt lat="43.56166" lon="1.21623">
        <ele>219</ele>
        <time>2023-04-19T16:22:24Z</time>
      </trkpt>
      <trkpt lat="43.56173" lon="1.21646">
        <ele>219.6</ele>
        <time>2023-04-19T16:22:28Z</time>
      </trkpt>
      <trkpt lat="43.56176" lon="1.21657">
        <ele>219.8</ele>
        <time>2023-04-19T16:22:30Z</time>
      </trkpt>
      <trkpt lat="43.56181" lon="1.21676">
        <ele>220</ele>
        <time>2023-04-19T16:22:33Z</time>
      </trkpt>
      <trkpt lat="43.56188" lon="1.21696">
        <ele>220.4</ele>
        <time>2023-04-19T16:22:36Z</time>
      </trkpt>
      <trkpt lat="43.56196" lon="1.2172">
        <ele>220.6</ele>
        <time>2023-04-19T16:22:40Z</time>
      </trkpt>
      <trkpt lat="43.56195" lon="1.21728">
        <ele>220.6</ele>
        <time>2023-04-19T16:22:42Z</time>
      </trkpt>
      <trkpt lat="43.56185" lon="1.21733">
        <ele>220.8</ele>
        <time>2023-04-19T16:22:46Z</time>
      </trkpt>
      <trkpt lat="43.56177" lon="1.21736">
        <ele>221.2</ele>
        <time>2023-04-19T16:22:50Z</time>
      </trkpt>
      <trkpt lat="43.56169" lon="1.21739">
        <ele>222.2</ele>
        <time>2023-04-19T16:22:53Z</time>
      </trkpt>
      <trkpt lat="43.56165" lon="1.21742">
        <ele>223</ele>
        <time>2023-04-19T16:22:55Z</time>
      </trkpt>
      <trkpt lat="43.56163" lon="1.21743">
        <ele>223.4</ele>
        <time>2023-04-19T16:22:56Z</time>
      </trkpt>
      <trkpt lat="43.56155" lon="1.21746">
        <ele>224.6</ele>
        <time>2023-04-19T16:22:59Z</time>
      </trkpt>
      <trkpt lat="43.56144" lon="1.2175">
        <ele>226</ele>
        <time>2023-04-19T16:23:03Z</time>
      </trkpt>
      <trkpt lat="43.56127" lon="1.21758">
        <ele>227</ele>
        <time>2023-04-19T16:23:08Z</time>
      </trkpt>
      <trkpt lat="43.56116" lon="1.21763">
        <ele>227.4</ele>
        <time>2023-04-19T16:23:11Z</time>
      </trkpt>
      <trkpt lat="43.56092" lon="1.21772">
        <ele>228</ele>
        <time>2023-04-19T16:23:17Z</time>
      </trkpt>
      <trkpt lat="43.56084" lon="1.21777">
        <ele>228.2</ele>
        <time>2023-04-19T16:23:19Z</time>
      </trkpt>
      <trkpt lat="43.56072" lon="1.21796">
        <ele>228.4</ele>
        <time>2023-04-19T16:23:23Z</time>
      </trkpt>
      <trkpt lat="43.56069" lon="1.218">
        <ele>228.4</ele>
        <time>2023-04-19T16:23:24Z</time>
      </trkpt>
      <trkpt lat="43.56064" lon="1.21802">
        <ele>228.4</ele>
        <time>2023-04-19T16:23:25Z</time>
      </trkpt>
      <trkpt lat="43.56056" lon="1.21803">
        <ele>228.6</ele>
        <time>2023-04-19T16:23:27Z</time>
      </trkpt>
      <trkpt lat="43.5602" lon="1.21794">
        <ele>228.8</ele>
        <time>2023-04-19T16:23:35Z</time>
      </trkpt>
      <trkpt lat="43.56016" lon="1.21792">
        <ele>228.8</ele>
        <time>2023-04-19T16:23:36Z</time>
      </trkpt>
      <trkpt lat="43.56008" lon="1.21788">
        <ele>229</ele>
        <time>2023-04-19T16:23:39Z</time>
      </trkpt>
      <trkpt lat="43.55998" lon="1.21786">
        <ele>229.2</ele>
        <time>2023-04-19T16:23:41Z</time>
      </trkpt>
      <trkpt lat="43.55996" lon="1.21785">
        <ele>229.6</ele>
        <time>2023-04-19T16:23:43Z</time>
      </trkpt>
      <trkpt lat="43.55982" lon="1.21781">
        <ele>230</ele>
        <time>2023-04-19T16:23:49Z</time>
      </trkpt>
      <trkpt lat="43.55961" lon="1.21774">
        <ele>230</ele>
        <time>2023-04-19T16:23:54Z</time>
      </trkpt>
      <trkpt lat="43.55939" lon="1.21766">
        <ele>230.2</ele>
        <time>2023-04-19T16:23:59Z</time>
      </trkpt>
      <trkpt lat="43.5593" lon="1.21764">
        <ele>230.4</ele>
        <time>2023-04-19T16:24:01Z</time>
      </trkpt>
      <trkpt lat="43.55926" lon="1.21765">
        <ele>230.4</ele>
        <time>2023-04-19T16:24:02Z</time>
      </trkpt>
      <trkpt lat="43.55922" lon="1.21767">
        <ele>230.4</ele>
        <time>2023-04-19T16:24:03Z</time>
      </trkpt>
      <trkpt lat="43.55918" lon="1.21777">
        <ele>230.4</ele>
        <time>2023-04-19T16:24:05Z</time>
      </trkpt>
      <trkpt lat="43.55909" lon="1.21816">
        <ele>230.8</ele>
        <time>2023-04-19T16:24:11Z</time>
      </trkpt>
      <trkpt lat="43.559" lon="1.2185">
        <ele>230.8</ele>
        <time>2023-04-19T16:24:15Z</time>
      </trkpt>
      <trkpt lat="43.55897" lon="1.21855">
        <ele>230.8</ele>
        <time>2023-04-19T16:24:16Z</time>
      </trkpt>
      <trkpt lat="43.55893" lon="1.21861">
        <ele>230.8</ele>
        <time>2023-04-19T16:24:17Z</time>
      </trkpt>
      <trkpt lat="43.55878" lon="1.21875">
        <ele>231</ele>
        <time>2023-04-19T16:24:20Z</time>
      </trkpt>
      <trkpt lat="43.55836" lon="1.21906">
        <ele>231</ele>
        <time>2023-04-19T16:24:28Z</time>
      </trkpt>
      <trkpt lat="43.55799" lon="1.21931">
        <ele>231.2</ele>
        <time>2023-04-19T16:24:35Z</time>
      </trkpt>
      <trkpt lat="43.55784" lon="1.21941">
        <ele>231.2</ele>
        <time>2023-04-19T16:24:38Z</time>
      </trkpt>
      <trkpt lat="43.55736" lon="1.21975">
        <ele>231.2</ele>
        <time>2023-04-19T16:24:47Z</time>
      </trkpt>
      <trkpt lat="43.55693" lon="1.22006">
        <ele>231.2</ele>
        <time>2023-04-19T16:24:55Z</time>
      </trkpt>
      <trkpt lat="43.5565" lon="1.22037">
        <ele>231.2</ele>
        <time>2023-04-19T16:25:03Z</time>
      </trkpt>
      <trkpt lat="43.55635" lon="1.22047">
        <ele>231.2</ele>
        <time>2023-04-19T16:25:06Z</time>
      </trkpt>
      <trkpt lat="43.55628" lon="1.22052">
        <ele>231.4</ele>
        <time>2023-04-19T16:25:08Z</time>
      </trkpt>
      <trkpt lat="43.55627" lon="1.22055">
        <ele>231.4</ele>
        <time>2023-04-19T16:25:09Z</time>
      </trkpt>
      <trkpt lat="43.55627" lon="1.22059">
        <ele>231.4</ele>
        <time>2023-04-19T16:25:10Z</time>
      </trkpt>
      <trkpt lat="43.5563" lon="1.22063">
        <ele>231.4</ele>
        <time>2023-04-19T16:25:11Z</time>
      </trkpt>
      <trkpt lat="43.55637" lon="1.2207">
        <ele>231.4</ele>
        <time>2023-04-19T16:25:13Z</time>
      </trkpt>
      <trkpt lat="43.55674" lon="1.22121">
        <ele>231.2</ele>
        <time>2023-04-19T16:25:23Z</time>
      </trkpt>
      <trkpt lat="43.55701" lon="1.22164">
        <ele>231.4</ele>
        <time>2023-04-19T16:25:30Z</time>
      </trkpt>
      <trkpt lat="43.55739" lon="1.22221">
        <ele>231.6</ele>
        <time>2023-04-19T16:25:39Z</time>
      </trkpt>
      <trkpt lat="43.55746" lon="1.22234">
        <ele>231.6</ele>
        <time>2023-04-19T16:25:41Z</time>
      </trkpt>
      <trkpt lat="43.55763" lon="1.22259">
        <ele>231.8</ele>
        <time>2023-04-19T16:25:45Z</time>
      </trkpt>
      <trkpt lat="43.55803" lon="1.22322">
        <ele>231</ele>
        <time>2023-04-19T16:25:54Z</time>
      </trkpt>
      <trkpt lat="43.55837" lon="1.22374">
        <ele>230.2</ele>
        <time>2023-04-19T16:26:01Z</time>
      </trkpt>
      <trkpt lat="43.55842" lon="1.2238">
        <ele>230</ele>
        <time>2023-04-19T16:26:02Z</time>
      </trkpt>
      <trkpt lat="43.55862" lon="1.22409">
        <ele>229</ele>
        <time>2023-04-19T16:26:06Z</time>
      </trkpt>
      <trkpt lat="43.55884" lon="1.22444">
        <ele>228.6</ele>
        <time>2023-04-19T16:26:11Z</time>
      </trkpt>
      <trkpt lat="43.55903" lon="1.22478">
        <ele>228.8</ele>
        <time>2023-04-19T16:26:16Z</time>
      </trkpt>
      <trkpt lat="43.5593" lon="1.22533">
        <ele>228.8</ele>
        <time>2023-04-19T16:26:24Z</time>
      </trkpt>
      <trkpt lat="43.55959" lon="1.22595">
        <ele>228.6</ele>
        <time>2023-04-19T16:26:32Z</time>
      </trkpt>
      <trkpt lat="43.55963" lon="1.22603">
        <ele>228.6</ele>
        <time>2023-04-19T16:26:33Z</time>
      </trkpt>
      <trkpt lat="43.5597" lon="1.22618">
        <ele>228.4</ele>
        <time>2023-04-19T16:26:35Z</time>
      </trkpt>
      <trkpt lat="43.55975" lon="1.22634">
        <ele>228.4</ele>
        <time>2023-04-19T16:26:37Z</time>
      </trkpt>
      <trkpt lat="43.55985" lon="1.22671">
        <ele>228.4</ele>
        <time>2023-04-19T16:26:42Z</time>
      </trkpt>
      <trkpt lat="43.56002" lon="1.22731">
        <ele>228.4</ele>
        <time>2023-04-19T16:26:50Z</time>
      </trkpt>
      <trkpt lat="43.56021" lon="1.22798">
        <ele>228.4</ele>
        <time>2023-04-19T16:26:59Z</time>
      </trkpt>
      <trkpt lat="43.56037" lon="1.22859">
        <ele>228.8</ele>
        <time>2023-04-19T16:27:07Z</time>
      </trkpt>
      <trkpt lat="43.56042" lon="1.22874">
        <ele>228.8</ele>
        <time>2023-04-19T16:27:09Z</time>
      </trkpt>
      <trkpt lat="43.56049" lon="1.22887">
        <ele>228.8</ele>
        <time>2023-04-19T16:27:11Z</time>
      </trkpt>
      <trkpt lat="43.56053" lon="1.22892">
        <ele>228.8</ele>
        <time>2023-04-19T16:27:12Z</time>
      </trkpt>
      <trkpt lat="43.5609" lon="1.2294">
        <ele>228.8</ele>
        <time>2023-04-19T16:27:21Z</time>
      </trkpt>
      <trkpt lat="43.5612" lon="1.22978">
        <ele>228.4</ele>
        <time>2023-04-19T16:27:28Z</time>
      </trkpt>
      <trkpt lat="43.56129" lon="1.2299">
        <ele>228.2</ele>
        <time>2023-04-19T16:27:30Z</time>
      </trkpt>
      <trkpt lat="43.56144" lon="1.23011">
        <ele>228.2</ele>
        <time>2023-04-19T16:27:34Z</time>
      </trkpt>
      <trkpt lat="43.56148" lon="1.23023">
        <ele>228</ele>
        <time>2023-04-19T16:27:36Z</time>
      </trkpt>
      <trkpt lat="43.56145" lon="1.23036">
        <ele>228</ele>
        <time>2023-04-19T16:27:38Z</time>
      </trkpt>
      <trkpt lat="43.56143" lon="1.23043">
        <ele>228</ele>
        <time>2023-04-19T16:27:39Z</time>
      </trkpt>
      <trkpt lat="43.56122" lon="1.23093">
        <ele>228</ele>
        <time>2023-04-19T16:27:46Z</time>
      </trkpt>
      <trkpt lat="43.56094" lon="1.23153">
        <ele>228.4</ele>
        <time>2023-04-19T16:27:55Z</time>
      </trkpt>
      <trkpt lat="43.56091" lon="1.23162">
        <ele>228.6</ele>
        <time>2023-04-19T16:27:57Z</time>
      </trkpt>
      <trkpt lat="43.56091" lon="1.23166">
        <ele>228.6</ele>
        <time>2023-04-19T16:27:58Z</time>
      </trkpt>
      <trkpt lat="43.56097" lon="1.23179">
        <ele>228.6</ele>
        <time>2023-04-19T16:28:01Z</time>
      </trkpt>
      <trkpt lat="43.56099" lon="1.23184">
        <ele>228.6</ele>
        <time>2023-04-19T16:28:02Z</time>
      </trkpt>
      <trkpt lat="43.56119" lon="1.2321">
        <ele>228.4</ele>
        <time>2023-04-19T16:28:07Z</time>
      </trkpt>
      <trkpt lat="43.56145" lon="1.2324">
        <ele>228</ele>
        <time>2023-04-19T16:28:12Z</time>
      </trkpt>
      <trkpt lat="43.56168" lon="1.23267">
        <ele>227.4</ele>
        <time>2023-04-19T16:28:16Z</time>
      </trkpt>
      <trkpt lat="43.56181" lon="1.2328">
        <ele>226.4</ele>
        <time>2023-04-19T16:28:18Z</time>
      </trkpt>
      <trkpt lat="43.56189" lon="1.23286">
        <ele>226.2</ele>
        <time>2023-04-19T16:28:19Z</time>
      </trkpt>
      <trkpt lat="43.56198" lon="1.23291">
        <ele>226</ele>
        <time>2023-04-19T16:28:20Z</time>
      </trkpt>
      <trkpt lat="43.56218" lon="1.23299">
        <ele>225.2</ele>
        <time>2023-04-19T16:28:22Z</time>
      </trkpt>
      <trkpt lat="43.5624" lon="1.23306">
        <ele>223.4</ele>
        <time>2023-04-19T16:28:24Z</time>
      </trkpt>
      <trkpt lat="43.56262" lon="1.23314">
        <ele>221.4</ele>
        <time>2023-04-19T16:28:26Z</time>
      </trkpt>
      <trkpt lat="43.56285" lon="1.23321">
        <ele>219.4</ele>
        <time>2023-04-19T16:28:28Z</time>
      </trkpt>
      <trkpt lat="43.56296" lon="1.23325">
        <ele>218</ele>
        <time>2023-04-19T16:28:29Z</time>
      </trkpt>
      <trkpt lat="43.56314" lon="1.23331">
        <ele>215.8</ele>
        <time>2023-04-19T16:28:31Z</time>
      </trkpt>
      <trkpt lat="43.56321" lon="1.23332">
        <ele>215.4</ele>
        <time>2023-04-19T16:28:32Z</time>
      </trkpt>
      <trkpt lat="43.56325" lon="1.23335">
        <ele>214.4</ele>
        <time>2023-04-19T16:28:33Z</time>
      </trkpt>
      <trkpt lat="43.56327" lon="1.2334">
        <ele>213.8</ele>
        <time>2023-04-19T16:28:34Z</time>
      </trkpt>
      <trkpt lat="43.56327" lon="1.23347">
        <ele>213.2</ele>
        <time>2023-04-19T16:28:35Z</time>
      </trkpt>
      <trkpt lat="43.56325" lon="1.23353">
        <ele>212.4</ele>
        <time>2023-04-19T16:28:36Z</time>
      </trkpt>
      <trkpt lat="43.56323" lon="1.23359">
        <ele>212.2</ele>
        <time>2023-04-19T16:28:37Z</time>
      </trkpt>
      <trkpt lat="43.56318" lon="1.23371">
        <ele>211.2</ele>
        <time>2023-04-19T16:28:39Z</time>
      </trkpt>
      <trkpt lat="43.56316" lon="1.23379">
        <ele>211</ele>
        <time>2023-04-19T16:28:40Z</time>
      </trkpt>
      <trkpt lat="43.56314" lon="1.23387">
        <ele>210.8</ele>
        <time>2023-04-19T16:28:41Z</time>
      </trkpt>
      <trkpt lat="43.56313" lon="1.23395">
        <ele>210.6</ele>
        <time>2023-04-19T16:28:42Z</time>
      </trkpt>
      <trkpt lat="43.56309" lon="1.23421">
        <ele>210.2</ele>
        <time>2023-04-19T16:28:45Z</time>
      </trkpt>
      <trkpt lat="43.56301" lon="1.23447">
        <ele>210.2</ele>
        <time>2023-04-19T16:28:48Z</time>
      </trkpt>
      <trkpt lat="43.56288" lon="1.2351">
        <ele>210.6</ele>
        <time>2023-04-19T16:28:55Z</time>
      </trkpt>
      <trkpt lat="43.5628" lon="1.23548">
        <ele>210.8</ele>
        <time>2023-04-19T16:28:59Z</time>
      </trkpt>
      <trkpt lat="43.56278" lon="1.23566">
        <ele>210.8</ele>
        <time>2023-04-19T16:29:01Z</time>
      </trkpt>
      <trkpt lat="43.56278" lon="1.23584">
        <ele>210.8</ele>
        <time>2023-04-19T16:29:03Z</time>
      </trkpt>
      <trkpt lat="43.56281" lon="1.23612">
        <ele>210.8</ele>
        <time>2023-04-19T16:29:06Z</time>
      </trkpt>
      <trkpt lat="43.56283" lon="1.23659">
        <ele>210.8</ele>
        <time>2023-04-19T16:29:12Z</time>
      </trkpt>
      <trkpt lat="43.56289" lon="1.23698">
        <ele>211</ele>
        <time>2023-04-19T16:29:17Z</time>
      </trkpt>
      <trkpt lat="43.56292" lon="1.23719">
        <ele>211.4</ele>
        <time>2023-04-19T16:29:20Z</time>
      </trkpt>
      <trkpt lat="43.56293" lon="1.23734">
        <ele>211.4</ele>
        <time>2023-04-19T16:29:22Z</time>
      </trkpt>
      <trkpt lat="43.56293" lon="1.23748">
        <ele>211.8</ele>
        <time>2023-04-19T16:29:24Z</time>
      </trkpt>
      <trkpt lat="43.56294" lon="1.23759">
        <ele>211.8</ele>
        <time>2023-04-19T16:29:26Z</time>
      </trkpt>
      <trkpt lat="43.56294" lon="1.23765">
        <ele>212</ele>
        <time>2023-04-19T16:29:27Z</time>
      </trkpt>
      <trkpt lat="43.56295" lon="1.23771">
        <ele>212</ele>
        <time>2023-04-19T16:29:28Z</time>
      </trkpt>
      <trkpt lat="43.56295" lon="1.23777">
        <ele>212.2</ele>
        <time>2023-04-19T16:29:29Z</time>
      </trkpt>
      <trkpt lat="43.56295" lon="1.23789">
        <ele>212.6</ele>
        <time>2023-04-19T16:29:31Z</time>
      </trkpt>
      <trkpt lat="43.56295" lon="1.23795">
        <ele>212.8</ele>
        <time>2023-04-19T16:29:32Z</time>
      </trkpt>
      <trkpt lat="43.56296" lon="1.23812">
        <ele>213.2</ele>
        <time>2023-04-19T16:29:35Z</time>
      </trkpt>
      <trkpt lat="43.56295" lon="1.23838">
        <ele>214.4</ele>
        <time>2023-04-19T16:29:39Z</time>
      </trkpt>
      <trkpt lat="43.56296" lon="1.23851">
        <ele>214.6</ele>
        <time>2023-04-19T16:29:41Z</time>
      </trkpt>
      <trkpt lat="43.56301" lon="1.23872">
        <ele>214.8</ele>
        <time>2023-04-19T16:29:44Z</time>
      </trkpt>
      <trkpt lat="43.56305" lon="1.23889">
        <ele>215</ele>
        <time>2023-04-19T16:29:46Z</time>
      </trkpt>
      <trkpt lat="43.56306" lon="1.23897">
        <ele>215</ele>
        <time>2023-04-19T16:29:47Z</time>
      </trkpt>
      <trkpt lat="43.56305" lon="1.23904">
        <ele>215</ele>
        <time>2023-04-19T16:29:48Z</time>
      </trkpt>
      <trkpt lat="43.56305" lon="1.23936">
        <ele>215</ele>
        <time>2023-04-19T16:29:52Z</time>
      </trkpt>
      <trkpt lat="43.56307" lon="1.23981">
        <ele>215.2</ele>
        <time>2023-04-19T16:29:58Z</time>
      </trkpt>
      <trkpt lat="43.56308" lon="1.23997">
        <ele>215.4</ele>
        <time>2023-04-19T16:30:00Z</time>
      </trkpt>
      <trkpt lat="43.56309" lon="1.24006">
        <ele>215.4</ele>
        <time>2023-04-19T16:30:01Z</time>
      </trkpt>
      <trkpt lat="43.56313" lon="1.24063">
        <ele>215.4</ele>
        <time>2023-04-19T16:30:08Z</time>
      </trkpt>
      <trkpt lat="43.56315" lon="1.24122">
        <ele>215.2</ele>
        <time>2023-04-19T16:30:15Z</time>
      </trkpt>
      <trkpt lat="43.56321" lon="1.24174">
        <ele>215.2</ele>
        <time>2023-04-19T16:30:21Z</time>
      </trkpt>
      <trkpt lat="43.56332" lon="1.24213">
        <ele>214.8</ele>
        <time>2023-04-19T16:30:26Z</time>
      </trkpt>
      <trkpt lat="43.56353" lon="1.24289">
        <ele>215</ele>
        <time>2023-04-19T16:30:35Z</time>
      </trkpt>
      <trkpt lat="43.56357" lon="1.24307">
        <ele>215</ele>
        <time>2023-04-19T16:30:37Z</time>
      </trkpt>
      <trkpt lat="43.5637" lon="1.24351">
        <ele>214.2</ele>
        <time>2023-04-19T16:30:42Z</time>
      </trkpt>
      <trkpt lat="43.56372" lon="1.2436">
        <ele>213.8</ele>
        <time>2023-04-19T16:30:43Z</time>
      </trkpt>
      <trkpt lat="43.56373" lon="1.24377">
        <ele>213.6</ele>
        <time>2023-04-19T16:30:45Z</time>
      </trkpt>
      <trkpt lat="43.56369" lon="1.24402">
        <ele>213.2</ele>
        <time>2023-04-19T16:30:48Z</time>
      </trkpt>
      <trkpt lat="43.56367" lon="1.2441">
        <ele>213.2</ele>
        <time>2023-04-19T16:30:49Z</time>
      </trkpt>
      <trkpt lat="43.56365" lon="1.24417">
        <ele>213.2</ele>
        <time>2023-04-19T16:30:50Z</time>
      </trkpt>
      <trkpt lat="43.56356" lon="1.24437">
        <ele>212.8</ele>
        <time>2023-04-19T16:30:53Z</time>
      </trkpt>
      <trkpt lat="43.56343" lon="1.24464">
        <ele>212.6</ele>
        <time>2023-04-19T16:30:58Z</time>
      </trkpt>
      <trkpt lat="43.56342" lon="1.2447">
        <ele>212.8</ele>
        <time>2023-04-19T16:30:59Z</time>
      </trkpt>
      <trkpt lat="43.56342" lon="1.24476">
        <ele>213</ele>
        <time>2023-04-19T16:31:00Z</time>
      </trkpt>
      <trkpt lat="43.56342" lon="1.24494">
        <ele>213.4</ele>
        <time>2023-04-19T16:31:03Z</time>
      </trkpt>
      <trkpt lat="43.56348" lon="1.24531">
        <ele>213.6</ele>
        <time>2023-04-19T16:31:08Z</time>
      </trkpt>
      <trkpt lat="43.56349" lon="1.24538">
        <ele>213.6</ele>
        <time>2023-04-19T16:31:09Z</time>
      </trkpt>
      <trkpt lat="43.56349" lon="1.24554">
        <ele>213.4</ele>
        <time>2023-04-19T16:31:11Z</time>
      </trkpt>
      <trkpt lat="43.56346" lon="1.24569">
        <ele>213.2</ele>
        <time>2023-04-19T16:31:13Z</time>
      </trkpt>
      <trkpt lat="43.56344" lon="1.24576">
        <ele>213.2</ele>
        <time>2023-04-19T16:31:14Z</time>
      </trkpt>
      <trkpt lat="43.56338" lon="1.24599">
        <ele>213</ele>
        <time>2023-04-19T16:31:17Z</time>
      </trkpt>
      <trkpt lat="43.56336" lon="1.24605">
        <ele>213</ele>
        <time>2023-04-19T16:31:18Z</time>
      </trkpt>
      <trkpt lat="43.5633" lon="1.24623">
        <ele>212.8</ele>
        <time>2023-04-19T16:31:21Z</time>
      </trkpt>
      <trkpt lat="43.56327" lon="1.24644">
        <ele>212.8</ele>
        <time>2023-04-19T16:31:24Z</time>
      </trkpt>
      <trkpt lat="43.5633" lon="1.2466">
        <ele>213</ele>
        <time>2023-04-19T16:31:26Z</time>
      </trkpt>
      <trkpt lat="43.56332" lon="1.24668">
        <ele>213</ele>
        <time>2023-04-19T16:31:27Z</time>
      </trkpt>
      <trkpt lat="43.56334" lon="1.24675">
        <ele>213</ele>
        <time>2023-04-19T16:31:28Z</time>
      </trkpt>
      <trkpt lat="43.56354" lon="1.2473">
        <ele>212.8</ele>
        <time>2023-04-19T16:31:35Z</time>
      </trkpt>
      <trkpt lat="43.56358" lon="1.24743">
        <ele>212.4</ele>
        <time>2023-04-19T16:31:37Z</time>
      </trkpt>
      <trkpt lat="43.56367" lon="1.24761">
        <ele>212.4</ele>
        <time>2023-04-19T16:31:40Z</time>
      </trkpt>
      <trkpt lat="43.56382" lon="1.24784">
        <ele>212</ele>
        <time>2023-04-19T16:31:44Z</time>
      </trkpt>
      <trkpt lat="43.56396" lon="1.24803">
        <ele>210.8</ele>
        <time>2023-04-19T16:31:47Z</time>
      </trkpt>
      <trkpt lat="43.56412" lon="1.24829">
        <ele>210.2</ele>
        <time>2023-04-19T16:31:51Z</time>
      </trkpt>
      <trkpt lat="43.56422" lon="1.24839">
        <ele>209.8</ele>
        <time>2023-04-19T16:31:53Z</time>
      </trkpt>
      <trkpt lat="43.56428" lon="1.24841">
        <ele>209.6</ele>
        <time>2023-04-19T16:31:54Z</time>
      </trkpt>
      <trkpt lat="43.56434" lon="1.24841">
        <ele>209.4</ele>
        <time>2023-04-19T16:31:55Z</time>
      </trkpt>
      <trkpt lat="43.56446" lon="1.24843">
        <ele>209.2</ele>
        <time>2023-04-19T16:31:57Z</time>
      </trkpt>
      <trkpt lat="43.56459" lon="1.24846">
        <ele>208.4</ele>
        <time>2023-04-19T16:31:59Z</time>
      </trkpt>
      <trkpt lat="43.56479" lon="1.24843">
        <ele>207.4</ele>
        <time>2023-04-19T16:32:02Z</time>
      </trkpt>
      <trkpt lat="43.56486" lon="1.24841">
        <ele>207.2</ele>
        <time>2023-04-19T16:32:03Z</time>
      </trkpt>
      <trkpt lat="43.56518" lon="1.24831">
        <ele>206.6</ele>
        <time>2023-04-19T16:32:08Z</time>
      </trkpt>
      <trkpt lat="43.5653" lon="1.24829">
        <ele>206</ele>
        <time>2023-04-19T16:32:10Z</time>
      </trkpt>
      <trkpt lat="43.56538" lon="1.24833">
        <ele>206</ele>
        <time>2023-04-19T16:32:12Z</time>
      </trkpt>
      <trkpt lat="43.56549" lon="1.24853">
        <ele>205.6</ele>
        <time>2023-04-19T16:32:16Z</time>
      </trkpt>
      <trkpt lat="43.56554" lon="1.24858">
        <ele>205.6</ele>
        <time>2023-04-19T16:32:17Z</time>
      </trkpt>
      <trkpt lat="43.5658" lon="1.2488">
        <ele>205.8</ele>
        <time>2023-04-19T16:32:22Z</time>
      </trkpt>
      <trkpt lat="43.56595" lon="1.24895">
        <ele>206</ele>
        <time>2023-04-19T16:32:25Z</time>
      </trkpt>
      <trkpt lat="43.56602" lon="1.24908">
        <ele>206.2</ele>
        <time>2023-04-19T16:32:27Z</time>
      </trkpt>
      <trkpt lat="43.56613" lon="1.24936">
        <ele>207.2</ele>
        <time>2023-04-19T16:32:31Z</time>
      </trkpt>
      <trkpt lat="43.56623" lon="1.24964">
        <ele>207.6</ele>
        <time>2023-04-19T16:32:35Z</time>
      </trkpt>
      <trkpt lat="43.56635" lon="1.25">
        <ele>208</ele>
        <time>2023-04-19T16:32:40Z</time>
      </trkpt>
      <trkpt lat="43.56637" lon="1.25007">
        <ele>208</ele>
        <time>2023-04-19T16:32:41Z</time>
      </trkpt>
      <trkpt lat="43.56643" lon="1.25027">
        <ele>208.4</ele>
        <time>2023-04-19T16:32:44Z</time>
      </trkpt>
      <trkpt lat="43.56645" lon="1.25034">
        <ele>208.6</ele>
        <time>2023-04-19T16:32:45Z</time>
      </trkpt>
      <trkpt lat="43.56649" lon="1.25047">
        <ele>208.8</ele>
        <time>2023-04-19T16:32:47Z</time>
      </trkpt>
      <trkpt lat="43.56651" lon="1.25053">
        <ele>209</ele>
        <time>2023-04-19T16:32:48Z</time>
      </trkpt>
      <trkpt lat="43.56656" lon="1.25064">
        <ele>209.2</ele>
        <time>2023-04-19T16:32:50Z</time>
      </trkpt>
      <trkpt lat="43.56659" lon="1.2507">
        <ele>209.6</ele>
        <time>2023-04-19T16:32:51Z</time>
      </trkpt>
      <trkpt lat="43.56666" lon="1.25086">
        <ele>210</ele>
        <time>2023-04-19T16:32:54Z</time>
      </trkpt>
      <trkpt lat="43.56675" lon="1.25105">
        <ele>210.2</ele>
        <time>2023-04-19T16:32:57Z</time>
      </trkpt>
      <trkpt lat="43.56677" lon="1.25117">
        <ele>210.4</ele>
        <time>2023-04-19T16:32:59Z</time>
      </trkpt>
      <trkpt lat="43.56678" lon="1.25124">
        <ele>210.4</ele>
        <time>2023-04-19T16:33:00Z</time>
      </trkpt>
      <trkpt lat="43.56684" lon="1.25141">
        <ele>210.8</ele>
        <time>2023-04-19T16:33:03Z</time>
      </trkpt>
      <trkpt lat="43.56689" lon="1.25153">
        <ele>211.2</ele>
        <time>2023-04-19T16:33:05Z</time>
      </trkpt>
      <trkpt lat="43.56692" lon="1.25164">
        <ele>211.8</ele>
        <time>2023-04-19T16:33:07Z</time>
      </trkpt>
      <trkpt lat="43.56692" lon="1.2517">
        <ele>212</ele>
        <time>2023-04-19T16:33:08Z</time>
      </trkpt>
      <trkpt lat="43.56696" lon="1.25184">
        <ele>212.8</ele>
        <time>2023-04-19T16:33:11Z</time>
      </trkpt>
      <trkpt lat="43.567" lon="1.25197">
        <ele>213.2</ele>
        <time>2023-04-19T16:33:13Z</time>
      </trkpt>
      <trkpt lat="43.56707" lon="1.2522">
        <ele>213.2</ele>
        <time>2023-04-19T16:33:16Z</time>
      </trkpt>
      <trkpt lat="43.56714" lon="1.25238">
        <ele>213</ele>
        <time>2023-04-19T16:33:18Z</time>
      </trkpt>
      <trkpt lat="43.56718" lon="1.25257">
        <ele>212.8</ele>
        <time>2023-04-19T16:33:20Z</time>
      </trkpt>
      <trkpt lat="43.56721" lon="1.25273">
        <ele>212.6</ele>
        <time>2023-04-19T16:33:22Z</time>
      </trkpt>
      <trkpt lat="43.56721" lon="1.2529">
        <ele>212.6</ele>
        <time>2023-04-19T16:33:24Z</time>
      </trkpt>
      <trkpt lat="43.56729" lon="1.25342">
        <ele>212.4</ele>
        <time>2023-04-19T16:33:30Z</time>
      </trkpt>
      <trkpt lat="43.56738" lon="1.25404">
        <ele>212.2</ele>
        <time>2023-04-19T16:33:37Z</time>
      </trkpt>
      <trkpt lat="43.56742" lon="1.25429">
        <ele>211.6</ele>
        <time>2023-04-19T16:33:40Z</time>
      </trkpt>
      <trkpt lat="43.56748" lon="1.25454">
        <ele>211</ele>
        <time>2023-04-19T16:33:43Z</time>
      </trkpt>
      <trkpt lat="43.5675" lon="1.25461">
        <ele>211</ele>
        <time>2023-04-19T16:33:44Z</time>
      </trkpt>
      <trkpt lat="43.56752" lon="1.25469">
        <ele>211</ele>
        <time>2023-04-19T16:33:45Z</time>
      </trkpt>
      <trkpt lat="43.56756" lon="1.25501">
        <ele>211</ele>
        <time>2023-04-19T16:33:49Z</time>
      </trkpt>
      <trkpt lat="43.56764" lon="1.25566">
        <ele>211.6</ele>
        <time>2023-04-19T16:33:57Z</time>
      </trkpt>
      <trkpt lat="43.56772" lon="1.25621">
        <ele>211.4</ele>
        <time>2023-04-19T16:34:03Z</time>
      </trkpt>
      <trkpt lat="43.5678" lon="1.25677">
        <ele>210.8</ele>
        <time>2023-04-19T16:34:09Z</time>
      </trkpt>
      <trkpt lat="43.5678" lon="1.25693">
        <ele>210.6</ele>
        <time>2023-04-19T16:34:11Z</time>
      </trkpt>
      <trkpt lat="43.5678" lon="1.257">
        <ele>210.4</ele>
        <time>2023-04-19T16:34:12Z</time>
      </trkpt>
      <trkpt lat="43.56779" lon="1.25706">
        <ele>210.4</ele>
        <time>2023-04-19T16:34:13Z</time>
      </trkpt>
      <trkpt lat="43.56777" lon="1.25722">
        <ele>210.4</ele>
        <time>2023-04-19T16:34:16Z</time>
      </trkpt>
      <trkpt lat="43.56776" lon="1.25732">
        <ele>210.4</ele>
        <time>2023-04-19T16:34:18Z</time>
      </trkpt>
      <trkpt lat="43.56772" lon="1.25751">
        <ele>210.2</ele>
        <time>2023-04-19T16:34:21Z</time>
      </trkpt>
      <trkpt lat="43.56769" lon="1.25764">
        <ele>210.2</ele>
        <time>2023-04-19T16:34:23Z</time>
      </trkpt>
      <trkpt lat="43.56766" lon="1.25777">
        <ele>210.2</ele>
        <time>2023-04-19T16:34:25Z</time>
      </trkpt>
      <trkpt lat="43.56763" lon="1.25792">
        <ele>210.2</ele>
        <time>2023-04-19T16:34:27Z</time>
      </trkpt>
      <trkpt lat="43.56762" lon="1.25813">
        <ele>210.4</ele>
        <time>2023-04-19T16:34:30Z</time>
      </trkpt>
      <trkpt lat="43.56763" lon="1.25827">
        <ele>210.8</ele>
        <time>2023-04-19T16:34:32Z</time>
      </trkpt>
      <trkpt lat="43.56764" lon="1.25834">
        <ele>210.8</ele>
        <time>2023-04-19T16:34:33Z</time>
      </trkpt>
      <trkpt lat="43.56768" lon="1.25853">
        <ele>210.8</ele>
        <time>2023-04-19T16:34:36Z</time>
      </trkpt>
      <trkpt lat="43.5677" lon="1.25872">
        <ele>211</ele>
        <time>2023-04-19T16:34:39Z</time>
      </trkpt>
      <trkpt lat="43.56771" lon="1.25878">
        <ele>211.4</ele>
        <time>2023-04-19T16:34:40Z</time>
      </trkpt>
      <trkpt lat="43.56771" lon="1.25884">
        <ele>211.8</ele>
        <time>2023-04-19T16:34:41Z</time>
      </trkpt>
      <trkpt lat="43.56772" lon="1.25891">
        <ele>211.8</ele>
        <time>2023-04-19T16:34:42Z</time>
      </trkpt>
      <trkpt lat="43.56773" lon="1.25903">
        <ele>212.2</ele>
        <time>2023-04-19T16:34:44Z</time>
      </trkpt>
      <trkpt lat="43.56773" lon="1.25913">
        <ele>212.4</ele>
        <time>2023-04-19T16:34:46Z</time>
      </trkpt>
      <trkpt lat="43.56774" lon="1.25932">
        <ele>213</ele>
        <time>2023-04-19T16:34:49Z</time>
      </trkpt>
      <trkpt lat="43.56774" lon="1.25944">
        <ele>213.6</ele>
        <time>2023-04-19T16:34:51Z</time>
      </trkpt>
      <trkpt lat="43.56774" lon="1.2595">
        <ele>214</ele>
        <time>2023-04-19T16:34:52Z</time>
      </trkpt>
      <trkpt lat="43.56773" lon="1.25961">
        <ele>214.8</ele>
        <time>2023-04-19T16:34:54Z</time>
      </trkpt>
      <trkpt lat="43.56772" lon="1.25975">
        <ele>215.4</ele>
        <time>2023-04-19T16:34:57Z</time>
      </trkpt>
      <trkpt lat="43.56769" lon="1.25995">
        <ele>216.4</ele>
        <time>2023-04-19T16:35:01Z</time>
      </trkpt>
      <trkpt lat="43.56767" lon="1.26">
        <ele>216.6</ele>
        <time>2023-04-19T16:35:02Z</time>
      </trkpt>
      <trkpt lat="43.56765" lon="1.26007">
        <ele>216.6</ele>
        <time>2023-04-19T16:35:03Z</time>
      </trkpt>
      <trkpt lat="43.56764" lon="1.26013">
        <ele>216.8</ele>
        <time>2023-04-19T16:35:04Z</time>
      </trkpt>
      <trkpt lat="43.56764" lon="1.26034">
        <ele>217.2</ele>
        <time>2023-04-19T16:35:08Z</time>
      </trkpt>
      <trkpt lat="43.56765" lon="1.26039">
        <ele>217.4</ele>
        <time>2023-04-19T16:35:10Z</time>
      </trkpt>
      <trkpt lat="43.56765" lon="1.26041">
        <ele>217.4</ele>
        <time>2023-04-19T16:35:11Z</time>
      </trkpt>
      <trkpt lat="43.56764" lon="1.26044">
        <ele>217.6</ele>
        <time>2023-04-19T16:35:12Z</time>
      </trkpt>
      <trkpt lat="43.56765" lon="1.26065">
        <ele>218</ele>
        <time>2023-04-19T16:35:17Z</time>
      </trkpt>
      <trkpt lat="43.56766" lon="1.26084">
        <ele>218.2</ele>
        <time>2023-04-19T16:35:21Z</time>
      </trkpt>
      <trkpt lat="43.56768" lon="1.26101">
        <ele>218.2</ele>
        <time>2023-04-19T16:35:24Z</time>
      </trkpt>
      <trkpt lat="43.56769" lon="1.26113">
        <ele>218.4</ele>
        <time>2023-04-19T16:35:26Z</time>
      </trkpt>
      <trkpt lat="43.5677" lon="1.26125">
        <ele>218.8</ele>
        <time>2023-04-19T16:35:28Z</time>
      </trkpt>
      <trkpt lat="43.56771" lon="1.26131">
        <ele>218.8</ele>
        <time>2023-04-19T16:35:29Z</time>
      </trkpt>
      <trkpt lat="43.56772" lon="1.26149">
        <ele>219.6</ele>
        <time>2023-04-19T16:35:32Z</time>
      </trkpt>
      <trkpt lat="43.56768" lon="1.26182">
        <ele>220.8</ele>
        <time>2023-04-19T16:35:37Z</time>
      </trkpt>
      <trkpt lat="43.56767" lon="1.26189">
        <ele>221</ele>
        <time>2023-04-19T16:35:38Z</time>
      </trkpt>
      <trkpt lat="43.56764" lon="1.26222">
        <ele>221.6</ele>
        <time>2023-04-19T16:35:43Z</time>
      </trkpt>
      <trkpt lat="43.56763" lon="1.2623">
        <ele>221.6</ele>
        <time>2023-04-19T16:35:44Z</time>
      </trkpt>
      <trkpt lat="43.56759" lon="1.26269">
        <ele>222</ele>
        <time>2023-04-19T16:35:49Z</time>
      </trkpt>
      <trkpt lat="43.56757" lon="1.26284">
        <ele>222.2</ele>
        <time>2023-04-19T16:35:51Z</time>
      </trkpt>
      <trkpt lat="43.56753" lon="1.26353">
        <ele>222.6</ele>
        <time>2023-04-19T16:36:00Z</time>
      </trkpt>
      <trkpt lat="43.56757" lon="1.26409">
        <ele>223</ele>
        <time>2023-04-19T16:36:07Z</time>
      </trkpt>
      <trkpt lat="43.56759" lon="1.26425">
        <ele>223.2</ele>
        <time>2023-04-19T16:36:09Z</time>
      </trkpt>
      <trkpt lat="43.56766" lon="1.26502">
        <ele>223.2</ele>
        <time>2023-04-19T16:36:18Z</time>
      </trkpt>
      <trkpt lat="43.56775" lon="1.26578">
        <ele>223.2</ele>
        <time>2023-04-19T16:36:27Z</time>
      </trkpt>
      <trkpt lat="43.56777" lon="1.26593">
        <ele>223.2</ele>
        <time>2023-04-19T16:36:29Z</time>
      </trkpt>
      <trkpt lat="43.5678" lon="1.26606">
        <ele>223</ele>
        <time>2023-04-19T16:36:31Z</time>
      </trkpt>
      <trkpt lat="43.56786" lon="1.26615">
        <ele>223</ele>
        <time>2023-04-19T16:36:33Z</time>
      </trkpt>
      <trkpt lat="43.56803" lon="1.26623">
        <ele>222.8</ele>
        <time>2023-04-19T16:36:37Z</time>
      </trkpt>
      <trkpt lat="43.56835" lon="1.26639">
        <ele>222.8</ele>
        <time>2023-04-19T16:36:43Z</time>
      </trkpt>
      <trkpt lat="43.56866" lon="1.26656">
        <ele>222.8</ele>
        <time>2023-04-19T16:36:49Z</time>
      </trkpt>
      <trkpt lat="43.5687" lon="1.26659">
        <ele>222.8</ele>
        <time>2023-04-19T16:36:50Z</time>
      </trkpt>
      <trkpt lat="43.56883" lon="1.26675">
        <ele>222.8</ele>
        <time>2023-04-19T16:36:53Z</time>
      </trkpt>
      <trkpt lat="43.5692" lon="1.26707">
        <ele>223</ele>
        <time>2023-04-19T16:37:00Z</time>
      </trkpt>
      <trkpt lat="43.56965" lon="1.2674">
        <ele>223</ele>
        <time>2023-04-19T16:37:08Z</time>
      </trkpt>
      <trkpt lat="43.57018" lon="1.26781">
        <ele>222.6</ele>
        <time>2023-04-19T16:37:17Z</time>
      </trkpt>
      <trkpt lat="43.57066" lon="1.26816">
        <ele>222.6</ele>
        <time>2023-04-19T16:37:25Z</time>
      </trkpt>
      <trkpt lat="43.57072" lon="1.26821">
        <ele>222.4</ele>
        <time>2023-04-19T16:37:26Z</time>
      </trkpt>
      <trkpt lat="43.5712" lon="1.26857">
        <ele>222.4</ele>
        <time>2023-04-19T16:37:34Z</time>
      </trkpt>
      <trkpt lat="43.57133" lon="1.26866">
        <ele>222.4</ele>
        <time>2023-04-19T16:37:36Z</time>
      </trkpt>
      <trkpt lat="43.57182" lon="1.26904">
        <ele>222.2</ele>
        <time>2023-04-19T16:37:44Z</time>
      </trkpt>
      <trkpt lat="43.57214" lon="1.26927">
        <ele>222.2</ele>
        <time>2023-04-19T16:37:49Z</time>
      </trkpt>
      <trkpt lat="43.57233" lon="1.26941">
        <ele>222</ele>
        <time>2023-04-19T16:37:52Z</time>
      </trkpt>
      <trkpt lat="43.57283" lon="1.2698">
        <ele>222</ele>
        <time>2023-04-19T16:38:00Z</time>
      </trkpt>
      <trkpt lat="43.57316" lon="1.27015">
        <ele>222</ele>
        <time>2023-04-19T16:38:06Z</time>
      </trkpt>
      <trkpt lat="43.57318" lon="1.27032">
        <ele>222</ele>
        <time>2023-04-19T16:38:08Z</time>
      </trkpt>
      <trkpt lat="43.57316" lon="1.2704">
        <ele>222</ele>
        <time>2023-04-19T16:38:09Z</time>
      </trkpt>
      <trkpt lat="43.57302" lon="1.27067">
        <ele>222</ele>
        <time>2023-04-19T16:38:13Z</time>
      </trkpt>
      <trkpt lat="43.57288" lon="1.27097">
        <ele>222</ele>
        <time>2023-04-19T16:38:17Z</time>
      </trkpt>
      <trkpt lat="43.57283" lon="1.27114">
        <ele>222</ele>
        <time>2023-04-19T16:38:19Z</time>
      </trkpt>
      <trkpt lat="43.57279" lon="1.27166">
        <ele>222</ele>
        <time>2023-04-19T16:38:25Z</time>
      </trkpt>
      <trkpt lat="43.57274" lon="1.27226">
        <ele>222.2</ele>
        <time>2023-04-19T16:38:32Z</time>
      </trkpt>
      <trkpt lat="43.57262" lon="1.27258">
        <ele>222.2</ele>
        <time>2023-04-19T16:38:36Z</time>
      </trkpt>
      <trkpt lat="43.57232" lon="1.27324">
        <ele>222.2</ele>
        <time>2023-04-19T16:38:45Z</time>
      </trkpt>
      <trkpt lat="43.57229" lon="1.27331">
        <ele>222.2</ele>
        <time>2023-04-19T16:38:46Z</time>
      </trkpt>
      <trkpt lat="43.5723" lon="1.27345">
        <ele>222</ele>
        <time>2023-04-19T16:38:48Z</time>
      </trkpt>
      <trkpt lat="43.57238" lon="1.27357">
        <ele>221.8</ele>
        <time>2023-04-19T16:38:50Z</time>
      </trkpt>
      <trkpt lat="43.57243" lon="1.27362">
        <ele>221.8</ele>
        <time>2023-04-19T16:38:51Z</time>
      </trkpt>
      <trkpt lat="43.57277" lon="1.27384">
        <ele>221.4</ele>
        <time>2023-04-19T16:38:57Z</time>
      </trkpt>
      <trkpt lat="43.573" lon="1.27395">
        <ele>221.4</ele>
        <time>2023-04-19T16:39:02Z</time>
      </trkpt>
      <trkpt lat="43.57304" lon="1.27397">
        <ele>221.4</ele>
        <time>2023-04-19T16:39:03Z</time>
      </trkpt>
      <trkpt lat="43.57312" lon="1.27399">
        <ele>221.4</ele>
        <time>2023-04-19T16:39:05Z</time>
      </trkpt>
      <trkpt lat="43.57317" lon="1.27401">
        <ele>221.4</ele>
        <time>2023-04-19T16:39:06Z</time>
      </trkpt>
      <trkpt lat="43.5734" lon="1.27413">
        <ele>221.4</ele>
        <time>2023-04-19T16:39:11Z</time>
      </trkpt>
      <trkpt lat="43.57385" lon="1.27429">
        <ele>221.4</ele>
        <time>2023-04-19T16:39:19Z</time>
      </trkpt>
      <trkpt lat="43.57439" lon="1.27454">
        <ele>221.8</ele>
        <time>2023-04-19T16:39:28Z</time>
      </trkpt>
      <trkpt lat="43.57467" lon="1.27467">
        <ele>221.8</ele>
        <time>2023-04-19T16:39:33Z</time>
      </trkpt>
      <trkpt lat="43.57476" lon="1.27475">
        <ele>221.8</ele>
        <time>2023-04-19T16:39:35Z</time>
      </trkpt>
      <trkpt lat="43.57481" lon="1.27486">
        <ele>221.8</ele>
        <time>2023-04-19T16:39:37Z</time>
      </trkpt>
      <trkpt lat="43.57488" lon="1.27491">
        <ele>221.6</ele>
        <time>2023-04-19T16:39:39Z</time>
      </trkpt>
      <trkpt lat="43.57497" lon="1.27493">
        <ele>221.2</ele>
        <time>2023-04-19T16:39:41Z</time>
      </trkpt>
      <trkpt lat="43.57511" lon="1.27501">
        <ele>221</ele>
        <time>2023-04-19T16:39:44Z</time>
      </trkpt>
      <trkpt lat="43.57537" lon="1.27518">
        <ele>221.2</ele>
        <time>2023-04-19T16:39:49Z</time>
      </trkpt>
      <trkpt lat="43.57553" lon="1.27531">
        <ele>221.2</ele>
        <time>2023-04-19T16:39:52Z</time>
      </trkpt>
      <trkpt lat="43.57563" lon="1.27541">
        <ele>221.2</ele>
        <time>2023-04-19T16:39:54Z</time>
      </trkpt>
      <trkpt lat="43.57567" lon="1.27546">
        <ele>221.2</ele>
        <time>2023-04-19T16:39:55Z</time>
      </trkpt>
      <trkpt lat="43.57574" lon="1.27558">
        <ele>221.2</ele>
        <time>2023-04-19T16:39:57Z</time>
      </trkpt>
      <trkpt lat="43.57587" lon="1.27583">
        <ele>221</ele>
        <time>2023-04-19T16:40:01Z</time>
      </trkpt>
      <trkpt lat="43.5759" lon="1.27589">
        <ele>221</ele>
        <time>2023-04-19T16:40:02Z</time>
      </trkpt>
      <trkpt lat="43.57593" lon="1.27595">
        <ele>221</ele>
        <time>2023-04-19T16:40:03Z</time>
      </trkpt>
      <trkpt lat="43.57593" lon="1.27609">
        <ele>221</ele>
        <time>2023-04-19T16:40:05Z</time>
      </trkpt>
      <trkpt lat="43.57582" lon="1.27653">
        <ele>221</ele>
        <time>2023-04-19T16:40:11Z</time>
      </trkpt>
      <trkpt lat="43.57582" lon="1.27678">
        <ele>221</ele>
        <time>2023-04-19T16:40:14Z</time>
      </trkpt>
      <trkpt lat="43.57581" lon="1.27686">
        <ele>221</ele>
        <time>2023-04-19T16:40:15Z</time>
      </trkpt>
      <trkpt lat="43.57558" lon="1.27756">
        <ele>220.8</ele>
        <time>2023-04-19T16:40:24Z</time>
      </trkpt>
      <trkpt lat="43.57558" lon="1.27768">
        <ele>220.8</ele>
        <time>2023-04-19T16:40:26Z</time>
      </trkpt>
      <trkpt lat="43.5756" lon="1.27772">
        <ele>220.8</ele>
        <time>2023-04-19T16:40:27Z</time>
      </trkpt>
      <trkpt lat="43.57561" lon="1.27777">
        <ele>220.6</ele>
        <time>2023-04-19T16:40:28Z</time>
      </trkpt>
      <trkpt lat="43.57561" lon="1.27788">
        <ele>220.6</ele>
        <time>2023-04-19T16:40:30Z</time>
      </trkpt>
      <trkpt lat="43.57554" lon="1.27814">
        <ele>220.4</ele>
        <time>2023-04-19T16:40:34Z</time>
      </trkpt>
      <trkpt lat="43.5754" lon="1.27866">
        <ele>220.4</ele>
        <time>2023-04-19T16:40:41Z</time>
      </trkpt>
      <trkpt lat="43.57524" lon="1.27922">
        <ele>220.6</ele>
        <time>2023-04-19T16:40:48Z</time>
      </trkpt>
      <trkpt lat="43.57506" lon="1.27982">
        <ele>220.8</ele>
        <time>2023-04-19T16:40:55Z</time>
      </trkpt>
      <trkpt lat="43.57492" lon="1.28027">
        <ele>220.8</ele>
        <time>2023-04-19T16:41:01Z</time>
      </trkpt>
      <trkpt lat="43.57483" lon="1.28057">
        <ele>220.6</ele>
        <time>2023-04-19T16:41:05Z</time>
      </trkpt>
      <trkpt lat="43.57479" lon="1.28071">
        <ele>220.6</ele>
        <time>2023-04-19T16:41:07Z</time>
      </trkpt>
      <trkpt lat="43.57476" lon="1.28084">
        <ele>220.6</ele>
        <time>2023-04-19T16:41:09Z</time>
      </trkpt>
      <trkpt lat="43.57476" lon="1.28091">
        <ele>220.6</ele>
        <time>2023-04-19T16:41:10Z</time>
      </trkpt>
      <trkpt lat="43.57479" lon="1.28097">
        <ele>220.6</ele>
        <time>2023-04-19T16:41:11Z</time>
      </trkpt>
      <trkpt lat="43.57487" lon="1.28107">
        <ele>220.4</ele>
        <time>2023-04-19T16:41:13Z</time>
      </trkpt>
      <trkpt lat="43.57497" lon="1.28115">
        <ele>220.4</ele>
        <time>2023-04-19T16:41:15Z</time>
      </trkpt>
      <trkpt lat="43.57514" lon="1.28124">
        <ele>220.4</ele>
        <time>2023-04-19T16:41:18Z</time>
      </trkpt>
      <trkpt lat="43.57557" lon="1.28154">
        <ele>220.2</ele>
        <time>2023-04-19T16:41:26Z</time>
      </trkpt>
      <trkpt lat="43.57598" lon="1.28183">
        <ele>220.2</ele>
        <time>2023-04-19T16:41:33Z</time>
      </trkpt>
      <trkpt lat="43.57648" lon="1.2822">
        <ele>220.2</ele>
        <time>2023-04-19T16:41:42Z</time>
      </trkpt>
      <trkpt lat="43.57654" lon="1.28224">
        <ele>220.2</ele>
        <time>2023-04-19T16:41:43Z</time>
      </trkpt>
      <trkpt lat="43.57699" lon="1.28258">
        <ele>220.6</ele>
        <time>2023-04-19T16:41:51Z</time>
      </trkpt>
      <trkpt lat="43.57715" lon="1.28272">
        <ele>220.8</ele>
        <time>2023-04-19T16:41:54Z</time>
      </trkpt>
      <trkpt lat="43.57724" lon="1.28285">
        <ele>220.8</ele>
        <time>2023-04-19T16:41:56Z</time>
      </trkpt>
      <trkpt lat="43.57748" lon="1.28317">
        <ele>220.6</ele>
        <time>2023-04-19T16:42:01Z</time>
      </trkpt>
      <trkpt lat="43.57759" lon="1.28327">
        <ele>220.4</ele>
        <time>2023-04-19T16:42:03Z</time>
      </trkpt>
      <trkpt lat="43.57812" lon="1.28366">
        <ele>220.2</ele>
        <time>2023-04-19T16:42:12Z</time>
      </trkpt>
      <trkpt lat="43.57829" lon="1.28377">
        <ele>220.2</ele>
        <time>2023-04-19T16:42:15Z</time>
      </trkpt>
      <trkpt lat="43.57843" lon="1.28376">
        <ele>220.2</ele>
        <time>2023-04-19T16:42:17Z</time>
      </trkpt>
      <trkpt lat="43.57857" lon="1.28359">
        <ele>220</ele>
        <time>2023-04-19T16:42:20Z</time>
      </trkpt>
      <trkpt lat="43.57861" lon="1.28353">
        <ele>220</ele>
        <time>2023-04-19T16:42:21Z</time>
      </trkpt>
      <trkpt lat="43.57881" lon="1.2833">
        <ele>219.8</ele>
        <time>2023-04-19T16:42:25Z</time>
      </trkpt>
      <trkpt lat="43.57886" lon="1.28327">
        <ele>219.8</ele>
        <time>2023-04-19T16:42:26Z</time>
      </trkpt>
      <trkpt lat="43.57892" lon="1.28326">
        <ele>219.6</ele>
        <time>2023-04-19T16:42:27Z</time>
      </trkpt>
      <trkpt lat="43.57901" lon="1.28331">
        <ele>219.6</ele>
        <time>2023-04-19T16:42:29Z</time>
      </trkpt>
      <trkpt lat="43.57906" lon="1.28344">
        <ele>219.4</ele>
        <time>2023-04-19T16:42:31Z</time>
      </trkpt>
      <trkpt lat="43.57906" lon="1.28351">
        <ele>219.4</ele>
        <time>2023-04-19T16:42:32Z</time>
      </trkpt>
      <trkpt lat="43.57911" lon="1.28398">
        <ele>219.6</ele>
        <time>2023-04-19T16:42:38Z</time>
      </trkpt>
      <trkpt lat="43.57918" lon="1.28475">
        <ele>219.8</ele>
        <time>2023-04-19T16:42:47Z</time>
      </trkpt>
      <trkpt lat="43.57919" lon="1.28483">
        <ele>219.8</ele>
        <time>2023-04-19T16:42:48Z</time>
      </trkpt>
      <trkpt lat="43.57926" lon="1.2853">
        <ele>219.6</ele>
        <time>2023-04-19T16:42:55Z</time>
      </trkpt>
      <trkpt lat="43.57927" lon="1.28534">
        <ele>219.6</ele>
        <time>2023-04-19T16:42:56Z</time>
      </trkpt>
      <trkpt lat="43.5793" lon="1.28541">
        <ele>219.6</ele>
        <time>2023-04-19T16:42:58Z</time>
      </trkpt>
      <trkpt lat="43.57933" lon="1.28545">
        <ele>219.6</ele>
        <time>2023-04-19T16:42:59Z</time>
      </trkpt>
      <trkpt lat="43.57942" lon="1.2856">
        <ele>219.4</ele>
        <time>2023-04-19T16:43:02Z</time>
      </trkpt>
      <trkpt lat="43.57949" lon="1.28571">
        <ele>219.2</ele>
        <time>2023-04-19T16:43:04Z</time>
      </trkpt>
      <trkpt lat="43.57975" lon="1.28616">
        <ele>219</ele>
        <time>2023-04-19T16:43:11Z</time>
      </trkpt>
      <trkpt lat="43.58008" lon="1.28672">
        <ele>219.2</ele>
        <time>2023-04-19T16:43:19Z</time>
      </trkpt>
      <trkpt lat="43.58041" lon="1.2874">
        <ele>219.4</ele>
        <time>2023-04-19T16:43:28Z</time>
      </trkpt>
      <trkpt lat="43.58059" lon="1.28792">
        <ele>219.2</ele>
        <time>2023-04-19T16:43:34Z</time>
      </trkpt>
      <trkpt lat="43.58067" lon="1.28844">
        <ele>219.2</ele>
        <time>2023-04-19T16:43:40Z</time>
      </trkpt>
      <trkpt lat="43.58073" lon="1.28902">
        <ele>219.2</ele>
        <time>2023-04-19T16:43:47Z</time>
      </trkpt>
      <trkpt lat="43.58076" lon="1.28925">
        <ele>218.8</ele>
        <time>2023-04-19T16:43:50Z</time>
      </trkpt>
      <trkpt lat="43.58082" lon="1.28979">
        <ele>218.4</ele>
        <time>2023-04-19T16:43:57Z</time>
      </trkpt>
      <trkpt lat="43.58083" lon="1.29001">
        <ele>218.4</ele>
        <time>2023-04-19T16:44:02Z</time>
      </trkpt>
      <trkpt lat="43.58082" lon="1.29004">
        <ele>218.4</ele>
        <time>2023-04-19T16:44:05Z</time>
      </trkpt>
      <trkpt lat="43.58081" lon="1.29007">
        <ele>218.4</ele>
        <time>2023-04-19T16:44:07Z</time>
      </trkpt>
      <trkpt lat="43.58086" lon="1.29023">
        <ele>218.2</ele>
        <time>2023-04-19T16:44:11Z</time>
      </trkpt>
      <trkpt lat="43.58087" lon="1.29036">
        <ele>218</ele>
        <time>2023-04-19T16:44:13Z</time>
      </trkpt>
      <trkpt lat="43.58088" lon="1.29051">
        <ele>218</ele>
        <time>2023-04-19T16:44:15Z</time>
      </trkpt>
      <trkpt lat="43.58093" lon="1.29098">
        <ele>217.8</ele>
        <time>2023-04-19T16:44:21Z</time>
      </trkpt>
      <trkpt lat="43.58092" lon="1.29106">
        <ele>217.8</ele>
        <time>2023-04-19T16:44:22Z</time>
      </trkpt>
      <trkpt lat="43.58091" lon="1.29114">
        <ele>217.8</ele>
        <time>2023-04-19T16:44:23Z</time>
      </trkpt>
      <trkpt lat="43.58082" lon="1.29136">
        <ele>218</ele>
        <time>2023-04-19T16:44:26Z</time>
      </trkpt>
      <trkpt lat="43.58052" lon="1.29196">
        <ele>218.2</ele>
        <time>2023-04-19T16:44:35Z</time>
      </trkpt>
      <trkpt lat="43.58027" lon="1.29245">
        <ele>218.6</ele>
        <time>2023-04-19T16:44:42Z</time>
      </trkpt>
      <trkpt lat="43.58005" lon="1.29288">
        <ele>219</ele>
        <time>2023-04-19T16:44:48Z</time>
      </trkpt>
      <trkpt lat="43.57971" lon="1.29353">
        <ele>219.2</ele>
        <time>2023-04-19T16:44:57Z</time>
      </trkpt>
      <trkpt lat="43.57967" lon="1.2936">
        <ele>219.2</ele>
        <time>2023-04-19T16:44:58Z</time>
      </trkpt>
      <trkpt lat="43.57939" lon="1.2942">
        <ele>219.2</ele>
        <time>2023-04-19T16:45:06Z</time>
      </trkpt>
      <trkpt lat="43.57933" lon="1.2945">
        <ele>219</ele>
        <time>2023-04-19T16:45:10Z</time>
      </trkpt>
      <trkpt lat="43.57931" lon="1.29453">
        <ele>219</ele>
        <time>2023-04-19T16:45:11Z</time>
      </trkpt>
      <trkpt lat="43.57927" lon="1.29455">
        <ele>219</ele>
        <time>2023-04-19T16:45:12Z</time>
      </trkpt>
      <trkpt lat="43.57919" lon="1.29454">
        <ele>218.6</ele>
        <time>2023-04-19T16:45:14Z</time>
      </trkpt>
      <trkpt lat="43.57895" lon="1.29435">
        <ele>218.2</ele>
        <time>2023-04-19T16:45:19Z</time>
      </trkpt>
      <trkpt lat="43.57886" lon="1.29429">
        <ele>218</ele>
        <time>2023-04-19T16:45:21Z</time>
      </trkpt>
      <trkpt lat="43.57881" lon="1.29425">
        <ele>218</ele>
        <time>2023-04-19T16:45:22Z</time>
      </trkpt>
      <trkpt lat="43.57865" lon="1.29414">
        <ele>218</ele>
        <time>2023-04-19T16:45:25Z</time>
      </trkpt>
      <trkpt lat="43.57849" lon="1.29401">
        <ele>218</ele>
        <time>2023-04-19T16:45:28Z</time>
      </trkpt>
      <trkpt lat="43.57841" lon="1.29391">
        <ele>218</ele>
        <time>2023-04-19T16:45:30Z</time>
      </trkpt>
      <trkpt lat="43.57811" lon="1.29366">
        <ele>218.6</ele>
        <time>2023-04-19T16:45:36Z</time>
      </trkpt>
      <trkpt lat="43.57787" lon="1.29349">
        <ele>219</ele>
        <time>2023-04-19T16:45:41Z</time>
      </trkpt>
      <trkpt lat="43.57769" lon="1.29334">
        <ele>218.8</ele>
        <time>2023-04-19T16:45:45Z</time>
      </trkpt>
      <trkpt lat="43.57762" lon="1.2933">
        <ele>218.8</ele>
        <time>2023-04-19T16:45:46Z</time>
      </trkpt>
      <trkpt lat="43.57752" lon="1.29327">
        <ele>218.8</ele>
        <time>2023-04-19T16:45:48Z</time>
      </trkpt>
      <trkpt lat="43.57748" lon="1.2933">
        <ele>218.8</ele>
        <time>2023-04-19T16:45:49Z</time>
      </trkpt>
      <trkpt lat="43.57744" lon="1.29334">
        <ele>218.8</ele>
        <time>2023-04-19T16:45:50Z</time>
      </trkpt>
      <trkpt lat="43.57738" lon="1.29348">
        <ele>218.8</ele>
        <time>2023-04-19T16:45:52Z</time>
      </trkpt>
      <trkpt lat="43.57722" lon="1.29392">
        <ele>218.8</ele>
        <time>2023-04-19T16:46:00Z</time>
      </trkpt>
      <trkpt lat="43.57705" lon="1.29442">
        <ele>218</ele>
        <time>2023-04-19T16:46:07Z</time>
      </trkpt>
      <trkpt lat="43.57702" lon="1.2945">
        <ele>218</ele>
        <time>2023-04-19T16:46:08Z</time>
      </trkpt>
      <trkpt lat="43.57697" lon="1.29463">
        <ele>217.8</ele>
        <time>2023-04-19T16:46:10Z</time>
      </trkpt>
      <trkpt lat="43.57692" lon="1.29477">
        <ele>217.8</ele>
        <time>2023-04-19T16:46:12Z</time>
      </trkpt>
      <trkpt lat="43.5769" lon="1.29484">
        <ele>217.8</ele>
        <time>2023-04-19T16:46:13Z</time>
      </trkpt>
      <trkpt lat="43.57681" lon="1.29517">
        <ele>217.4</ele>
        <time>2023-04-19T16:46:18Z</time>
      </trkpt>
      <trkpt lat="43.57677" lon="1.29531">
        <ele>216.8</ele>
        <time>2023-04-19T16:46:20Z</time>
      </trkpt>
      <trkpt lat="43.57673" lon="1.2955">
        <ele>216.4</ele>
        <time>2023-04-19T16:46:23Z</time>
      </trkpt>
      <trkpt lat="43.57671" lon="1.29557">
        <ele>216.2</ele>
        <time>2023-04-19T16:46:24Z</time>
      </trkpt>
      <trkpt lat="43.57668" lon="1.29567">
        <ele>215.8</ele>
        <time>2023-04-19T16:46:26Z</time>
      </trkpt>
      <trkpt lat="43.57669" lon="1.29573">
        <ele>215.4</ele>
        <time>2023-04-19T16:46:28Z</time>
      </trkpt>
      <trkpt lat="43.57671" lon="1.29575">
        <ele>215.4</ele>
        <time>2023-04-19T16:46:29Z</time>
      </trkpt>
      <trkpt lat="43.57675" lon="1.29578">
        <ele>215</ele>
        <time>2023-04-19T16:46:32Z</time>
      </trkpt>
      <trkpt lat="43.57688" lon="1.29588">
        <ele>214.8</ele>
        <time>2023-04-19T16:46:36Z</time>
      </trkpt>
      <trkpt lat="43.57692" lon="1.29591">
        <ele>214.8</ele>
        <time>2023-04-19T16:46:37Z</time>
      </trkpt>
      <trkpt lat="43.57707" lon="1.29603">
        <ele>214.6</ele>
        <time>2023-04-19T16:46:41Z</time>
      </trkpt>
      <trkpt lat="43.57716" lon="1.29613">
        <ele>214.6</ele>
        <time>2023-04-19T16:46:44Z</time>
      </trkpt>
      <trkpt lat="43.57717" lon="1.29616">
        <ele>214.6</ele>
        <time>2023-04-19T16:46:45Z</time>
      </trkpt>
      <trkpt lat="43.57716" lon="1.29621">
        <ele>214.8</ele>
        <time>2023-04-19T16:46:46Z</time>
      </trkpt>
      <trkpt lat="43.5771" lon="1.29637">
        <ele>215.2</ele>
        <time>2023-04-19T16:46:49Z</time>
      </trkpt>
      <trkpt lat="43.57708" lon="1.29641">
        <ele>215.6</ele>
        <time>2023-04-19T16:46:52Z</time>
      </trkpt>
      <trkpt lat="43.57705" lon="1.29651">
        <ele>215.8</ele>
        <time>2023-04-19T16:46:57Z</time>
      </trkpt>
      <trkpt lat="43.57703" lon="1.29654">
        <ele>215.8</ele>
        <time>2023-04-19T16:46:58Z</time>
      </trkpt>
      <trkpt lat="43.57696" lon="1.29664">
        <ele>215.6</ele>
        <time>2023-04-19T16:47:01Z</time>
      </trkpt>
      <trkpt lat="43.5769" lon="1.29673">
        <ele>215.6</ele>
        <time>2023-04-19T16:47:03Z</time>
      </trkpt>
      <trkpt lat="43.57687" lon="1.2968">
        <ele>215.4</ele>
        <time>2023-04-19T16:47:05Z</time>
      </trkpt>
      <trkpt lat="43.57682" lon="1.29694">
        <ele>215.2</ele>
        <time>2023-04-19T16:47:07Z</time>
      </trkpt>
      <trkpt lat="43.57679" lon="1.29706">
        <ele>215.2</ele>
        <time>2023-04-19T16:47:09Z</time>
      </trkpt>
      <trkpt lat="43.57677" lon="1.29719">
        <ele>214.8</ele>
        <time>2023-04-19T16:47:11Z</time>
      </trkpt>
      <trkpt lat="43.57681" lon="1.29728">
        <ele>214</ele>
        <time>2023-04-19T16:47:13Z</time>
      </trkpt>
      <trkpt lat="43.57684" lon="1.29731">
        <ele>214</ele>
        <time>2023-04-19T16:47:14Z</time>
      </trkpt>
      <trkpt lat="43.57693" lon="1.29742">
        <ele>214.6</ele>
        <time>2023-04-19T16:47:19Z</time>
      </trkpt>
      <trkpt lat="43.57688" lon="1.29748">
        <ele>215</ele>
        <time>2023-04-19T16:47:22Z</time>
      </trkpt>
      <trkpt lat="43.57685" lon="1.29752">
        <ele>215.2</ele>
        <time>2023-04-19T16:47:23Z</time>
      </trkpt>
      <trkpt lat="43.57677" lon="1.29764">
        <ele>215.2</ele>
        <time>2023-04-19T16:47:25Z</time>
      </trkpt>
      <trkpt lat="43.57671" lon="1.29774">
        <ele>215.2</ele>
        <time>2023-04-19T16:47:27Z</time>
      </trkpt>
      <trkpt lat="43.57668" lon="1.29779">
        <ele>215.2</ele>
        <time>2023-04-19T16:47:28Z</time>
      </trkpt>
      <trkpt lat="43.57661" lon="1.2979">
        <ele>214.4</ele>
        <time>2023-04-19T16:47:30Z</time>
      </trkpt>
      <trkpt lat="43.57658" lon="1.29797">
        <ele>214</ele>
        <time>2023-04-19T16:47:31Z</time>
      </trkpt>
      <trkpt lat="43.5765" lon="1.29816">
        <ele>213.6</ele>
        <time>2023-04-19T16:47:33Z</time>
      </trkpt>
      <trkpt lat="43.57646" lon="1.29823">
        <ele>213.4</ele>
        <time>2023-04-19T16:47:34Z</time>
      </trkpt>
      <trkpt lat="43.5764" lon="1.29834">
        <ele>212.2</ele>
        <time>2023-04-19T16:47:35Z</time>
      </trkpt>
      <trkpt lat="43.57633" lon="1.29851">
        <ele>211</ele>
        <time>2023-04-19T16:47:37Z</time>
      </trkpt>
      <trkpt lat="43.57629" lon="1.29866">
        <ele>209.6</ele>
        <time>2023-04-19T16:47:39Z</time>
      </trkpt>
      <trkpt lat="43.57628" lon="1.29873">
        <ele>208.4</ele>
        <time>2023-04-19T16:47:40Z</time>
      </trkpt>
      <trkpt lat="43.57629" lon="1.29875">
        <ele>207.8</ele>
        <time>2023-04-19T16:47:41Z</time>
      </trkpt>
      <trkpt lat="43.57631" lon="1.2988">
        <ele>207</ele>
        <time>2023-04-19T16:47:42Z</time>
      </trkpt>
      <trkpt lat="43.57633" lon="1.29884">
        <ele>206.2</ele>
        <time>2023-04-19T16:47:43Z</time>
      </trkpt>
      <trkpt lat="43.57633" lon="1.29886">
        <ele>206</ele>
        <time>2023-04-19T16:47:44Z</time>
      </trkpt>
      <trkpt lat="43.57634" lon="1.29892">
        <ele>204.6</ele>
        <time>2023-04-19T16:47:46Z</time>
      </trkpt>
      <trkpt lat="43.57634" lon="1.29894">
        <ele>204.4</ele>
        <time>2023-04-19T16:47:47Z</time>
      </trkpt>
      <trkpt lat="43.57634" lon="1.29908">
        <ele>203.6</ele>
        <time>2023-04-19T16:47:52Z</time>
      </trkpt>
      <trkpt lat="43.57634" lon="1.29911">
        <ele>203.6</ele>
        <time>2023-04-19T16:47:53Z</time>
      </trkpt>
      <trkpt lat="43.57635" lon="1.29913">
        <ele>203.4</ele>
        <time>2023-04-19T16:47:54Z</time>
      </trkpt>
      <trkpt lat="43.57641" lon="1.29924">
        <ele>203</ele>
        <time>2023-04-19T16:47:58Z</time>
      </trkpt>
      <trkpt lat="43.57642" lon="1.29925">
        <ele>202.8</ele>
        <time>2023-04-19T16:47:59Z</time>
      </trkpt>
      <trkpt lat="43.57644" lon="1.29927">
        <ele>202.8</ele>
        <time>2023-04-19T16:48:00Z</time>
      </trkpt>
      <trkpt lat="43.57645" lon="1.29934">
        <ele>202.6</ele>
        <time>2023-04-19T16:48:02Z</time>
      </trkpt>
      <trkpt lat="43.57645" lon="1.29937">
        <ele>202.4</ele>
        <time>2023-04-19T16:48:03Z</time>
      </trkpt>
      <trkpt lat="43.57647" lon="1.29946">
        <ele>202.2</ele>
        <time>2023-04-19T16:48:05Z</time>
      </trkpt>
      <trkpt lat="43.57644" lon="1.29958">
        <ele>202</ele>
        <time>2023-04-19T16:48:08Z</time>
      </trkpt>
      <trkpt lat="43.57643" lon="1.29976">
        <ele>201.6</ele>
        <time>2023-04-19T16:48:11Z</time>
      </trkpt>
      <trkpt lat="43.57649" lon="1.29984">
        <ele>201.4</ele>
        <time>2023-04-19T16:48:13Z</time>
      </trkpt>
      <trkpt lat="43.57654" lon="1.29988">
        <ele>201.2</ele>
        <time>2023-04-19T16:48:14Z</time>
      </trkpt>
      <trkpt lat="43.57657" lon="1.29992">
        <ele>200.8</ele>
        <time>2023-04-19T16:48:15Z</time>
      </trkpt>
      <trkpt lat="43.57664" lon="1.30001">
        <ele>200.2</ele>
        <time>2023-04-19T16:48:17Z</time>
      </trkpt>
      <trkpt lat="43.57668" lon="1.30006">
        <ele>200</ele>
        <time>2023-04-19T16:48:18Z</time>
      </trkpt>
      <trkpt lat="43.57673" lon="1.30016">
        <ele>199.6</ele>
        <time>2023-04-19T16:48:20Z</time>
      </trkpt>
      <trkpt lat="43.57673" lon="1.30022">
        <ele>199.6</ele>
        <time>2023-04-19T16:48:21Z</time>
      </trkpt>
      <trkpt lat="43.57673" lon="1.30048">
        <ele>199.2</ele>
        <time>2023-04-19T16:48:25Z</time>
      </trkpt>
      <trkpt lat="43.57673" lon="1.30051">
        <ele>199.2</ele>
        <time>2023-04-19T16:48:26Z</time>
      </trkpt>
      <trkpt lat="43.57674" lon="1.30056">
        <ele>198.8</ele>
        <time>2023-04-19T16:48:27Z</time>
      </trkpt>
      <trkpt lat="43.57671" lon="1.30065">
        <ele>198.4</ele>
        <time>2023-04-19T16:48:29Z</time>
      </trkpt>
      <trkpt lat="43.57664" lon="1.30076">
        <ele>198.2</ele>
        <time>2023-04-19T16:48:31Z</time>
      </trkpt>
      <trkpt lat="43.57658" lon="1.30094">
        <ele>197.8</ele>
        <time>2023-04-19T16:48:34Z</time>
      </trkpt>
      <trkpt lat="43.57652" lon="1.30109">
        <ele>197.6</ele>
        <time>2023-04-19T16:48:36Z</time>
      </trkpt>
      <trkpt lat="43.57636" lon="1.30136">
        <ele>197.2</ele>
        <time>2023-04-19T16:48:40Z</time>
      </trkpt>
      <trkpt lat="43.57621" lon="1.30163">
        <ele>196.8</ele>
        <time>2023-04-19T16:48:44Z</time>
      </trkpt>
      <trkpt lat="43.57617" lon="1.3017">
        <ele>196.6</ele>
        <time>2023-04-19T16:48:45Z</time>
      </trkpt>
      <trkpt lat="43.57613" lon="1.30174">
        <ele>196.4</ele>
        <time>2023-04-19T16:48:46Z</time>
      </trkpt>
      <trkpt lat="43.57609" lon="1.30176">
        <ele>196</ele>
        <time>2023-04-19T16:48:47Z</time>
      </trkpt>
      <trkpt lat="43.57601" lon="1.30181">
        <ele>195.8</ele>
        <time>2023-04-19T16:48:49Z</time>
      </trkpt>
      <trkpt lat="43.57599" lon="1.30182">
        <ele>195.6</ele>
        <time>2023-04-19T16:48:50Z</time>
      </trkpt>
      <trkpt lat="43.57596" lon="1.30183">
        <ele>195.6</ele>
        <time>2023-04-19T16:48:51Z</time>
      </trkpt>
      <trkpt lat="43.57594" lon="1.30183">
        <ele>195.6</ele>
        <time>2023-04-19T16:48:52Z</time>
      </trkpt>
      <trkpt lat="43.5759" lon="1.30186">
        <ele>195.6</ele>
        <time>2023-04-19T16:48:54Z</time>
      </trkpt>
      <trkpt lat="43.5759" lon="1.30193">
        <ele>195.4</ele>
        <time>2023-04-19T16:48:56Z</time>
      </trkpt>
      <trkpt lat="43.57589" lon="1.30203">
        <ele>195.4</ele>
        <time>2023-04-19T16:48:58Z</time>
      </trkpt>
      <trkpt lat="43.57585" lon="1.30211">
        <ele>195.4</ele>
        <time>2023-04-19T16:49:00Z</time>
      </trkpt>
      <trkpt lat="43.57579" lon="1.30228">
        <ele>195</ele>
        <time>2023-04-19T16:49:04Z</time>
      </trkpt>
      <trkpt lat="43.57577" lon="1.30241">
        <ele>194.8</ele>
        <time>2023-04-19T16:49:06Z</time>
      </trkpt>
      <trkpt lat="43.57574" lon="1.30247">
        <ele>194.8</ele>
        <time>2023-04-19T16:49:07Z</time>
      </trkpt>
      <trkpt lat="43.57571" lon="1.30251">
        <ele>194.8</ele>
        <time>2023-04-19T16:49:08Z</time>
      </trkpt>
      <trkpt lat="43.57565" lon="1.30263">
        <ele>194.8</ele>
        <time>2023-04-19T16:49:10Z</time>
      </trkpt>
      <trkpt lat="43.57558" lon="1.30276">
        <ele>194.8</ele>
        <time>2023-04-19T16:49:12Z</time>
      </trkpt>
      <trkpt lat="43.57547" lon="1.30295">
        <ele>194.6</ele>
        <time>2023-04-19T16:49:15Z</time>
      </trkpt>
      <trkpt lat="43.57536" lon="1.30312">
        <ele>194.4</ele>
        <time>2023-04-19T16:49:18Z</time>
      </trkpt>
      <trkpt lat="43.57509" lon="1.30359">
        <ele>194</ele>
        <time>2023-04-19T16:49:25Z</time>
      </trkpt>
      <trkpt lat="43.5751" lon="1.3037">
        <ele>194</ele>
        <time>2023-04-19T16:49:27Z</time>
      </trkpt>
      <trkpt lat="43.57519" lon="1.30388">
        <ele>194.4</ele>
        <time>2023-04-19T16:49:30Z</time>
      </trkpt>
      <trkpt lat="43.5752" lon="1.30402">
        <ele>194.4</ele>
        <time>2023-04-19T16:49:32Z</time>
      </trkpt>
      <trkpt lat="43.57515" lon="1.30418">
        <ele>194.4</ele>
        <time>2023-04-19T16:49:34Z</time>
      </trkpt>
      <trkpt lat="43.57509" lon="1.3043">
        <ele>194.4</ele>
        <time>2023-04-19T16:49:36Z</time>
      </trkpt>
      <trkpt lat="43.57483" lon="1.30479">
        <ele>194.4</ele>
        <time>2023-04-19T16:49:43Z</time>
      </trkpt>
      <trkpt lat="43.57463" lon="1.30514">
        <ele>194.2</ele>
        <time>2023-04-19T16:49:48Z</time>
      </trkpt>
      <trkpt lat="43.57461" lon="1.3052">
        <ele>194.2</ele>
        <time>2023-04-19T16:49:49Z</time>
      </trkpt>
      <trkpt lat="43.57457" lon="1.30528">
        <ele>194.2</ele>
        <time>2023-04-19T16:49:50Z</time>
      </trkpt>
      <trkpt lat="43.57446" lon="1.30546">
        <ele>194</ele>
        <time>2023-04-19T16:49:53Z</time>
      </trkpt>
      <trkpt lat="43.57442" lon="1.30549">
        <ele>193.8</ele>
        <time>2023-04-19T16:49:54Z</time>
      </trkpt>
      <trkpt lat="43.57439" lon="1.30549">
        <ele>193.8</ele>
        <time>2023-04-19T16:49:55Z</time>
      </trkpt>
      <trkpt lat="43.57432" lon="1.30545">
        <ele>193.6</ele>
        <time>2023-04-19T16:49:57Z</time>
      </trkpt>
      <trkpt lat="43.57426" lon="1.30542">
        <ele>193.4</ele>
        <time>2023-04-19T16:49:59Z</time>
      </trkpt>
      <trkpt lat="43.57422" lon="1.30543">
        <ele>193.4</ele>
        <time>2023-04-19T16:50:01Z</time>
      </trkpt>
      <trkpt lat="43.57426" lon="1.30551">
        <ele>193.2</ele>
        <time>2023-04-19T16:50:04Z</time>
      </trkpt>
      <trkpt lat="43.57432" lon="1.30556">
        <ele>193.2</ele>
        <time>2023-04-19T16:50:06Z</time>
      </trkpt>
      <trkpt lat="43.57442" lon="1.30568">
        <ele>193.2</ele>
        <time>2023-04-19T16:50:09Z</time>
      </trkpt>
      <trkpt lat="43.57469" lon="1.30596">
        <ele>193</ele>
        <time>2023-04-19T16:50:15Z</time>
      </trkpt>
      <trkpt lat="43.57503" lon="1.30631">
        <ele>192.8</ele>
        <time>2023-04-19T16:50:22Z</time>
      </trkpt>
      <trkpt lat="43.57544" lon="1.30677">
        <ele>193</ele>
        <time>2023-04-19T16:50:30Z</time>
      </trkpt>
      <trkpt lat="43.57588" lon="1.30733">
        <ele>193</ele>
        <time>2023-04-19T16:50:39Z</time>
      </trkpt>
      <trkpt lat="43.57602" lon="1.30751">
        <ele>193</ele>
        <time>2023-04-19T16:50:42Z</time>
      </trkpt>
      <trkpt lat="43.57643" lon="1.30803">
        <ele>192.8</ele>
        <time>2023-04-19T16:50:50Z</time>
      </trkpt>
      <trkpt lat="43.57668" lon="1.30834">
        <ele>192.8</ele>
        <time>2023-04-19T16:50:55Z</time>
      </trkpt>
      <trkpt lat="43.5771" lon="1.30878">
        <ele>192.8</ele>
        <time>2023-04-19T16:51:03Z</time>
      </trkpt>
      <trkpt lat="43.57727" lon="1.30894">
        <ele>193</ele>
        <time>2023-04-19T16:51:06Z</time>
      </trkpt>
      <trkpt lat="43.5777" lon="1.30939">
        <ele>193</ele>
        <time>2023-04-19T16:51:14Z</time>
      </trkpt>
      <trkpt lat="43.57796" lon="1.30968">
        <ele>193</ele>
        <time>2023-04-19T16:51:19Z</time>
      </trkpt>
      <trkpt lat="43.57833" lon="1.31006">
        <ele>192.8</ele>
        <time>2023-04-19T16:51:26Z</time>
      </trkpt>
      <trkpt lat="43.5784" lon="1.31013">
        <ele>192.8</ele>
        <time>2023-04-19T16:51:27Z</time>
      </trkpt>
      <trkpt lat="43.57885" lon="1.31059">
        <ele>192.6</ele>
        <time>2023-04-19T16:51:36Z</time>
      </trkpt>
      <trkpt lat="43.5789" lon="1.31064">
        <ele>192.6</ele>
        <time>2023-04-19T16:51:37Z</time>
      </trkpt>
      <trkpt lat="43.57921" lon="1.31094">
        <ele>192.4</ele>
        <time>2023-04-19T16:51:43Z</time>
      </trkpt>
      <trkpt lat="43.5793" lon="1.31097">
        <ele>192.4</ele>
        <time>2023-04-19T16:51:45Z</time>
      </trkpt>
      <trkpt lat="43.57936" lon="1.31095">
        <ele>192.4</ele>
        <time>2023-04-19T16:51:47Z</time>
      </trkpt>
      <trkpt lat="43.57941" lon="1.31088">
        <ele>192.4</ele>
        <time>2023-04-19T16:51:49Z</time>
      </trkpt>
      <trkpt lat="43.5796" lon="1.31061">
        <ele>192.6</ele>
        <time>2023-04-19T16:51:55Z</time>
      </trkpt>
      <trkpt lat="43.57977" lon="1.31036">
        <ele>192.6</ele>
        <time>2023-04-19T16:52:01Z</time>
      </trkpt>
      <trkpt lat="43.57982" lon="1.3103">
        <ele>192.6</ele>
        <time>2023-04-19T16:52:03Z</time>
      </trkpt>
      <trkpt lat="43.57988" lon="1.31027">
        <ele>192.8</ele>
        <time>2023-04-19T16:52:05Z</time>
      </trkpt>
      <trkpt lat="43.58006" lon="1.31019">
        <ele>193</ele>
        <time>2023-04-19T16:52:10Z</time>
      </trkpt>
      <trkpt lat="43.58031" lon="1.31005">
        <ele>193.4</ele>
        <time>2023-04-19T16:52:16Z</time>
      </trkpt>
      <trkpt lat="43.58035" lon="1.31004">
        <ele>193.4</ele>
        <time>2023-04-19T16:52:17Z</time>
      </trkpt>
      <trkpt lat="43.58076" lon="1.30991">
        <ele>194.2</ele>
        <time>2023-04-19T16:52:26Z</time>
      </trkpt>
      <trkpt lat="43.58116" lon="1.30979">
        <ele>195.2</ele>
        <time>2023-04-19T16:52:35Z</time>
      </trkpt>
      <trkpt lat="43.58135" lon="1.30971">
        <ele>196</ele>
        <time>2023-04-19T16:52:40Z</time>
      </trkpt>
      <trkpt lat="43.58149" lon="1.30962">
        <ele>196.6</ele>
        <time>2023-04-19T16:52:44Z</time>
      </trkpt>
      <trkpt lat="43.5816" lon="1.30954">
        <ele>197.2</ele>
        <time>2023-04-19T16:52:47Z</time>
      </trkpt>
      <trkpt lat="43.58165" lon="1.3095">
        <ele>197.8</ele>
        <time>2023-04-19T16:52:49Z</time>
      </trkpt>
      <trkpt lat="43.58174" lon="1.30944">
        <ele>199.4</ele>
        <time>2023-04-19T16:52:52Z</time>
      </trkpt>
      <trkpt lat="43.58182" lon="1.30941">
        <ele>200.4</ele>
        <time>2023-04-19T16:52:55Z</time>
      </trkpt>
      <trkpt lat="43.5819" lon="1.30938">
        <ele>201.6</ele>
        <time>2023-04-19T16:52:58Z</time>
      </trkpt>
      <trkpt lat="43.58201" lon="1.30933">
        <ele>202.8</ele>
        <time>2023-04-19T16:53:01Z</time>
      </trkpt>
      <trkpt lat="43.5821" lon="1.30932">
        <ele>203.4</ele>
        <time>2023-04-19T16:53:04Z</time>
      </trkpt>
      <trkpt lat="43.58215" lon="1.30936">
        <ele>204</ele>
        <time>2023-04-19T16:53:06Z</time>
      </trkpt>
      <trkpt lat="43.58224" lon="1.30948">
        <ele>205</ele>
        <time>2023-04-19T16:53:10Z</time>
      </trkpt>
      <trkpt lat="43.58233" lon="1.30961">
        <ele>205.4</ele>
        <time>2023-04-19T16:53:15Z</time>
      </trkpt>
      <trkpt lat="43.5824" lon="1.30978">
        <ele>206.2</ele>
        <time>2023-04-19T16:53:19Z</time>
      </trkpt>
      <trkpt lat="43.58242" lon="1.30983">
        <ele>206.4</ele>
        <time>2023-04-19T16:53:20Z</time>
      </trkpt>
      <trkpt lat="43.58249" lon="1.30997">
        <ele>206.8</ele>
        <time>2023-04-19T16:53:23Z</time>
      </trkpt>
      <trkpt lat="43.58255" lon="1.3101">
        <ele>207</ele>
        <time>2023-04-19T16:53:26Z</time>
      </trkpt>
      <trkpt lat="43.5826" lon="1.31019">
        <ele>207.4</ele>
        <time>2023-04-19T16:53:28Z</time>
      </trkpt>
      <trkpt lat="43.58279" lon="1.31059">
        <ele>208.6</ele>
        <time>2023-04-19T16:53:36Z</time>
      </trkpt>
      <trkpt lat="43.58292" lon="1.31087">
        <ele>209.6</ele>
        <time>2023-04-19T16:53:42Z</time>
      </trkpt>
      <trkpt lat="43.58295" lon="1.31092">
        <ele>209.8</ele>
        <time>2023-04-19T16:53:43Z</time>
      </trkpt>
      <trkpt lat="43.58305" lon="1.31114">
        <ele>210.6</ele>
        <time>2023-04-19T16:53:48Z</time>
      </trkpt>
      <trkpt lat="43.58312" lon="1.31128">
        <ele>210.8</ele>
        <time>2023-04-19T16:53:51Z</time>
      </trkpt>
      <trkpt lat="43.58324" lon="1.31151">
        <ele>211.6</ele>
        <time>2023-04-19T16:53:56Z</time>
      </trkpt>
      <trkpt lat="43.5833" lon="1.31165">
        <ele>212</ele>
        <time>2023-04-19T16:53:59Z</time>
      </trkpt>
      <trkpt lat="43.58338" lon="1.31181">
        <ele>212.8</ele>
        <time>2023-04-19T16:54:03Z</time>
      </trkpt>
      <trkpt lat="43.58344" lon="1.31193">
        <ele>213.8</ele>
        <time>2023-04-19T16:54:06Z</time>
      </trkpt>
      <trkpt lat="43.58348" lon="1.31201">
        <ele>214.2</ele>
        <time>2023-04-19T16:54:08Z</time>
      </trkpt>
      <trkpt lat="43.58353" lon="1.31206">
        <ele>214.4</ele>
        <time>2023-04-19T16:54:10Z</time>
      </trkpt>
      <trkpt lat="43.5836" lon="1.31205">
        <ele>214.6</ele>
        <time>2023-04-19T16:54:12Z</time>
      </trkpt>
      <trkpt lat="43.58363" lon="1.31203">
        <ele>215</ele>
        <time>2023-04-19T16:54:13Z</time>
      </trkpt>
      <trkpt lat="43.58384" lon="1.31186">
        <ele>215.4</ele>
        <time>2023-04-19T16:54:19Z</time>
      </trkpt>
      <trkpt lat="43.58402" lon="1.31169">
        <ele>216</ele>
        <time>2023-04-19T16:54:24Z</time>
      </trkpt>
      <trkpt lat="43.5841" lon="1.31161">
        <ele>216.4</ele>
        <time>2023-04-19T16:54:26Z</time>
      </trkpt>
      <trkpt lat="43.58438" lon="1.31127">
        <ele>216.8</ele>
        <time>2023-04-19T16:54:33Z</time>
      </trkpt>
      <trkpt lat="43.58475" lon="1.31087">
        <ele>216.4</ele>
        <time>2023-04-19T16:54:41Z</time>
      </trkpt>
      <trkpt lat="43.58503" lon="1.31058">
        <ele>216</ele>
        <time>2023-04-19T16:54:48Z</time>
      </trkpt>
      <trkpt lat="43.58505" lon="1.31057">
        <ele>216</ele>
        <time>2023-04-19T16:54:49Z</time>
      </trkpt>
      <trkpt lat="43.58506" lon="1.31056">
        <ele>216</ele>
        <time>2023-04-19T16:54:51Z</time>
      </trkpt>
      <trkpt lat="43.58511" lon="1.31067">
        <ele>216</ele>
        <time>2023-04-19T16:54:55Z</time>
      </trkpt>
      <trkpt lat="43.58522" lon="1.31092">
        <ele>216</ele>
        <time>2023-04-19T16:55:00Z</time>
      </trkpt>
      <trkpt lat="43.58537" lon="1.31122">
        <ele>216</ele>
        <time>2023-04-19T16:55:05Z</time>
      </trkpt>
      <trkpt lat="43.58553" lon="1.31156">
        <ele>215.4</ele>
        <time>2023-04-19T16:55:11Z</time>
      </trkpt>
      <trkpt lat="43.58556" lon="1.31158">
        <ele>215.4</ele>
        <time>2023-04-19T16:55:12Z</time>
      </trkpt>
      <trkpt lat="43.58561" lon="1.31156">
        <ele>215.2</ele>
        <time>2023-04-19T16:55:14Z</time>
      </trkpt>
      <trkpt lat="43.58572" lon="1.31165">
        <ele>215</ele>
        <time>2023-04-19T16:55:17Z</time>
      </trkpt>
      <trkpt lat="43.58575" lon="1.31171">
        <ele>215</ele>
        <time>2023-04-19T16:55:18Z</time>
      </trkpt>
      <trkpt lat="43.58584" lon="1.31188">
        <ele>215</ele>
        <time>2023-04-19T16:55:21Z</time>
      </trkpt>
      <trkpt lat="43.58586" lon="1.31194">
        <ele>214.8</ele>
        <time>2023-04-19T16:55:22Z</time>
      </trkpt>
      <trkpt lat="43.586" lon="1.31225">
        <ele>215</ele>
        <time>2023-04-19T16:55:27Z</time>
      </trkpt>
      <trkpt lat="43.58604" lon="1.31229">
        <ele>215</ele>
        <time>2023-04-19T16:55:28Z</time>
      </trkpt>
      <trkpt lat="43.58609" lon="1.31232">
        <ele>215</ele>
        <time>2023-04-19T16:55:29Z</time>
      </trkpt>
      <trkpt lat="43.58629" lon="1.31239">
        <ele>215.2</ele>
        <time>2023-04-19T16:55:33Z</time>
      </trkpt>
      <trkpt lat="43.58634" lon="1.31241">
        <ele>215.4</ele>
        <time>2023-04-19T16:55:34Z</time>
      </trkpt>
      <trkpt lat="43.58639" lon="1.3125">
        <ele>215.6</ele>
        <time>2023-04-19T16:55:36Z</time>
      </trkpt>
      <trkpt lat="43.58642" lon="1.31261">
        <ele>215.8</ele>
        <time>2023-04-19T16:55:38Z</time>
      </trkpt>
      <trkpt lat="43.58644" lon="1.31266">
        <ele>215.8</ele>
        <time>2023-04-19T16:55:39Z</time>
      </trkpt>
      <trkpt lat="43.58649" lon="1.31269">
        <ele>215.8</ele>
        <time>2023-04-19T16:55:40Z</time>
      </trkpt>
      <trkpt lat="43.58658" lon="1.31274">
        <ele>215.8</ele>
        <time>2023-04-19T16:55:42Z</time>
      </trkpt>
      <trkpt lat="43.58663" lon="1.31276">
        <ele>215.8</ele>
        <time>2023-04-19T16:55:43Z</time>
      </trkpt>
      <trkpt lat="43.58689" lon="1.31285">
        <ele>216.2</ele>
        <time>2023-04-19T16:55:48Z</time>
      </trkpt>
      <trkpt lat="43.58696" lon="1.31288">
        <ele>216.2</ele>
        <time>2023-04-19T16:55:50Z</time>
      </trkpt>
      <trkpt lat="43.58704" lon="1.31289">
        <ele>216.2</ele>
        <time>2023-04-19T16:55:53Z</time>
      </trkpt>
      <trkpt lat="43.58707" lon="1.31287">
        <ele>216.2</ele>
        <time>2023-04-19T16:55:54Z</time>
      </trkpt>
      <trkpt lat="43.58709" lon="1.31283">
        <ele>216.2</ele>
        <time>2023-04-19T16:55:55Z</time>
      </trkpt>
      <trkpt lat="43.5871" lon="1.3127">
        <ele>216</ele>
        <time>2023-04-19T16:55:57Z</time>
      </trkpt>
      <trkpt lat="43.58714" lon="1.31232">
        <ele>216</ele>
        <time>2023-04-19T16:56:02Z</time>
      </trkpt>
      <trkpt lat="43.58717" lon="1.31171">
        <ele>215.6</ele>
        <time>2023-04-19T16:56:09Z</time>
      </trkpt>
      <trkpt lat="43.58715" lon="1.31113">
        <ele>215.8</ele>
        <time>2023-04-19T16:56:16Z</time>
      </trkpt>
      <trkpt lat="43.58718" lon="1.31059">
        <ele>216.2</ele>
        <time>2023-04-19T16:56:23Z</time>
      </trkpt>
      <trkpt lat="43.58719" lon="1.31046">
        <ele>216.2</ele>
        <time>2023-04-19T16:56:25Z</time>
      </trkpt>
      <trkpt lat="43.58724" lon="1.3104">
        <ele>216.4</ele>
        <time>2023-04-19T16:56:27Z</time>
      </trkpt>
      <trkpt lat="43.58736" lon="1.31048">
        <ele>216.6</ele>
        <time>2023-04-19T16:56:30Z</time>
      </trkpt>
      <trkpt lat="43.5874" lon="1.31051">
        <ele>216.6</ele>
        <time>2023-04-19T16:56:31Z</time>
      </trkpt>
      <trkpt lat="43.58755" lon="1.31058">
        <ele>216.6</ele>
        <time>2023-04-19T16:56:34Z</time>
      </trkpt>
      <trkpt lat="43.5876" lon="1.3106">
        <ele>216.6</ele>
        <time>2023-04-19T16:56:35Z</time>
      </trkpt>
      <trkpt lat="43.58771" lon="1.31063">
        <ele>216.4</ele>
        <time>2023-04-19T16:56:37Z</time>
      </trkpt>
      <trkpt lat="43.58782" lon="1.31063">
        <ele>216.4</ele>
        <time>2023-04-19T16:56:39Z</time>
      </trkpt>
      <trkpt lat="43.58788" lon="1.31065">
        <ele>216.4</ele>
        <time>2023-04-19T16:56:40Z</time>
      </trkpt>
      <trkpt lat="43.58793" lon="1.31068">
        <ele>216.4</ele>
        <time>2023-04-19T16:56:41Z</time>
      </trkpt>
      <trkpt lat="43.5881" lon="1.31081">
        <ele>216.4</ele>
        <time>2023-04-19T16:56:44Z</time>
      </trkpt>
      <trkpt lat="43.58844" lon="1.3111">
        <ele>216.2</ele>
        <time>2023-04-19T16:56:50Z</time>
      </trkpt>
      <trkpt lat="43.58894" lon="1.31157">
        <ele>216</ele>
        <time>2023-04-19T16:56:59Z</time>
      </trkpt>
      <trkpt lat="43.589" lon="1.31162">
        <ele>216</ele>
        <time>2023-04-19T16:57:00Z</time>
      </trkpt>
      <trkpt lat="43.58932" lon="1.3119">
        <ele>215.8</ele>
        <time>2023-04-19T16:57:07Z</time>
      </trkpt>
      <trkpt lat="43.58935" lon="1.31191">
        <ele>215.8</ele>
        <time>2023-04-19T16:57:08Z</time>
      </trkpt>
      <trkpt lat="43.58941" lon="1.31186">
        <ele>215.6</ele>
        <time>2023-04-19T16:57:10Z</time>
      </trkpt>
      <trkpt lat="43.58955" lon="1.31157">
        <ele>215.4</ele>
        <time>2023-04-19T16:57:15Z</time>
      </trkpt>
      <trkpt lat="43.58976" lon="1.31113">
        <ele>215.4</ele>
        <time>2023-04-19T16:57:21Z</time>
      </trkpt>
      <trkpt lat="43.58984" lon="1.31098">
        <ele>215.4</ele>
        <time>2023-04-19T16:57:23Z</time>
      </trkpt>
      <trkpt lat="43.58994" lon="1.31088">
        <ele>215.4</ele>
        <time>2023-04-19T16:57:25Z</time>
      </trkpt>
      <trkpt lat="43.59008" lon="1.31086">
        <ele>215.4</ele>
        <time>2023-04-19T16:57:27Z</time>
      </trkpt>
      <trkpt lat="43.59014" lon="1.31088">
        <ele>215.4</ele>
        <time>2023-04-19T16:57:28Z</time>
      </trkpt>
      <trkpt lat="43.5902" lon="1.31093">
        <ele>215.4</ele>
        <time>2023-04-19T16:57:29Z</time>
      </trkpt>
      <trkpt lat="43.59044" lon="1.31116">
        <ele>215.2</ele>
        <time>2023-04-19T16:57:33Z</time>
      </trkpt>
      <trkpt lat="43.59066" lon="1.31137">
        <ele>215.4</ele>
        <time>2023-04-19T16:57:37Z</time>
      </trkpt>
      <trkpt lat="43.59074" lon="1.3115">
        <ele>215.4</ele>
        <time>2023-04-19T16:57:39Z</time>
      </trkpt>
      <trkpt lat="43.59079" lon="1.31166">
        <ele>215.4</ele>
        <time>2023-04-19T16:57:41Z</time>
      </trkpt>
      <trkpt lat="43.59089" lon="1.31177">
        <ele>215.4</ele>
        <time>2023-04-19T16:57:43Z</time>
      </trkpt>
      <trkpt lat="43.591" lon="1.31173">
        <ele>215.4</ele>
        <time>2023-04-19T16:57:45Z</time>
      </trkpt>
      <trkpt lat="43.59105" lon="1.31156">
        <ele>215.4</ele>
        <time>2023-04-19T16:57:47Z</time>
      </trkpt>
      <trkpt lat="43.59106" lon="1.31147">
        <ele>215.4</ele>
        <time>2023-04-19T16:57:48Z</time>
      </trkpt>
      <trkpt lat="43.59107" lon="1.31137">
        <ele>215.4</ele>
        <time>2023-04-19T16:57:49Z</time>
      </trkpt>
      <trkpt lat="43.59109" lon="1.31128">
        <ele>215.4</ele>
        <time>2023-04-19T16:57:50Z</time>
      </trkpt>
      <trkpt lat="43.59117" lon="1.31111">
        <ele>215.4</ele>
        <time>2023-04-19T16:57:52Z</time>
      </trkpt>
      <trkpt lat="43.59147" lon="1.31055">
        <ele>215.4</ele>
        <time>2023-04-19T16:57:59Z</time>
      </trkpt>
      <trkpt lat="43.59179" lon="1.31002">
        <ele>215.4</ele>
        <time>2023-04-19T16:58:06Z</time>
      </trkpt>
      <trkpt lat="43.59192" lon="1.30979">
        <ele>215.4</ele>
        <time>2023-04-19T16:58:09Z</time>
      </trkpt>
      <trkpt lat="43.59197" lon="1.30975">
        <ele>215.4</ele>
        <time>2023-04-19T16:58:10Z</time>
      </trkpt>
      <trkpt lat="43.59204" lon="1.30971">
        <ele>215.4</ele>
        <time>2023-04-19T16:58:11Z</time>
      </trkpt>
      <trkpt lat="43.59215" lon="1.3096">
        <ele>215.6</ele>
        <time>2023-04-19T16:58:13Z</time>
      </trkpt>
      <trkpt lat="43.59219" lon="1.30943">
        <ele>215.6</ele>
        <time>2023-04-19T16:58:15Z</time>
      </trkpt>
      <trkpt lat="43.59219" lon="1.30933">
        <ele>215.6</ele>
        <time>2023-04-19T16:58:16Z</time>
      </trkpt>
      <trkpt lat="43.5922" lon="1.30914">
        <ele>215.6</ele>
        <time>2023-04-19T16:58:18Z</time>
      </trkpt>
      <trkpt lat="43.59223" lon="1.30905">
        <ele>215.6</ele>
        <time>2023-04-19T16:58:19Z</time>
      </trkpt>
      <trkpt lat="43.59226" lon="1.30896">
        <ele>215.6</ele>
        <time>2023-04-19T16:58:20Z</time>
      </trkpt>
      <trkpt lat="43.59235" lon="1.30881">
        <ele>215.8</ele>
        <time>2023-04-19T16:58:22Z</time>
      </trkpt>
      <trkpt lat="43.5924" lon="1.30874">
        <ele>215.8</ele>
        <time>2023-04-19T16:58:23Z</time>
      </trkpt>
      <trkpt lat="43.59246" lon="1.30869">
        <ele>215.8</ele>
        <time>2023-04-19T16:58:24Z</time>
      </trkpt>
      <trkpt lat="43.59259" lon="1.30864">
        <ele>215.6</ele>
        <time>2023-04-19T16:58:26Z</time>
      </trkpt>
      <trkpt lat="43.59294" lon="1.30871">
        <ele>215.6</ele>
        <time>2023-04-19T16:58:31Z</time>
      </trkpt>
      <trkpt lat="43.5935" lon="1.3088">
        <ele>215.4</ele>
        <time>2023-04-19T16:58:39Z</time>
      </trkpt>
      <trkpt lat="43.59371" lon="1.30884">
        <ele>215.2</ele>
        <time>2023-04-19T16:58:42Z</time>
      </trkpt>
      <trkpt lat="43.59429" lon="1.30895">
        <ele>215</ele>
        <time>2023-04-19T16:58:50Z</time>
      </trkpt>
      <trkpt lat="43.59436" lon="1.30896">
        <ele>215</ele>
        <time>2023-04-19T16:58:51Z</time>
      </trkpt>
      <trkpt lat="43.59491" lon="1.30905">
        <ele>214.6</ele>
        <time>2023-04-19T16:58:59Z</time>
      </trkpt>
      <trkpt lat="43.59503" lon="1.30907">
        <ele>214.6</ele>
        <time>2023-04-19T16:59:01Z</time>
      </trkpt>
      <trkpt lat="43.5951" lon="1.30914">
        <ele>214.6</ele>
        <time>2023-04-19T16:59:03Z</time>
      </trkpt>
      <trkpt lat="43.59509" lon="1.30936">
        <ele>214.4</ele>
        <time>2023-04-19T16:59:06Z</time>
      </trkpt>
      <trkpt lat="43.59506" lon="1.30992">
        <ele>215</ele>
        <time>2023-04-19T16:59:13Z</time>
      </trkpt>
      <trkpt lat="43.59505" lon="1.31">
        <ele>215.2</ele>
        <time>2023-04-19T16:59:14Z</time>
      </trkpt>
      <trkpt lat="43.59502" lon="1.31015">
        <ele>215.2</ele>
        <time>2023-04-19T16:59:16Z</time>
      </trkpt>
      <trkpt lat="43.59501" lon="1.31023">
        <ele>215.2</ele>
        <time>2023-04-19T16:59:17Z</time>
      </trkpt>
      <trkpt lat="43.59499" lon="1.31039">
        <ele>215.2</ele>
        <time>2023-04-19T16:59:19Z</time>
      </trkpt>
      <trkpt lat="43.59498" lon="1.31073">
        <ele>215.2</ele>
        <time>2023-04-19T16:59:23Z</time>
      </trkpt>
      <trkpt lat="43.59497" lon="1.31152">
        <ele>215.8</ele>
        <time>2023-04-19T16:59:32Z</time>
      </trkpt>
      <trkpt lat="43.59497" lon="1.31161">
        <ele>215.8</ele>
        <time>2023-04-19T16:59:33Z</time>
      </trkpt>
      <trkpt lat="43.59496" lon="1.3124">
        <ele>215.6</ele>
        <time>2023-04-19T16:59:42Z</time>
      </trkpt>
      <trkpt lat="43.59494" lon="1.31319">
        <ele>216</ele>
        <time>2023-04-19T16:59:51Z</time>
      </trkpt>
      <trkpt lat="43.59494" lon="1.31336">
        <ele>216</ele>
        <time>2023-04-19T16:59:53Z</time>
      </trkpt>
      <trkpt lat="43.59492" lon="1.31415">
        <ele>215.6</ele>
        <time>2023-04-19T17:00:02Z</time>
      </trkpt>
      <trkpt lat="43.59492" lon="1.31423">
        <ele>215.6</ele>
        <time>2023-04-19T17:00:03Z</time>
      </trkpt>
      <trkpt lat="43.59491" lon="1.31502">
        <ele>215.4</ele>
        <time>2023-04-19T17:00:12Z</time>
      </trkpt>
      <trkpt lat="43.59491" lon="1.31519">
        <ele>215.4</ele>
        <time>2023-04-19T17:00:14Z</time>
      </trkpt>
      <trkpt lat="43.59491" lon="1.31603">
        <ele>215.2</ele>
        <time>2023-04-19T17:00:23Z</time>
      </trkpt>
      <trkpt lat="43.59491" lon="1.31611">
        <ele>215</ele>
        <time>2023-04-19T17:00:24Z</time>
      </trkpt>
      <trkpt lat="43.5949" lon="1.31672">
        <ele>215.2</ele>
        <time>2023-04-19T17:00:31Z</time>
      </trkpt>
      <trkpt lat="43.59489" lon="1.31728">
        <ele>215.2</ele>
        <time>2023-04-19T17:00:38Z</time>
      </trkpt>
      <trkpt lat="43.59481" lon="1.31738">
        <ele>215</ele>
        <time>2023-04-19T17:00:41Z</time>
      </trkpt>
      <trkpt lat="43.59443" lon="1.31733">
        <ele>214.6</ele>
        <time>2023-04-19T17:00:49Z</time>
      </trkpt>
      <trkpt lat="43.59434" lon="1.31732">
        <ele>214.6</ele>
        <time>2023-04-19T17:00:51Z</time>
      </trkpt>
      <trkpt lat="43.59424" lon="1.31733">
        <ele>214.6</ele>
        <time>2023-04-19T17:00:53Z</time>
      </trkpt>
      <trkpt lat="43.59419" lon="1.31735">
        <ele>214.6</ele>
        <time>2023-04-19T17:00:54Z</time>
      </trkpt>
      <trkpt lat="43.59414" lon="1.31737">
        <ele>214.6</ele>
        <time>2023-04-19T17:00:55Z</time>
      </trkpt>
      <trkpt lat="43.59402" lon="1.31737">
        <ele>214.6</ele>
        <time>2023-04-19T17:00:57Z</time>
      </trkpt>
      <trkpt lat="43.59397" lon="1.31738">
        <ele>214.6</ele>
        <time>2023-04-19T17:00:58Z</time>
      </trkpt>
      <trkpt lat="43.59391" lon="1.3174">
        <ele>214.6</ele>
        <time>2023-04-19T17:00:59Z</time>
      </trkpt>
      <trkpt lat="43.59376" lon="1.31752">
        <ele>214.6</ele>
        <time>2023-04-19T17:01:02Z</time>
      </trkpt>
      <trkpt lat="43.59349" lon="1.31774">
        <ele>214.6</ele>
        <time>2023-04-19T17:01:08Z</time>
      </trkpt>
      <trkpt lat="43.5934" lon="1.31784">
        <ele>214.6</ele>
        <time>2023-04-19T17:01:12Z</time>
      </trkpt>
      <trkpt lat="43.59338" lon="1.31786">
        <ele>214.6</ele>
        <time>2023-04-19T17:01:13Z</time>
      </trkpt>
      <trkpt lat="43.59331" lon="1.31787">
        <ele>214.4</ele>
        <time>2023-04-19T17:01:15Z</time>
      </trkpt>
      <trkpt lat="43.59323" lon="1.31786">
        <ele>214.4</ele>
        <time>2023-04-19T17:01:17Z</time>
      </trkpt>
      <trkpt lat="43.59314" lon="1.31785">
        <ele>214.2</ele>
        <time>2023-04-19T17:01:19Z</time>
      </trkpt>
      <trkpt lat="43.593" lon="1.31778">
        <ele>214</ele>
        <time>2023-04-19T17:01:22Z</time>
      </trkpt>
      <trkpt lat="43.59291" lon="1.31771">
        <ele>214</ele>
        <time>2023-04-19T17:01:24Z</time>
      </trkpt>
      <trkpt lat="43.59283" lon="1.31761">
        <ele>214</ele>
        <time>2023-04-19T17:01:26Z</time>
      </trkpt>
      <trkpt lat="43.59271" lon="1.31731">
        <ele>214.2</ele>
        <time>2023-04-19T17:01:31Z</time>
      </trkpt>
      <trkpt lat="43.59251" lon="1.31678">
        <ele>214.2</ele>
        <time>2023-04-19T17:01:38Z</time>
      </trkpt>
      <trkpt lat="43.59248" lon="1.3167">
        <ele>214.2</ele>
        <time>2023-04-19T17:01:39Z</time>
      </trkpt>
      <trkpt lat="43.59242" lon="1.31651">
        <ele>214.2</ele>
        <time>2023-04-19T17:01:41Z</time>
      </trkpt>
      <trkpt lat="43.59239" lon="1.31643">
        <ele>214.2</ele>
        <time>2023-04-19T17:01:42Z</time>
      </trkpt>
      <trkpt lat="43.59235" lon="1.31636">
        <ele>214.2</ele>
        <time>2023-04-19T17:01:43Z</time>
      </trkpt>
      <trkpt lat="43.59221" lon="1.31619">
        <ele>214.4</ele>
        <time>2023-04-19T17:01:46Z</time>
      </trkpt>
      <trkpt lat="43.59216" lon="1.31615">
        <ele>214.6</ele>
        <time>2023-04-19T17:01:47Z</time>
      </trkpt>
      <trkpt lat="43.59205" lon="1.31611">
        <ele>214.6</ele>
        <time>2023-04-19T17:01:49Z</time>
      </trkpt>
      <trkpt lat="43.59195" lon="1.31607">
        <ele>214.6</ele>
        <time>2023-04-19T17:01:51Z</time>
      </trkpt>
      <trkpt lat="43.59187" lon="1.31603">
        <ele>214.6</ele>
        <time>2023-04-19T17:01:53Z</time>
      </trkpt>
      <trkpt lat="43.59177" lon="1.31604">
        <ele>214.6</ele>
        <time>2023-04-19T17:01:55Z</time>
      </trkpt>
      <trkpt lat="43.59171" lon="1.31605">
        <ele>214.6</ele>
        <time>2023-04-19T17:01:56Z</time>
      </trkpt>
      <trkpt lat="43.59139" lon="1.31616">
        <ele>214.6</ele>
        <time>2023-04-19T17:02:02Z</time>
      </trkpt>
      <trkpt lat="43.59099" lon="1.31637">
        <ele>214.8</ele>
        <time>2023-04-19T17:02:09Z</time>
      </trkpt>
      <trkpt lat="43.59053" lon="1.31664">
        <ele>215</ele>
        <time>2023-04-19T17:02:17Z</time>
      </trkpt>
      <trkpt lat="43.59002" lon="1.31691">
        <ele>215</ele>
        <time>2023-04-19T17:02:26Z</time>
      </trkpt>
      <trkpt lat="43.58952" lon="1.31719">
        <ele>215</ele>
        <time>2023-04-19T17:02:35Z</time>
      </trkpt>
      <trkpt lat="43.58946" lon="1.31722">
        <ele>215</ele>
        <time>2023-04-19T17:02:36Z</time>
      </trkpt>
      <trkpt lat="43.58895" lon="1.3175">
        <ele>215.2</ele>
        <time>2023-04-19T17:02:45Z</time>
      </trkpt>
      <trkpt lat="43.58883" lon="1.31756">
        <ele>215.4</ele>
        <time>2023-04-19T17:02:47Z</time>
      </trkpt>
      <trkpt lat="43.58877" lon="1.31757">
        <ele>215.4</ele>
        <time>2023-04-19T17:02:48Z</time>
      </trkpt>
      <trkpt lat="43.5887" lon="1.31756">
        <ele>215.4</ele>
        <time>2023-04-19T17:02:49Z</time>
      </trkpt>
      <trkpt lat="43.58854" lon="1.31739">
        <ele>215.2</ele>
        <time>2023-04-19T17:02:52Z</time>
      </trkpt>
      <trkpt lat="43.58819" lon="1.31694">
        <ele>215.2</ele>
        <time>2023-04-19T17:02:59Z</time>
      </trkpt>
      <trkpt lat="43.58794" lon="1.31667">
        <ele>215</ele>
        <time>2023-04-19T17:03:04Z</time>
      </trkpt>
      <trkpt lat="43.58788" lon="1.31663">
        <ele>215</ele>
        <time>2023-04-19T17:03:05Z</time>
      </trkpt>
      <trkpt lat="43.58782" lon="1.31662">
        <ele>215</ele>
        <time>2023-04-19T17:03:06Z</time>
      </trkpt>
      <trkpt lat="43.58772" lon="1.31668">
        <ele>215.2</ele>
        <time>2023-04-19T17:03:08Z</time>
      </trkpt>
      <trkpt lat="43.5875" lon="1.31702">
        <ele>215.4</ele>
        <time>2023-04-19T17:03:14Z</time>
      </trkpt>
      <trkpt lat="43.58728" lon="1.31744">
        <ele>215.4</ele>
        <time>2023-04-19T17:03:21Z</time>
      </trkpt>
      <trkpt lat="43.587" lon="1.31797">
        <ele>215.4</ele>
        <time>2023-04-19T17:03:30Z</time>
      </trkpt>
      <trkpt lat="43.58694" lon="1.31811">
        <ele>215.2</ele>
        <time>2023-04-19T17:03:33Z</time>
      </trkpt>
      <trkpt lat="43.58692" lon="1.31815">
        <ele>215.2</ele>
        <time>2023-04-19T17:03:34Z</time>
      </trkpt>
      <trkpt lat="43.58675" lon="1.31849">
        <ele>214.8</ele>
        <time>2023-04-19T17:03:40Z</time>
      </trkpt>
      <trkpt lat="43.58672" lon="1.31855">
        <ele>214.8</ele>
        <time>2023-04-19T17:03:41Z</time>
      </trkpt>
      <trkpt lat="43.58671" lon="1.31879">
        <ele>214.8</ele>
        <time>2023-04-19T17:03:44Z</time>
      </trkpt>
      <trkpt lat="43.58678" lon="1.31923">
        <ele>214.6</ele>
        <time>2023-04-19T17:03:50Z</time>
      </trkpt>
      <trkpt lat="43.5868" lon="1.31936">
        <ele>214.2</ele>
        <time>2023-04-19T17:03:53Z</time>
      </trkpt>
      <trkpt lat="43.58674" lon="1.31943">
        <ele>214.2</ele>
        <time>2023-04-19T17:03:56Z</time>
      </trkpt>
      <trkpt lat="43.58667" lon="1.31954">
        <ele>214</ele>
        <time>2023-04-19T17:03:59Z</time>
      </trkpt>
      <trkpt lat="43.58666" lon="1.31959">
        <ele>214</ele>
        <time>2023-04-19T17:04:00Z</time>
      </trkpt>
      <trkpt lat="43.58668" lon="1.31964">
        <ele>213.8</ele>
        <time>2023-04-19T17:04:01Z</time>
      </trkpt>
      <trkpt lat="43.58674" lon="1.31974">
        <ele>213.8</ele>
        <time>2023-04-19T17:04:03Z</time>
      </trkpt>
      <trkpt lat="43.5868" lon="1.31984">
        <ele>213.6</ele>
        <time>2023-04-19T17:04:05Z</time>
      </trkpt>
      <trkpt lat="43.58684" lon="1.31999">
        <ele>213.6</ele>
        <time>2023-04-19T17:04:07Z</time>
      </trkpt>
      <trkpt lat="43.58687" lon="1.32033">
        <ele>213.4</ele>
        <time>2023-04-19T17:04:11Z</time>
      </trkpt>
      <trkpt lat="43.58688" lon="1.32051">
        <ele>213.4</ele>
        <time>2023-04-19T17:04:13Z</time>
      </trkpt>
      <trkpt lat="43.58687" lon="1.32078">
        <ele>213.2</ele>
        <time>2023-04-19T17:04:16Z</time>
      </trkpt>
      <trkpt lat="43.58685" lon="1.32128">
        <ele>213.2</ele>
        <time>2023-04-19T17:04:22Z</time>
      </trkpt>
      <trkpt lat="43.58681" lon="1.32176">
        <ele>213.4</ele>
        <time>2023-04-19T17:04:28Z</time>
      </trkpt>
      <trkpt lat="43.58677" lon="1.32222">
        <ele>213.6</ele>
        <time>2023-04-19T17:04:35Z</time>
      </trkpt>
      <trkpt lat="43.58677" lon="1.32231">
        <ele>213.6</ele>
        <time>2023-04-19T17:04:37Z</time>
      </trkpt>
      <trkpt lat="43.58679" lon="1.32233">
        <ele>213.4</ele>
        <time>2023-04-19T17:04:39Z</time>
      </trkpt>
      <trkpt lat="43.5868" lon="1.32229">
        <ele>213</ele>
        <time>2023-04-19T17:04:41Z</time>
      </trkpt>
    </trkseg>
  </trk>
</gpx>